<?xml version="1.0" encoding="UTF-8" standalone="no" ?>
<gpx xmlns="http://www.topografix.com/GPX/1/1" xmlns:xsi="http://www.w3.org/2001/XMLSchema-instance" xsi:schemaLocation="http://www.topografix.com/GPX/1/1 http://www.topografix.com/GPX/1/1/gpx.xsd" version="1.1" creator="VisuGPX - https://www.visugpx.com">
  <metadata>
    <name>Skiing Villard de Lans</name>
    <desc><![CDATA[Ski Vilard de Lans]]></desc>
  </metadata>
  <trk>
    <name><![CDATA[Tracé actuel: 02 FEV 2014 10:51]]></name>
    <trkseg>
      <trkpt lat="45.0484" lon="5.55676">
        <ele>1136.9</ele>
        <time>2014-02-02T09:51:53Z</time>
      </trkpt>
      <trkpt lat="45.0484" lon="5.55669">
        <ele>1137.38</ele>
        <time>2014-02-02T09:52:16Z</time>
      </trkpt>
      <trkpt lat="45.04849" lon="5.55665">
        <ele>1136.9</ele>
        <time>2014-02-02T09:52:45Z</time>
      </trkpt>
      <trkpt lat="45.04844" lon="5.55667">
        <ele>1137.38</ele>
        <time>2014-02-02T09:53:13Z</time>
      </trkpt>
      <trkpt lat="45.04843" lon="5.55679">
        <ele>1137.86</ele>
        <time>2014-02-02T09:54:54Z</time>
      </trkpt>
      <trkpt lat="45.04835" lon="5.55668">
        <ele>1138.34</ele>
        <time>2014-02-02T09:56:20Z</time>
      </trkpt>
      <trkpt lat="45.04815" lon="5.55666">
        <ele>1139.3</ele>
        <time>2014-02-02T09:56:38Z</time>
      </trkpt>
      <trkpt lat="45.04793" lon="5.55673">
        <ele>1141.7</ele>
        <time>2014-02-02T09:56:56Z</time>
      </trkpt>
      <trkpt lat="45.0477" lon="5.55679">
        <ele>1142.66</ele>
        <time>2014-02-02T09:57:15Z</time>
      </trkpt>
      <trkpt lat="45.0476" lon="5.55678">
        <ele>1144.59</ele>
        <time>2014-02-02T09:57:24Z</time>
      </trkpt>
      <trkpt lat="45.0475" lon="5.55681">
        <ele>1143.63</ele>
        <time>2014-02-02T09:57:32Z</time>
      </trkpt>
      <trkpt lat="45.0474" lon="5.55683">
        <ele>1145.55</ele>
        <time>2014-02-02T09:57:40Z</time>
      </trkpt>
      <trkpt lat="45.04732" lon="5.55685">
        <ele>1146.03</ele>
        <time>2014-02-02T09:57:46Z</time>
      </trkpt>
      <trkpt lat="45.04724" lon="5.55686">
        <ele>1146.03</ele>
        <time>2014-02-02T09:57:52Z</time>
      </trkpt>
      <trkpt lat="45.04717" lon="5.55686">
        <ele>1145.07</ele>
        <time>2014-02-02T09:57:58Z</time>
      </trkpt>
      <trkpt lat="45.04691" lon="5.5568">
        <ele>1147.47</ele>
        <time>2014-02-02T09:58:19Z</time>
      </trkpt>
      <trkpt lat="45.04669" lon="5.55669">
        <ele>1148.91</ele>
        <time>2014-02-02T09:58:37Z</time>
      </trkpt>
      <trkpt lat="45.0466" lon="5.55665">
        <ele>1148.91</ele>
        <time>2014-02-02T09:58:46Z</time>
      </trkpt>
      <trkpt lat="45.04654" lon="5.55661">
        <ele>1150.35</ele>
        <time>2014-02-02T09:58:53Z</time>
      </trkpt>
      <trkpt lat="45.04648" lon="5.5566">
        <ele>1149.39</ele>
        <time>2014-02-02T09:58:56Z</time>
      </trkpt>
      <trkpt lat="45.04629" lon="5.55684">
        <ele>1150.84</ele>
        <time>2014-02-02T09:59:16Z</time>
      </trkpt>
      <trkpt lat="45.04625" lon="5.55693">
        <ele>1149.87</ele>
        <time>2014-02-02T09:59:23Z</time>
      </trkpt>
      <trkpt lat="45.04624" lon="5.55704">
        <ele>1149.87</ele>
        <time>2014-02-02T09:59:31Z</time>
      </trkpt>
      <trkpt lat="45.04624" lon="5.55721">
        <ele>1150.84</ele>
        <time>2014-02-02T09:59:45Z</time>
      </trkpt>
      <trkpt lat="45.04617" lon="5.55731">
        <ele>1152.76</ele>
        <time>2014-02-02T09:59:59Z</time>
      </trkpt>
      <trkpt lat="45.04611" lon="5.55756">
        <ele>1153.24</ele>
        <time>2014-02-02T10:00:17Z</time>
      </trkpt>
      <trkpt lat="45.04604" lon="5.55787">
        <ele>1153.24</ele>
        <time>2014-02-02T10:00:38Z</time>
      </trkpt>
      <trkpt lat="45.04601" lon="5.55797">
        <ele>1154.2</ele>
        <time>2014-02-02T10:00:44Z</time>
      </trkpt>
      <trkpt lat="45.04592" lon="5.5582">
        <ele>1155.16</ele>
        <time>2014-02-02T10:01:01Z</time>
      </trkpt>
      <trkpt lat="45.04584" lon="5.55842">
        <ele>1155.16</ele>
        <time>2014-02-02T10:01:16Z</time>
      </trkpt>
      <trkpt lat="45.04578" lon="5.55867">
        <ele>1156.6</ele>
        <time>2014-02-02T10:01:33Z</time>
      </trkpt>
      <trkpt lat="45.04571" lon="5.55893">
        <ele>1157.56</ele>
        <time>2014-02-02T10:01:50Z</time>
      </trkpt>
      <trkpt lat="45.04565" lon="5.55919">
        <ele>1157.56</ele>
        <time>2014-02-02T10:02:07Z</time>
      </trkpt>
      <trkpt lat="45.04555" lon="5.55945">
        <ele>1158.53</ele>
        <time>2014-02-02T10:02:26Z</time>
      </trkpt>
      <trkpt lat="45.04547" lon="5.55964">
        <ele>1159.01</ele>
        <time>2014-02-02T10:02:42Z</time>
      </trkpt>
      <trkpt lat="45.04551" lon="5.55983">
        <ele>1159.97</ele>
        <time>2014-02-02T10:02:58Z</time>
      </trkpt>
      <trkpt lat="45.04544" lon="5.55999">
        <ele>1159.01</ele>
        <time>2014-02-02T10:03:13Z</time>
      </trkpt>
      <trkpt lat="45.04537" lon="5.56006">
        <ele>1159.97</ele>
        <time>2014-02-02T10:03:21Z</time>
      </trkpt>
      <trkpt lat="45.04534" lon="5.56008">
        <ele>1161.41</ele>
        <time>2014-02-02T10:03:24Z</time>
      </trkpt>
      <trkpt lat="45.04528" lon="5.56014">
        <ele>1161.41</ele>
        <time>2014-02-02T10:03:31Z</time>
      </trkpt>
      <trkpt lat="45.04515" lon="5.56014">
        <ele>1161.41</ele>
        <time>2014-02-02T10:03:43Z</time>
      </trkpt>
      <trkpt lat="45.04509" lon="5.56008">
        <ele>1160.45</ele>
        <time>2014-02-02T10:03:58Z</time>
      </trkpt>
      <trkpt lat="45.04506" lon="5.56004">
        <ele>1159.97</ele>
        <time>2014-02-02T10:04:03Z</time>
      </trkpt>
      <trkpt lat="45.04494" lon="5.5599">
        <ele>1161.41</ele>
        <time>2014-02-02T10:04:19Z</time>
      </trkpt>
      <trkpt lat="45.04486" lon="5.55992">
        <ele>1160.93</ele>
        <time>2014-02-02T10:04:32Z</time>
      </trkpt>
      <trkpt lat="45.04491" lon="5.55995">
        <ele>1160.93</ele>
        <time>2014-02-02T10:04:46Z</time>
      </trkpt>
      <trkpt lat="45.04484" lon="5.55996">
        <ele>1161.89</ele>
        <time>2014-02-02T10:04:58Z</time>
      </trkpt>
      <trkpt lat="45.04479" lon="5.56006">
        <ele>1160.45</ele>
        <time>2014-02-02T10:05:12Z</time>
      </trkpt>
      <trkpt lat="45.04478" lon="5.56011">
        <ele>1161.41</ele>
        <time>2014-02-02T10:05:31Z</time>
      </trkpt>
      <trkpt lat="45.04483" lon="5.56005">
        <ele>1161.41</ele>
        <time>2014-02-02T10:05:53Z</time>
      </trkpt>
      <trkpt lat="45.04472" lon="5.55991">
        <ele>1161.41</ele>
        <time>2014-02-02T10:06:11Z</time>
      </trkpt>
      <trkpt lat="45.0446" lon="5.56017">
        <ele>1161.41</ele>
        <time>2014-02-02T10:06:31Z</time>
      </trkpt>
      <trkpt lat="45.04475" lon="5.56021">
        <ele>1161.89</ele>
        <time>2014-02-02T10:06:57Z</time>
      </trkpt>
      <trkpt lat="45.0447" lon="5.55969">
        <ele>1161.41</ele>
        <time>2014-02-02T10:13:07Z</time>
      </trkpt>
      <trkpt lat="45.04482" lon="5.55993">
        <ele>1160.93</ele>
        <time>2014-02-02T10:13:23Z</time>
      </trkpt>
      <trkpt lat="45.04489" lon="5.55989">
        <ele>1159.49</ele>
        <time>2014-02-02T10:13:38Z</time>
      </trkpt>
      <trkpt lat="45.04475" lon="5.55988">
        <ele>1160.45</ele>
        <time>2014-02-02T10:14:04Z</time>
      </trkpt>
      <trkpt lat="45.0447" lon="5.55987">
        <ele>1161.41</ele>
        <time>2014-02-02T10:15:22Z</time>
      </trkpt>
      <trkpt lat="45.04478" lon="5.55985">
        <ele>1161.41</ele>
        <time>2014-02-02T10:16:15Z</time>
      </trkpt>
      <trkpt lat="45.04458" lon="5.56001">
        <ele>1161.89</ele>
        <time>2014-02-02T10:21:32Z</time>
      </trkpt>
      <trkpt lat="45.04451" lon="5.55994">
        <ele>1161.89</ele>
        <time>2014-02-02T10:22:17Z</time>
      </trkpt>
      <trkpt lat="45.04429" lon="5.55997">
        <ele>1165.74</ele>
        <time>2014-02-02T10:22:32Z</time>
      </trkpt>
      <trkpt lat="45.04414" lon="5.5601">
        <ele>1170.06</ele>
        <time>2014-02-02T10:22:34Z</time>
      </trkpt>
      <trkpt lat="45.04405" lon="5.56016">
        <ele>1171.98</ele>
        <time>2014-02-02T10:22:36Z</time>
      </trkpt>
      <trkpt lat="45.04396" lon="5.56022">
        <ele>1176.79</ele>
        <time>2014-02-02T10:22:38Z</time>
      </trkpt>
      <trkpt lat="45.04387" lon="5.56027">
        <ele>1180.64</ele>
        <time>2014-02-02T10:22:40Z</time>
      </trkpt>
      <trkpt lat="45.04379" lon="5.56032">
        <ele>1184.96</ele>
        <time>2014-02-02T10:22:42Z</time>
      </trkpt>
      <trkpt lat="45.0437" lon="5.56038">
        <ele>1188.33</ele>
        <time>2014-02-02T10:22:44Z</time>
      </trkpt>
      <trkpt lat="45.04362" lon="5.56043">
        <ele>1192.17</ele>
        <time>2014-02-02T10:22:46Z</time>
      </trkpt>
      <trkpt lat="45.04353" lon="5.56048">
        <ele>1196.5</ele>
        <time>2014-02-02T10:22:48Z</time>
      </trkpt>
      <trkpt lat="45.04344" lon="5.56053">
        <ele>1200.82</ele>
        <time>2014-02-02T10:22:50Z</time>
      </trkpt>
      <trkpt lat="45.04336" lon="5.56058">
        <ele>1205.63</ele>
        <time>2014-02-02T10:22:52Z</time>
      </trkpt>
      <trkpt lat="45.04328" lon="5.56062">
        <ele>1210.44</ele>
        <time>2014-02-02T10:22:54Z</time>
      </trkpt>
      <trkpt lat="45.04321" lon="5.56067">
        <ele>1215.24</ele>
        <time>2014-02-02T10:22:56Z</time>
      </trkpt>
      <trkpt lat="45.04309" lon="5.56075">
        <ele>1219.09</ele>
        <time>2014-02-02T10:22:59Z</time>
      </trkpt>
      <trkpt lat="45.04297" lon="5.56084">
        <ele>1222.93</ele>
        <time>2014-02-02T10:23:02Z</time>
      </trkpt>
      <trkpt lat="45.04284" lon="5.56092">
        <ele>1227.26</ele>
        <time>2014-02-02T10:23:05Z</time>
      </trkpt>
      <trkpt lat="45.04271" lon="5.561">
        <ele>1231.59</ele>
        <time>2014-02-02T10:23:08Z</time>
      </trkpt>
      <trkpt lat="45.04263" lon="5.56106">
        <ele>1235.43</ele>
        <time>2014-02-02T10:23:10Z</time>
      </trkpt>
      <trkpt lat="45.0425" lon="5.56115">
        <ele>1240.24</ele>
        <time>2014-02-02T10:23:13Z</time>
      </trkpt>
      <trkpt lat="45.04242" lon="5.56121">
        <ele>1243.6</ele>
        <time>2014-02-02T10:23:15Z</time>
      </trkpt>
      <trkpt lat="45.04233" lon="5.56126">
        <ele>1246.97</ele>
        <time>2014-02-02T10:23:17Z</time>
      </trkpt>
      <trkpt lat="45.04225" lon="5.56131">
        <ele>1250.81</ele>
        <time>2014-02-02T10:23:19Z</time>
      </trkpt>
      <trkpt lat="45.04217" lon="5.56136">
        <ele>1254.18</ele>
        <time>2014-02-02T10:23:21Z</time>
      </trkpt>
      <trkpt lat="45.04209" lon="5.56142">
        <ele>1258.02</ele>
        <time>2014-02-02T10:23:23Z</time>
      </trkpt>
      <trkpt lat="45.04201" lon="5.56147">
        <ele>1261.87</ele>
        <time>2014-02-02T10:23:25Z</time>
      </trkpt>
      <trkpt lat="45.04193" lon="5.56152">
        <ele>1265.71</ele>
        <time>2014-02-02T10:23:27Z</time>
      </trkpt>
      <trkpt lat="45.04184" lon="5.56156">
        <ele>1270.04</ele>
        <time>2014-02-02T10:23:29Z</time>
      </trkpt>
      <trkpt lat="45.04176" lon="5.56161">
        <ele>1274.85</ele>
        <time>2014-02-02T10:23:31Z</time>
      </trkpt>
      <trkpt lat="45.04168" lon="5.56167">
        <ele>1278.69</ele>
        <time>2014-02-02T10:23:33Z</time>
      </trkpt>
      <trkpt lat="45.0416" lon="5.56172">
        <ele>1282.06</ele>
        <time>2014-02-02T10:23:35Z</time>
      </trkpt>
      <trkpt lat="45.04152" lon="5.56178">
        <ele>1285.42</ele>
        <time>2014-02-02T10:23:37Z</time>
      </trkpt>
      <trkpt lat="45.04144" lon="5.56183">
        <ele>1289.75</ele>
        <time>2014-02-02T10:23:39Z</time>
      </trkpt>
      <trkpt lat="45.04136" lon="5.56187">
        <ele>1293.59</ele>
        <time>2014-02-02T10:23:41Z</time>
      </trkpt>
      <trkpt lat="45.04128" lon="5.56192">
        <ele>1296.96</ele>
        <time>2014-02-02T10:23:43Z</time>
      </trkpt>
      <trkpt lat="45.0412" lon="5.56197">
        <ele>1301.76</ele>
        <time>2014-02-02T10:23:45Z</time>
      </trkpt>
      <trkpt lat="45.04111" lon="5.56202">
        <ele>1306.09</ele>
        <time>2014-02-02T10:23:47Z</time>
      </trkpt>
      <trkpt lat="45.04103" lon="5.56207">
        <ele>1309.93</ele>
        <time>2014-02-02T10:23:49Z</time>
      </trkpt>
      <trkpt lat="45.04099" lon="5.5621">
        <ele>1312.82</ele>
        <time>2014-02-02T10:23:50Z</time>
      </trkpt>
      <trkpt lat="45.0409" lon="5.56215">
        <ele>1316.66</ele>
        <time>2014-02-02T10:23:52Z</time>
      </trkpt>
      <trkpt lat="45.04086" lon="5.56218">
        <ele>1319.55</ele>
        <time>2014-02-02T10:23:53Z</time>
      </trkpt>
      <trkpt lat="45.04079" lon="5.56223">
        <ele>1324.35</ele>
        <time>2014-02-02T10:23:55Z</time>
      </trkpt>
      <trkpt lat="45.04071" lon="5.56228">
        <ele>1328.68</ele>
        <time>2014-02-02T10:23:57Z</time>
      </trkpt>
      <trkpt lat="45.04062" lon="5.56233">
        <ele>1333.49</ele>
        <time>2014-02-02T10:23:59Z</time>
      </trkpt>
      <trkpt lat="45.04054" lon="5.56239">
        <ele>1338.77</ele>
        <time>2014-02-02T10:24:01Z</time>
      </trkpt>
      <trkpt lat="45.04046" lon="5.56243">
        <ele>1343.58</ele>
        <time>2014-02-02T10:24:03Z</time>
      </trkpt>
      <trkpt lat="45.04039" lon="5.56248">
        <ele>1348.87</ele>
        <time>2014-02-02T10:24:05Z</time>
      </trkpt>
      <trkpt lat="45.04035" lon="5.56251">
        <ele>1352.23</ele>
        <time>2014-02-02T10:24:06Z</time>
      </trkpt>
      <trkpt lat="45.04028" lon="5.56255">
        <ele>1357.04</ele>
        <time>2014-02-02T10:24:08Z</time>
      </trkpt>
      <trkpt lat="45.0402" lon="5.56261">
        <ele>1361.84</ele>
        <time>2014-02-02T10:24:10Z</time>
      </trkpt>
      <trkpt lat="45.04012" lon="5.56266">
        <ele>1365.21</ele>
        <time>2014-02-02T10:24:12Z</time>
      </trkpt>
      <trkpt lat="45.04004" lon="5.56271">
        <ele>1370.5</ele>
        <time>2014-02-02T10:24:14Z</time>
      </trkpt>
      <trkpt lat="45.03997" lon="5.56277">
        <ele>1374.82</ele>
        <time>2014-02-02T10:24:16Z</time>
      </trkpt>
      <trkpt lat="45.03989" lon="5.56282">
        <ele>1379.15</ele>
        <time>2014-02-02T10:24:18Z</time>
      </trkpt>
      <trkpt lat="45.03982" lon="5.56287">
        <ele>1382.51</ele>
        <time>2014-02-02T10:24:20Z</time>
      </trkpt>
      <trkpt lat="45.03974" lon="5.56292">
        <ele>1387.32</ele>
        <time>2014-02-02T10:24:22Z</time>
      </trkpt>
      <trkpt lat="45.03966" lon="5.56297">
        <ele>1392.61</ele>
        <time>2014-02-02T10:24:24Z</time>
      </trkpt>
      <trkpt lat="45.03959" lon="5.56303">
        <ele>1397.89</ele>
        <time>2014-02-02T10:24:26Z</time>
      </trkpt>
      <trkpt lat="45.03951" lon="5.56309">
        <ele>1402.7</ele>
        <time>2014-02-02T10:24:28Z</time>
      </trkpt>
      <trkpt lat="45.03939" lon="5.56317">
        <ele>1406.07</ele>
        <time>2014-02-02T10:24:31Z</time>
      </trkpt>
      <trkpt lat="45.03927" lon="5.56326">
        <ele>1409.91</ele>
        <time>2014-02-02T10:24:34Z</time>
      </trkpt>
      <trkpt lat="45.03915" lon="5.56333">
        <ele>1413.76</ele>
        <time>2014-02-02T10:24:37Z</time>
      </trkpt>
      <trkpt lat="45.03903" lon="5.56341">
        <ele>1418.08</ele>
        <time>2014-02-02T10:24:40Z</time>
      </trkpt>
      <trkpt lat="45.03891" lon="5.56348">
        <ele>1422.41</ele>
        <time>2014-02-02T10:24:43Z</time>
      </trkpt>
      <trkpt lat="45.03878" lon="5.56356">
        <ele>1426.25</ele>
        <time>2014-02-02T10:24:46Z</time>
      </trkpt>
      <trkpt lat="45.0387" lon="5.56362">
        <ele>1429.62</ele>
        <time>2014-02-02T10:24:48Z</time>
      </trkpt>
      <trkpt lat="45.03857" lon="5.5637">
        <ele>1434.42</ele>
        <time>2014-02-02T10:24:51Z</time>
      </trkpt>
      <trkpt lat="45.03848" lon="5.56375">
        <ele>1437.31</ele>
        <time>2014-02-02T10:24:53Z</time>
      </trkpt>
      <trkpt lat="45.03836" lon="5.56383">
        <ele>1442.11</ele>
        <time>2014-02-02T10:24:56Z</time>
      </trkpt>
      <trkpt lat="45.03827" lon="5.56388">
        <ele>1445.96</ele>
        <time>2014-02-02T10:24:58Z</time>
      </trkpt>
      <trkpt lat="45.03814" lon="5.56396">
        <ele>1450.77</ele>
        <time>2014-02-02T10:25:01Z</time>
      </trkpt>
      <trkpt lat="45.03806" lon="5.56402">
        <ele>1455.09</ele>
        <time>2014-02-02T10:25:03Z</time>
      </trkpt>
      <trkpt lat="45.03797" lon="5.56407">
        <ele>1459.42</ele>
        <time>2014-02-02T10:25:05Z</time>
      </trkpt>
      <trkpt lat="45.03785" lon="5.56414">
        <ele>1465.19</ele>
        <time>2014-02-02T10:25:08Z</time>
      </trkpt>
      <trkpt lat="45.03772" lon="5.56423">
        <ele>1468.55</ele>
        <time>2014-02-02T10:25:11Z</time>
      </trkpt>
      <trkpt lat="45.0376" lon="5.56431">
        <ele>1471.92</ele>
        <time>2014-02-02T10:25:14Z</time>
      </trkpt>
      <trkpt lat="45.03742" lon="5.56441">
        <ele>1476.72</ele>
        <time>2014-02-02T10:25:18Z</time>
      </trkpt>
      <trkpt lat="45.03729" lon="5.5645">
        <ele>1480.09</ele>
        <time>2014-02-02T10:25:21Z</time>
      </trkpt>
      <trkpt lat="45.03716" lon="5.56458">
        <ele>1483.93</ele>
        <time>2014-02-02T10:25:24Z</time>
      </trkpt>
      <trkpt lat="45.03708" lon="5.56463">
        <ele>1487.3</ele>
        <time>2014-02-02T10:25:26Z</time>
      </trkpt>
      <trkpt lat="45.037" lon="5.56469">
        <ele>1490.18</ele>
        <time>2014-02-02T10:25:28Z</time>
      </trkpt>
      <trkpt lat="45.03692" lon="5.56474">
        <ele>1494.03</ele>
        <time>2014-02-02T10:25:30Z</time>
      </trkpt>
      <trkpt lat="45.03679" lon="5.56482">
        <ele>1497.87</ele>
        <time>2014-02-02T10:25:33Z</time>
      </trkpt>
      <trkpt lat="45.03666" lon="5.5649">
        <ele>1501.72</ele>
        <time>2014-02-02T10:25:36Z</time>
      </trkpt>
      <trkpt lat="45.03658" lon="5.56495">
        <ele>1505.56</ele>
        <time>2014-02-02T10:25:38Z</time>
      </trkpt>
      <trkpt lat="45.0365" lon="5.56501">
        <ele>1508.45</ele>
        <time>2014-02-02T10:25:40Z</time>
      </trkpt>
      <trkpt lat="45.03641" lon="5.56506">
        <ele>1512.29</ele>
        <time>2014-02-02T10:25:42Z</time>
      </trkpt>
      <trkpt lat="45.03633" lon="5.56511">
        <ele>1515.66</ele>
        <time>2014-02-02T10:25:44Z</time>
      </trkpt>
      <trkpt lat="45.03624" lon="5.56517">
        <ele>1519.98</ele>
        <time>2014-02-02T10:25:46Z</time>
      </trkpt>
      <trkpt lat="45.03616" lon="5.56522">
        <ele>1523.35</ele>
        <time>2014-02-02T10:25:48Z</time>
      </trkpt>
      <trkpt lat="45.03608" lon="5.56527">
        <ele>1527.19</ele>
        <time>2014-02-02T10:25:50Z</time>
      </trkpt>
      <trkpt lat="45.036" lon="5.56532">
        <ele>1530.56</ele>
        <time>2014-02-02T10:25:52Z</time>
      </trkpt>
      <trkpt lat="45.03592" lon="5.56537">
        <ele>1534.88</ele>
        <time>2014-02-02T10:25:54Z</time>
      </trkpt>
      <trkpt lat="45.03584" lon="5.56543">
        <ele>1538.25</ele>
        <time>2014-02-02T10:25:56Z</time>
      </trkpt>
      <trkpt lat="45.03576" lon="5.56548">
        <ele>1541.61</ele>
        <time>2014-02-02T10:25:58Z</time>
      </trkpt>
      <trkpt lat="45.03567" lon="5.56553">
        <ele>1545.46</ele>
        <time>2014-02-02T10:26:00Z</time>
      </trkpt>
      <trkpt lat="45.03559" lon="5.56558">
        <ele>1549.3</ele>
        <time>2014-02-02T10:26:02Z</time>
      </trkpt>
      <trkpt lat="45.03551" lon="5.56564">
        <ele>1553.15</ele>
        <time>2014-02-02T10:26:04Z</time>
      </trkpt>
      <trkpt lat="45.03543" lon="5.56569">
        <ele>1556.51</ele>
        <time>2014-02-02T10:26:06Z</time>
      </trkpt>
      <trkpt lat="45.03535" lon="5.56574">
        <ele>1561.8</ele>
        <time>2014-02-02T10:26:08Z</time>
      </trkpt>
      <trkpt lat="45.03526" lon="5.56579">
        <ele>1565.64</ele>
        <time>2014-02-02T10:26:10Z</time>
      </trkpt>
      <trkpt lat="45.03518" lon="5.56584">
        <ele>1569.97</ele>
        <time>2014-02-02T10:26:12Z</time>
      </trkpt>
      <trkpt lat="45.0351" lon="5.56589">
        <ele>1574.78</ele>
        <time>2014-02-02T10:26:14Z</time>
      </trkpt>
      <trkpt lat="45.03503" lon="5.56593">
        <ele>1579.1</ele>
        <time>2014-02-02T10:26:16Z</time>
      </trkpt>
      <trkpt lat="45.03494" lon="5.56599">
        <ele>1582.47</ele>
        <time>2014-02-02T10:26:18Z</time>
      </trkpt>
      <trkpt lat="45.03482" lon="5.56607">
        <ele>1586.79</ele>
        <time>2014-02-02T10:26:21Z</time>
      </trkpt>
      <trkpt lat="45.03474" lon="5.56612">
        <ele>1590.16</ele>
        <time>2014-02-02T10:26:23Z</time>
      </trkpt>
      <trkpt lat="45.03462" lon="5.56621">
        <ele>1594.48</ele>
        <time>2014-02-02T10:26:26Z</time>
      </trkpt>
      <trkpt lat="45.0345" lon="5.56628">
        <ele>1599.29</ele>
        <time>2014-02-02T10:26:29Z</time>
      </trkpt>
      <trkpt lat="45.03441" lon="5.56634">
        <ele>1602.17</ele>
        <time>2014-02-02T10:26:31Z</time>
      </trkpt>
      <trkpt lat="45.03433" lon="5.56639">
        <ele>1605.54</ele>
        <time>2014-02-02T10:26:33Z</time>
      </trkpt>
      <trkpt lat="45.03425" lon="5.56644">
        <ele>1608.9</ele>
        <time>2014-02-02T10:26:35Z</time>
      </trkpt>
      <trkpt lat="45.03417" lon="5.5665">
        <ele>1612.75</ele>
        <time>2014-02-02T10:26:37Z</time>
      </trkpt>
      <trkpt lat="45.03409" lon="5.56655">
        <ele>1616.11</ele>
        <time>2014-02-02T10:26:39Z</time>
      </trkpt>
      <trkpt lat="45.03401" lon="5.5666">
        <ele>1620.44</ele>
        <time>2014-02-02T10:26:41Z</time>
      </trkpt>
      <trkpt lat="45.03392" lon="5.56666">
        <ele>1623.8</ele>
        <time>2014-02-02T10:26:43Z</time>
      </trkpt>
      <trkpt lat="45.03384" lon="5.56671">
        <ele>1628.61</ele>
        <time>2014-02-02T10:26:45Z</time>
      </trkpt>
      <trkpt lat="45.03376" lon="5.56676">
        <ele>1632.94</ele>
        <time>2014-02-02T10:26:47Z</time>
      </trkpt>
      <trkpt lat="45.03364" lon="5.56684">
        <ele>1636.78</ele>
        <time>2014-02-02T10:26:50Z</time>
      </trkpt>
      <trkpt lat="45.03352" lon="5.56692">
        <ele>1641.11</ele>
        <time>2014-02-02T10:26:53Z</time>
      </trkpt>
      <trkpt lat="45.0334" lon="5.56701">
        <ele>1644.95</ele>
        <time>2014-02-02T10:26:56Z</time>
      </trkpt>
      <trkpt lat="45.03331" lon="5.56706">
        <ele>1648.32</ele>
        <time>2014-02-02T10:26:58Z</time>
      </trkpt>
      <trkpt lat="45.03323" lon="5.56711">
        <ele>1651.68</ele>
        <time>2014-02-02T10:27:00Z</time>
      </trkpt>
      <trkpt lat="45.03315" lon="5.56716">
        <ele>1655.53</ele>
        <time>2014-02-02T10:27:02Z</time>
      </trkpt>
      <trkpt lat="45.03302" lon="5.56724">
        <ele>1659.37</ele>
        <time>2014-02-02T10:27:05Z</time>
      </trkpt>
      <trkpt lat="45.03294" lon="5.56729">
        <ele>1663.7</ele>
        <time>2014-02-02T10:27:07Z</time>
      </trkpt>
      <trkpt lat="45.03286" lon="5.56734">
        <ele>1667.06</ele>
        <time>2014-02-02T10:27:09Z</time>
      </trkpt>
      <trkpt lat="45.03277" lon="5.56739">
        <ele>1670.91</ele>
        <time>2014-02-02T10:27:11Z</time>
      </trkpt>
      <trkpt lat="45.03269" lon="5.56744">
        <ele>1674.27</ele>
        <time>2014-02-02T10:27:13Z</time>
      </trkpt>
      <trkpt lat="45.03261" lon="5.56749">
        <ele>1677.64</ele>
        <time>2014-02-02T10:27:15Z</time>
      </trkpt>
      <trkpt lat="45.0324" lon="5.56764">
        <ele>1681</ele>
        <time>2014-02-02T10:27:20Z</time>
      </trkpt>
      <trkpt lat="45.03224" lon="5.56775">
        <ele>1683.89</ele>
        <time>2014-02-02T10:27:24Z</time>
      </trkpt>
      <trkpt lat="45.03203" lon="5.56788">
        <ele>1686.77</ele>
        <time>2014-02-02T10:27:29Z</time>
      </trkpt>
      <trkpt lat="45.03186" lon="5.56799">
        <ele>1690.62</ele>
        <time>2014-02-02T10:27:33Z</time>
      </trkpt>
      <trkpt lat="45.0317" lon="5.56811">
        <ele>1694.46</ele>
        <time>2014-02-02T10:27:37Z</time>
      </trkpt>
      <trkpt lat="45.03153" lon="5.56822">
        <ele>1697.83</ele>
        <time>2014-02-02T10:27:41Z</time>
      </trkpt>
      <trkpt lat="45.0314" lon="5.5683">
        <ele>1702.15</ele>
        <time>2014-02-02T10:27:44Z</time>
      </trkpt>
      <trkpt lat="45.03127" lon="5.56838">
        <ele>1705.52</ele>
        <time>2014-02-02T10:27:47Z</time>
      </trkpt>
      <trkpt lat="45.03115" lon="5.56846">
        <ele>1709.36</ele>
        <time>2014-02-02T10:27:50Z</time>
      </trkpt>
      <trkpt lat="45.03102" lon="5.56854">
        <ele>1713.21</ele>
        <time>2014-02-02T10:27:53Z</time>
      </trkpt>
      <trkpt lat="45.03089" lon="5.56862">
        <ele>1717.53</ele>
        <time>2014-02-02T10:27:56Z</time>
      </trkpt>
      <trkpt lat="45.03081" lon="5.56868">
        <ele>1720.9</ele>
        <time>2014-02-02T10:27:58Z</time>
      </trkpt>
      <trkpt lat="45.03068" lon="5.56876">
        <ele>1724.26</ele>
        <time>2014-02-02T10:28:01Z</time>
      </trkpt>
      <trkpt lat="45.0306" lon="5.56881">
        <ele>1727.63</ele>
        <time>2014-02-02T10:28:03Z</time>
      </trkpt>
      <trkpt lat="45.03051" lon="5.56886">
        <ele>1730.99</ele>
        <time>2014-02-02T10:28:05Z</time>
      </trkpt>
      <trkpt lat="45.03034" lon="5.56898">
        <ele>1733.88</ele>
        <time>2014-02-02T10:28:09Z</time>
      </trkpt>
      <trkpt lat="45.0303" lon="5.56901">
        <ele>1733.88</ele>
        <time>2014-02-02T10:28:10Z</time>
      </trkpt>
      <trkpt lat="45.03014" lon="5.56912">
        <ele>1737.72</ele>
        <time>2014-02-02T10:28:14Z</time>
      </trkpt>
      <trkpt lat="45.03009" lon="5.56915">
        <ele>1738.2</ele>
        <time>2014-02-02T10:28:15Z</time>
      </trkpt>
      <trkpt lat="45.02997" lon="5.56923">
        <ele>1741.57</ele>
        <time>2014-02-02T10:28:18Z</time>
      </trkpt>
      <trkpt lat="45.02993" lon="5.56926">
        <ele>1741.57</ele>
        <time>2014-02-02T10:28:19Z</time>
      </trkpt>
      <trkpt lat="45.02977" lon="5.56936">
        <ele>1743.01</ele>
        <time>2014-02-02T10:28:28Z</time>
      </trkpt>
      <trkpt lat="45.02971" lon="5.56941">
        <ele>1743.01</ele>
        <time>2014-02-02T10:28:48Z</time>
      </trkpt>
      <trkpt lat="45.02968" lon="5.56953">
        <ele>1743.97</ele>
        <time>2014-02-02T10:29:07Z</time>
      </trkpt>
      <trkpt lat="45.02972" lon="5.56953">
        <ele>1743.01</ele>
        <time>2014-02-02T10:31:43Z</time>
      </trkpt>
      <trkpt lat="45.02971" lon="5.56961">
        <ele>1739.64</ele>
        <time>2014-02-02T10:34:09Z</time>
      </trkpt>
      <trkpt lat="45.02971" lon="5.56965">
        <ele>1739.64</ele>
        <time>2014-02-02T10:34:39Z</time>
      </trkpt>
      <trkpt lat="45.02971" lon="5.56979">
        <ele>1735.32</ele>
        <time>2014-02-02T10:34:48Z</time>
      </trkpt>
      <trkpt lat="45.02973" lon="5.56987">
        <ele>1736.28</ele>
        <time>2014-02-02T10:34:53Z</time>
      </trkpt>
      <trkpt lat="45.02974" lon="5.56996">
        <ele>1740.6</ele>
        <time>2014-02-02T10:34:58Z</time>
      </trkpt>
      <trkpt lat="45.02975" lon="5.57">
        <ele>1741.57</ele>
        <time>2014-02-02T10:35:00Z</time>
      </trkpt>
      <trkpt lat="45.02978" lon="5.5701">
        <ele>1738.2</ele>
        <time>2014-02-02T10:35:05Z</time>
      </trkpt>
      <trkpt lat="45.0298" lon="5.57029">
        <ele>1736.76</ele>
        <time>2014-02-02T10:35:11Z</time>
      </trkpt>
      <trkpt lat="45.02978" lon="5.57035">
        <ele>1736.28</ele>
        <time>2014-02-02T10:35:33Z</time>
      </trkpt>
      <trkpt lat="45.02977" lon="5.5704">
        <ele>1736.28</ele>
        <time>2014-02-02T10:35:35Z</time>
      </trkpt>
      <trkpt lat="45.02975" lon="5.57046">
        <ele>1736.28</ele>
        <time>2014-02-02T10:35:37Z</time>
      </trkpt>
      <trkpt lat="45.02974" lon="5.57052">
        <ele>1732.91</ele>
        <time>2014-02-02T10:35:39Z</time>
      </trkpt>
      <trkpt lat="45.02977" lon="5.57054">
        <ele>1732.43</ele>
        <time>2014-02-02T10:35:41Z</time>
      </trkpt>
      <trkpt lat="45.0298" lon="5.5706">
        <ele>1733.39</ele>
        <time>2014-02-02T10:35:43Z</time>
      </trkpt>
      <trkpt lat="45.0298" lon="5.57068">
        <ele>1729.07</ele>
        <time>2014-02-02T10:35:45Z</time>
      </trkpt>
      <trkpt lat="45.02979" lon="5.57073">
        <ele>1728.11</ele>
        <time>2014-02-02T10:35:46Z</time>
      </trkpt>
      <trkpt lat="45.02978" lon="5.57077">
        <ele>1727.15</ele>
        <time>2014-02-02T10:35:47Z</time>
      </trkpt>
      <trkpt lat="45.02974" lon="5.57088">
        <ele>1723.3</ele>
        <time>2014-02-02T10:35:50Z</time>
      </trkpt>
      <trkpt lat="45.02979" lon="5.57088">
        <ele>1720.42</ele>
        <time>2014-02-02T10:35:54Z</time>
      </trkpt>
      <trkpt lat="45.02982" lon="5.57086">
        <ele>1721.86</ele>
        <time>2014-02-02T10:35:55Z</time>
      </trkpt>
      <trkpt lat="45.02988" lon="5.57087">
        <ele>1720.9</ele>
        <time>2014-02-02T10:35:57Z</time>
      </trkpt>
      <trkpt lat="45.0299" lon="5.57097">
        <ele>1718.01</ele>
        <time>2014-02-02T10:36:00Z</time>
      </trkpt>
      <trkpt lat="45.02994" lon="5.57098">
        <ele>1716.09</ele>
        <time>2014-02-02T10:36:05Z</time>
      </trkpt>
      <trkpt lat="45.03002" lon="5.57095">
        <ele>1715.61</ele>
        <time>2014-02-02T10:36:08Z</time>
      </trkpt>
      <trkpt lat="45.03008" lon="5.57102">
        <ele>1712.73</ele>
        <time>2014-02-02T10:36:11Z</time>
      </trkpt>
      <trkpt lat="45.03021" lon="5.57108">
        <ele>1703.59</ele>
        <time>2014-02-02T10:38:14Z</time>
      </trkpt>
      <trkpt lat="45.03025" lon="5.5711">
        <ele>1706.48</ele>
        <time>2014-02-02T10:38:15Z</time>
      </trkpt>
      <trkpt lat="45.03029" lon="5.57111">
        <ele>1702.63</ele>
        <time>2014-02-02T10:38:16Z</time>
      </trkpt>
      <trkpt lat="45.03036" lon="5.57115">
        <ele>1700.71</ele>
        <time>2014-02-02T10:38:18Z</time>
      </trkpt>
      <trkpt lat="45.03041" lon="5.57116">
        <ele>1697.34</ele>
        <time>2014-02-02T10:38:19Z</time>
      </trkpt>
      <trkpt lat="45.03044" lon="5.57119">
        <ele>1697.34</ele>
        <time>2014-02-02T10:38:20Z</time>
      </trkpt>
      <trkpt lat="45.03046" lon="5.57125">
        <ele>1698.79</ele>
        <time>2014-02-02T10:38:21Z</time>
      </trkpt>
      <trkpt lat="45.03053" lon="5.57141">
        <ele>1694.46</ele>
        <time>2014-02-02T10:38:24Z</time>
      </trkpt>
      <trkpt lat="45.03061" lon="5.5715">
        <ele>1693.02</ele>
        <time>2014-02-02T10:38:27Z</time>
      </trkpt>
      <trkpt lat="45.03073" lon="5.57145">
        <ele>1689.17</ele>
        <time>2014-02-02T10:38:46Z</time>
      </trkpt>
      <trkpt lat="45.03084" lon="5.57139">
        <ele>1688.21</ele>
        <time>2014-02-02T10:38:49Z</time>
      </trkpt>
      <trkpt lat="45.03093" lon="5.57137">
        <ele>1685.33</ele>
        <time>2014-02-02T10:38:51Z</time>
      </trkpt>
      <trkpt lat="45.03104" lon="5.57133">
        <ele>1681.96</ele>
        <time>2014-02-02T10:38:54Z</time>
      </trkpt>
      <trkpt lat="45.03118" lon="5.57128">
        <ele>1678.12</ele>
        <time>2014-02-02T10:38:57Z</time>
      </trkpt>
      <trkpt lat="45.03127" lon="5.57128">
        <ele>1680.52</ele>
        <time>2014-02-02T10:38:59Z</time>
      </trkpt>
      <trkpt lat="45.0314" lon="5.57124">
        <ele>1673.31</ele>
        <time>2014-02-02T10:39:02Z</time>
      </trkpt>
      <trkpt lat="45.03149" lon="5.57122">
        <ele>1673.31</ele>
        <time>2014-02-02T10:39:04Z</time>
      </trkpt>
      <trkpt lat="45.03164" lon="5.57119">
        <ele>1666.1</ele>
        <time>2014-02-02T10:39:08Z</time>
      </trkpt>
      <trkpt lat="45.03171" lon="5.57119">
        <ele>1665.14</ele>
        <time>2014-02-02T10:39:10Z</time>
      </trkpt>
      <trkpt lat="45.03181" lon="5.57122">
        <ele>1661.3</ele>
        <time>2014-02-02T10:39:13Z</time>
      </trkpt>
      <trkpt lat="45.03193" lon="5.5712">
        <ele>1657.93</ele>
        <time>2014-02-02T10:39:16Z</time>
      </trkpt>
      <trkpt lat="45.03198" lon="5.57119">
        <ele>1656.97</ele>
        <time>2014-02-02T10:39:17Z</time>
      </trkpt>
      <trkpt lat="45.03218" lon="5.57117">
        <ele>1650.72</ele>
        <time>2014-02-02T10:39:21Z</time>
      </trkpt>
      <trkpt lat="45.03223" lon="5.57116">
        <ele>1651.2</ele>
        <time>2014-02-02T10:39:22Z</time>
      </trkpt>
      <trkpt lat="45.03228" lon="5.57116">
        <ele>1648.32</ele>
        <time>2014-02-02T10:39:23Z</time>
      </trkpt>
      <trkpt lat="45.03233" lon="5.57114">
        <ele>1648.8</ele>
        <time>2014-02-02T10:39:24Z</time>
      </trkpt>
      <trkpt lat="45.03253" lon="5.57113">
        <ele>1643.99</ele>
        <time>2014-02-02T10:39:28Z</time>
      </trkpt>
      <trkpt lat="45.03261" lon="5.57111">
        <ele>1644.95</ele>
        <time>2014-02-02T10:39:34Z</time>
      </trkpt>
      <trkpt lat="45.03264" lon="5.57111">
        <ele>1643.51</ele>
        <time>2014-02-02T10:39:55Z</time>
      </trkpt>
      <trkpt lat="45.03273" lon="5.57105">
        <ele>1641.59</ele>
        <time>2014-02-02T10:40:00Z</time>
      </trkpt>
      <trkpt lat="45.03276" lon="5.57103">
        <ele>1643.03</ele>
        <time>2014-02-02T10:40:01Z</time>
      </trkpt>
      <trkpt lat="45.03284" lon="5.571">
        <ele>1639.67</ele>
        <time>2014-02-02T10:40:03Z</time>
      </trkpt>
      <trkpt lat="45.03308" lon="5.57091">
        <ele>1638.22</ele>
        <time>2014-02-02T10:40:08Z</time>
      </trkpt>
      <trkpt lat="45.03317" lon="5.57092">
        <ele>1636.78</ele>
        <time>2014-02-02T10:40:10Z</time>
      </trkpt>
      <trkpt lat="45.03337" lon="5.57088">
        <ele>1631.49</ele>
        <time>2014-02-02T10:40:14Z</time>
      </trkpt>
      <trkpt lat="45.03355" lon="5.57088">
        <ele>1628.13</ele>
        <time>2014-02-02T10:40:18Z</time>
      </trkpt>
      <trkpt lat="45.03359" lon="5.5709">
        <ele>1629.57</ele>
        <time>2014-02-02T10:40:19Z</time>
      </trkpt>
      <trkpt lat="45.03375" lon="5.57108">
        <ele>1625.25</ele>
        <time>2014-02-02T10:40:24Z</time>
      </trkpt>
      <trkpt lat="45.03378" lon="5.57111">
        <ele>1624.77</ele>
        <time>2014-02-02T10:40:25Z</time>
      </trkpt>
      <trkpt lat="45.03399" lon="5.57118">
        <ele>1620.92</ele>
        <time>2014-02-02T10:40:30Z</time>
      </trkpt>
      <trkpt lat="45.03409" lon="5.57118">
        <ele>1618.52</ele>
        <time>2014-02-02T10:40:32Z</time>
      </trkpt>
      <trkpt lat="45.0342" lon="5.57119">
        <ele>1617.07</ele>
        <time>2014-02-02T10:40:34Z</time>
      </trkpt>
      <trkpt lat="45.0343" lon="5.57118">
        <ele>1615.63</ele>
        <time>2014-02-02T10:40:36Z</time>
      </trkpt>
      <trkpt lat="45.03442" lon="5.57118">
        <ele>1612.27</ele>
        <time>2014-02-02T10:40:38Z</time>
      </trkpt>
      <trkpt lat="45.03468" lon="5.57119">
        <ele>1606.5</ele>
        <time>2014-02-02T10:40:42Z</time>
      </trkpt>
      <trkpt lat="45.03475" lon="5.57119">
        <ele>1606.02</ele>
        <time>2014-02-02T10:40:43Z</time>
      </trkpt>
      <trkpt lat="45.03527" lon="5.57114">
        <ele>1600.73</ele>
        <time>2014-02-02T10:40:52Z</time>
      </trkpt>
      <trkpt lat="45.03542" lon="5.57113">
        <ele>1597.85</ele>
        <time>2014-02-02T10:40:55Z</time>
      </trkpt>
      <trkpt lat="45.0357" lon="5.57112">
        <ele>1594</ele>
        <time>2014-02-02T10:41:00Z</time>
      </trkpt>
      <trkpt lat="45.03576" lon="5.57111">
        <ele>1594.96</ele>
        <time>2014-02-02T10:41:01Z</time>
      </trkpt>
      <trkpt lat="45.03588" lon="5.57107">
        <ele>1592.08</ele>
        <time>2014-02-02T10:41:03Z</time>
      </trkpt>
      <trkpt lat="45.03599" lon="5.57106">
        <ele>1588.72</ele>
        <time>2014-02-02T10:41:05Z</time>
      </trkpt>
      <trkpt lat="45.0361" lon="5.57108">
        <ele>1585.35</ele>
        <time>2014-02-02T10:41:07Z</time>
      </trkpt>
      <trkpt lat="45.03616" lon="5.5711">
        <ele>1585.35</ele>
        <time>2014-02-02T10:41:08Z</time>
      </trkpt>
      <trkpt lat="45.03626" lon="5.57114">
        <ele>1583.43</ele>
        <time>2014-02-02T10:41:10Z</time>
      </trkpt>
      <trkpt lat="45.03631" lon="5.57115">
        <ele>1580.54</ele>
        <time>2014-02-02T10:41:11Z</time>
      </trkpt>
      <trkpt lat="45.03649" lon="5.57119">
        <ele>1575.74</ele>
        <time>2014-02-02T10:41:16Z</time>
      </trkpt>
      <trkpt lat="45.03659" lon="5.57123">
        <ele>1573.33</ele>
        <time>2014-02-02T10:41:52Z</time>
      </trkpt>
      <trkpt lat="45.03669" lon="5.57132">
        <ele>1569.01</ele>
        <time>2014-02-02T10:41:55Z</time>
      </trkpt>
      <trkpt lat="45.03671" lon="5.57144">
        <ele>1568.53</ele>
        <time>2014-02-02T10:41:57Z</time>
      </trkpt>
      <trkpt lat="45.03675" lon="5.57174">
        <ele>1564.68</ele>
        <time>2014-02-02T10:42:05Z</time>
      </trkpt>
      <trkpt lat="45.03682" lon="5.5718">
        <ele>1562.76</ele>
        <time>2014-02-02T10:42:07Z</time>
      </trkpt>
      <trkpt lat="45.03693" lon="5.57183">
        <ele>1561.8</ele>
        <time>2014-02-02T10:42:09Z</time>
      </trkpt>
      <trkpt lat="45.03714" lon="5.57178">
        <ele>1554.11</ele>
        <time>2014-02-02T10:42:13Z</time>
      </trkpt>
      <trkpt lat="45.03723" lon="5.57175">
        <ele>1551.22</ele>
        <time>2014-02-02T10:42:15Z</time>
      </trkpt>
      <trkpt lat="45.03739" lon="5.5717">
        <ele>1546.9</ele>
        <time>2014-02-02T10:42:18Z</time>
      </trkpt>
      <trkpt lat="45.03754" lon="5.57165">
        <ele>1541.13</ele>
        <time>2014-02-02T10:42:21Z</time>
      </trkpt>
      <trkpt lat="45.0377" lon="5.57164">
        <ele>1538.25</ele>
        <time>2014-02-02T10:42:24Z</time>
      </trkpt>
      <trkpt lat="45.03776" lon="5.57163">
        <ele>1536.32</ele>
        <time>2014-02-02T10:42:25Z</time>
      </trkpt>
      <trkpt lat="45.03781" lon="5.57158">
        <ele>1535.84</ele>
        <time>2014-02-02T10:42:26Z</time>
      </trkpt>
      <trkpt lat="45.03786" lon="5.57153">
        <ele>1533.44</ele>
        <time>2014-02-02T10:42:27Z</time>
      </trkpt>
      <trkpt lat="45.03792" lon="5.57149">
        <ele>1532</ele>
        <time>2014-02-02T10:42:28Z</time>
      </trkpt>
      <trkpt lat="45.03798" lon="5.57145">
        <ele>1531.52</ele>
        <time>2014-02-02T10:42:29Z</time>
      </trkpt>
      <trkpt lat="45.03804" lon="5.57141">
        <ele>1531.04</ele>
        <time>2014-02-02T10:42:30Z</time>
      </trkpt>
      <trkpt lat="45.0381" lon="5.57139">
        <ele>1530.08</ele>
        <time>2014-02-02T10:42:31Z</time>
      </trkpt>
      <trkpt lat="45.0382" lon="5.57136">
        <ele>1531.52</ele>
        <time>2014-02-02T10:42:33Z</time>
      </trkpt>
      <trkpt lat="45.03828" lon="5.57131">
        <ele>1528.15</ele>
        <time>2014-02-02T10:42:35Z</time>
      </trkpt>
      <trkpt lat="45.03856" lon="5.57122">
        <ele>1529.59</ele>
        <time>2014-02-02T10:42:43Z</time>
      </trkpt>
      <trkpt lat="45.03868" lon="5.57122">
        <ele>1528.63</ele>
        <time>2014-02-02T10:42:47Z</time>
      </trkpt>
      <trkpt lat="45.03907" lon="5.57109">
        <ele>1525.27</ele>
        <time>2014-02-02T10:43:01Z</time>
      </trkpt>
      <trkpt lat="45.03926" lon="5.57095">
        <ele>1522.39</ele>
        <time>2014-02-02T10:43:11Z</time>
      </trkpt>
      <trkpt lat="45.03934" lon="5.57083">
        <ele>1522.39</ele>
        <time>2014-02-02T10:43:24Z</time>
      </trkpt>
      <trkpt lat="45.03932" lon="5.57074">
        <ele>1523.83</ele>
        <time>2014-02-02T10:43:46Z</time>
      </trkpt>
      <trkpt lat="45.03928" lon="5.57064">
        <ele>1522.39</ele>
        <time>2014-02-02T10:44:02Z</time>
      </trkpt>
      <trkpt lat="45.03923" lon="5.57061">
        <ele>1521.42</ele>
        <time>2014-02-02T10:44:18Z</time>
      </trkpt>
      <trkpt lat="45.03916" lon="5.5706">
        <ele>1521.9</ele>
        <time>2014-02-02T10:44:43Z</time>
      </trkpt>
      <trkpt lat="45.03912" lon="5.57058">
        <ele>1520.94</ele>
        <time>2014-02-02T10:44:57Z</time>
      </trkpt>
      <trkpt lat="45.03904" lon="5.57058">
        <ele>1519.98</ele>
        <time>2014-02-02T10:45:13Z</time>
      </trkpt>
      <trkpt lat="45.03893" lon="5.57058">
        <ele>1522.87</ele>
        <time>2014-02-02T10:45:20Z</time>
      </trkpt>
      <trkpt lat="45.03856" lon="5.57062">
        <ele>1526.71</ele>
        <time>2014-02-02T10:45:29Z</time>
      </trkpt>
      <trkpt lat="45.03849" lon="5.57062">
        <ele>1531.04</ele>
        <time>2014-02-02T10:45:31Z</time>
      </trkpt>
      <trkpt lat="45.03832" lon="5.57062">
        <ele>1533.92</ele>
        <time>2014-02-02T10:45:35Z</time>
      </trkpt>
      <trkpt lat="45.0382" lon="5.57062">
        <ele>1536.8</ele>
        <time>2014-02-02T10:45:38Z</time>
      </trkpt>
      <trkpt lat="45.03808" lon="5.57062">
        <ele>1540.17</ele>
        <time>2014-02-02T10:45:41Z</time>
      </trkpt>
      <trkpt lat="45.03804" lon="5.57062">
        <ele>1540.17</ele>
        <time>2014-02-02T10:45:42Z</time>
      </trkpt>
      <trkpt lat="45.03792" lon="5.57062">
        <ele>1543.53</ele>
        <time>2014-02-02T10:45:45Z</time>
      </trkpt>
      <trkpt lat="45.0378" lon="5.57062">
        <ele>1548.34</ele>
        <time>2014-02-02T10:45:48Z</time>
      </trkpt>
      <trkpt lat="45.03776" lon="5.57063">
        <ele>1548.34</ele>
        <time>2014-02-02T10:45:49Z</time>
      </trkpt>
      <trkpt lat="45.0376" lon="5.57062">
        <ele>1550.74</ele>
        <time>2014-02-02T10:45:53Z</time>
      </trkpt>
      <trkpt lat="45.03739" lon="5.57062">
        <ele>1554.59</ele>
        <time>2014-02-02T10:45:58Z</time>
      </trkpt>
      <trkpt lat="45.03735" lon="5.57062">
        <ele>1554.59</ele>
        <time>2014-02-02T10:45:59Z</time>
      </trkpt>
      <trkpt lat="45.03719" lon="5.57062">
        <ele>1558.43</ele>
        <time>2014-02-02T10:46:03Z</time>
      </trkpt>
      <trkpt lat="45.03708" lon="5.57061">
        <ele>1561.8</ele>
        <time>2014-02-02T10:46:06Z</time>
      </trkpt>
      <trkpt lat="45.03696" lon="5.57062">
        <ele>1564.68</ele>
        <time>2014-02-02T10:46:09Z</time>
      </trkpt>
      <trkpt lat="45.03684" lon="5.57062">
        <ele>1568.05</ele>
        <time>2014-02-02T10:46:12Z</time>
      </trkpt>
      <trkpt lat="45.03672" lon="5.57062">
        <ele>1571.89</ele>
        <time>2014-02-02T10:46:15Z</time>
      </trkpt>
      <trkpt lat="45.03661" lon="5.57062">
        <ele>1575.74</ele>
        <time>2014-02-02T10:46:18Z</time>
      </trkpt>
      <trkpt lat="45.03649" lon="5.57062">
        <ele>1577.66</ele>
        <time>2014-02-02T10:46:21Z</time>
      </trkpt>
      <trkpt lat="45.03637" lon="5.57063">
        <ele>1580.06</ele>
        <time>2014-02-02T10:46:24Z</time>
      </trkpt>
      <trkpt lat="45.03621" lon="5.57063">
        <ele>1583.91</ele>
        <time>2014-02-02T10:46:28Z</time>
      </trkpt>
      <trkpt lat="45.03605" lon="5.57063">
        <ele>1588.24</ele>
        <time>2014-02-02T10:46:32Z</time>
      </trkpt>
      <trkpt lat="45.03589" lon="5.57062">
        <ele>1592.08</ele>
        <time>2014-02-02T10:46:36Z</time>
      </trkpt>
      <trkpt lat="45.03582" lon="5.57063">
        <ele>1594</ele>
        <time>2014-02-02T10:46:38Z</time>
      </trkpt>
      <trkpt lat="45.03565" lon="5.57063">
        <ele>1595.93</ele>
        <time>2014-02-02T10:46:42Z</time>
      </trkpt>
      <trkpt lat="45.03553" lon="5.57063">
        <ele>1597.37</ele>
        <time>2014-02-02T10:46:45Z</time>
      </trkpt>
      <trkpt lat="45.03529" lon="5.57064">
        <ele>1600.73</ele>
        <time>2014-02-02T10:46:51Z</time>
      </trkpt>
      <trkpt lat="45.03512" lon="5.57064">
        <ele>1603.62</ele>
        <time>2014-02-02T10:46:55Z</time>
      </trkpt>
      <trkpt lat="45.03496" lon="5.57064">
        <ele>1606.98</ele>
        <time>2014-02-02T10:46:59Z</time>
      </trkpt>
      <trkpt lat="45.03489" lon="5.57065">
        <ele>1609.38</ele>
        <time>2014-02-02T10:47:01Z</time>
      </trkpt>
      <trkpt lat="45.03456" lon="5.57064">
        <ele>1612.75</ele>
        <time>2014-02-02T10:47:09Z</time>
      </trkpt>
      <trkpt lat="45.03448" lon="5.57064">
        <ele>1613.71</ele>
        <time>2014-02-02T10:47:11Z</time>
      </trkpt>
      <trkpt lat="45.03436" lon="5.57064">
        <ele>1615.63</ele>
        <time>2014-02-02T10:47:14Z</time>
      </trkpt>
      <trkpt lat="45.0342" lon="5.57063">
        <ele>1619</ele>
        <time>2014-02-02T10:47:18Z</time>
      </trkpt>
      <trkpt lat="45.03412" lon="5.57064">
        <ele>1620.44</ele>
        <time>2014-02-02T10:47:20Z</time>
      </trkpt>
      <trkpt lat="45.034" lon="5.57064">
        <ele>1623.8</ele>
        <time>2014-02-02T10:47:23Z</time>
      </trkpt>
      <trkpt lat="45.03388" lon="5.57064">
        <ele>1626.69</ele>
        <time>2014-02-02T10:47:26Z</time>
      </trkpt>
      <trkpt lat="45.03364" lon="5.57063">
        <ele>1630.53</ele>
        <time>2014-02-02T10:47:32Z</time>
      </trkpt>
      <trkpt lat="45.0336" lon="5.57063">
        <ele>1630.53</ele>
        <time>2014-02-02T10:47:33Z</time>
      </trkpt>
      <trkpt lat="45.0334" lon="5.57064">
        <ele>1633.42</ele>
        <time>2014-02-02T10:47:38Z</time>
      </trkpt>
      <trkpt lat="45.03337" lon="5.57064">
        <ele>1633.9</ele>
        <time>2014-02-02T10:47:39Z</time>
      </trkpt>
      <trkpt lat="45.0332" lon="5.57064">
        <ele>1637.26</ele>
        <time>2014-02-02T10:47:43Z</time>
      </trkpt>
      <trkpt lat="45.03305" lon="5.57064">
        <ele>1640.63</ele>
        <time>2014-02-02T10:47:47Z</time>
      </trkpt>
      <trkpt lat="45.03294" lon="5.57063">
        <ele>1643.99</ele>
        <time>2014-02-02T10:47:50Z</time>
      </trkpt>
      <trkpt lat="45.03277" lon="5.57064">
        <ele>1647.36</ele>
        <time>2014-02-02T10:47:54Z</time>
      </trkpt>
      <trkpt lat="45.03273" lon="5.57064">
        <ele>1647.36</ele>
        <time>2014-02-02T10:47:55Z</time>
      </trkpt>
      <trkpt lat="45.03254" lon="5.57063">
        <ele>1650.24</ele>
        <time>2014-02-02T10:48:00Z</time>
      </trkpt>
      <trkpt lat="45.0325" lon="5.57063">
        <ele>1650.72</ele>
        <time>2014-02-02T10:48:01Z</time>
      </trkpt>
      <trkpt lat="45.03242" lon="5.57063">
        <ele>1651.68</ele>
        <time>2014-02-02T10:48:03Z</time>
      </trkpt>
      <trkpt lat="45.03225" lon="5.57063">
        <ele>1655.05</ele>
        <time>2014-02-02T10:48:07Z</time>
      </trkpt>
      <trkpt lat="45.0321" lon="5.57063">
        <ele>1658.41</ele>
        <time>2014-02-02T10:48:11Z</time>
      </trkpt>
      <trkpt lat="45.03198" lon="5.57063">
        <ele>1661.78</ele>
        <time>2014-02-02T10:48:14Z</time>
      </trkpt>
      <trkpt lat="45.03182" lon="5.57064">
        <ele>1665.62</ele>
        <time>2014-02-02T10:48:18Z</time>
      </trkpt>
      <trkpt lat="45.03171" lon="5.57064">
        <ele>1668.99</ele>
        <time>2014-02-02T10:48:21Z</time>
      </trkpt>
      <trkpt lat="45.03159" lon="5.57064">
        <ele>1673.31</ele>
        <time>2014-02-02T10:48:24Z</time>
      </trkpt>
      <trkpt lat="45.03147" lon="5.57064">
        <ele>1676.68</ele>
        <time>2014-02-02T10:48:27Z</time>
      </trkpt>
      <trkpt lat="45.03135" lon="5.57064">
        <ele>1680.04</ele>
        <time>2014-02-02T10:48:30Z</time>
      </trkpt>
      <trkpt lat="45.03127" lon="5.57064">
        <ele>1684.37</ele>
        <time>2014-02-02T10:48:32Z</time>
      </trkpt>
      <trkpt lat="45.03112" lon="5.57064">
        <ele>1688.69</ele>
        <time>2014-02-02T10:48:36Z</time>
      </trkpt>
      <trkpt lat="45.03101" lon="5.57064">
        <ele>1693.02</ele>
        <time>2014-02-02T10:48:39Z</time>
      </trkpt>
      <trkpt lat="45.03093" lon="5.57064">
        <ele>1696.38</ele>
        <time>2014-02-02T10:48:41Z</time>
      </trkpt>
      <trkpt lat="45.03085" lon="5.57064">
        <ele>1699.27</ele>
        <time>2014-02-02T10:48:43Z</time>
      </trkpt>
      <trkpt lat="45.03073" lon="5.57063">
        <ele>1703.11</ele>
        <time>2014-02-02T10:48:46Z</time>
      </trkpt>
      <trkpt lat="45.03057" lon="5.57063">
        <ele>1706.96</ele>
        <time>2014-02-02T10:48:50Z</time>
      </trkpt>
      <trkpt lat="45.03041" lon="5.57063">
        <ele>1709.84</ele>
        <time>2014-02-02T10:48:54Z</time>
      </trkpt>
      <trkpt lat="45.03029" lon="5.57063">
        <ele>1714.17</ele>
        <time>2014-02-02T10:48:57Z</time>
      </trkpt>
      <trkpt lat="45.03018" lon="5.57064">
        <ele>1717.53</ele>
        <time>2014-02-02T10:49:00Z</time>
      </trkpt>
      <trkpt lat="45.03006" lon="5.57063">
        <ele>1720.9</ele>
        <time>2014-02-02T10:49:03Z</time>
      </trkpt>
      <trkpt lat="45.02994" lon="5.57063">
        <ele>1725.22</ele>
        <time>2014-02-02T10:49:06Z</time>
      </trkpt>
      <trkpt lat="45.02986" lon="5.57064">
        <ele>1728.59</ele>
        <time>2014-02-02T10:49:08Z</time>
      </trkpt>
      <trkpt lat="45.0297" lon="5.57064">
        <ele>1731.47</ele>
        <time>2014-02-02T10:49:12Z</time>
      </trkpt>
      <trkpt lat="45.02953" lon="5.57064">
        <ele>1735.32</ele>
        <time>2014-02-02T10:49:16Z</time>
      </trkpt>
      <trkpt lat="45.02942" lon="5.57064">
        <ele>1738.68</ele>
        <time>2014-02-02T10:49:19Z</time>
      </trkpt>
      <trkpt lat="45.02926" lon="5.57065">
        <ele>1743.01</ele>
        <time>2014-02-02T10:49:23Z</time>
      </trkpt>
      <trkpt lat="45.02915" lon="5.57065">
        <ele>1746.85</ele>
        <time>2014-02-02T10:49:26Z</time>
      </trkpt>
      <trkpt lat="45.02903" lon="5.57065">
        <ele>1750.7</ele>
        <time>2014-02-02T10:49:29Z</time>
      </trkpt>
      <trkpt lat="45.02891" lon="5.57065">
        <ele>1755.02</ele>
        <time>2014-02-02T10:49:32Z</time>
      </trkpt>
      <trkpt lat="45.0288" lon="5.57065">
        <ele>1758.87</ele>
        <time>2014-02-02T10:49:35Z</time>
      </trkpt>
      <trkpt lat="45.02867" lon="5.57065">
        <ele>1761.75</ele>
        <time>2014-02-02T10:49:38Z</time>
      </trkpt>
      <trkpt lat="45.02855" lon="5.57065">
        <ele>1765.12</ele>
        <time>2014-02-02T10:49:41Z</time>
      </trkpt>
      <trkpt lat="45.0284" lon="5.57065">
        <ele>1768.96</ele>
        <time>2014-02-02T10:49:45Z</time>
      </trkpt>
      <trkpt lat="45.02828" lon="5.57065">
        <ele>1772.33</ele>
        <time>2014-02-02T10:49:48Z</time>
      </trkpt>
      <trkpt lat="45.02824" lon="5.57065">
        <ele>1771.37</ele>
        <time>2014-02-02T10:49:49Z</time>
      </trkpt>
      <trkpt lat="45.02817" lon="5.57065">
        <ele>1775.21</ele>
        <time>2014-02-02T10:49:51Z</time>
      </trkpt>
      <trkpt lat="45.02805" lon="5.57065">
        <ele>1779.54</ele>
        <time>2014-02-02T10:49:54Z</time>
      </trkpt>
      <trkpt lat="45.0279" lon="5.57065">
        <ele>1783.86</ele>
        <time>2014-02-02T10:49:58Z</time>
      </trkpt>
      <trkpt lat="45.02782" lon="5.57065">
        <ele>1786.75</ele>
        <time>2014-02-02T10:50:00Z</time>
      </trkpt>
      <trkpt lat="45.0277" lon="5.57065">
        <ele>1790.59</ele>
        <time>2014-02-02T10:50:03Z</time>
      </trkpt>
      <trkpt lat="45.02758" lon="5.57065">
        <ele>1794.44</ele>
        <time>2014-02-02T10:50:06Z</time>
      </trkpt>
      <trkpt lat="45.02743" lon="5.57065">
        <ele>1798.28</ele>
        <time>2014-02-02T10:50:10Z</time>
      </trkpt>
      <trkpt lat="45.02731" lon="5.57065">
        <ele>1801.65</ele>
        <time>2014-02-02T10:50:13Z</time>
      </trkpt>
      <trkpt lat="45.02715" lon="5.57065">
        <ele>1805.49</ele>
        <time>2014-02-02T10:50:17Z</time>
      </trkpt>
      <trkpt lat="45.02703" lon="5.57065">
        <ele>1809.34</ele>
        <time>2014-02-02T10:50:20Z</time>
      </trkpt>
      <trkpt lat="45.02695" lon="5.57065">
        <ele>1812.22</ele>
        <time>2014-02-02T10:50:22Z</time>
      </trkpt>
      <trkpt lat="45.02683" lon="5.57065">
        <ele>1816.07</ele>
        <time>2014-02-02T10:50:25Z</time>
      </trkpt>
      <trkpt lat="45.02675" lon="5.57065">
        <ele>1819.43</ele>
        <time>2014-02-02T10:50:27Z</time>
      </trkpt>
      <trkpt lat="45.02664" lon="5.57065">
        <ele>1823.76</ele>
        <time>2014-02-02T10:50:30Z</time>
      </trkpt>
      <trkpt lat="45.02656" lon="5.57065">
        <ele>1826.64</ele>
        <time>2014-02-02T10:50:32Z</time>
      </trkpt>
      <trkpt lat="45.02649" lon="5.57066">
        <ele>1830.01</ele>
        <time>2014-02-02T10:50:34Z</time>
      </trkpt>
      <trkpt lat="45.02633" lon="5.57065">
        <ele>1834.33</ele>
        <time>2014-02-02T10:50:38Z</time>
      </trkpt>
      <trkpt lat="45.02621" lon="5.57065">
        <ele>1837.7</ele>
        <time>2014-02-02T10:50:41Z</time>
      </trkpt>
      <trkpt lat="45.0261" lon="5.57065">
        <ele>1841.54</ele>
        <time>2014-02-02T10:50:44Z</time>
      </trkpt>
      <trkpt lat="45.02598" lon="5.57066">
        <ele>1844.91</ele>
        <time>2014-02-02T10:50:47Z</time>
      </trkpt>
      <trkpt lat="45.02586" lon="5.57066">
        <ele>1849.23</ele>
        <time>2014-02-02T10:50:50Z</time>
      </trkpt>
      <trkpt lat="45.02575" lon="5.57066">
        <ele>1853.08</ele>
        <time>2014-02-02T10:50:53Z</time>
      </trkpt>
      <trkpt lat="45.02563" lon="5.57066">
        <ele>1857.89</ele>
        <time>2014-02-02T10:50:56Z</time>
      </trkpt>
      <trkpt lat="45.02552" lon="5.57066">
        <ele>1862.21</ele>
        <time>2014-02-02T10:50:59Z</time>
      </trkpt>
      <trkpt lat="45.02544" lon="5.57066">
        <ele>1865.58</ele>
        <time>2014-02-02T10:51:01Z</time>
      </trkpt>
      <trkpt lat="45.02531" lon="5.57066">
        <ele>1868.94</ele>
        <time>2014-02-02T10:51:04Z</time>
      </trkpt>
      <trkpt lat="45.02515" lon="5.57066">
        <ele>1872.79</ele>
        <time>2014-02-02T10:51:08Z</time>
      </trkpt>
      <trkpt lat="45.02503" lon="5.57066">
        <ele>1875.67</ele>
        <time>2014-02-02T10:51:11Z</time>
      </trkpt>
      <trkpt lat="45.02491" lon="5.57067">
        <ele>1879.51</ele>
        <time>2014-02-02T10:51:14Z</time>
      </trkpt>
      <trkpt lat="45.02476" lon="5.57068">
        <ele>1883.84</ele>
        <time>2014-02-02T10:51:18Z</time>
      </trkpt>
      <trkpt lat="45.02464" lon="5.57068">
        <ele>1888.17</ele>
        <time>2014-02-02T10:51:21Z</time>
      </trkpt>
      <trkpt lat="45.02453" lon="5.57068">
        <ele>1891.53</ele>
        <time>2014-02-02T10:51:24Z</time>
      </trkpt>
      <trkpt lat="45.02436" lon="5.57068">
        <ele>1894.42</ele>
        <time>2014-02-02T10:51:28Z</time>
      </trkpt>
      <trkpt lat="45.02425" lon="5.57068">
        <ele>1897.3</ele>
        <time>2014-02-02T10:51:31Z</time>
      </trkpt>
      <trkpt lat="45.02409" lon="5.57068">
        <ele>1901.14</ele>
        <time>2014-02-02T10:51:35Z</time>
      </trkpt>
      <trkpt lat="45.02397" lon="5.57068">
        <ele>1904.51</ele>
        <time>2014-02-02T10:51:38Z</time>
      </trkpt>
      <trkpt lat="45.02385" lon="5.57068">
        <ele>1907.39</ele>
        <time>2014-02-02T10:51:41Z</time>
      </trkpt>
      <trkpt lat="45.02374" lon="5.57068">
        <ele>1910.76</ele>
        <time>2014-02-02T10:51:44Z</time>
      </trkpt>
      <trkpt lat="45.02362" lon="5.57068">
        <ele>1914.12</ele>
        <time>2014-02-02T10:51:47Z</time>
      </trkpt>
      <trkpt lat="45.0235" lon="5.57068">
        <ele>1917.97</ele>
        <time>2014-02-02T10:51:50Z</time>
      </trkpt>
      <trkpt lat="45.02339" lon="5.57068">
        <ele>1922.29</ele>
        <time>2014-02-02T10:51:53Z</time>
      </trkpt>
      <trkpt lat="45.02331" lon="5.57068">
        <ele>1924.22</ele>
        <time>2014-02-02T10:51:55Z</time>
      </trkpt>
      <trkpt lat="45.02315" lon="5.57068">
        <ele>1927.1</ele>
        <time>2014-02-02T10:51:59Z</time>
      </trkpt>
      <trkpt lat="45.02299" lon="5.57068">
        <ele>1930.46</ele>
        <time>2014-02-02T10:52:03Z</time>
      </trkpt>
      <trkpt lat="45.02279" lon="5.57068">
        <ele>1933.83</ele>
        <time>2014-02-02T10:52:08Z</time>
      </trkpt>
      <trkpt lat="45.02262" lon="5.57068">
        <ele>1936.23</ele>
        <time>2014-02-02T10:52:12Z</time>
      </trkpt>
      <trkpt lat="45.02255" lon="5.57067">
        <ele>1931.43</ele>
        <time>2014-02-02T10:52:14Z</time>
      </trkpt>
      <trkpt lat="45.02248" lon="5.57066">
        <ele>1937.67</ele>
        <time>2014-02-02T10:52:17Z</time>
      </trkpt>
      <trkpt lat="45.02235" lon="5.57059">
        <ele>1935.27</ele>
        <time>2014-02-02T10:52:25Z</time>
      </trkpt>
      <trkpt lat="45.02237" lon="5.57066">
        <ele>1935.27</ele>
        <time>2014-02-02T10:52:32Z</time>
      </trkpt>
      <trkpt lat="45.0224" lon="5.57079">
        <ele>1935.75</ele>
        <time>2014-02-02T10:52:48Z</time>
      </trkpt>
      <trkpt lat="45.02241" lon="5.5707">
        <ele>1932.87</ele>
        <time>2014-02-02T10:52:56Z</time>
      </trkpt>
      <trkpt lat="45.0223" lon="5.57065">
        <ele>1934.79</ele>
        <time>2014-02-02T10:54:30Z</time>
      </trkpt>
      <trkpt lat="45.02215" lon="5.57056">
        <ele>1933.35</ele>
        <time>2014-02-02T10:54:37Z</time>
      </trkpt>
      <trkpt lat="45.02207" lon="5.5705">
        <ele>1929.5</ele>
        <time>2014-02-02T10:54:40Z</time>
      </trkpt>
      <trkpt lat="45.02204" lon="5.57046">
        <ele>1932.87</ele>
        <time>2014-02-02T10:54:41Z</time>
      </trkpt>
      <trkpt lat="45.02201" lon="5.57044">
        <ele>1930.46</ele>
        <time>2014-02-02T10:54:42Z</time>
      </trkpt>
      <trkpt lat="45.02197" lon="5.57043">
        <ele>1929.5</ele>
        <time>2014-02-02T10:54:43Z</time>
      </trkpt>
      <trkpt lat="45.02193" lon="5.57042">
        <ele>1929.5</ele>
        <time>2014-02-02T10:54:44Z</time>
      </trkpt>
      <trkpt lat="45.02189" lon="5.57039">
        <ele>1928.54</ele>
        <time>2014-02-02T10:54:45Z</time>
      </trkpt>
      <trkpt lat="45.02184" lon="5.57037">
        <ele>1926.62</ele>
        <time>2014-02-02T10:54:46Z</time>
      </trkpt>
      <trkpt lat="45.0218" lon="5.57035">
        <ele>1927.58</ele>
        <time>2014-02-02T10:54:47Z</time>
      </trkpt>
      <trkpt lat="45.02175" lon="5.57033">
        <ele>1925.18</ele>
        <time>2014-02-02T10:54:48Z</time>
      </trkpt>
      <trkpt lat="45.0217" lon="5.5703">
        <ele>1925.18</ele>
        <time>2014-02-02T10:54:49Z</time>
      </trkpt>
      <trkpt lat="45.02165" lon="5.57027">
        <ele>1923.25</ele>
        <time>2014-02-02T10:54:50Z</time>
      </trkpt>
      <trkpt lat="45.02161" lon="5.57024">
        <ele>1922.77</ele>
        <time>2014-02-02T10:54:51Z</time>
      </trkpt>
      <trkpt lat="45.02156" lon="5.5702">
        <ele>1921.81</ele>
        <time>2014-02-02T10:54:52Z</time>
      </trkpt>
      <trkpt lat="45.02151" lon="5.57017">
        <ele>1921.33</ele>
        <time>2014-02-02T10:54:53Z</time>
      </trkpt>
      <trkpt lat="45.02147" lon="5.57012">
        <ele>1919.89</ele>
        <time>2014-02-02T10:54:54Z</time>
      </trkpt>
      <trkpt lat="45.02142" lon="5.57009">
        <ele>1919.41</ele>
        <time>2014-02-02T10:54:55Z</time>
      </trkpt>
      <trkpt lat="45.02138" lon="5.57006">
        <ele>1918.45</ele>
        <time>2014-02-02T10:54:56Z</time>
      </trkpt>
      <trkpt lat="45.02134" lon="5.57003">
        <ele>1916.53</ele>
        <time>2014-02-02T10:54:57Z</time>
      </trkpt>
      <trkpt lat="45.0213" lon="5.56999">
        <ele>1917.01</ele>
        <time>2014-02-02T10:54:58Z</time>
      </trkpt>
      <trkpt lat="45.02126" lon="5.56995">
        <ele>1913.64</ele>
        <time>2014-02-02T10:54:59Z</time>
      </trkpt>
      <trkpt lat="45.02122" lon="5.56991">
        <ele>1914.6</ele>
        <time>2014-02-02T10:55:00Z</time>
      </trkpt>
      <trkpt lat="45.02118" lon="5.56988">
        <ele>1912.68</ele>
        <time>2014-02-02T10:55:01Z</time>
      </trkpt>
      <trkpt lat="45.02114" lon="5.56984">
        <ele>1913.16</ele>
        <time>2014-02-02T10:55:02Z</time>
      </trkpt>
      <trkpt lat="45.02103" lon="5.56975">
        <ele>1909.32</ele>
        <time>2014-02-02T10:55:05Z</time>
      </trkpt>
      <trkpt lat="45.02099" lon="5.56969">
        <ele>1910.76</ele>
        <time>2014-02-02T10:55:06Z</time>
      </trkpt>
      <trkpt lat="45.02095" lon="5.56964">
        <ele>1907.39</ele>
        <time>2014-02-02T10:55:07Z</time>
      </trkpt>
      <trkpt lat="45.02092" lon="5.56959">
        <ele>1907.87</ele>
        <time>2014-02-02T10:55:08Z</time>
      </trkpt>
      <trkpt lat="45.02089" lon="5.56954">
        <ele>1906.43</ele>
        <time>2014-02-02T10:55:09Z</time>
      </trkpt>
      <trkpt lat="45.02088" lon="5.56949">
        <ele>1904.99</ele>
        <time>2014-02-02T10:55:10Z</time>
      </trkpt>
      <trkpt lat="45.02088" lon="5.56942">
        <ele>1905.47</ele>
        <time>2014-02-02T10:55:11Z</time>
      </trkpt>
      <trkpt lat="45.02087" lon="5.56936">
        <ele>1903.55</ele>
        <time>2014-02-02T10:55:12Z</time>
      </trkpt>
      <trkpt lat="45.02085" lon="5.56931">
        <ele>1902.59</ele>
        <time>2014-02-02T10:55:13Z</time>
      </trkpt>
      <trkpt lat="45.02082" lon="5.56926">
        <ele>1900.18</ele>
        <time>2014-02-02T10:55:14Z</time>
      </trkpt>
      <trkpt lat="45.0208" lon="5.56921">
        <ele>1901.14</ele>
        <time>2014-02-02T10:55:15Z</time>
      </trkpt>
      <trkpt lat="45.02079" lon="5.56916">
        <ele>1899.22</ele>
        <time>2014-02-02T10:55:16Z</time>
      </trkpt>
      <trkpt lat="45.02077" lon="5.56911">
        <ele>1898.74</ele>
        <time>2014-02-02T10:55:17Z</time>
      </trkpt>
      <trkpt lat="45.02074" lon="5.56906">
        <ele>1897.78</ele>
        <time>2014-02-02T10:55:18Z</time>
      </trkpt>
      <trkpt lat="45.02066" lon="5.56891">
        <ele>1895.38</ele>
        <time>2014-02-02T10:55:28Z</time>
      </trkpt>
      <trkpt lat="45.02063" lon="5.56888">
        <ele>1895.38</ele>
        <time>2014-02-02T10:55:58Z</time>
      </trkpt>
      <trkpt lat="45.02073" lon="5.56871">
        <ele>1891.05</ele>
        <time>2014-02-02T10:56:04Z</time>
      </trkpt>
      <trkpt lat="45.0208" lon="5.56857">
        <ele>1886.24</ele>
        <time>2014-02-02T10:56:07Z</time>
      </trkpt>
      <trkpt lat="45.02087" lon="5.56845">
        <ele>1882.4</ele>
        <time>2014-02-02T10:56:10Z</time>
      </trkpt>
      <trkpt lat="45.02091" lon="5.56836">
        <ele>1879.03</ele>
        <time>2014-02-02T10:56:12Z</time>
      </trkpt>
      <trkpt lat="45.02094" lon="5.56832">
        <ele>1879.03</ele>
        <time>2014-02-02T10:56:13Z</time>
      </trkpt>
      <trkpt lat="45.02098" lon="5.56822">
        <ele>1873.75</ele>
        <time>2014-02-02T10:56:15Z</time>
      </trkpt>
      <trkpt lat="45.021" lon="5.56817">
        <ele>1875.67</ele>
        <time>2014-02-02T10:56:16Z</time>
      </trkpt>
      <trkpt lat="45.02099" lon="5.56805">
        <ele>1870.38</ele>
        <time>2014-02-02T10:56:19Z</time>
      </trkpt>
      <trkpt lat="45.02098" lon="5.56797">
        <ele>1870.86</ele>
        <time>2014-02-02T10:56:21Z</time>
      </trkpt>
      <trkpt lat="45.0209" lon="5.56776">
        <ele>1867.5</ele>
        <time>2014-02-02T10:56:25Z</time>
      </trkpt>
      <trkpt lat="45.02089" lon="5.56765">
        <ele>1867.02</ele>
        <time>2014-02-02T10:56:27Z</time>
      </trkpt>
      <trkpt lat="45.02091" lon="5.56743">
        <ele>1861.73</ele>
        <time>2014-02-02T10:56:31Z</time>
      </trkpt>
      <trkpt lat="45.02094" lon="5.56725">
        <ele>1858.37</ele>
        <time>2014-02-02T10:56:34Z</time>
      </trkpt>
      <trkpt lat="45.02098" lon="5.56716">
        <ele>1854.04</ele>
        <time>2014-02-02T10:56:36Z</time>
      </trkpt>
      <trkpt lat="45.02101" lon="5.56694">
        <ele>1850.68</ele>
        <time>2014-02-02T10:56:40Z</time>
      </trkpt>
      <trkpt lat="45.02102" lon="5.56683">
        <ele>1848.27</ele>
        <time>2014-02-02T10:56:42Z</time>
      </trkpt>
      <trkpt lat="45.02101" lon="5.56671">
        <ele>1845.39</ele>
        <time>2014-02-02T10:56:44Z</time>
      </trkpt>
      <trkpt lat="45.02098" lon="5.56659">
        <ele>1843.47</ele>
        <time>2014-02-02T10:56:46Z</time>
      </trkpt>
      <trkpt lat="45.02094" lon="5.56648">
        <ele>1842.02</ele>
        <time>2014-02-02T10:56:48Z</time>
      </trkpt>
      <trkpt lat="45.02081" lon="5.56625">
        <ele>1839.14</ele>
        <time>2014-02-02T10:56:57Z</time>
      </trkpt>
      <trkpt lat="45.02081" lon="5.5662">
        <ele>1837.22</ele>
        <time>2014-02-02T10:57:22Z</time>
      </trkpt>
      <trkpt lat="45.02086" lon="5.56608">
        <ele>1834.33</ele>
        <time>2014-02-02T10:57:25Z</time>
      </trkpt>
      <trkpt lat="45.02086" lon="5.56601">
        <ele>1835.29</ele>
        <time>2014-02-02T10:57:26Z</time>
      </trkpt>
      <trkpt lat="45.02086" lon="5.56595">
        <ele>1832.41</ele>
        <time>2014-02-02T10:57:27Z</time>
      </trkpt>
      <trkpt lat="45.02086" lon="5.56577">
        <ele>1830.49</ele>
        <time>2014-02-02T10:57:30Z</time>
      </trkpt>
      <trkpt lat="45.02086" lon="5.56552">
        <ele>1824.72</ele>
        <time>2014-02-02T10:57:34Z</time>
      </trkpt>
      <trkpt lat="45.02086" lon="5.56541">
        <ele>1824.24</ele>
        <time>2014-02-02T10:57:36Z</time>
      </trkpt>
      <trkpt lat="45.02087" lon="5.56536">
        <ele>1820.39</ele>
        <time>2014-02-02T10:57:37Z</time>
      </trkpt>
      <trkpt lat="45.0209" lon="5.56518">
        <ele>1816.55</ele>
        <time>2014-02-02T10:57:40Z</time>
      </trkpt>
      <trkpt lat="45.02088" lon="5.56501">
        <ele>1813.66</ele>
        <time>2014-02-02T10:57:43Z</time>
      </trkpt>
      <trkpt lat="45.02092" lon="5.56486">
        <ele>1808.86</ele>
        <time>2014-02-02T10:57:46Z</time>
      </trkpt>
      <trkpt lat="45.02092" lon="5.5648">
        <ele>1809.34</ele>
        <time>2014-02-02T10:57:47Z</time>
      </trkpt>
      <trkpt lat="45.0209" lon="5.56475">
        <ele>1807.42</ele>
        <time>2014-02-02T10:57:48Z</time>
      </trkpt>
      <trkpt lat="45.02083" lon="5.5646">
        <ele>1805.97</ele>
        <time>2014-02-02T10:57:51Z</time>
      </trkpt>
      <trkpt lat="45.02082" lon="5.56456">
        <ele>1805.01</ele>
        <time>2014-02-02T10:57:59Z</time>
      </trkpt>
      <trkpt lat="45.02091" lon="5.56446">
        <ele>1800.69</ele>
        <time>2014-02-02T10:58:08Z</time>
      </trkpt>
      <trkpt lat="45.02086" lon="5.56437">
        <ele>1799.73</ele>
        <time>2014-02-02T10:58:10Z</time>
      </trkpt>
      <trkpt lat="45.02078" lon="5.56424">
        <ele>1797.32</ele>
        <time>2014-02-02T10:58:13Z</time>
      </trkpt>
      <trkpt lat="45.02071" lon="5.56401">
        <ele>1793.96</ele>
        <time>2014-02-02T10:58:16Z</time>
      </trkpt>
      <trkpt lat="45.02063" lon="5.56366">
        <ele>1791.07</ele>
        <time>2014-02-02T10:58:20Z</time>
      </trkpt>
      <trkpt lat="45.02052" lon="5.56327">
        <ele>1786.75</ele>
        <time>2014-02-02T10:58:25Z</time>
      </trkpt>
      <trkpt lat="45.0205" lon="5.56321">
        <ele>1786.75</ele>
        <time>2014-02-02T10:58:26Z</time>
      </trkpt>
      <trkpt lat="45.02048" lon="5.56308">
        <ele>1785.31</ele>
        <time>2014-02-02T10:58:28Z</time>
      </trkpt>
      <trkpt lat="45.02049" lon="5.56297">
        <ele>1783.38</ele>
        <time>2014-02-02T10:58:30Z</time>
      </trkpt>
      <trkpt lat="45.02051" lon="5.56292">
        <ele>1780.98</ele>
        <time>2014-02-02T10:58:31Z</time>
      </trkpt>
      <trkpt lat="45.02055" lon="5.56274">
        <ele>1777.61</ele>
        <time>2014-02-02T10:58:34Z</time>
      </trkpt>
      <trkpt lat="45.02059" lon="5.56256">
        <ele>1774.73</ele>
        <time>2014-02-02T10:58:37Z</time>
      </trkpt>
      <trkpt lat="45.02058" lon="5.56249">
        <ele>1772.81</ele>
        <time>2014-02-02T10:58:38Z</time>
      </trkpt>
      <trkpt lat="45.02055" lon="5.56238">
        <ele>1773.77</ele>
        <time>2014-02-02T10:58:40Z</time>
      </trkpt>
      <trkpt lat="45.02055" lon="5.56205">
        <ele>1765.12</ele>
        <time>2014-02-02T10:58:45Z</time>
      </trkpt>
      <trkpt lat="45.02051" lon="5.56185">
        <ele>1760.79</ele>
        <time>2014-02-02T10:58:48Z</time>
      </trkpt>
      <trkpt lat="45.0205" lon="5.56179">
        <ele>1761.27</ele>
        <time>2014-02-02T10:58:49Z</time>
      </trkpt>
      <trkpt lat="45.02053" lon="5.56162">
        <ele>1757.43</ele>
        <time>2014-02-02T10:58:52Z</time>
      </trkpt>
      <trkpt lat="45.02058" lon="5.56144">
        <ele>1753.1</ele>
        <time>2014-02-02T10:58:55Z</time>
      </trkpt>
      <trkpt lat="45.0206" lon="5.56133">
        <ele>1748.29</ele>
        <time>2014-02-02T10:58:57Z</time>
      </trkpt>
      <trkpt lat="45.02063" lon="5.56129">
        <ele>1748.78</ele>
        <time>2014-02-02T10:58:58Z</time>
      </trkpt>
      <trkpt lat="45.02068" lon="5.56118">
        <ele>1745.41</ele>
        <time>2014-02-02T10:59:00Z</time>
      </trkpt>
      <trkpt lat="45.02072" lon="5.56107">
        <ele>1742.05</ele>
        <time>2014-02-02T10:59:02Z</time>
      </trkpt>
      <trkpt lat="45.0208" lon="5.56106">
        <ele>1738.68</ele>
        <time>2014-02-02T10:59:04Z</time>
      </trkpt>
      <trkpt lat="45.02085" lon="5.56101">
        <ele>1735.32</ele>
        <time>2014-02-02T10:59:06Z</time>
      </trkpt>
      <trkpt lat="45.0208" lon="5.561">
        <ele>1735.8</ele>
        <time>2014-02-02T10:59:22Z</time>
      </trkpt>
      <trkpt lat="45.0208" lon="5.56095">
        <ele>1735.32</ele>
        <time>2014-02-02T10:59:38Z</time>
      </trkpt>
      <trkpt lat="45.02091" lon="5.56072">
        <ele>1729.07</ele>
        <time>2014-02-02T11:00:04Z</time>
      </trkpt>
      <trkpt lat="45.02091" lon="5.56066">
        <ele>1727.15</ele>
        <time>2014-02-02T11:00:05Z</time>
      </trkpt>
      <trkpt lat="45.02099" lon="5.5604">
        <ele>1717.53</ele>
        <time>2014-02-02T11:00:10Z</time>
      </trkpt>
      <trkpt lat="45.021" lon="5.56036">
        <ele>1717.53</ele>
        <time>2014-02-02T11:00:11Z</time>
      </trkpt>
      <trkpt lat="45.02102" lon="5.56025">
        <ele>1712.73</ele>
        <time>2014-02-02T11:00:13Z</time>
      </trkpt>
      <trkpt lat="45.02103" lon="5.56019">
        <ele>1713.21</ele>
        <time>2014-02-02T11:00:14Z</time>
      </trkpt>
      <trkpt lat="45.02109" lon="5.56015">
        <ele>1709.36</ele>
        <time>2014-02-02T11:00:16Z</time>
      </trkpt>
      <trkpt lat="45.02111" lon="5.56005">
        <ele>1706</ele>
        <time>2014-02-02T11:00:18Z</time>
      </trkpt>
      <trkpt lat="45.02109" lon="5.55977">
        <ele>1700.71</ele>
        <time>2014-02-02T11:00:23Z</time>
      </trkpt>
      <trkpt lat="45.02107" lon="5.55968">
        <ele>1698.79</ele>
        <time>2014-02-02T11:00:29Z</time>
      </trkpt>
      <trkpt lat="45.02117" lon="5.55959">
        <ele>1693.5</ele>
        <time>2014-02-02T11:00:34Z</time>
      </trkpt>
      <trkpt lat="45.02118" lon="5.55955">
        <ele>1693.5</ele>
        <time>2014-02-02T11:00:35Z</time>
      </trkpt>
      <trkpt lat="45.02121" lon="5.55951">
        <ele>1693.5</ele>
        <time>2014-02-02T11:00:36Z</time>
      </trkpt>
      <trkpt lat="45.02128" lon="5.55941">
        <ele>1685.33</ele>
        <time>2014-02-02T11:00:39Z</time>
      </trkpt>
      <trkpt lat="45.02134" lon="5.55934">
        <ele>1682.44</ele>
        <time>2014-02-02T11:00:41Z</time>
      </trkpt>
      <trkpt lat="45.02139" lon="5.55928">
        <ele>1679.56</ele>
        <time>2014-02-02T11:00:43Z</time>
      </trkpt>
      <trkpt lat="45.02144" lon="5.55921">
        <ele>1675.72</ele>
        <time>2014-02-02T11:00:45Z</time>
      </trkpt>
      <trkpt lat="45.02148" lon="5.55914">
        <ele>1673.31</ele>
        <time>2014-02-02T11:00:47Z</time>
      </trkpt>
      <trkpt lat="45.02154" lon="5.55906">
        <ele>1669.47</ele>
        <time>2014-02-02T11:00:49Z</time>
      </trkpt>
      <trkpt lat="45.02156" lon="5.55902">
        <ele>1668.99</ele>
        <time>2014-02-02T11:00:50Z</time>
      </trkpt>
      <trkpt lat="45.02162" lon="5.55898">
        <ele>1663.7</ele>
        <time>2014-02-02T11:00:52Z</time>
      </trkpt>
      <trkpt lat="45.02163" lon="5.55892">
        <ele>1664.18</ele>
        <time>2014-02-02T11:00:53Z</time>
      </trkpt>
      <trkpt lat="45.02172" lon="5.55888">
        <ele>1658.41</ele>
        <time>2014-02-02T11:00:56Z</time>
      </trkpt>
      <trkpt lat="45.02175" lon="5.55885">
        <ele>1660.33</ele>
        <time>2014-02-02T11:00:57Z</time>
      </trkpt>
      <trkpt lat="45.02182" lon="5.5588">
        <ele>1655.53</ele>
        <time>2014-02-02T11:00:59Z</time>
      </trkpt>
      <trkpt lat="45.02184" lon="5.55877">
        <ele>1656.97</ele>
        <time>2014-02-02T11:01:00Z</time>
      </trkpt>
      <trkpt lat="45.02189" lon="5.55869">
        <ele>1652.64</ele>
        <time>2014-02-02T11:01:02Z</time>
      </trkpt>
      <trkpt lat="45.02205" lon="5.55864">
        <ele>1649.76</ele>
        <time>2014-02-02T11:01:05Z</time>
      </trkpt>
      <trkpt lat="45.0222" lon="5.55848">
        <ele>1646.4</ele>
        <time>2014-02-02T11:01:08Z</time>
      </trkpt>
      <trkpt lat="45.02226" lon="5.55838">
        <ele>1643.03</ele>
        <time>2014-02-02T11:01:11Z</time>
      </trkpt>
      <trkpt lat="45.0223" lon="5.55837">
        <ele>1643.03</ele>
        <time>2014-02-02T11:01:23Z</time>
      </trkpt>
      <trkpt lat="45.02221" lon="5.55813">
        <ele>1638.22</ele>
        <time>2014-02-02T11:03:33Z</time>
      </trkpt>
      <trkpt lat="45.0222" lon="5.55776">
        <ele>1635.34</ele>
        <time>2014-02-02T11:03:38Z</time>
      </trkpt>
      <trkpt lat="45.02219" lon="5.5574">
        <ele>1631.01</ele>
        <time>2014-02-02T11:03:43Z</time>
      </trkpt>
      <trkpt lat="45.02218" lon="5.55733">
        <ele>1629.09</ele>
        <time>2014-02-02T11:03:44Z</time>
      </trkpt>
      <trkpt lat="45.02217" lon="5.55714">
        <ele>1625.25</ele>
        <time>2014-02-02T11:03:47Z</time>
      </trkpt>
      <trkpt lat="45.02218" lon="5.55697">
        <ele>1621.88</ele>
        <time>2014-02-02T11:03:50Z</time>
      </trkpt>
      <trkpt lat="45.02219" lon="5.55691">
        <ele>1621.4</ele>
        <time>2014-02-02T11:03:51Z</time>
      </trkpt>
      <trkpt lat="45.02219" lon="5.55686">
        <ele>1618.04</ele>
        <time>2014-02-02T11:03:52Z</time>
      </trkpt>
      <trkpt lat="45.02219" lon="5.55682">
        <ele>1619</ele>
        <time>2014-02-02T11:03:53Z</time>
      </trkpt>
      <trkpt lat="45.0222" lon="5.55671">
        <ele>1615.63</ele>
        <time>2014-02-02T11:03:55Z</time>
      </trkpt>
      <trkpt lat="45.02222" lon="5.55658">
        <ele>1613.23</ele>
        <time>2014-02-02T11:03:57Z</time>
      </trkpt>
      <trkpt lat="45.0222" lon="5.55646">
        <ele>1609.86</ele>
        <time>2014-02-02T11:03:59Z</time>
      </trkpt>
      <trkpt lat="45.02219" lon="5.55634">
        <ele>1606.02</ele>
        <time>2014-02-02T11:04:01Z</time>
      </trkpt>
      <trkpt lat="45.02218" lon="5.55628">
        <ele>1605.06</ele>
        <time>2014-02-02T11:04:02Z</time>
      </trkpt>
      <trkpt lat="45.02217" lon="5.55608">
        <ele>1598.33</ele>
        <time>2014-02-02T11:04:05Z</time>
      </trkpt>
      <trkpt lat="45.02215" lon="5.55603">
        <ele>1598.81</ele>
        <time>2014-02-02T11:04:06Z</time>
      </trkpt>
      <trkpt lat="45.02214" lon="5.55591">
        <ele>1595.45</ele>
        <time>2014-02-02T11:04:08Z</time>
      </trkpt>
      <trkpt lat="45.02212" lon="5.55575">
        <ele>1590.16</ele>
        <time>2014-02-02T11:04:11Z</time>
      </trkpt>
      <trkpt lat="45.0221" lon="5.55563">
        <ele>1587.27</ele>
        <time>2014-02-02T11:04:13Z</time>
      </trkpt>
      <trkpt lat="45.02207" lon="5.55558">
        <ele>1587.27</ele>
        <time>2014-02-02T11:04:14Z</time>
      </trkpt>
      <trkpt lat="45.02204" lon="5.55544">
        <ele>1583.43</ele>
        <time>2014-02-02T11:04:16Z</time>
      </trkpt>
      <trkpt lat="45.02202" lon="5.55538">
        <ele>1583.43</ele>
        <time>2014-02-02T11:04:17Z</time>
      </trkpt>
      <trkpt lat="45.02199" lon="5.55518">
        <ele>1580.06</ele>
        <time>2014-02-02T11:04:20Z</time>
      </trkpt>
      <trkpt lat="45.02198" lon="5.55513">
        <ele>1576.7</ele>
        <time>2014-02-02T11:04:21Z</time>
      </trkpt>
      <trkpt lat="45.02195" lon="5.55506">
        <ele>1577.18</ele>
        <time>2014-02-02T11:04:22Z</time>
      </trkpt>
      <trkpt lat="45.02194" lon="5.55495">
        <ele>1572.85</ele>
        <time>2014-02-02T11:04:24Z</time>
      </trkpt>
      <trkpt lat="45.02196" lon="5.55489">
        <ele>1572.37</ele>
        <time>2014-02-02T11:04:25Z</time>
      </trkpt>
      <trkpt lat="45.02199" lon="5.55477">
        <ele>1569.49</ele>
        <time>2014-02-02T11:04:27Z</time>
      </trkpt>
      <trkpt lat="45.02202" lon="5.55456">
        <ele>1564.2</ele>
        <time>2014-02-02T11:04:30Z</time>
      </trkpt>
      <trkpt lat="45.02202" lon="5.55451">
        <ele>1564.2</ele>
        <time>2014-02-02T11:04:31Z</time>
      </trkpt>
      <trkpt lat="45.02201" lon="5.55437">
        <ele>1562.28</ele>
        <time>2014-02-02T11:04:34Z</time>
      </trkpt>
      <trkpt lat="45.02196" lon="5.55424">
        <ele>1557.47</ele>
        <time>2014-02-02T11:04:42Z</time>
      </trkpt>
      <trkpt lat="45.02199" lon="5.55423">
        <ele>1561.32</ele>
        <time>2014-02-02T11:05:14Z</time>
      </trkpt>
      <trkpt lat="45.02192" lon="5.55403">
        <ele>1560.36</ele>
        <time>2014-02-02T11:05:21Z</time>
      </trkpt>
      <trkpt lat="45.0219" lon="5.55388">
        <ele>1558.43</ele>
        <time>2014-02-02T11:05:23Z</time>
      </trkpt>
      <trkpt lat="45.02195" lon="5.55364">
        <ele>1553.63</ele>
        <time>2014-02-02T11:05:26Z</time>
      </trkpt>
      <trkpt lat="45.02197" lon="5.55356">
        <ele>1555.07</ele>
        <time>2014-02-02T11:05:27Z</time>
      </trkpt>
      <trkpt lat="45.02199" lon="5.55326">
        <ele>1552.19</ele>
        <time>2014-02-02T11:05:31Z</time>
      </trkpt>
      <trkpt lat="45.02201" lon="5.55305">
        <ele>1548.82</ele>
        <time>2014-02-02T11:05:34Z</time>
      </trkpt>
      <trkpt lat="45.02202" lon="5.55285">
        <ele>1545.46</ele>
        <time>2014-02-02T11:05:37Z</time>
      </trkpt>
      <trkpt lat="45.02201" lon="5.55273">
        <ele>1544.01</ele>
        <time>2014-02-02T11:05:39Z</time>
      </trkpt>
      <trkpt lat="45.02202" lon="5.55261">
        <ele>1540.65</ele>
        <time>2014-02-02T11:05:41Z</time>
      </trkpt>
      <trkpt lat="45.02205" lon="5.55249">
        <ele>1539.21</ele>
        <time>2014-02-02T11:05:43Z</time>
      </trkpt>
      <trkpt lat="45.0221" lon="5.55241">
        <ele>1533.92</ele>
        <time>2014-02-02T11:05:45Z</time>
      </trkpt>
      <trkpt lat="45.02215" lon="5.55239">
        <ele>1535.36</ele>
        <time>2014-02-02T11:05:46Z</time>
      </trkpt>
      <trkpt lat="45.02219" lon="5.55235">
        <ele>1533.44</ele>
        <time>2014-02-02T11:05:47Z</time>
      </trkpt>
      <trkpt lat="45.02223" lon="5.55231">
        <ele>1531.04</ele>
        <time>2014-02-02T11:05:48Z</time>
      </trkpt>
      <trkpt lat="45.02228" lon="5.55229">
        <ele>1531.04</ele>
        <time>2014-02-02T11:05:49Z</time>
      </trkpt>
      <trkpt lat="45.02233" lon="5.55226">
        <ele>1529.11</ele>
        <time>2014-02-02T11:05:50Z</time>
      </trkpt>
      <trkpt lat="45.02239" lon="5.55223">
        <ele>1528.63</ele>
        <time>2014-02-02T11:05:51Z</time>
      </trkpt>
      <trkpt lat="45.02245" lon="5.55222">
        <ele>1527.67</ele>
        <time>2014-02-02T11:05:52Z</time>
      </trkpt>
      <trkpt lat="45.0225" lon="5.55221">
        <ele>1526.23</ele>
        <time>2014-02-02T11:05:53Z</time>
      </trkpt>
      <trkpt lat="45.02256" lon="5.5522">
        <ele>1525.27</ele>
        <time>2014-02-02T11:05:54Z</time>
      </trkpt>
      <trkpt lat="45.02262" lon="5.5522">
        <ele>1525.75</ele>
        <time>2014-02-02T11:05:55Z</time>
      </trkpt>
      <trkpt lat="45.02267" lon="5.55219">
        <ele>1523.35</ele>
        <time>2014-02-02T11:05:56Z</time>
      </trkpt>
      <trkpt lat="45.02271" lon="5.55217">
        <ele>1523.83</ele>
        <time>2014-02-02T11:05:57Z</time>
      </trkpt>
      <trkpt lat="45.02276" lon="5.55214">
        <ele>1521.9</ele>
        <time>2014-02-02T11:05:58Z</time>
      </trkpt>
      <trkpt lat="45.0228" lon="5.55213">
        <ele>1521.42</ele>
        <time>2014-02-02T11:05:59Z</time>
      </trkpt>
      <trkpt lat="45.02284" lon="5.55212">
        <ele>1520.46</ele>
        <time>2014-02-02T11:06:00Z</time>
      </trkpt>
      <trkpt lat="45.02286" lon="5.55209">
        <ele>1521.9</ele>
        <time>2014-02-02T11:06:01Z</time>
      </trkpt>
      <trkpt lat="45.02291" lon="5.55206">
        <ele>1520.46</ele>
        <time>2014-02-02T11:06:03Z</time>
      </trkpt>
      <trkpt lat="45.02294" lon="5.55204">
        <ele>1519.98</ele>
        <time>2014-02-02T11:06:13Z</time>
      </trkpt>
      <trkpt lat="45.02298" lon="5.55203">
        <ele>1519.98</ele>
        <time>2014-02-02T11:06:36Z</time>
      </trkpt>
      <trkpt lat="45.02301" lon="5.55204">
        <ele>1519.5</ele>
        <time>2014-02-02T11:06:54Z</time>
      </trkpt>
      <trkpt lat="45.02304" lon="5.55208">
        <ele>1519.98</ele>
        <time>2014-02-02T11:06:56Z</time>
      </trkpt>
      <trkpt lat="45.02309" lon="5.55211">
        <ele>1519.02</ele>
        <time>2014-02-02T11:07:00Z</time>
      </trkpt>
      <trkpt lat="45.02313" lon="5.55206">
        <ele>1518.54</ele>
        <time>2014-02-02T11:07:02Z</time>
      </trkpt>
      <trkpt lat="45.02316" lon="5.55201">
        <ele>1515.18</ele>
        <time>2014-02-02T11:07:03Z</time>
      </trkpt>
      <trkpt lat="45.02318" lon="5.55195">
        <ele>1514.21</ele>
        <time>2014-02-02T11:07:04Z</time>
      </trkpt>
      <trkpt lat="45.02319" lon="5.55189">
        <ele>1511.33</ele>
        <time>2014-02-02T11:07:05Z</time>
      </trkpt>
      <trkpt lat="45.02321" lon="5.55183">
        <ele>1511.33</ele>
        <time>2014-02-02T11:07:06Z</time>
      </trkpt>
      <trkpt lat="45.02323" lon="5.55178">
        <ele>1509.89</ele>
        <time>2014-02-02T11:07:07Z</time>
      </trkpt>
      <trkpt lat="45.02327" lon="5.55175">
        <ele>1507.97</ele>
        <time>2014-02-02T11:07:08Z</time>
      </trkpt>
      <trkpt lat="45.0233" lon="5.55171">
        <ele>1505.08</ele>
        <time>2014-02-02T11:07:09Z</time>
      </trkpt>
      <trkpt lat="45.02333" lon="5.55168">
        <ele>1506.04</ele>
        <time>2014-02-02T11:07:10Z</time>
      </trkpt>
      <trkpt lat="45.02337" lon="5.55166">
        <ele>1506.52</ele>
        <time>2014-02-02T11:07:11Z</time>
      </trkpt>
      <trkpt lat="45.02339" lon="5.55163">
        <ele>1503.16</ele>
        <time>2014-02-02T11:07:12Z</time>
      </trkpt>
      <trkpt lat="45.02342" lon="5.55159">
        <ele>1501.24</ele>
        <time>2014-02-02T11:07:13Z</time>
      </trkpt>
      <trkpt lat="45.02345" lon="5.55156">
        <ele>1499.79</ele>
        <time>2014-02-02T11:07:14Z</time>
      </trkpt>
      <trkpt lat="45.02349" lon="5.55154">
        <ele>1497.87</ele>
        <time>2014-02-02T11:07:15Z</time>
      </trkpt>
      <trkpt lat="45.02353" lon="5.55154">
        <ele>1496.43</ele>
        <time>2014-02-02T11:07:16Z</time>
      </trkpt>
      <trkpt lat="45.02356" lon="5.55157">
        <ele>1496.43</ele>
        <time>2014-02-02T11:07:17Z</time>
      </trkpt>
      <trkpt lat="45.02358" lon="5.55161">
        <ele>1494.99</ele>
        <time>2014-02-02T11:07:18Z</time>
      </trkpt>
      <trkpt lat="45.0236" lon="5.55164">
        <ele>1493.06</ele>
        <time>2014-02-02T11:07:26Z</time>
      </trkpt>
      <trkpt lat="45.02364" lon="5.55159">
        <ele>1493.06</ele>
        <time>2014-02-02T11:07:48Z</time>
      </trkpt>
      <trkpt lat="45.02368" lon="5.55158">
        <ele>1494.03</ele>
        <time>2014-02-02T11:07:49Z</time>
      </trkpt>
      <trkpt lat="45.02372" lon="5.55157">
        <ele>1489.7</ele>
        <time>2014-02-02T11:07:50Z</time>
      </trkpt>
      <trkpt lat="45.02376" lon="5.55158">
        <ele>1491.62</ele>
        <time>2014-02-02T11:07:51Z</time>
      </trkpt>
      <trkpt lat="45.02381" lon="5.55158">
        <ele>1487.78</ele>
        <time>2014-02-02T11:07:52Z</time>
      </trkpt>
      <trkpt lat="45.02385" lon="5.55157">
        <ele>1485.37</ele>
        <time>2014-02-02T11:07:53Z</time>
      </trkpt>
      <trkpt lat="45.0239" lon="5.55156">
        <ele>1483.93</ele>
        <time>2014-02-02T11:07:54Z</time>
      </trkpt>
      <trkpt lat="45.02395" lon="5.55156">
        <ele>1483.45</ele>
        <time>2014-02-02T11:07:55Z</time>
      </trkpt>
      <trkpt lat="45.02399" lon="5.55154">
        <ele>1480.09</ele>
        <time>2014-02-02T11:07:56Z</time>
      </trkpt>
      <trkpt lat="45.02406" lon="5.55151">
        <ele>1476.72</ele>
        <time>2014-02-02T11:07:57Z</time>
      </trkpt>
      <trkpt lat="45.02413" lon="5.55147">
        <ele>1475.28</ele>
        <time>2014-02-02T11:07:59Z</time>
      </trkpt>
      <trkpt lat="45.02418" lon="5.55146">
        <ele>1473.36</ele>
        <time>2014-02-02T11:08:00Z</time>
      </trkpt>
      <trkpt lat="45.02423" lon="5.55143">
        <ele>1471.92</ele>
        <time>2014-02-02T11:08:01Z</time>
      </trkpt>
      <trkpt lat="45.02427" lon="5.55139">
        <ele>1469.03</ele>
        <time>2014-02-02T11:08:02Z</time>
      </trkpt>
      <trkpt lat="45.02429" lon="5.55134">
        <ele>1467.59</ele>
        <time>2014-02-02T11:08:03Z</time>
      </trkpt>
      <trkpt lat="45.02431" lon="5.55128">
        <ele>1466.63</ele>
        <time>2014-02-02T11:08:04Z</time>
      </trkpt>
      <trkpt lat="45.02436" lon="5.55131">
        <ele>1465.19</ele>
        <time>2014-02-02T11:08:17Z</time>
      </trkpt>
      <trkpt lat="45.02439" lon="5.55129">
        <ele>1463.26</ele>
        <time>2014-02-02T11:08:34Z</time>
      </trkpt>
      <trkpt lat="45.02442" lon="5.55123">
        <ele>1461.34</ele>
        <time>2014-02-02T11:08:36Z</time>
      </trkpt>
      <trkpt lat="45.02447" lon="5.55125">
        <ele>1461.34</ele>
        <time>2014-02-02T11:08:38Z</time>
      </trkpt>
      <trkpt lat="45.0245" lon="5.55124">
        <ele>1458.94</ele>
        <time>2014-02-02T11:08:39Z</time>
      </trkpt>
      <trkpt lat="45.02454" lon="5.55124">
        <ele>1458.94</ele>
        <time>2014-02-02T11:08:40Z</time>
      </trkpt>
      <trkpt lat="45.02458" lon="5.55124">
        <ele>1457.5</ele>
        <time>2014-02-02T11:08:41Z</time>
      </trkpt>
      <trkpt lat="45.02462" lon="5.55124">
        <ele>1453.17</ele>
        <time>2014-02-02T11:08:42Z</time>
      </trkpt>
      <trkpt lat="45.02466" lon="5.55126">
        <ele>1451.25</ele>
        <time>2014-02-02T11:08:43Z</time>
      </trkpt>
      <trkpt lat="45.0247" lon="5.55126">
        <ele>1451.25</ele>
        <time>2014-02-02T11:08:44Z</time>
      </trkpt>
      <trkpt lat="45.02474" lon="5.55124">
        <ele>1450.77</ele>
        <time>2014-02-02T11:08:45Z</time>
      </trkpt>
      <trkpt lat="45.02479" lon="5.55123">
        <ele>1447.4</ele>
        <time>2014-02-02T11:08:46Z</time>
      </trkpt>
      <trkpt lat="45.02483" lon="5.55123">
        <ele>1445.96</ele>
        <time>2014-02-02T11:08:47Z</time>
      </trkpt>
      <trkpt lat="45.02488" lon="5.5512">
        <ele>1443.08</ele>
        <time>2014-02-02T11:08:48Z</time>
      </trkpt>
      <trkpt lat="45.02492" lon="5.55118">
        <ele>1441.15</ele>
        <time>2014-02-02T11:08:49Z</time>
      </trkpt>
      <trkpt lat="45.02495" lon="5.55115">
        <ele>1438.75</ele>
        <time>2014-02-02T11:08:50Z</time>
      </trkpt>
      <trkpt lat="45.02499" lon="5.55113">
        <ele>1437.31</ele>
        <time>2014-02-02T11:08:51Z</time>
      </trkpt>
      <trkpt lat="45.02502" lon="5.55113">
        <ele>1437.79</ele>
        <time>2014-02-02T11:08:52Z</time>
      </trkpt>
      <trkpt lat="45.02506" lon="5.55111">
        <ele>1433.94</ele>
        <time>2014-02-02T11:08:53Z</time>
      </trkpt>
      <trkpt lat="45.02509" lon="5.55108">
        <ele>1434.42</ele>
        <time>2014-02-02T11:08:54Z</time>
      </trkpt>
      <trkpt lat="45.02511" lon="5.55104">
        <ele>1432.5</ele>
        <time>2014-02-02T11:08:56Z</time>
      </trkpt>
      <trkpt lat="45.02506" lon="5.55105">
        <ele>1432.02</ele>
        <time>2014-02-02T11:09:11Z</time>
      </trkpt>
      <trkpt lat="45.02503" lon="5.55108">
        <ele>1434.42</ele>
        <time>2014-02-02T11:10:01Z</time>
      </trkpt>
      <trkpt lat="45.02515" lon="5.55103">
        <ele>1429.14</ele>
        <time>2014-02-02T11:10:05Z</time>
      </trkpt>
      <trkpt lat="45.02519" lon="5.55101">
        <ele>1426.73</ele>
        <time>2014-02-02T11:10:06Z</time>
      </trkpt>
      <trkpt lat="45.02524" lon="5.551">
        <ele>1425.29</ele>
        <time>2014-02-02T11:10:07Z</time>
      </trkpt>
      <trkpt lat="45.02528" lon="5.55099">
        <ele>1424.81</ele>
        <time>2014-02-02T11:10:08Z</time>
      </trkpt>
      <trkpt lat="45.02532" lon="5.551">
        <ele>1420.97</ele>
        <time>2014-02-02T11:10:09Z</time>
      </trkpt>
      <trkpt lat="45.02536" lon="5.55099">
        <ele>1420</ele>
        <time>2014-02-02T11:10:10Z</time>
      </trkpt>
      <trkpt lat="45.0254" lon="5.55097">
        <ele>1417.6</ele>
        <time>2014-02-02T11:10:11Z</time>
      </trkpt>
      <trkpt lat="45.02544" lon="5.55096">
        <ele>1418.56</ele>
        <time>2014-02-02T11:10:12Z</time>
      </trkpt>
      <trkpt lat="45.02548" lon="5.55095">
        <ele>1415.2</ele>
        <time>2014-02-02T11:10:13Z</time>
      </trkpt>
      <trkpt lat="45.02553" lon="5.55096">
        <ele>1414.72</ele>
        <time>2014-02-02T11:10:14Z</time>
      </trkpt>
      <trkpt lat="45.02557" lon="5.55095">
        <ele>1413.28</ele>
        <time>2014-02-02T11:10:15Z</time>
      </trkpt>
      <trkpt lat="45.02561" lon="5.55095">
        <ele>1412.31</ele>
        <time>2014-02-02T11:10:16Z</time>
      </trkpt>
      <trkpt lat="45.02565" lon="5.55094">
        <ele>1410.39</ele>
        <time>2014-02-02T11:10:17Z</time>
      </trkpt>
      <trkpt lat="45.02568" lon="5.55094">
        <ele>1410.87</ele>
        <time>2014-02-02T11:10:18Z</time>
      </trkpt>
      <trkpt lat="45.02571" lon="5.55096">
        <ele>1408.47</ele>
        <time>2014-02-02T11:10:19Z</time>
      </trkpt>
      <trkpt lat="45.02575" lon="5.55097">
        <ele>1404.62</ele>
        <time>2014-02-02T11:10:21Z</time>
      </trkpt>
      <trkpt lat="45.02579" lon="5.55096">
        <ele>1405.58</ele>
        <time>2014-02-02T11:10:28Z</time>
      </trkpt>
      <trkpt lat="45.02585" lon="5.55097">
        <ele>1404.62</ele>
        <time>2014-02-02T11:10:30Z</time>
      </trkpt>
      <trkpt lat="45.02589" lon="5.55098">
        <ele>1401.74</ele>
        <time>2014-02-02T11:10:31Z</time>
      </trkpt>
      <trkpt lat="45.02594" lon="5.55098">
        <ele>1400.78</ele>
        <time>2014-02-02T11:10:32Z</time>
      </trkpt>
      <trkpt lat="45.02598" lon="5.55099">
        <ele>1399.82</ele>
        <time>2014-02-02T11:10:33Z</time>
      </trkpt>
      <trkpt lat="45.02603" lon="5.55099">
        <ele>1396.93</ele>
        <time>2014-02-02T11:10:34Z</time>
      </trkpt>
      <trkpt lat="45.02608" lon="5.55099">
        <ele>1395.97</ele>
        <time>2014-02-02T11:10:35Z</time>
      </trkpt>
      <trkpt lat="45.02613" lon="5.551">
        <ele>1395.01</ele>
        <time>2014-02-02T11:10:36Z</time>
      </trkpt>
      <trkpt lat="45.02619" lon="5.55101">
        <ele>1392.61</ele>
        <time>2014-02-02T11:10:37Z</time>
      </trkpt>
      <trkpt lat="45.02625" lon="5.551">
        <ele>1390.68</ele>
        <time>2014-02-02T11:10:38Z</time>
      </trkpt>
      <trkpt lat="45.02631" lon="5.55099">
        <ele>1390.68</ele>
        <time>2014-02-02T11:10:39Z</time>
      </trkpt>
      <trkpt lat="45.02639" lon="5.55098">
        <ele>1387.32</ele>
        <time>2014-02-02T11:10:40Z</time>
      </trkpt>
      <trkpt lat="45.02654" lon="5.55097">
        <ele>1384.44</ele>
        <time>2014-02-02T11:10:42Z</time>
      </trkpt>
      <trkpt lat="45.0266" lon="5.55096">
        <ele>1384.92</ele>
        <time>2014-02-02T11:10:43Z</time>
      </trkpt>
      <trkpt lat="45.02677" lon="5.55098">
        <ele>1382.03</ele>
        <time>2014-02-02T11:10:46Z</time>
      </trkpt>
      <trkpt lat="45.02681" lon="5.551">
        <ele>1382.03</ele>
        <time>2014-02-02T11:10:47Z</time>
      </trkpt>
      <trkpt lat="45.02685" lon="5.55104">
        <ele>1382.03</ele>
        <time>2014-02-02T11:10:53Z</time>
      </trkpt>
      <trkpt lat="45.02693" lon="5.55104">
        <ele>1380.59</ele>
        <time>2014-02-02T11:10:56Z</time>
      </trkpt>
      <trkpt lat="45.02697" lon="5.55106">
        <ele>1380.11</ele>
        <time>2014-02-02T11:10:57Z</time>
      </trkpt>
      <trkpt lat="45.02701" lon="5.55109">
        <ele>1380.11</ele>
        <time>2014-02-02T11:10:58Z</time>
      </trkpt>
      <trkpt lat="45.02704" lon="5.55114">
        <ele>1379.15</ele>
        <time>2014-02-02T11:10:59Z</time>
      </trkpt>
      <trkpt lat="45.02707" lon="5.55119">
        <ele>1380.11</ele>
        <time>2014-02-02T11:11:00Z</time>
      </trkpt>
      <trkpt lat="45.02711" lon="5.55124">
        <ele>1378.19</ele>
        <time>2014-02-02T11:11:01Z</time>
      </trkpt>
      <trkpt lat="45.02715" lon="5.55129">
        <ele>1377.71</ele>
        <time>2014-02-02T11:11:02Z</time>
      </trkpt>
      <trkpt lat="45.0272" lon="5.55133">
        <ele>1375.3</ele>
        <time>2014-02-02T11:11:03Z</time>
      </trkpt>
      <trkpt lat="45.02725" lon="5.55137">
        <ele>1376.26</ele>
        <time>2014-02-02T11:11:04Z</time>
      </trkpt>
      <trkpt lat="45.02731" lon="5.55142">
        <ele>1375.78</ele>
        <time>2014-02-02T11:11:05Z</time>
      </trkpt>
      <trkpt lat="45.02751" lon="5.5516">
        <ele>1373.38</ele>
        <time>2014-02-02T11:11:09Z</time>
      </trkpt>
      <trkpt lat="45.02756" lon="5.55163">
        <ele>1372.9</ele>
        <time>2014-02-02T11:11:10Z</time>
      </trkpt>
      <trkpt lat="45.02762" lon="5.55165">
        <ele>1371.94</ele>
        <time>2014-02-02T11:11:11Z</time>
      </trkpt>
      <trkpt lat="45.02768" lon="5.55167">
        <ele>1371.94</ele>
        <time>2014-02-02T11:11:12Z</time>
      </trkpt>
      <trkpt lat="45.02803" lon="5.55187">
        <ele>1368.09</ele>
        <time>2014-02-02T11:11:18Z</time>
      </trkpt>
      <trkpt lat="45.02809" lon="5.55192">
        <ele>1367.13</ele>
        <time>2014-02-02T11:11:19Z</time>
      </trkpt>
      <trkpt lat="45.02824" lon="5.55204">
        <ele>1365.21</ele>
        <time>2014-02-02T11:11:22Z</time>
      </trkpt>
      <trkpt lat="45.0283" lon="5.55207">
        <ele>1365.21</ele>
        <time>2014-02-02T11:11:23Z</time>
      </trkpt>
      <trkpt lat="45.02864" lon="5.55218">
        <ele>1362.81</ele>
        <time>2014-02-02T11:11:29Z</time>
      </trkpt>
      <trkpt lat="45.02869" lon="5.55221">
        <ele>1362.81</ele>
        <time>2014-02-02T11:11:30Z</time>
      </trkpt>
      <trkpt lat="45.02872" lon="5.55225">
        <ele>1362.81</ele>
        <time>2014-02-02T11:11:31Z</time>
      </trkpt>
      <trkpt lat="45.02876" lon="5.55229">
        <ele>1361.36</ele>
        <time>2014-02-02T11:11:32Z</time>
      </trkpt>
      <trkpt lat="45.02879" lon="5.55234">
        <ele>1360.88</ele>
        <time>2014-02-02T11:11:33Z</time>
      </trkpt>
      <trkpt lat="45.02882" lon="5.55239">
        <ele>1360.4</ele>
        <time>2014-02-02T11:11:34Z</time>
      </trkpt>
      <trkpt lat="45.02886" lon="5.55243">
        <ele>1360.4</ele>
        <time>2014-02-02T11:11:35Z</time>
      </trkpt>
      <trkpt lat="45.0289" lon="5.55248">
        <ele>1359.44</ele>
        <time>2014-02-02T11:11:36Z</time>
      </trkpt>
      <trkpt lat="45.02895" lon="5.55252">
        <ele>1357.04</ele>
        <time>2014-02-02T11:11:37Z</time>
      </trkpt>
      <trkpt lat="45.029" lon="5.55256">
        <ele>1358.48</ele>
        <time>2014-02-02T11:11:38Z</time>
      </trkpt>
      <trkpt lat="45.02905" lon="5.55259">
        <ele>1358</ele>
        <time>2014-02-02T11:11:39Z</time>
      </trkpt>
      <trkpt lat="45.02943" lon="5.55279">
        <ele>1354.63</ele>
        <time>2014-02-02T11:11:46Z</time>
      </trkpt>
      <trkpt lat="45.02958" lon="5.55292">
        <ele>1353.67</ele>
        <time>2014-02-02T11:11:49Z</time>
      </trkpt>
      <trkpt lat="45.02968" lon="5.55302">
        <ele>1352.23</ele>
        <time>2014-02-02T11:11:51Z</time>
      </trkpt>
      <trkpt lat="45.02991" lon="5.55331">
        <ele>1348.87</ele>
        <time>2014-02-02T11:11:56Z</time>
      </trkpt>
      <trkpt lat="45.02995" lon="5.55337">
        <ele>1348.87</ele>
        <time>2014-02-02T11:11:57Z</time>
      </trkpt>
      <trkpt lat="45.03008" lon="5.55355">
        <ele>1347.43</ele>
        <time>2014-02-02T11:12:00Z</time>
      </trkpt>
      <trkpt lat="45.03025" lon="5.55386">
        <ele>1345.5</ele>
        <time>2014-02-02T11:12:05Z</time>
      </trkpt>
      <trkpt lat="45.03038" lon="5.55403">
        <ele>1343.58</ele>
        <time>2014-02-02T11:12:08Z</time>
      </trkpt>
      <trkpt lat="45.03041" lon="5.55408">
        <ele>1342.14</ele>
        <time>2014-02-02T11:12:09Z</time>
      </trkpt>
      <trkpt lat="45.03046" lon="5.55413">
        <ele>1343.58</ele>
        <time>2014-02-02T11:12:10Z</time>
      </trkpt>
      <trkpt lat="45.03055" lon="5.55422">
        <ele>1342.14</ele>
        <time>2014-02-02T11:12:12Z</time>
      </trkpt>
      <trkpt lat="45.03059" lon="5.55428">
        <ele>1341.66</ele>
        <time>2014-02-02T11:12:13Z</time>
      </trkpt>
      <trkpt lat="45.03063" lon="5.55435">
        <ele>1342.14</ele>
        <time>2014-02-02T11:12:14Z</time>
      </trkpt>
      <trkpt lat="45.03066" lon="5.55442">
        <ele>1341.66</ele>
        <time>2014-02-02T11:12:15Z</time>
      </trkpt>
      <trkpt lat="45.03069" lon="5.55448">
        <ele>1341.18</ele>
        <time>2014-02-02T11:12:16Z</time>
      </trkpt>
      <trkpt lat="45.03085" lon="5.55483">
        <ele>1338.29</ele>
        <time>2014-02-02T11:12:21Z</time>
      </trkpt>
      <trkpt lat="45.03101" lon="5.55508">
        <ele>1336.85</ele>
        <time>2014-02-02T11:12:25Z</time>
      </trkpt>
      <trkpt lat="45.03112" lon="5.55524">
        <ele>1335.41</ele>
        <time>2014-02-02T11:12:28Z</time>
      </trkpt>
      <trkpt lat="45.03125" lon="5.5555">
        <ele>1333.49</ele>
        <time>2014-02-02T11:12:32Z</time>
      </trkpt>
      <trkpt lat="45.03141" lon="5.55576">
        <ele>1331.08</ele>
        <time>2014-02-02T11:12:36Z</time>
      </trkpt>
      <trkpt lat="45.03145" lon="5.55581">
        <ele>1331.08</ele>
        <time>2014-02-02T11:12:37Z</time>
      </trkpt>
      <trkpt lat="45.03155" lon="5.5559">
        <ele>1329.64</ele>
        <time>2014-02-02T11:12:39Z</time>
      </trkpt>
      <trkpt lat="45.03178" lon="5.55618">
        <ele>1325.8</ele>
        <time>2014-02-02T11:12:44Z</time>
      </trkpt>
      <trkpt lat="45.0321" lon="5.55655">
        <ele>1322.43</ele>
        <time>2014-02-02T11:12:51Z</time>
      </trkpt>
      <trkpt lat="45.03231" lon="5.5568">
        <ele>1320.51</ele>
        <time>2014-02-02T11:12:55Z</time>
      </trkpt>
      <trkpt lat="45.03256" lon="5.55709">
        <ele>1317.14</ele>
        <time>2014-02-02T11:13:00Z</time>
      </trkpt>
      <trkpt lat="45.03266" lon="5.55722">
        <ele>1317.14</ele>
        <time>2014-02-02T11:13:02Z</time>
      </trkpt>
      <trkpt lat="45.03287" lon="5.55751">
        <ele>1314.26</ele>
        <time>2014-02-02T11:13:07Z</time>
      </trkpt>
      <trkpt lat="45.03295" lon="5.55763">
        <ele>1313.3</ele>
        <time>2014-02-02T11:13:09Z</time>
      </trkpt>
      <trkpt lat="45.03314" lon="5.55788">
        <ele>1311.38</ele>
        <time>2014-02-02T11:13:13Z</time>
      </trkpt>
      <trkpt lat="45.03347" lon="5.55835">
        <ele>1308.01</ele>
        <time>2014-02-02T11:13:21Z</time>
      </trkpt>
      <trkpt lat="45.03351" lon="5.55839">
        <ele>1307.53</ele>
        <time>2014-02-02T11:13:22Z</time>
      </trkpt>
      <trkpt lat="45.03356" lon="5.55842">
        <ele>1307.53</ele>
        <time>2014-02-02T11:13:23Z</time>
      </trkpt>
      <trkpt lat="45.03374" lon="5.55856">
        <ele>1305.61</ele>
        <time>2014-02-02T11:13:27Z</time>
      </trkpt>
      <trkpt lat="45.03378" lon="5.55861">
        <ele>1305.13</ele>
        <time>2014-02-02T11:13:28Z</time>
      </trkpt>
      <trkpt lat="45.0339" lon="5.55875">
        <ele>1304.65</ele>
        <time>2014-02-02T11:13:31Z</time>
      </trkpt>
      <trkpt lat="45.03394" lon="5.5588">
        <ele>1303.69</ele>
        <time>2014-02-02T11:13:32Z</time>
      </trkpt>
      <trkpt lat="45.03399" lon="5.55886">
        <ele>1302.72</ele>
        <time>2014-02-02T11:13:33Z</time>
      </trkpt>
      <trkpt lat="45.03403" lon="5.55891">
        <ele>1302.24</ele>
        <time>2014-02-02T11:13:34Z</time>
      </trkpt>
      <trkpt lat="45.03408" lon="5.55896">
        <ele>1301.76</ele>
        <time>2014-02-02T11:13:35Z</time>
      </trkpt>
      <trkpt lat="45.03413" lon="5.55901">
        <ele>1300.8</ele>
        <time>2014-02-02T11:13:36Z</time>
      </trkpt>
      <trkpt lat="45.03419" lon="5.55905">
        <ele>1300.8</ele>
        <time>2014-02-02T11:13:37Z</time>
      </trkpt>
      <trkpt lat="45.0344" lon="5.55917">
        <ele>1297.44</ele>
        <time>2014-02-02T11:13:41Z</time>
      </trkpt>
      <trkpt lat="45.0345" lon="5.55919">
        <ele>1298.88</ele>
        <time>2014-02-02T11:13:43Z</time>
      </trkpt>
      <trkpt lat="45.03455" lon="5.5592">
        <ele>1298.88</ele>
        <time>2014-02-02T11:13:44Z</time>
      </trkpt>
      <trkpt lat="45.03465" lon="5.55922">
        <ele>1297.92</ele>
        <time>2014-02-02T11:13:46Z</time>
      </trkpt>
      <trkpt lat="45.0347" lon="5.55924">
        <ele>1296.96</ele>
        <time>2014-02-02T11:13:47Z</time>
      </trkpt>
      <trkpt lat="45.03498" lon="5.5593">
        <ele>1294.55</ele>
        <time>2014-02-02T11:13:53Z</time>
      </trkpt>
      <trkpt lat="45.03531" lon="5.5592">
        <ele>1292.15</ele>
        <time>2014-02-02T11:14:01Z</time>
      </trkpt>
      <trkpt lat="45.03535" lon="5.55917">
        <ele>1293.59</ele>
        <time>2014-02-02T11:14:02Z</time>
      </trkpt>
      <trkpt lat="45.03537" lon="5.55914">
        <ele>1293.59</ele>
        <time>2014-02-02T11:14:03Z</time>
      </trkpt>
      <trkpt lat="45.0354" lon="5.5591">
        <ele>1293.11</ele>
        <time>2014-02-02T11:14:04Z</time>
      </trkpt>
      <trkpt lat="45.03543" lon="5.55906">
        <ele>1291.67</ele>
        <time>2014-02-02T11:14:05Z</time>
      </trkpt>
      <trkpt lat="45.03546" lon="5.55901">
        <ele>1292.63</ele>
        <time>2014-02-02T11:14:06Z</time>
      </trkpt>
      <trkpt lat="45.03549" lon="5.55897">
        <ele>1291.67</ele>
        <time>2014-02-02T11:14:07Z</time>
      </trkpt>
      <trkpt lat="45.03564" lon="5.55856">
        <ele>1289.75</ele>
        <time>2014-02-02T11:14:15Z</time>
      </trkpt>
      <trkpt lat="45.03569" lon="5.55836">
        <ele>1288.78</ele>
        <time>2014-02-02T11:14:18Z</time>
      </trkpt>
      <trkpt lat="45.03571" lon="5.5583">
        <ele>1287.34</ele>
        <time>2014-02-02T11:14:19Z</time>
      </trkpt>
      <trkpt lat="45.03574" lon="5.55824">
        <ele>1287.82</ele>
        <time>2014-02-02T11:14:20Z</time>
      </trkpt>
      <trkpt lat="45.03581" lon="5.55812">
        <ele>1284.46</ele>
        <time>2014-02-02T11:14:22Z</time>
      </trkpt>
      <trkpt lat="45.03584" lon="5.55806">
        <ele>1287.82</ele>
        <time>2014-02-02T11:14:23Z</time>
      </trkpt>
      <trkpt lat="45.03595" lon="5.5579">
        <ele>1283.98</ele>
        <time>2014-02-02T11:14:26Z</time>
      </trkpt>
      <trkpt lat="45.03603" lon="5.55778">
        <ele>1283.02</ele>
        <time>2014-02-02T11:14:28Z</time>
      </trkpt>
      <trkpt lat="45.0361" lon="5.55767">
        <ele>1282.06</ele>
        <time>2014-02-02T11:14:30Z</time>
      </trkpt>
      <trkpt lat="45.03615" lon="5.55764">
        <ele>1282.06</ele>
        <time>2014-02-02T11:14:31Z</time>
      </trkpt>
      <trkpt lat="45.03619" lon="5.55761">
        <ele>1282.06</ele>
        <time>2014-02-02T11:14:32Z</time>
      </trkpt>
      <trkpt lat="45.03624" lon="5.55759">
        <ele>1282.06</ele>
        <time>2014-02-02T11:14:33Z</time>
      </trkpt>
      <trkpt lat="45.03629" lon="5.55757">
        <ele>1281.57</ele>
        <time>2014-02-02T11:14:34Z</time>
      </trkpt>
      <trkpt lat="45.03634" lon="5.55756">
        <ele>1281.57</ele>
        <time>2014-02-02T11:14:35Z</time>
      </trkpt>
      <trkpt lat="45.03654" lon="5.55755">
        <ele>1279.65</ele>
        <time>2014-02-02T11:14:39Z</time>
      </trkpt>
      <trkpt lat="45.0367" lon="5.55753">
        <ele>1277.73</ele>
        <time>2014-02-02T11:14:42Z</time>
      </trkpt>
      <trkpt lat="45.03681" lon="5.5575">
        <ele>1277.73</ele>
        <time>2014-02-02T11:14:44Z</time>
      </trkpt>
      <trkpt lat="45.03686" lon="5.5575">
        <ele>1277.25</ele>
        <time>2014-02-02T11:14:45Z</time>
      </trkpt>
      <trkpt lat="45.03691" lon="5.55751">
        <ele>1275.81</ele>
        <time>2014-02-02T11:14:46Z</time>
      </trkpt>
      <trkpt lat="45.03696" lon="5.55753">
        <ele>1274.85</ele>
        <time>2014-02-02T11:14:47Z</time>
      </trkpt>
      <trkpt lat="45.03702" lon="5.55753">
        <ele>1273.88</ele>
        <time>2014-02-02T11:14:48Z</time>
      </trkpt>
      <trkpt lat="45.03708" lon="5.55754">
        <ele>1272.44</ele>
        <time>2014-02-02T11:14:49Z</time>
      </trkpt>
      <trkpt lat="45.03711" lon="5.55756">
        <ele>1273.88</ele>
        <time>2014-02-02T11:14:50Z</time>
      </trkpt>
      <trkpt lat="45.03721" lon="5.55755">
        <ele>1273.4</ele>
        <time>2014-02-02T11:15:06Z</time>
      </trkpt>
      <trkpt lat="45.03717" lon="5.55746">
        <ele>1273.4</ele>
        <time>2014-02-02T11:15:28Z</time>
      </trkpt>
      <trkpt lat="45.0372" lon="5.55745">
        <ele>1275.33</ele>
        <time>2014-02-02T11:15:31Z</time>
      </trkpt>
      <trkpt lat="45.03729" lon="5.55742">
        <ele>1272.92</ele>
        <time>2014-02-02T11:15:34Z</time>
      </trkpt>
      <trkpt lat="45.03732" lon="5.55739">
        <ele>1271.96</ele>
        <time>2014-02-02T11:15:35Z</time>
      </trkpt>
      <trkpt lat="45.03736" lon="5.55735">
        <ele>1271.48</ele>
        <time>2014-02-02T11:15:36Z</time>
      </trkpt>
      <trkpt lat="45.03741" lon="5.55733">
        <ele>1269.56</ele>
        <time>2014-02-02T11:15:37Z</time>
      </trkpt>
      <trkpt lat="45.03748" lon="5.55732">
        <ele>1270.04</ele>
        <time>2014-02-02T11:15:38Z</time>
      </trkpt>
      <trkpt lat="45.03762" lon="5.55727">
        <ele>1267.16</ele>
        <time>2014-02-02T11:15:40Z</time>
      </trkpt>
      <trkpt lat="45.03777" lon="5.5572">
        <ele>1265.71</ele>
        <time>2014-02-02T11:15:42Z</time>
      </trkpt>
      <trkpt lat="45.03784" lon="5.55717">
        <ele>1264.27</ele>
        <time>2014-02-02T11:15:43Z</time>
      </trkpt>
      <trkpt lat="45.03792" lon="5.55715">
        <ele>1263.31</ele>
        <time>2014-02-02T11:15:44Z</time>
      </trkpt>
      <trkpt lat="45.03801" lon="5.55715">
        <ele>1261.87</ele>
        <time>2014-02-02T11:15:45Z</time>
      </trkpt>
      <trkpt lat="45.03808" lon="5.55715">
        <ele>1261.87</ele>
        <time>2014-02-02T11:15:46Z</time>
      </trkpt>
      <trkpt lat="45.03836" lon="5.55721">
        <ele>1259.46</ele>
        <time>2014-02-02T11:15:50Z</time>
      </trkpt>
      <trkpt lat="45.03856" lon="5.55728">
        <ele>1257.54</ele>
        <time>2014-02-02T11:15:53Z</time>
      </trkpt>
      <trkpt lat="45.03876" lon="5.55734">
        <ele>1256.1</ele>
        <time>2014-02-02T11:15:56Z</time>
      </trkpt>
      <trkpt lat="45.03889" lon="5.55734">
        <ele>1255.14</ele>
        <time>2014-02-02T11:15:58Z</time>
      </trkpt>
      <trkpt lat="45.03895" lon="5.55734">
        <ele>1254.18</ele>
        <time>2014-02-02T11:15:59Z</time>
      </trkpt>
      <trkpt lat="45.03931" lon="5.55732">
        <ele>1251.29</ele>
        <time>2014-02-02T11:16:05Z</time>
      </trkpt>
      <trkpt lat="45.03936" lon="5.55729">
        <ele>1249.37</ele>
        <time>2014-02-02T11:16:06Z</time>
      </trkpt>
      <trkpt lat="45.03941" lon="5.55725">
        <ele>1250.33</ele>
        <time>2014-02-02T11:16:07Z</time>
      </trkpt>
      <trkpt lat="45.03945" lon="5.55719">
        <ele>1249.85</ele>
        <time>2014-02-02T11:16:08Z</time>
      </trkpt>
      <trkpt lat="45.03949" lon="5.55711">
        <ele>1248.41</ele>
        <time>2014-02-02T11:16:09Z</time>
      </trkpt>
      <trkpt lat="45.0395" lon="5.55703">
        <ele>1247.45</ele>
        <time>2014-02-02T11:16:10Z</time>
      </trkpt>
      <trkpt lat="45.03953" lon="5.55695">
        <ele>1246.49</ele>
        <time>2014-02-02T11:16:11Z</time>
      </trkpt>
      <trkpt lat="45.03958" lon="5.55691">
        <ele>1246.97</ele>
        <time>2014-02-02T11:16:12Z</time>
      </trkpt>
      <trkpt lat="45.03973" lon="5.55688">
        <ele>1245.04</ele>
        <time>2014-02-02T11:16:15Z</time>
      </trkpt>
      <trkpt lat="45.03986" lon="5.55686">
        <ele>1240.72</ele>
        <time>2014-02-02T11:16:18Z</time>
      </trkpt>
      <trkpt lat="45.03991" lon="5.55686">
        <ele>1237.83</ele>
        <time>2014-02-02T11:16:19Z</time>
      </trkpt>
      <trkpt lat="45.04008" lon="5.55678">
        <ele>1234.95</ele>
        <time>2014-02-02T11:16:22Z</time>
      </trkpt>
      <trkpt lat="45.04021" lon="5.55677">
        <ele>1231.11</ele>
        <time>2014-02-02T11:16:24Z</time>
      </trkpt>
      <trkpt lat="45.0404" lon="5.55679">
        <ele>1227.26</ele>
        <time>2014-02-02T11:16:27Z</time>
      </trkpt>
      <trkpt lat="45.0406" lon="5.55687">
        <ele>1221.49</ele>
        <time>2014-02-02T11:16:30Z</time>
      </trkpt>
      <trkpt lat="45.04066" lon="5.55691">
        <ele>1223.42</ele>
        <time>2014-02-02T11:16:31Z</time>
      </trkpt>
      <trkpt lat="45.04079" lon="5.55697">
        <ele>1218.13</ele>
        <time>2014-02-02T11:16:33Z</time>
      </trkpt>
      <trkpt lat="45.04085" lon="5.55702">
        <ele>1218.61</ele>
        <time>2014-02-02T11:16:34Z</time>
      </trkpt>
      <trkpt lat="45.04091" lon="5.55706">
        <ele>1216.21</ele>
        <time>2014-02-02T11:16:35Z</time>
      </trkpt>
      <trkpt lat="45.04117" lon="5.55728">
        <ele>1212.84</ele>
        <time>2014-02-02T11:16:40Z</time>
      </trkpt>
      <trkpt lat="45.04121" lon="5.55731">
        <ele>1213.8</ele>
        <time>2014-02-02T11:16:41Z</time>
      </trkpt>
      <trkpt lat="45.04128" lon="5.55734">
        <ele>1212.36</ele>
        <time>2014-02-02T11:16:43Z</time>
      </trkpt>
      <trkpt lat="45.04149" lon="5.55741">
        <ele>1209</ele>
        <time>2014-02-02T11:16:47Z</time>
      </trkpt>
      <trkpt lat="45.04156" lon="5.55742">
        <ele>1209.48</ele>
        <time>2014-02-02T11:16:48Z</time>
      </trkpt>
      <trkpt lat="45.04162" lon="5.55743">
        <ele>1208.03</ele>
        <time>2014-02-02T11:16:49Z</time>
      </trkpt>
      <trkpt lat="45.04171" lon="5.55742">
        <ele>1206.59</ele>
        <time>2014-02-02T11:16:51Z</time>
      </trkpt>
      <trkpt lat="45.0419" lon="5.55737">
        <ele>1202.27</ele>
        <time>2014-02-02T11:16:55Z</time>
      </trkpt>
      <trkpt lat="45.04201" lon="5.55739">
        <ele>1198.9</ele>
        <time>2014-02-02T11:16:57Z</time>
      </trkpt>
      <trkpt lat="45.04219" lon="5.55742">
        <ele>1196.98</ele>
        <time>2014-02-02T11:17:00Z</time>
      </trkpt>
      <trkpt lat="45.04251" lon="5.55751">
        <ele>1187.85</ele>
        <time>2014-02-02T11:17:05Z</time>
      </trkpt>
      <trkpt lat="45.04257" lon="5.55752">
        <ele>1188.81</ele>
        <time>2014-02-02T11:17:06Z</time>
      </trkpt>
      <trkpt lat="45.04269" lon="5.55753">
        <ele>1187.37</ele>
        <time>2014-02-02T11:17:08Z</time>
      </trkpt>
      <trkpt lat="45.04275" lon="5.55755">
        <ele>1185.92</ele>
        <time>2014-02-02T11:17:09Z</time>
      </trkpt>
      <trkpt lat="45.04281" lon="5.55756">
        <ele>1184.96</ele>
        <time>2014-02-02T11:17:10Z</time>
      </trkpt>
      <trkpt lat="45.04293" lon="5.55761">
        <ele>1183.04</ele>
        <time>2014-02-02T11:17:12Z</time>
      </trkpt>
      <trkpt lat="45.04298" lon="5.55765">
        <ele>1183.04</ele>
        <time>2014-02-02T11:17:13Z</time>
      </trkpt>
      <trkpt lat="45.04303" lon="5.55771">
        <ele>1181.6</ele>
        <time>2014-02-02T11:17:14Z</time>
      </trkpt>
      <trkpt lat="45.04306" lon="5.55777">
        <ele>1180.16</ele>
        <time>2014-02-02T11:17:15Z</time>
      </trkpt>
      <trkpt lat="45.04309" lon="5.55783">
        <ele>1180.64</ele>
        <time>2014-02-02T11:17:16Z</time>
      </trkpt>
      <trkpt lat="45.04313" lon="5.55789">
        <ele>1180.16</ele>
        <time>2014-02-02T11:17:17Z</time>
      </trkpt>
      <trkpt lat="45.04317" lon="5.55794">
        <ele>1178.23</ele>
        <time>2014-02-02T11:17:18Z</time>
      </trkpt>
      <trkpt lat="45.04321" lon="5.55802">
        <ele>1178.71</ele>
        <time>2014-02-02T11:17:19Z</time>
      </trkpt>
      <trkpt lat="45.04324" lon="5.55811">
        <ele>1176.79</ele>
        <time>2014-02-02T11:17:20Z</time>
      </trkpt>
      <trkpt lat="45.04327" lon="5.55819">
        <ele>1175.83</ele>
        <time>2014-02-02T11:17:21Z</time>
      </trkpt>
      <trkpt lat="45.04329" lon="5.55828">
        <ele>1174.39</ele>
        <time>2014-02-02T11:17:22Z</time>
      </trkpt>
      <trkpt lat="45.04331" lon="5.55837">
        <ele>1175.83</ele>
        <time>2014-02-02T11:17:23Z</time>
      </trkpt>
      <trkpt lat="45.04333" lon="5.55845">
        <ele>1172.47</ele>
        <time>2014-02-02T11:17:24Z</time>
      </trkpt>
      <trkpt lat="45.04335" lon="5.55854">
        <ele>1173.91</ele>
        <time>2014-02-02T11:17:25Z</time>
      </trkpt>
      <trkpt lat="45.04338" lon="5.55862">
        <ele>1171.98</ele>
        <time>2014-02-02T11:17:26Z</time>
      </trkpt>
      <trkpt lat="45.04344" lon="5.55878">
        <ele>1171.02</ele>
        <time>2014-02-02T11:17:28Z</time>
      </trkpt>
      <trkpt lat="45.04357" lon="5.5591">
        <ele>1167.66</ele>
        <time>2014-02-02T11:17:32Z</time>
      </trkpt>
      <trkpt lat="45.04372" lon="5.5594">
        <ele>1164.29</ele>
        <time>2014-02-02T11:17:36Z</time>
      </trkpt>
      <trkpt lat="45.04374" lon="5.55947">
        <ele>1163.81</ele>
        <time>2014-02-02T11:17:37Z</time>
      </trkpt>
      <trkpt lat="45.04377" lon="5.55954">
        <ele>1163.33</ele>
        <time>2014-02-02T11:17:38Z</time>
      </trkpt>
      <trkpt lat="45.04381" lon="5.55968">
        <ele>1162.37</ele>
        <time>2014-02-02T11:17:40Z</time>
      </trkpt>
      <trkpt lat="45.04387" lon="5.5598">
        <ele>1161.89</ele>
        <time>2014-02-02T11:17:42Z</time>
      </trkpt>
      <trkpt lat="45.04391" lon="5.55986">
        <ele>1161.89</ele>
        <time>2014-02-02T11:17:43Z</time>
      </trkpt>
      <trkpt lat="45.04419" lon="5.56018">
        <ele>1158.53</ele>
        <time>2014-02-02T11:17:51Z</time>
      </trkpt>
      <trkpt lat="45.0444" lon="5.56013">
        <ele>1161.41</ele>
        <time>2014-02-02T11:17:59Z</time>
      </trkpt>
      <trkpt lat="45.04448" lon="5.5601">
        <ele>1159.01</ele>
        <time>2014-02-02T11:18:02Z</time>
      </trkpt>
      <trkpt lat="45.04457" lon="5.56006">
        <ele>1160.45</ele>
        <time>2014-02-02T11:18:08Z</time>
      </trkpt>
      <trkpt lat="45.04464" lon="5.56002">
        <ele>1157.08</ele>
        <time>2014-02-02T11:18:13Z</time>
      </trkpt>
      <trkpt lat="45.04467" lon="5.55999">
        <ele>1159.01</ele>
        <time>2014-02-02T11:19:16Z</time>
      </trkpt>
      <trkpt lat="45.04471" lon="5.56">
        <ele>1159.49</ele>
        <time>2014-02-02T11:19:33Z</time>
      </trkpt>
      <trkpt lat="45.04471" lon="5.56019">
        <ele>1159.49</ele>
        <time>2014-02-02T11:20:42Z</time>
      </trkpt>
      <trkpt lat="45.04433" lon="5.56037">
        <ele>1158.53</ele>
        <time>2014-02-02T11:21:07Z</time>
      </trkpt>
      <trkpt lat="45.04432" lon="5.56031">
        <ele>1159.49</ele>
        <time>2014-02-02T11:21:18Z</time>
      </trkpt>
      <trkpt lat="45.04443" lon="5.56003">
        <ele>1160.45</ele>
        <time>2014-02-02T11:21:41Z</time>
      </trkpt>
      <trkpt lat="45.04435" lon="5.55998">
        <ele>1160.45</ele>
        <time>2014-02-02T11:22:05Z</time>
      </trkpt>
      <trkpt lat="45.04426" lon="5.56005">
        <ele>1163.81</ele>
        <time>2014-02-02T11:22:08Z</time>
      </trkpt>
      <trkpt lat="45.04422" lon="5.56008">
        <ele>1165.26</ele>
        <time>2014-02-02T11:22:09Z</time>
      </trkpt>
      <trkpt lat="45.04413" lon="5.56015">
        <ele>1169.1</ele>
        <time>2014-02-02T11:22:11Z</time>
      </trkpt>
      <trkpt lat="45.04405" lon="5.56021">
        <ele>1174.39</ele>
        <time>2014-02-02T11:22:13Z</time>
      </trkpt>
      <trkpt lat="45.04391" lon="5.5603">
        <ele>1177.27</ele>
        <time>2014-02-02T11:22:16Z</time>
      </trkpt>
      <trkpt lat="45.04382" lon="5.56036">
        <ele>1182.56</ele>
        <time>2014-02-02T11:22:18Z</time>
      </trkpt>
      <trkpt lat="45.04373" lon="5.56041">
        <ele>1186.4</ele>
        <time>2014-02-02T11:22:20Z</time>
      </trkpt>
      <trkpt lat="45.04363" lon="5.56047">
        <ele>1190.25</ele>
        <time>2014-02-02T11:22:22Z</time>
      </trkpt>
      <trkpt lat="45.04354" lon="5.56052">
        <ele>1195.54</ele>
        <time>2014-02-02T11:22:24Z</time>
      </trkpt>
      <trkpt lat="45.04346" lon="5.56058">
        <ele>1199.38</ele>
        <time>2014-02-02T11:22:26Z</time>
      </trkpt>
      <trkpt lat="45.04337" lon="5.56064">
        <ele>1204.19</ele>
        <time>2014-02-02T11:22:28Z</time>
      </trkpt>
      <trkpt lat="45.04329" lon="5.56069">
        <ele>1208.51</ele>
        <time>2014-02-02T11:22:30Z</time>
      </trkpt>
      <trkpt lat="45.04322" lon="5.56074">
        <ele>1213.32</ele>
        <time>2014-02-02T11:22:32Z</time>
      </trkpt>
      <trkpt lat="45.04311" lon="5.56082">
        <ele>1217.17</ele>
        <time>2014-02-02T11:22:35Z</time>
      </trkpt>
      <trkpt lat="45.04299" lon="5.5609">
        <ele>1221.01</ele>
        <time>2014-02-02T11:22:38Z</time>
      </trkpt>
      <trkpt lat="45.04286" lon="5.56097">
        <ele>1224.86</ele>
        <time>2014-02-02T11:22:41Z</time>
      </trkpt>
      <trkpt lat="45.04273" lon="5.56106">
        <ele>1229.18</ele>
        <time>2014-02-02T11:22:44Z</time>
      </trkpt>
      <trkpt lat="45.04265" lon="5.56111">
        <ele>1232.55</ele>
        <time>2014-02-02T11:22:46Z</time>
      </trkpt>
      <trkpt lat="45.04253" lon="5.56119">
        <ele>1237.83</ele>
        <time>2014-02-02T11:22:49Z</time>
      </trkpt>
      <trkpt lat="45.04244" lon="5.56125">
        <ele>1241.2</ele>
        <time>2014-02-02T11:22:51Z</time>
      </trkpt>
      <trkpt lat="45.04235" lon="5.5613">
        <ele>1244.56</ele>
        <time>2014-02-02T11:22:53Z</time>
      </trkpt>
      <trkpt lat="45.04227" lon="5.56136">
        <ele>1248.41</ele>
        <time>2014-02-02T11:22:55Z</time>
      </trkpt>
      <trkpt lat="45.04219" lon="5.56141">
        <ele>1252.25</ele>
        <time>2014-02-02T11:22:57Z</time>
      </trkpt>
      <trkpt lat="45.0421" lon="5.56147">
        <ele>1256.1</ele>
        <time>2014-02-02T11:22:59Z</time>
      </trkpt>
      <trkpt lat="45.04199" lon="5.56154">
        <ele>1260.91</ele>
        <time>2014-02-02T11:23:02Z</time>
      </trkpt>
      <trkpt lat="45.0419" lon="5.56159">
        <ele>1266.19</ele>
        <time>2014-02-02T11:23:04Z</time>
      </trkpt>
      <trkpt lat="45.04182" lon="5.56164">
        <ele>1269.56</ele>
        <time>2014-02-02T11:23:06Z</time>
      </trkpt>
      <trkpt lat="45.04174" lon="5.5617">
        <ele>1273.88</ele>
        <time>2014-02-02T11:23:08Z</time>
      </trkpt>
      <trkpt lat="45.04166" lon="5.56176">
        <ele>1278.21</ele>
        <time>2014-02-02T11:23:10Z</time>
      </trkpt>
      <trkpt lat="45.04158" lon="5.5618">
        <ele>1281.57</ele>
        <time>2014-02-02T11:23:12Z</time>
      </trkpt>
      <trkpt lat="45.0415" lon="5.56186">
        <ele>1285.9</ele>
        <time>2014-02-02T11:23:14Z</time>
      </trkpt>
      <trkpt lat="45.04142" lon="5.56191">
        <ele>1289.27</ele>
        <time>2014-02-02T11:23:16Z</time>
      </trkpt>
      <trkpt lat="45.04133" lon="5.56197">
        <ele>1294.07</ele>
        <time>2014-02-02T11:23:18Z</time>
      </trkpt>
      <trkpt lat="45.04124" lon="5.56202">
        <ele>1297.44</ele>
        <time>2014-02-02T11:23:20Z</time>
      </trkpt>
      <trkpt lat="45.04115" lon="5.56207">
        <ele>1301.76</ele>
        <time>2014-02-02T11:23:22Z</time>
      </trkpt>
      <trkpt lat="45.04107" lon="5.56212">
        <ele>1306.09</ele>
        <time>2014-02-02T11:23:24Z</time>
      </trkpt>
      <trkpt lat="45.04098" lon="5.56217">
        <ele>1310.9</ele>
        <time>2014-02-02T11:23:26Z</time>
      </trkpt>
      <trkpt lat="45.0409" lon="5.56222">
        <ele>1315.7</ele>
        <time>2014-02-02T11:23:28Z</time>
      </trkpt>
      <trkpt lat="45.04082" lon="5.56228">
        <ele>1320.03</ele>
        <time>2014-02-02T11:23:30Z</time>
      </trkpt>
      <trkpt lat="45.04074" lon="5.56233">
        <ele>1324.83</ele>
        <time>2014-02-02T11:23:32Z</time>
      </trkpt>
      <trkpt lat="45.04066" lon="5.56238">
        <ele>1329.16</ele>
        <time>2014-02-02T11:23:34Z</time>
      </trkpt>
      <trkpt lat="45.04058" lon="5.56242">
        <ele>1333.49</ele>
        <time>2014-02-02T11:23:36Z</time>
      </trkpt>
      <trkpt lat="45.04051" lon="5.56247">
        <ele>1339.25</ele>
        <time>2014-02-02T11:23:38Z</time>
      </trkpt>
      <trkpt lat="45.04042" lon="5.56252">
        <ele>1344.06</ele>
        <time>2014-02-02T11:23:40Z</time>
      </trkpt>
      <trkpt lat="45.04035" lon="5.56257">
        <ele>1348.87</ele>
        <time>2014-02-02T11:23:42Z</time>
      </trkpt>
      <trkpt lat="45.04031" lon="5.56259">
        <ele>1352.23</ele>
        <time>2014-02-02T11:23:43Z</time>
      </trkpt>
      <trkpt lat="45.04024" lon="5.56263">
        <ele>1355.6</ele>
        <time>2014-02-02T11:23:44Z</time>
      </trkpt>
      <trkpt lat="45.04011" lon="5.56271">
        <ele>1360.88</ele>
        <time>2014-02-02T11:23:47Z</time>
      </trkpt>
      <trkpt lat="45.04001" lon="5.56276">
        <ele>1365.21</ele>
        <time>2014-02-02T11:23:49Z</time>
      </trkpt>
      <trkpt lat="45.03959" lon="5.56299">
        <ele>1389.72</ele>
        <time>2014-02-02T11:24:00Z</time>
      </trkpt>
      <trkpt lat="45.03952" lon="5.56302">
        <ele>1394.53</ele>
        <time>2014-02-02T11:24:02Z</time>
      </trkpt>
      <trkpt lat="45.03944" lon="5.56307">
        <ele>1399.82</ele>
        <time>2014-02-02T11:24:04Z</time>
      </trkpt>
      <trkpt lat="45.03932" lon="5.56315">
        <ele>1404.14</ele>
        <time>2014-02-02T11:24:07Z</time>
      </trkpt>
      <trkpt lat="45.03928" lon="5.56317">
        <ele>1404.14</ele>
        <time>2014-02-02T11:24:08Z</time>
      </trkpt>
      <trkpt lat="45.03915" lon="5.56326">
        <ele>1407.51</ele>
        <time>2014-02-02T11:24:11Z</time>
      </trkpt>
      <trkpt lat="45.03904" lon="5.56334">
        <ele>1412.31</ele>
        <time>2014-02-02T11:24:14Z</time>
      </trkpt>
      <trkpt lat="45.03891" lon="5.56343">
        <ele>1415.68</ele>
        <time>2014-02-02T11:24:17Z</time>
      </trkpt>
      <trkpt lat="45.03878" lon="5.56352">
        <ele>1420.97</ele>
        <time>2014-02-02T11:24:20Z</time>
      </trkpt>
      <trkpt lat="45.03865" lon="5.5636">
        <ele>1424.81</ele>
        <time>2014-02-02T11:24:23Z</time>
      </trkpt>
      <trkpt lat="45.03857" lon="5.56364">
        <ele>1428.18</ele>
        <time>2014-02-02T11:24:25Z</time>
      </trkpt>
      <trkpt lat="45.03844" lon="5.56371">
        <ele>1432.98</ele>
        <time>2014-02-02T11:24:28Z</time>
      </trkpt>
      <trkpt lat="45.03835" lon="5.56376">
        <ele>1435.87</ele>
        <time>2014-02-02T11:24:30Z</time>
      </trkpt>
      <trkpt lat="45.03826" lon="5.56381">
        <ele>1439.23</ele>
        <time>2014-02-02T11:24:32Z</time>
      </trkpt>
      <trkpt lat="45.03818" lon="5.56385">
        <ele>1443.08</ele>
        <time>2014-02-02T11:24:34Z</time>
      </trkpt>
      <trkpt lat="45.0381" lon="5.5639">
        <ele>1446.44</ele>
        <time>2014-02-02T11:24:36Z</time>
      </trkpt>
      <trkpt lat="45.03802" lon="5.56396">
        <ele>1450.29</ele>
        <time>2014-02-02T11:24:38Z</time>
      </trkpt>
      <trkpt lat="45.03793" lon="5.56401">
        <ele>1454.61</ele>
        <time>2014-02-02T11:24:40Z</time>
      </trkpt>
      <trkpt lat="45.03785" lon="5.56406">
        <ele>1458.46</ele>
        <time>2014-02-02T11:24:42Z</time>
      </trkpt>
      <trkpt lat="45.03773" lon="5.56414">
        <ele>1462.78</ele>
        <time>2014-02-02T11:24:45Z</time>
      </trkpt>
      <trkpt lat="45.03761" lon="5.56422">
        <ele>1466.15</ele>
        <time>2014-02-02T11:24:48Z</time>
      </trkpt>
      <trkpt lat="45.03744" lon="5.56433">
        <ele>1470.47</ele>
        <time>2014-02-02T11:24:52Z</time>
      </trkpt>
      <trkpt lat="45.03733" lon="5.56439">
        <ele>1473.36</ele>
        <time>2014-02-02T11:24:55Z</time>
      </trkpt>
      <trkpt lat="45.0372" lon="5.56447">
        <ele>1477.68</ele>
        <time>2014-02-02T11:24:58Z</time>
      </trkpt>
      <trkpt lat="45.03708" lon="5.56456">
        <ele>1481.05</ele>
        <time>2014-02-02T11:25:01Z</time>
      </trkpt>
      <trkpt lat="45.03695" lon="5.56464">
        <ele>1485.85</ele>
        <time>2014-02-02T11:25:04Z</time>
      </trkpt>
      <trkpt lat="45.03682" lon="5.56471">
        <ele>1490.18</ele>
        <time>2014-02-02T11:25:07Z</time>
      </trkpt>
      <trkpt lat="45.03678" lon="5.56473">
        <ele>1491.62</ele>
        <time>2014-02-02T11:25:08Z</time>
      </trkpt>
      <trkpt lat="45.03674" lon="5.56476">
        <ele>1493.55</ele>
        <time>2014-02-02T11:25:09Z</time>
      </trkpt>
      <trkpt lat="45.03661" lon="5.56483">
        <ele>1497.87</ele>
        <time>2014-02-02T11:25:12Z</time>
      </trkpt>
      <trkpt lat="45.03653" lon="5.56488">
        <ele>1501.24</ele>
        <time>2014-02-02T11:25:14Z</time>
      </trkpt>
      <trkpt lat="45.0364" lon="5.56496">
        <ele>1505.56</ele>
        <time>2014-02-02T11:25:17Z</time>
      </trkpt>
      <trkpt lat="45.03631" lon="5.56501">
        <ele>1509.41</ele>
        <time>2014-02-02T11:25:19Z</time>
      </trkpt>
      <trkpt lat="45.03622" lon="5.56507">
        <ele>1513.25</ele>
        <time>2014-02-02T11:25:21Z</time>
      </trkpt>
      <trkpt lat="45.03614" lon="5.56511">
        <ele>1516.14</ele>
        <time>2014-02-02T11:25:23Z</time>
      </trkpt>
      <trkpt lat="45.03608" lon="5.56515">
        <ele>1519.98</ele>
        <time>2014-02-02T11:25:24Z</time>
      </trkpt>
      <trkpt lat="45.03599" lon="5.56519">
        <ele>1524.31</ele>
        <time>2014-02-02T11:25:27Z</time>
      </trkpt>
      <trkpt lat="45.0359" lon="5.56524">
        <ele>1527.67</ele>
        <time>2014-02-02T11:25:29Z</time>
      </trkpt>
      <trkpt lat="45.03581" lon="5.56529">
        <ele>1531.52</ele>
        <time>2014-02-02T11:25:31Z</time>
      </trkpt>
      <trkpt lat="45.03577" lon="5.56531">
        <ele>1532.96</ele>
        <time>2014-02-02T11:25:32Z</time>
      </trkpt>
      <trkpt lat="45.03569" lon="5.56536">
        <ele>1536.8</ele>
        <time>2014-02-02T11:25:34Z</time>
      </trkpt>
      <trkpt lat="45.03563" lon="5.56539">
        <ele>1539.21</ele>
        <time>2014-02-02T11:25:35Z</time>
      </trkpt>
      <trkpt lat="45.03555" lon="5.56544">
        <ele>1543.05</ele>
        <time>2014-02-02T11:25:37Z</time>
      </trkpt>
      <trkpt lat="45.03546" lon="5.56549">
        <ele>1546.9</ele>
        <time>2014-02-02T11:25:39Z</time>
      </trkpt>
      <trkpt lat="45.03537" lon="5.56554">
        <ele>1550.74</ele>
        <time>2014-02-02T11:25:41Z</time>
      </trkpt>
      <trkpt lat="45.03528" lon="5.56558">
        <ele>1555.07</ele>
        <time>2014-02-02T11:25:43Z</time>
      </trkpt>
      <trkpt lat="45.0352" lon="5.56562">
        <ele>1558.92</ele>
        <time>2014-02-02T11:25:45Z</time>
      </trkpt>
      <trkpt lat="45.03514" lon="5.56565">
        <ele>1562.28</ele>
        <time>2014-02-02T11:25:46Z</time>
      </trkpt>
      <trkpt lat="45.03507" lon="5.56569">
        <ele>1565.64</ele>
        <time>2014-02-02T11:25:48Z</time>
      </trkpt>
      <trkpt lat="45.03499" lon="5.56574">
        <ele>1569.97</ele>
        <time>2014-02-02T11:25:50Z</time>
      </trkpt>
      <trkpt lat="45.03493" lon="5.56578">
        <ele>1573.33</ele>
        <time>2014-02-02T11:25:51Z</time>
      </trkpt>
      <trkpt lat="45.03484" lon="5.5658">
        <ele>1578.14</ele>
        <time>2014-02-02T11:25:54Z</time>
      </trkpt>
      <trkpt lat="45.03472" lon="5.56586">
        <ele>1581.51</ele>
        <time>2014-02-02T11:25:57Z</time>
      </trkpt>
      <trkpt lat="45.03458" lon="5.56592">
        <ele>1585.35</ele>
        <time>2014-02-02T11:26:00Z</time>
      </trkpt>
      <trkpt lat="45.0345" lon="5.56596">
        <ele>1588.72</ele>
        <time>2014-02-02T11:26:02Z</time>
      </trkpt>
      <trkpt lat="45.03438" lon="5.56604">
        <ele>1593.52</ele>
        <time>2014-02-02T11:26:05Z</time>
      </trkpt>
      <trkpt lat="45.03429" lon="5.56609">
        <ele>1596.41</ele>
        <time>2014-02-02T11:26:07Z</time>
      </trkpt>
      <trkpt lat="45.03417" lon="5.56616">
        <ele>1601.21</ele>
        <time>2014-02-02T11:26:10Z</time>
      </trkpt>
      <trkpt lat="45.03409" lon="5.56621">
        <ele>1605.06</ele>
        <time>2014-02-02T11:26:12Z</time>
      </trkpt>
      <trkpt lat="45.03401" lon="5.56626">
        <ele>1608.42</ele>
        <time>2014-02-02T11:26:14Z</time>
      </trkpt>
      <trkpt lat="45.03393" lon="5.5663">
        <ele>1611.79</ele>
        <time>2014-02-02T11:26:16Z</time>
      </trkpt>
      <trkpt lat="45.03385" lon="5.56635">
        <ele>1616.11</ele>
        <time>2014-02-02T11:26:18Z</time>
      </trkpt>
      <trkpt lat="45.03377" lon="5.5664">
        <ele>1619.48</ele>
        <time>2014-02-02T11:26:20Z</time>
      </trkpt>
      <trkpt lat="45.03369" lon="5.56645">
        <ele>1623.8</ele>
        <time>2014-02-02T11:26:22Z</time>
      </trkpt>
      <trkpt lat="45.03365" lon="5.56648">
        <ele>1625.25</ele>
        <time>2014-02-02T11:26:23Z</time>
      </trkpt>
      <trkpt lat="45.03348" lon="5.5666">
        <ele>1630.53</ele>
        <time>2014-02-02T11:26:27Z</time>
      </trkpt>
      <trkpt lat="45.03336" lon="5.56668">
        <ele>1635.34</ele>
        <time>2014-02-02T11:26:30Z</time>
      </trkpt>
      <trkpt lat="45.03322" lon="5.56676">
        <ele>1639.19</ele>
        <time>2014-02-02T11:26:33Z</time>
      </trkpt>
      <trkpt lat="45.0331" lon="5.56683">
        <ele>1643.51</ele>
        <time>2014-02-02T11:26:36Z</time>
      </trkpt>
      <trkpt lat="45.03298" lon="5.56692">
        <ele>1647.84</ele>
        <time>2014-02-02T11:26:39Z</time>
      </trkpt>
      <trkpt lat="45.0329" lon="5.56698">
        <ele>1651.68</ele>
        <time>2014-02-02T11:26:41Z</time>
      </trkpt>
      <trkpt lat="45.03282" lon="5.56704">
        <ele>1654.57</ele>
        <time>2014-02-02T11:26:43Z</time>
      </trkpt>
      <trkpt lat="45.03274" lon="5.5671">
        <ele>1657.93</ele>
        <time>2014-02-02T11:26:45Z</time>
      </trkpt>
      <trkpt lat="45.03267" lon="5.56716">
        <ele>1661.78</ele>
        <time>2014-02-02T11:26:47Z</time>
      </trkpt>
      <trkpt lat="45.03259" lon="5.56722">
        <ele>1665.62</ele>
        <time>2014-02-02T11:26:49Z</time>
      </trkpt>
      <trkpt lat="45.03246" lon="5.5673">
        <ele>1668.99</ele>
        <time>2014-02-02T11:26:52Z</time>
      </trkpt>
      <trkpt lat="45.03237" lon="5.56736">
        <ele>1669.95</ele>
        <time>2014-02-02T11:26:54Z</time>
      </trkpt>
      <trkpt lat="45.03213" lon="5.56751">
        <ele>1673.31</ele>
        <time>2014-02-02T11:27:00Z</time>
      </trkpt>
      <trkpt lat="45.03204" lon="5.56757">
        <ele>1674.27</ele>
        <time>2014-02-02T11:27:02Z</time>
      </trkpt>
      <trkpt lat="45.03187" lon="5.56768">
        <ele>1677.64</ele>
        <time>2014-02-02T11:27:06Z</time>
      </trkpt>
      <trkpt lat="45.03171" lon="5.56779">
        <ele>1681</ele>
        <time>2014-02-02T11:27:10Z</time>
      </trkpt>
      <trkpt lat="45.03153" lon="5.56791">
        <ele>1684.85</ele>
        <time>2014-02-02T11:27:14Z</time>
      </trkpt>
      <trkpt lat="45.03141" lon="5.56799">
        <ele>1687.73</ele>
        <time>2014-02-02T11:27:17Z</time>
      </trkpt>
      <trkpt lat="45.03128" lon="5.56807">
        <ele>1691.58</ele>
        <time>2014-02-02T11:27:20Z</time>
      </trkpt>
      <trkpt lat="45.03115" lon="5.56815">
        <ele>1695.42</ele>
        <time>2014-02-02T11:27:23Z</time>
      </trkpt>
      <trkpt lat="45.03103" lon="5.56823">
        <ele>1698.31</ele>
        <time>2014-02-02T11:27:26Z</time>
      </trkpt>
      <trkpt lat="45.0309" lon="5.56832">
        <ele>1701.67</ele>
        <time>2014-02-02T11:27:29Z</time>
      </trkpt>
      <trkpt lat="45.03078" lon="5.56842">
        <ele>1706</ele>
        <time>2014-02-02T11:27:32Z</time>
      </trkpt>
      <trkpt lat="45.03066" lon="5.5685">
        <ele>1710.32</ele>
        <time>2014-02-02T11:27:35Z</time>
      </trkpt>
      <trkpt lat="45.03054" lon="5.56859">
        <ele>1714.65</ele>
        <time>2014-02-02T11:27:38Z</time>
      </trkpt>
      <trkpt lat="45.03042" lon="5.56867">
        <ele>1718.97</ele>
        <time>2014-02-02T11:27:41Z</time>
      </trkpt>
      <trkpt lat="45.03033" lon="5.56873">
        <ele>1720.42</ele>
        <time>2014-02-02T11:27:43Z</time>
      </trkpt>
      <trkpt lat="45.03013" lon="5.56889">
        <ele>1723.78</ele>
        <time>2014-02-02T11:27:48Z</time>
      </trkpt>
      <trkpt lat="45.02993" lon="5.56905">
        <ele>1727.63</ele>
        <time>2014-02-02T11:27:53Z</time>
      </trkpt>
      <trkpt lat="45.02987" lon="5.56908">
        <ele>1728.59</ele>
        <time>2014-02-02T11:27:54Z</time>
      </trkpt>
      <trkpt lat="45.02973" lon="5.56923">
        <ele>1728.59</ele>
        <time>2014-02-02T11:28:04Z</time>
      </trkpt>
      <trkpt lat="45.02974" lon="5.56934">
        <ele>1728.11</ele>
        <time>2014-02-02T11:28:23Z</time>
      </trkpt>
      <trkpt lat="45.02967" lon="5.56962">
        <ele>1727.63</ele>
        <time>2014-02-02T11:32:03Z</time>
      </trkpt>
      <trkpt lat="45.02968" lon="5.56967">
        <ele>1727.63</ele>
        <time>2014-02-02T11:32:49Z</time>
      </trkpt>
      <trkpt lat="45.02977" lon="5.57024">
        <ele>1727.63</ele>
        <time>2014-02-02T11:33:06Z</time>
      </trkpt>
      <trkpt lat="45.02981" lon="5.5704">
        <ele>1725.22</ele>
        <time>2014-02-02T11:33:10Z</time>
      </trkpt>
      <trkpt lat="45.02985" lon="5.5704">
        <ele>1724.26</ele>
        <time>2014-02-02T11:33:12Z</time>
      </trkpt>
      <trkpt lat="45.02989" lon="5.5704">
        <ele>1723.3</ele>
        <time>2014-02-02T11:33:14Z</time>
      </trkpt>
      <trkpt lat="45.02994" lon="5.57049">
        <ele>1718.49</ele>
        <time>2014-02-02T11:33:22Z</time>
      </trkpt>
      <trkpt lat="45.02995" lon="5.57058">
        <ele>1717.05</ele>
        <time>2014-02-02T11:33:24Z</time>
      </trkpt>
      <trkpt lat="45.02997" lon="5.57066">
        <ele>1709.36</ele>
        <time>2014-02-02T11:33:26Z</time>
      </trkpt>
      <trkpt lat="45.02998" lon="5.57071">
        <ele>1711.28</ele>
        <time>2014-02-02T11:33:27Z</time>
      </trkpt>
      <trkpt lat="45.03002" lon="5.57076">
        <ele>1706.96</ele>
        <time>2014-02-02T11:33:29Z</time>
      </trkpt>
      <trkpt lat="45.03004" lon="5.57084">
        <ele>1705.52</ele>
        <time>2014-02-02T11:33:31Z</time>
      </trkpt>
      <trkpt lat="45.03003" lon="5.57089">
        <ele>1703.11</ele>
        <time>2014-02-02T11:33:32Z</time>
      </trkpt>
      <trkpt lat="45.03011" lon="5.57097">
        <ele>1699.27</ele>
        <time>2014-02-02T11:33:46Z</time>
      </trkpt>
      <trkpt lat="45.03019" lon="5.57098">
        <ele>1695.42</ele>
        <time>2014-02-02T11:33:48Z</time>
      </trkpt>
      <trkpt lat="45.03028" lon="5.57102">
        <ele>1692.06</ele>
        <time>2014-02-02T11:33:51Z</time>
      </trkpt>
      <trkpt lat="45.03032" lon="5.57101">
        <ele>1691.1</ele>
        <time>2014-02-02T11:33:52Z</time>
      </trkpt>
      <trkpt lat="45.03035" lon="5.57102">
        <ele>1689.17</ele>
        <time>2014-02-02T11:33:53Z</time>
      </trkpt>
      <trkpt lat="45.03038" lon="5.57104">
        <ele>1688.69</ele>
        <time>2014-02-02T11:33:54Z</time>
      </trkpt>
      <trkpt lat="45.03042" lon="5.57106">
        <ele>1685.81</ele>
        <time>2014-02-02T11:33:55Z</time>
      </trkpt>
      <trkpt lat="45.03046" lon="5.57107">
        <ele>1685.33</ele>
        <time>2014-02-02T11:33:56Z</time>
      </trkpt>
      <trkpt lat="45.03049" lon="5.57108">
        <ele>1685.33</ele>
        <time>2014-02-02T11:33:57Z</time>
      </trkpt>
      <trkpt lat="45.03052" lon="5.57108">
        <ele>1685.33</ele>
        <time>2014-02-02T11:33:58Z</time>
      </trkpt>
      <trkpt lat="45.03055" lon="5.5711">
        <ele>1681.96</ele>
        <time>2014-02-02T11:33:59Z</time>
      </trkpt>
      <trkpt lat="45.03059" lon="5.57112">
        <ele>1683.41</ele>
        <time>2014-02-02T11:34:00Z</time>
      </trkpt>
      <trkpt lat="45.03063" lon="5.57112">
        <ele>1680.04</ele>
        <time>2014-02-02T11:34:01Z</time>
      </trkpt>
      <trkpt lat="45.03067" lon="5.57113">
        <ele>1679.08</ele>
        <time>2014-02-02T11:34:02Z</time>
      </trkpt>
      <trkpt lat="45.03071" lon="5.57116">
        <ele>1678.12</ele>
        <time>2014-02-02T11:34:03Z</time>
      </trkpt>
      <trkpt lat="45.03075" lon="5.57116">
        <ele>1678.12</ele>
        <time>2014-02-02T11:34:04Z</time>
      </trkpt>
      <trkpt lat="45.03078" lon="5.57116">
        <ele>1674.75</ele>
        <time>2014-02-02T11:34:05Z</time>
      </trkpt>
      <trkpt lat="45.03081" lon="5.57118">
        <ele>1676.68</ele>
        <time>2014-02-02T11:34:06Z</time>
      </trkpt>
      <trkpt lat="45.03089" lon="5.57122">
        <ele>1673.79</ele>
        <time>2014-02-02T11:34:08Z</time>
      </trkpt>
      <trkpt lat="45.03093" lon="5.57124">
        <ele>1672.35</ele>
        <time>2014-02-02T11:34:09Z</time>
      </trkpt>
      <trkpt lat="45.031" lon="5.57131">
        <ele>1670.91</ele>
        <time>2014-02-02T11:34:11Z</time>
      </trkpt>
      <trkpt lat="45.03108" lon="5.57135">
        <ele>1668.99</ele>
        <time>2014-02-02T11:34:13Z</time>
      </trkpt>
      <trkpt lat="45.03113" lon="5.57137">
        <ele>1667.54</ele>
        <time>2014-02-02T11:34:14Z</time>
      </trkpt>
      <trkpt lat="45.03118" lon="5.57137">
        <ele>1667.54</ele>
        <time>2014-02-02T11:34:15Z</time>
      </trkpt>
      <trkpt lat="45.03123" lon="5.5714">
        <ele>1666.58</ele>
        <time>2014-02-02T11:34:16Z</time>
      </trkpt>
      <trkpt lat="45.03127" lon="5.57143">
        <ele>1666.1</ele>
        <time>2014-02-02T11:34:17Z</time>
      </trkpt>
      <trkpt lat="45.03134" lon="5.57146">
        <ele>1665.14</ele>
        <time>2014-02-02T11:34:19Z</time>
      </trkpt>
      <trkpt lat="45.03138" lon="5.5715">
        <ele>1661.3</ele>
        <time>2014-02-02T11:34:21Z</time>
      </trkpt>
      <trkpt lat="45.03137" lon="5.57155">
        <ele>1660.81</ele>
        <time>2014-02-02T11:34:33Z</time>
      </trkpt>
      <trkpt lat="45.03143" lon="5.57157">
        <ele>1660.33</ele>
        <time>2014-02-02T11:35:11Z</time>
      </trkpt>
      <trkpt lat="45.03144" lon="5.57161">
        <ele>1660.81</ele>
        <time>2014-02-02T11:35:15Z</time>
      </trkpt>
      <trkpt lat="45.03151" lon="5.57172">
        <ele>1656.01</ele>
        <time>2014-02-02T11:35:19Z</time>
      </trkpt>
      <trkpt lat="45.03153" lon="5.57177">
        <ele>1657.93</ele>
        <time>2014-02-02T11:35:20Z</time>
      </trkpt>
      <trkpt lat="45.03155" lon="5.57181">
        <ele>1654.09</ele>
        <time>2014-02-02T11:35:21Z</time>
      </trkpt>
      <trkpt lat="45.03157" lon="5.57185">
        <ele>1651.2</ele>
        <time>2014-02-02T11:35:22Z</time>
      </trkpt>
      <trkpt lat="45.03163" lon="5.57195">
        <ele>1646.88</ele>
        <time>2014-02-02T11:35:25Z</time>
      </trkpt>
      <trkpt lat="45.03169" lon="5.57203">
        <ele>1643.51</ele>
        <time>2014-02-02T11:35:27Z</time>
      </trkpt>
      <trkpt lat="45.03171" lon="5.57206">
        <ele>1641.59</ele>
        <time>2014-02-02T11:35:28Z</time>
      </trkpt>
      <trkpt lat="45.03177" lon="5.57211">
        <ele>1640.15</ele>
        <time>2014-02-02T11:35:30Z</time>
      </trkpt>
      <trkpt lat="45.0318" lon="5.5721">
        <ele>1639.19</ele>
        <time>2014-02-02T11:35:49Z</time>
      </trkpt>
      <trkpt lat="45.03183" lon="5.57217">
        <ele>1637.26</ele>
        <time>2014-02-02T11:35:56Z</time>
      </trkpt>
      <trkpt lat="45.0319" lon="5.57235">
        <ele>1632.94</ele>
        <time>2014-02-02T11:36:03Z</time>
      </trkpt>
      <trkpt lat="45.03193" lon="5.57243">
        <ele>1629.09</ele>
        <time>2014-02-02T11:36:05Z</time>
      </trkpt>
      <trkpt lat="45.03195" lon="5.5725">
        <ele>1627.17</ele>
        <time>2014-02-02T11:36:07Z</time>
      </trkpt>
      <trkpt lat="45.03194" lon="5.57256">
        <ele>1625.25</ele>
        <time>2014-02-02T11:36:19Z</time>
      </trkpt>
      <trkpt lat="45.03197" lon="5.57262">
        <ele>1625.73</ele>
        <time>2014-02-02T11:36:22Z</time>
      </trkpt>
      <trkpt lat="45.03212" lon="5.57259">
        <ele>1623.8</ele>
        <time>2014-02-02T11:36:27Z</time>
      </trkpt>
      <trkpt lat="45.03228" lon="5.57263">
        <ele>1617.56</ele>
        <time>2014-02-02T11:36:31Z</time>
      </trkpt>
      <trkpt lat="45.03237" lon="5.57268">
        <ele>1617.07</ele>
        <time>2014-02-02T11:36:33Z</time>
      </trkpt>
      <trkpt lat="45.03242" lon="5.5727">
        <ele>1616.59</ele>
        <time>2014-02-02T11:36:34Z</time>
      </trkpt>
      <trkpt lat="45.03262" lon="5.57268">
        <ele>1614.19</ele>
        <time>2014-02-02T11:36:38Z</time>
      </trkpt>
      <trkpt lat="45.03266" lon="5.57268">
        <ele>1612.75</ele>
        <time>2014-02-02T11:36:39Z</time>
      </trkpt>
      <trkpt lat="45.03275" lon="5.57267">
        <ele>1610.83</ele>
        <time>2014-02-02T11:36:41Z</time>
      </trkpt>
      <trkpt lat="45.03283" lon="5.57263">
        <ele>1607.94</ele>
        <time>2014-02-02T11:36:43Z</time>
      </trkpt>
      <trkpt lat="45.033" lon="5.57264">
        <ele>1603.62</ele>
        <time>2014-02-02T11:36:47Z</time>
      </trkpt>
      <trkpt lat="45.03303" lon="5.57263">
        <ele>1602.66</ele>
        <time>2014-02-02T11:36:48Z</time>
      </trkpt>
      <trkpt lat="45.03309" lon="5.57262">
        <ele>1602.66</ele>
        <time>2014-02-02T11:36:49Z</time>
      </trkpt>
      <trkpt lat="45.03311" lon="5.57264">
        <ele>1602.17</ele>
        <time>2014-02-02T11:36:50Z</time>
      </trkpt>
      <trkpt lat="45.03318" lon="5.57268">
        <ele>1601.69</ele>
        <time>2014-02-02T11:36:53Z</time>
      </trkpt>
      <trkpt lat="45.03327" lon="5.57272">
        <ele>1600.25</ele>
        <time>2014-02-02T11:37:06Z</time>
      </trkpt>
      <trkpt lat="45.03333" lon="5.5727">
        <ele>1601.69</ele>
        <time>2014-02-02T11:37:21Z</time>
      </trkpt>
      <trkpt lat="45.03339" lon="5.57268">
        <ele>1598.33</ele>
        <time>2014-02-02T11:37:25Z</time>
      </trkpt>
      <trkpt lat="45.03345" lon="5.57273">
        <ele>1598.33</ele>
        <time>2014-02-02T11:37:27Z</time>
      </trkpt>
      <trkpt lat="45.03349" lon="5.57273">
        <ele>1598.33</ele>
        <time>2014-02-02T11:37:28Z</time>
      </trkpt>
      <trkpt lat="45.03353" lon="5.57273">
        <ele>1597.85</ele>
        <time>2014-02-02T11:37:29Z</time>
      </trkpt>
      <trkpt lat="45.03356" lon="5.57274">
        <ele>1594</ele>
        <time>2014-02-02T11:37:30Z</time>
      </trkpt>
      <trkpt lat="45.03362" lon="5.57271">
        <ele>1595.45</ele>
        <time>2014-02-02T11:37:31Z</time>
      </trkpt>
      <trkpt lat="45.03367" lon="5.57269">
        <ele>1592.56</ele>
        <time>2014-02-02T11:37:32Z</time>
      </trkpt>
      <trkpt lat="45.03372" lon="5.57267">
        <ele>1593.04</ele>
        <time>2014-02-02T11:37:33Z</time>
      </trkpt>
      <trkpt lat="45.03376" lon="5.57264">
        <ele>1591.6</ele>
        <time>2014-02-02T11:37:34Z</time>
      </trkpt>
      <trkpt lat="45.03379" lon="5.5726">
        <ele>1590.64</ele>
        <time>2014-02-02T11:37:35Z</time>
      </trkpt>
      <trkpt lat="45.03384" lon="5.57254">
        <ele>1586.79</ele>
        <time>2014-02-02T11:37:36Z</time>
      </trkpt>
      <trkpt lat="45.03389" lon="5.5725">
        <ele>1585.83</ele>
        <time>2014-02-02T11:37:37Z</time>
      </trkpt>
      <trkpt lat="45.03394" lon="5.57245">
        <ele>1587.75</ele>
        <time>2014-02-02T11:37:38Z</time>
      </trkpt>
      <trkpt lat="45.03399" lon="5.5724">
        <ele>1585.83</ele>
        <time>2014-02-02T11:37:39Z</time>
      </trkpt>
      <trkpt lat="45.03406" lon="5.57237">
        <ele>1586.31</ele>
        <time>2014-02-02T11:37:40Z</time>
      </trkpt>
      <trkpt lat="45.0341" lon="5.57231">
        <ele>1583.91</ele>
        <time>2014-02-02T11:37:41Z</time>
      </trkpt>
      <trkpt lat="45.03415" lon="5.57227">
        <ele>1583.91</ele>
        <time>2014-02-02T11:37:42Z</time>
      </trkpt>
      <trkpt lat="45.0342" lon="5.57226">
        <ele>1581.99</ele>
        <time>2014-02-02T11:37:43Z</time>
      </trkpt>
      <trkpt lat="45.03423" lon="5.5723">
        <ele>1581.51</ele>
        <time>2014-02-02T11:37:44Z</time>
      </trkpt>
      <trkpt lat="45.03427" lon="5.57233">
        <ele>1583.43</ele>
        <time>2014-02-02T11:37:45Z</time>
      </trkpt>
      <trkpt lat="45.0343" lon="5.57236">
        <ele>1580.06</ele>
        <time>2014-02-02T11:37:46Z</time>
      </trkpt>
      <trkpt lat="45.03434" lon="5.57238">
        <ele>1577.66</ele>
        <time>2014-02-02T11:37:49Z</time>
      </trkpt>
      <trkpt lat="45.03442" lon="5.57242">
        <ele>1575.26</ele>
        <time>2014-02-02T11:37:52Z</time>
      </trkpt>
      <trkpt lat="45.03447" lon="5.57244">
        <ele>1574.78</ele>
        <time>2014-02-02T11:37:53Z</time>
      </trkpt>
      <trkpt lat="45.03452" lon="5.57245">
        <ele>1571.89</ele>
        <time>2014-02-02T11:37:54Z</time>
      </trkpt>
      <trkpt lat="45.03458" lon="5.57244">
        <ele>1572.37</ele>
        <time>2014-02-02T11:37:55Z</time>
      </trkpt>
      <trkpt lat="45.0347" lon="5.57241">
        <ele>1569.97</ele>
        <time>2014-02-02T11:37:57Z</time>
      </trkpt>
      <trkpt lat="45.0349" lon="5.57237">
        <ele>1566.61</ele>
        <time>2014-02-02T11:38:00Z</time>
      </trkpt>
      <trkpt lat="45.03497" lon="5.57239">
        <ele>1566.12</ele>
        <time>2014-02-02T11:38:01Z</time>
      </trkpt>
      <trkpt lat="45.03504" lon="5.5724">
        <ele>1566.12</ele>
        <time>2014-02-02T11:38:02Z</time>
      </trkpt>
      <trkpt lat="45.03523" lon="5.57243">
        <ele>1563.72</ele>
        <time>2014-02-02T11:38:05Z</time>
      </trkpt>
      <trkpt lat="45.03554" lon="5.57252">
        <ele>1560.36</ele>
        <time>2014-02-02T11:38:10Z</time>
      </trkpt>
      <trkpt lat="45.0356" lon="5.57254">
        <ele>1559.88</ele>
        <time>2014-02-02T11:38:11Z</time>
      </trkpt>
      <trkpt lat="45.03582" lon="5.57263">
        <ele>1558.92</ele>
        <time>2014-02-02T11:38:15Z</time>
      </trkpt>
      <trkpt lat="45.03616" lon="5.57275">
        <ele>1555.55</ele>
        <time>2014-02-02T11:38:21Z</time>
      </trkpt>
      <trkpt lat="45.03622" lon="5.57275">
        <ele>1556.51</ele>
        <time>2014-02-02T11:38:22Z</time>
      </trkpt>
      <trkpt lat="45.03628" lon="5.57275">
        <ele>1554.59</ele>
        <time>2014-02-02T11:38:23Z</time>
      </trkpt>
      <trkpt lat="45.03635" lon="5.57274">
        <ele>1552.19</ele>
        <time>2014-02-02T11:38:24Z</time>
      </trkpt>
      <trkpt lat="45.03641" lon="5.57275">
        <ele>1551.71</ele>
        <time>2014-02-02T11:38:25Z</time>
      </trkpt>
      <trkpt lat="45.03648" lon="5.57275">
        <ele>1552.67</ele>
        <time>2014-02-02T11:38:26Z</time>
      </trkpt>
      <trkpt lat="45.03654" lon="5.57275">
        <ele>1551.22</ele>
        <time>2014-02-02T11:38:27Z</time>
      </trkpt>
      <trkpt lat="45.03665" lon="5.57274">
        <ele>1550.74</ele>
        <time>2014-02-02T11:38:29Z</time>
      </trkpt>
      <trkpt lat="45.0367" lon="5.57271">
        <ele>1548.82</ele>
        <time>2014-02-02T11:38:30Z</time>
      </trkpt>
      <trkpt lat="45.03676" lon="5.5727">
        <ele>1546.9</ele>
        <time>2014-02-02T11:38:31Z</time>
      </trkpt>
      <trkpt lat="45.03682" lon="5.57269">
        <ele>1547.38</ele>
        <time>2014-02-02T11:38:32Z</time>
      </trkpt>
      <trkpt lat="45.03687" lon="5.57267">
        <ele>1545.46</ele>
        <time>2014-02-02T11:38:33Z</time>
      </trkpt>
      <trkpt lat="45.03692" lon="5.57263">
        <ele>1544.98</ele>
        <time>2014-02-02T11:38:34Z</time>
      </trkpt>
      <trkpt lat="45.03697" lon="5.57258">
        <ele>1541.61</ele>
        <time>2014-02-02T11:38:35Z</time>
      </trkpt>
      <trkpt lat="45.03702" lon="5.57254">
        <ele>1544.01</ele>
        <time>2014-02-02T11:38:36Z</time>
      </trkpt>
      <trkpt lat="45.03707" lon="5.57249">
        <ele>1540.65</ele>
        <time>2014-02-02T11:38:37Z</time>
      </trkpt>
      <trkpt lat="45.03712" lon="5.57244">
        <ele>1537.29</ele>
        <time>2014-02-02T11:38:38Z</time>
      </trkpt>
      <trkpt lat="45.03716" lon="5.57242">
        <ele>1540.17</ele>
        <time>2014-02-02T11:38:39Z</time>
      </trkpt>
      <trkpt lat="45.03719" lon="5.57239">
        <ele>1536.8</ele>
        <time>2014-02-02T11:38:40Z</time>
      </trkpt>
      <trkpt lat="45.03724" lon="5.57234">
        <ele>1534.88</ele>
        <time>2014-02-02T11:38:41Z</time>
      </trkpt>
      <trkpt lat="45.03728" lon="5.5723">
        <ele>1534.88</ele>
        <time>2014-02-02T11:38:42Z</time>
      </trkpt>
      <trkpt lat="45.03733" lon="5.57227">
        <ele>1534.4</ele>
        <time>2014-02-02T11:38:43Z</time>
      </trkpt>
      <trkpt lat="45.03736" lon="5.57224">
        <ele>1534.4</ele>
        <time>2014-02-02T11:38:44Z</time>
      </trkpt>
      <trkpt lat="45.03737" lon="5.57218">
        <ele>1532</ele>
        <time>2014-02-02T11:38:51Z</time>
      </trkpt>
      <trkpt lat="45.03754" lon="5.57208">
        <ele>1528.63</ele>
        <time>2014-02-02T11:38:56Z</time>
      </trkpt>
      <trkpt lat="45.03758" lon="5.57205">
        <ele>1530.08</ele>
        <time>2014-02-02T11:38:57Z</time>
      </trkpt>
      <trkpt lat="45.03762" lon="5.572">
        <ele>1529.11</ele>
        <time>2014-02-02T11:38:58Z</time>
      </trkpt>
      <trkpt lat="45.03766" lon="5.57195">
        <ele>1529.59</ele>
        <time>2014-02-02T11:38:59Z</time>
      </trkpt>
      <trkpt lat="45.0377" lon="5.5719">
        <ele>1528.15</ele>
        <time>2014-02-02T11:39:00Z</time>
      </trkpt>
      <trkpt lat="45.03775" lon="5.57185">
        <ele>1527.67</ele>
        <time>2014-02-02T11:39:01Z</time>
      </trkpt>
      <trkpt lat="45.03791" lon="5.57172">
        <ele>1525.75</ele>
        <time>2014-02-02T11:39:04Z</time>
      </trkpt>
      <trkpt lat="45.03821" lon="5.57152">
        <ele>1524.31</ele>
        <time>2014-02-02T11:39:10Z</time>
      </trkpt>
      <trkpt lat="45.03828" lon="5.57148">
        <ele>1523.35</ele>
        <time>2014-02-02T11:39:12Z</time>
      </trkpt>
      <trkpt lat="45.03865" lon="5.57131">
        <ele>1521.42</ele>
        <time>2014-02-02T11:39:24Z</time>
      </trkpt>
      <trkpt lat="45.03892" lon="5.57112">
        <ele>1520.46</ele>
        <time>2014-02-02T11:39:35Z</time>
      </trkpt>
      <trkpt lat="45.0392" lon="5.57093">
        <ele>1518.06</ele>
        <time>2014-02-02T11:39:46Z</time>
      </trkpt>
      <trkpt lat="45.03924" lon="5.57068">
        <ele>1516.62</ele>
        <time>2014-02-02T11:39:59Z</time>
      </trkpt>
      <trkpt lat="45.03921" lon="5.57064">
        <ele>1516.62</ele>
        <time>2014-02-02T11:40:15Z</time>
      </trkpt>
      <trkpt lat="45.03908" lon="5.5706">
        <ele>1516.62</ele>
        <time>2014-02-02T11:40:41Z</time>
      </trkpt>
      <trkpt lat="45.03869" lon="5.57063">
        <ele>1519.02</ele>
        <time>2014-02-02T11:40:55Z</time>
      </trkpt>
      <trkpt lat="45.03861" lon="5.57063">
        <ele>1520.46</ele>
        <time>2014-02-02T11:40:57Z</time>
      </trkpt>
      <trkpt lat="45.03853" lon="5.57064">
        <ele>1524.31</ele>
        <time>2014-02-02T11:40:59Z</time>
      </trkpt>
      <trkpt lat="45.0384" lon="5.57064">
        <ele>1527.67</ele>
        <time>2014-02-02T11:41:02Z</time>
      </trkpt>
      <trkpt lat="45.03786" lon="5.57064">
        <ele>1541.13</ele>
        <time>2014-02-02T11:41:15Z</time>
      </trkpt>
      <trkpt lat="45.0377" lon="5.57063">
        <ele>1544.98</ele>
        <time>2014-02-02T11:41:19Z</time>
      </trkpt>
      <trkpt lat="45.03766" lon="5.57063">
        <ele>1544.98</ele>
        <time>2014-02-02T11:41:20Z</time>
      </trkpt>
      <trkpt lat="45.03745" lon="5.57063">
        <ele>1548.82</ele>
        <time>2014-02-02T11:41:25Z</time>
      </trkpt>
      <trkpt lat="45.03576" lon="5.57064">
        <ele>1590.16</ele>
        <time>2014-02-02T11:42:08Z</time>
      </trkpt>
      <trkpt lat="45.03542" lon="5.57065">
        <ele>1593.52</ele>
        <time>2014-02-02T11:42:16Z</time>
      </trkpt>
      <trkpt lat="45.03534" lon="5.57064">
        <ele>1594.48</ele>
        <time>2014-02-02T11:42:18Z</time>
      </trkpt>
      <trkpt lat="45.03518" lon="5.57064">
        <ele>1597.85</ele>
        <time>2014-02-02T11:42:22Z</time>
      </trkpt>
      <trkpt lat="45.03482" lon="5.57065">
        <ele>1605.06</ele>
        <time>2014-02-02T11:42:31Z</time>
      </trkpt>
      <trkpt lat="45.0343" lon="5.57064">
        <ele>1611.79</ele>
        <time>2014-02-02T11:42:44Z</time>
      </trkpt>
      <trkpt lat="45.03379" lon="5.57065">
        <ele>1622.84</ele>
        <time>2014-02-02T11:42:57Z</time>
      </trkpt>
      <trkpt lat="45.03354" lon="5.57064">
        <ele>1626.21</ele>
        <time>2014-02-02T11:43:03Z</time>
      </trkpt>
      <trkpt lat="45.03346" lon="5.57064">
        <ele>1627.17</ele>
        <time>2014-02-02T11:43:05Z</time>
      </trkpt>
      <trkpt lat="45.03331" lon="5.57065">
        <ele>1630.05</ele>
        <time>2014-02-02T11:43:09Z</time>
      </trkpt>
      <trkpt lat="45.03229" lon="5.57065">
        <ele>1648.8</ele>
        <time>2014-02-02T11:43:34Z</time>
      </trkpt>
      <trkpt lat="45.03214" lon="5.57065">
        <ele>1652.64</ele>
        <time>2014-02-02T11:43:38Z</time>
      </trkpt>
      <trkpt lat="45.03202" lon="5.57066">
        <ele>1656.01</ele>
        <time>2014-02-02T11:43:41Z</time>
      </trkpt>
      <trkpt lat="45.0319" lon="5.57065">
        <ele>1658.89</ele>
        <time>2014-02-02T11:43:44Z</time>
      </trkpt>
      <trkpt lat="45.03179" lon="5.57065">
        <ele>1662.26</ele>
        <time>2014-02-02T11:43:47Z</time>
      </trkpt>
      <trkpt lat="45.03167" lon="5.57066">
        <ele>1665.62</ele>
        <time>2014-02-02T11:43:50Z</time>
      </trkpt>
      <trkpt lat="45.03156" lon="5.57066">
        <ele>1668.51</ele>
        <time>2014-02-02T11:43:53Z</time>
      </trkpt>
      <trkpt lat="45.03124" lon="5.57067">
        <ele>1679.56</ele>
        <time>2014-02-02T11:44:01Z</time>
      </trkpt>
      <trkpt lat="45.02982" lon="5.57065">
        <ele>1723.78</ele>
        <time>2014-02-02T11:44:37Z</time>
      </trkpt>
      <trkpt lat="45.02966" lon="5.57064">
        <ele>1727.15</ele>
        <time>2014-02-02T11:44:41Z</time>
      </trkpt>
      <trkpt lat="45.02962" lon="5.57064">
        <ele>1727.63</ele>
        <time>2014-02-02T11:44:42Z</time>
      </trkpt>
      <trkpt lat="45.0295" lon="5.57065">
        <ele>1730.99</ele>
        <time>2014-02-02T11:44:45Z</time>
      </trkpt>
      <trkpt lat="45.02934" lon="5.57066">
        <ele>1735.32</ele>
        <time>2014-02-02T11:44:49Z</time>
      </trkpt>
      <trkpt lat="45.02922" lon="5.57066">
        <ele>1738.68</ele>
        <time>2014-02-02T11:44:52Z</time>
      </trkpt>
      <trkpt lat="45.02911" lon="5.57067">
        <ele>1742.53</ele>
        <time>2014-02-02T11:44:55Z</time>
      </trkpt>
      <trkpt lat="45.029" lon="5.57067">
        <ele>1746.37</ele>
        <time>2014-02-02T11:44:58Z</time>
      </trkpt>
      <trkpt lat="45.02888" lon="5.57068">
        <ele>1750.7</ele>
        <time>2014-02-02T11:45:01Z</time>
      </trkpt>
      <trkpt lat="45.02877" lon="5.57068">
        <ele>1754.54</ele>
        <time>2014-02-02T11:45:04Z</time>
      </trkpt>
      <trkpt lat="45.0286" lon="5.57067">
        <ele>1758.87</ele>
        <time>2014-02-02T11:45:08Z</time>
      </trkpt>
      <trkpt lat="45.02844" lon="5.57067">
        <ele>1761.75</ele>
        <time>2014-02-02T11:45:12Z</time>
      </trkpt>
      <trkpt lat="45.02833" lon="5.57066">
        <ele>1765.6</ele>
        <time>2014-02-02T11:45:15Z</time>
      </trkpt>
      <trkpt lat="45.02821" lon="5.57066">
        <ele>1768.96</ele>
        <time>2014-02-02T11:45:18Z</time>
      </trkpt>
      <trkpt lat="45.02809" lon="5.57067">
        <ele>1772.81</ele>
        <time>2014-02-02T11:45:21Z</time>
      </trkpt>
      <trkpt lat="45.02797" lon="5.57067">
        <ele>1776.17</ele>
        <time>2014-02-02T11:45:24Z</time>
      </trkpt>
      <trkpt lat="45.02786" lon="5.57066">
        <ele>1780.02</ele>
        <time>2014-02-02T11:45:27Z</time>
      </trkpt>
      <trkpt lat="45.02778" lon="5.57066">
        <ele>1783.38</ele>
        <time>2014-02-02T11:45:29Z</time>
      </trkpt>
      <trkpt lat="45.02767" lon="5.57066">
        <ele>1787.23</ele>
        <time>2014-02-02T11:45:32Z</time>
      </trkpt>
      <trkpt lat="45.02755" lon="5.57066">
        <ele>1790.59</ele>
        <time>2014-02-02T11:45:35Z</time>
      </trkpt>
      <trkpt lat="45.02727" lon="5.57067">
        <ele>1798.28</ele>
        <time>2014-02-02T11:45:42Z</time>
      </trkpt>
      <trkpt lat="45.02723" lon="5.57067">
        <ele>1798.28</ele>
        <time>2014-02-02T11:45:43Z</time>
      </trkpt>
      <trkpt lat="45.02711" lon="5.57067">
        <ele>1802.61</ele>
        <time>2014-02-02T11:45:46Z</time>
      </trkpt>
      <trkpt lat="45.02699" lon="5.57068">
        <ele>1805.97</ele>
        <time>2014-02-02T11:45:49Z</time>
      </trkpt>
      <trkpt lat="45.02687" lon="5.57068">
        <ele>1810.3</ele>
        <time>2014-02-02T11:45:52Z</time>
      </trkpt>
      <trkpt lat="45.02679" lon="5.57068">
        <ele>1813.66</ele>
        <time>2014-02-02T11:45:54Z</time>
      </trkpt>
      <trkpt lat="45.02667" lon="5.57068">
        <ele>1817.51</ele>
        <time>2014-02-02T11:45:57Z</time>
      </trkpt>
      <trkpt lat="45.0266" lon="5.57068">
        <ele>1820.39</ele>
        <time>2014-02-02T11:45:59Z</time>
      </trkpt>
      <trkpt lat="45.02653" lon="5.57068">
        <ele>1823.28</ele>
        <time>2014-02-02T11:46:01Z</time>
      </trkpt>
      <trkpt lat="45.02645" lon="5.57067">
        <ele>1826.64</ele>
        <time>2014-02-02T11:46:03Z</time>
      </trkpt>
      <trkpt lat="45.02629" lon="5.57068">
        <ele>1830.49</ele>
        <time>2014-02-02T11:46:07Z</time>
      </trkpt>
      <trkpt lat="45.02617" lon="5.57068">
        <ele>1834.33</ele>
        <time>2014-02-02T11:46:10Z</time>
      </trkpt>
      <trkpt lat="45.02606" lon="5.57068">
        <ele>1837.7</ele>
        <time>2014-02-02T11:46:13Z</time>
      </trkpt>
      <trkpt lat="45.02594" lon="5.57067">
        <ele>1841.54</ele>
        <time>2014-02-02T11:46:16Z</time>
      </trkpt>
      <trkpt lat="45.02582" lon="5.57068">
        <ele>1845.87</ele>
        <time>2014-02-02T11:46:19Z</time>
      </trkpt>
      <trkpt lat="45.0257" lon="5.57068">
        <ele>1849.23</ele>
        <time>2014-02-02T11:46:22Z</time>
      </trkpt>
      <trkpt lat="45.02555" lon="5.57068">
        <ele>1855.96</ele>
        <time>2014-02-02T11:46:26Z</time>
      </trkpt>
      <trkpt lat="45.02519" lon="5.57069">
        <ele>1867.02</ele>
        <time>2014-02-02T11:46:35Z</time>
      </trkpt>
      <trkpt lat="45.0248" lon="5.57069">
        <ele>1878.07</ele>
        <time>2014-02-02T11:46:45Z</time>
      </trkpt>
      <trkpt lat="45.02468" lon="5.57069">
        <ele>1881.92</ele>
        <time>2014-02-02T11:46:48Z</time>
      </trkpt>
      <trkpt lat="45.02456" lon="5.57069">
        <ele>1886.24</ele>
        <time>2014-02-02T11:46:51Z</time>
      </trkpt>
      <trkpt lat="45.02441" lon="5.57068">
        <ele>1889.61</ele>
        <time>2014-02-02T11:46:55Z</time>
      </trkpt>
      <trkpt lat="45.02326" lon="5.57071">
        <ele>1921.81</ele>
        <time>2014-02-02T11:47:24Z</time>
      </trkpt>
      <trkpt lat="45.02306" lon="5.57071">
        <ele>1924.22</ele>
        <time>2014-02-02T11:47:29Z</time>
      </trkpt>
      <trkpt lat="45.02293" lon="5.57071">
        <ele>1927.58</ele>
        <time>2014-02-02T11:47:32Z</time>
      </trkpt>
      <trkpt lat="45.02289" lon="5.57071">
        <ele>1927.1</ele>
        <time>2014-02-02T11:47:33Z</time>
      </trkpt>
      <trkpt lat="45.02274" lon="5.57071">
        <ele>1931.91</ele>
        <time>2014-02-02T11:47:37Z</time>
      </trkpt>
      <trkpt lat="45.02234" lon="5.57072">
        <ele>1932.87</ele>
        <time>2014-02-02T11:47:49Z</time>
      </trkpt>
      <trkpt lat="45.02228" lon="5.5707">
        <ele>1929.98</ele>
        <time>2014-02-02T11:47:54Z</time>
      </trkpt>
      <trkpt lat="45.02208" lon="5.57054">
        <ele>1929.02</ele>
        <time>2014-02-02T11:49:13Z</time>
      </trkpt>
      <trkpt lat="45.02112" lon="5.56982">
        <ele>1907.39</ele>
        <time>2014-02-02T11:49:42Z</time>
      </trkpt>
      <trkpt lat="45.02109" lon="5.56979">
        <ele>1907.87</ele>
        <time>2014-02-02T11:49:43Z</time>
      </trkpt>
      <trkpt lat="45.02106" lon="5.56975">
        <ele>1905.47</ele>
        <time>2014-02-02T11:49:44Z</time>
      </trkpt>
      <trkpt lat="45.02085" lon="5.5694">
        <ele>1898.26</ele>
        <time>2014-02-02T11:49:53Z</time>
      </trkpt>
      <trkpt lat="45.02083" lon="5.56936">
        <ele>1898.74</ele>
        <time>2014-02-02T11:49:54Z</time>
      </trkpt>
      <trkpt lat="45.02078" lon="5.56927">
        <ele>1896.34</ele>
        <time>2014-02-02T11:49:56Z</time>
      </trkpt>
      <trkpt lat="45.02069" lon="5.56906">
        <ele>1892.97</ele>
        <time>2014-02-02T11:50:00Z</time>
      </trkpt>
      <trkpt lat="45.02067" lon="5.56901">
        <ele>1893.45</ele>
        <time>2014-02-02T11:50:01Z</time>
      </trkpt>
      <trkpt lat="45.02056" lon="5.56871">
        <ele>1890.57</ele>
        <time>2014-02-02T11:50:11Z</time>
      </trkpt>
      <trkpt lat="45.02061" lon="5.5686">
        <ele>1887.69</ele>
        <time>2014-02-02T11:50:17Z</time>
      </trkpt>
      <trkpt lat="45.02065" lon="5.56841">
        <ele>1883.84</ele>
        <time>2014-02-02T11:50:21Z</time>
      </trkpt>
      <trkpt lat="45.02066" lon="5.56833">
        <ele>1880.96</ele>
        <time>2014-02-02T11:50:23Z</time>
      </trkpt>
      <trkpt lat="45.0207" lon="5.56822">
        <ele>1878.55</ele>
        <time>2014-02-02T11:50:26Z</time>
      </trkpt>
      <trkpt lat="45.02076" lon="5.56819">
        <ele>1876.63</ele>
        <time>2014-02-02T11:50:28Z</time>
      </trkpt>
      <trkpt lat="45.02079" lon="5.56815">
        <ele>1876.63</ele>
        <time>2014-02-02T11:50:29Z</time>
      </trkpt>
      <trkpt lat="45.02083" lon="5.56804">
        <ele>1870.38</ele>
        <time>2014-02-02T11:50:32Z</time>
      </trkpt>
      <trkpt lat="45.02088" lon="5.56756">
        <ele>1861.25</ele>
        <time>2014-02-02T11:50:42Z</time>
      </trkpt>
      <trkpt lat="45.02093" lon="5.56735">
        <ele>1854.52</ele>
        <time>2014-02-02T11:50:47Z</time>
      </trkpt>
      <trkpt lat="45.02093" lon="5.56712">
        <ele>1847.79</ele>
        <time>2014-02-02T11:50:51Z</time>
      </trkpt>
      <trkpt lat="45.02093" lon="5.56707">
        <ele>1847.79</ele>
        <time>2014-02-02T11:50:52Z</time>
      </trkpt>
      <trkpt lat="45.02096" lon="5.56698">
        <ele>1845.39</ele>
        <time>2014-02-02T11:50:55Z</time>
      </trkpt>
      <trkpt lat="45.02098" lon="5.56703">
        <ele>1843.95</ele>
        <time>2014-02-02T11:50:57Z</time>
      </trkpt>
      <trkpt lat="45.021" lon="5.56706">
        <ele>1845.39</ele>
        <time>2014-02-02T11:51:16Z</time>
      </trkpt>
      <trkpt lat="45.02109" lon="5.56706">
        <ele>1844.43</ele>
        <time>2014-02-02T11:51:53Z</time>
      </trkpt>
      <trkpt lat="45.02112" lon="5.56687">
        <ele>1839.14</ele>
        <time>2014-02-02T11:52:01Z</time>
      </trkpt>
      <trkpt lat="45.02112" lon="5.56681">
        <ele>1839.14</ele>
        <time>2014-02-02T11:52:02Z</time>
      </trkpt>
      <trkpt lat="45.0211" lon="5.56669">
        <ele>1837.22</ele>
        <time>2014-02-02T11:52:04Z</time>
      </trkpt>
      <trkpt lat="45.02106" lon="5.56653">
        <ele>1834.81</ele>
        <time>2014-02-02T11:52:07Z</time>
      </trkpt>
      <trkpt lat="45.02097" lon="5.56621">
        <ele>1831.45</ele>
        <time>2014-02-02T11:52:12Z</time>
      </trkpt>
      <trkpt lat="45.02094" lon="5.5661">
        <ele>1829.05</ele>
        <time>2014-02-02T11:52:14Z</time>
      </trkpt>
      <trkpt lat="45.02095" lon="5.56598">
        <ele>1827.12</ele>
        <time>2014-02-02T11:52:16Z</time>
      </trkpt>
      <trkpt lat="45.02095" lon="5.56579">
        <ele>1826.16</ele>
        <time>2014-02-02T11:52:19Z</time>
      </trkpt>
      <trkpt lat="45.02094" lon="5.56559">
        <ele>1819.91</ele>
        <time>2014-02-02T11:52:22Z</time>
      </trkpt>
      <trkpt lat="45.02094" lon="5.56551">
        <ele>1820.39</ele>
        <time>2014-02-02T11:52:23Z</time>
      </trkpt>
      <trkpt lat="45.02091" lon="5.56523">
        <ele>1812.7</ele>
        <time>2014-02-02T11:52:27Z</time>
      </trkpt>
      <trkpt lat="45.02089" lon="5.5651">
        <ele>1810.78</ele>
        <time>2014-02-02T11:52:29Z</time>
      </trkpt>
      <trkpt lat="45.02089" lon="5.56495">
        <ele>1808.86</ele>
        <time>2014-02-02T11:52:31Z</time>
      </trkpt>
      <trkpt lat="45.02087" lon="5.56485">
        <ele>1805.49</ele>
        <time>2014-02-02T11:52:33Z</time>
      </trkpt>
      <trkpt lat="45.02084" lon="5.56469">
        <ele>1803.09</ele>
        <time>2014-02-02T11:52:37Z</time>
      </trkpt>
      <trkpt lat="45.02081" lon="5.56443">
        <ele>1797.32</ele>
        <time>2014-02-02T11:53:19Z</time>
      </trkpt>
      <trkpt lat="45.02079" lon="5.5644">
        <ele>1799.24</ele>
        <time>2014-02-02T11:53:20Z</time>
      </trkpt>
      <trkpt lat="45.02066" lon="5.56395">
        <ele>1793</ele>
        <time>2014-02-02T11:53:28Z</time>
      </trkpt>
      <trkpt lat="45.0206" lon="5.56375">
        <ele>1791.07</ele>
        <time>2014-02-02T11:53:31Z</time>
      </trkpt>
      <trkpt lat="45.02055" lon="5.56361">
        <ele>1789.63</ele>
        <time>2014-02-02T11:53:33Z</time>
      </trkpt>
      <trkpt lat="45.02053" lon="5.56354">
        <ele>1788.19</ele>
        <time>2014-02-02T11:53:34Z</time>
      </trkpt>
      <trkpt lat="45.0205" lon="5.56313">
        <ele>1781.94</ele>
        <time>2014-02-02T11:53:39Z</time>
      </trkpt>
      <trkpt lat="45.0205" lon="5.56305">
        <ele>1780.5</ele>
        <time>2014-02-02T11:53:40Z</time>
      </trkpt>
      <trkpt lat="45.0205" lon="5.56269">
        <ele>1774.73</ele>
        <time>2014-02-02T11:53:45Z</time>
      </trkpt>
      <trkpt lat="45.02049" lon="5.56262">
        <ele>1776.17</ele>
        <time>2014-02-02T11:53:46Z</time>
      </trkpt>
      <trkpt lat="45.02049" lon="5.56256">
        <ele>1773.29</ele>
        <time>2014-02-02T11:53:47Z</time>
      </trkpt>
      <trkpt lat="45.02046" lon="5.5623">
        <ele>1769.44</ele>
        <time>2014-02-02T11:53:51Z</time>
      </trkpt>
      <trkpt lat="45.02047" lon="5.56214">
        <ele>1766.08</ele>
        <time>2014-02-02T11:53:54Z</time>
      </trkpt>
      <trkpt lat="45.02053" lon="5.56194">
        <ele>1760.79</ele>
        <time>2014-02-02T11:53:58Z</time>
      </trkpt>
      <trkpt lat="45.02051" lon="5.56172">
        <ele>1756.47</ele>
        <time>2014-02-02T11:54:02Z</time>
      </trkpt>
      <trkpt lat="45.02051" lon="5.56166">
        <ele>1754.54</ele>
        <time>2014-02-02T11:54:03Z</time>
      </trkpt>
      <trkpt lat="45.02051" lon="5.56154">
        <ele>1751.18</ele>
        <time>2014-02-02T11:54:05Z</time>
      </trkpt>
      <trkpt lat="45.02051" lon="5.56143">
        <ele>1749.74</ele>
        <time>2014-02-02T11:54:07Z</time>
      </trkpt>
      <trkpt lat="45.02052" lon="5.56136">
        <ele>1746.37</ele>
        <time>2014-02-02T11:54:08Z</time>
      </trkpt>
      <trkpt lat="45.02052" lon="5.56129">
        <ele>1747.33</ele>
        <time>2014-02-02T11:54:09Z</time>
      </trkpt>
      <trkpt lat="45.02054" lon="5.56116">
        <ele>1743.01</ele>
        <time>2014-02-02T11:54:11Z</time>
      </trkpt>
      <trkpt lat="45.02058" lon="5.56113">
        <ele>1743.01</ele>
        <time>2014-02-02T11:54:12Z</time>
      </trkpt>
      <trkpt lat="45.02064" lon="5.56102">
        <ele>1738.2</ele>
        <time>2014-02-02T11:54:14Z</time>
      </trkpt>
      <trkpt lat="45.02065" lon="5.5609">
        <ele>1737.24</ele>
        <time>2014-02-02T11:54:16Z</time>
      </trkpt>
      <trkpt lat="45.02067" lon="5.56087">
        <ele>1733.88</ele>
        <time>2014-02-02T11:54:18Z</time>
      </trkpt>
      <trkpt lat="45.02071" lon="5.56088">
        <ele>1733.39</ele>
        <time>2014-02-02T11:54:33Z</time>
      </trkpt>
      <trkpt lat="45.02074" lon="5.5609">
        <ele>1732.43</ele>
        <time>2014-02-02T11:55:46Z</time>
      </trkpt>
      <trkpt lat="45.02081" lon="5.56091">
        <ele>1729.55</ele>
        <time>2014-02-02T11:56:21Z</time>
      </trkpt>
      <trkpt lat="45.02084" lon="5.56084">
        <ele>1730.51</ele>
        <time>2014-02-02T11:56:23Z</time>
      </trkpt>
      <trkpt lat="45.02083" lon="5.56068">
        <ele>1725.22</ele>
        <time>2014-02-02T11:56:26Z</time>
      </trkpt>
      <trkpt lat="45.02083" lon="5.56062">
        <ele>1726.67</ele>
        <time>2014-02-02T11:56:27Z</time>
      </trkpt>
      <trkpt lat="45.02084" lon="5.56057">
        <ele>1723.3</ele>
        <time>2014-02-02T11:56:28Z</time>
      </trkpt>
      <trkpt lat="45.02089" lon="5.5604">
        <ele>1717.05</ele>
        <time>2014-02-02T11:56:31Z</time>
      </trkpt>
      <trkpt lat="45.0209" lon="5.56035">
        <ele>1718.01</ele>
        <time>2014-02-02T11:56:32Z</time>
      </trkpt>
      <trkpt lat="45.02091" lon="5.56029">
        <ele>1714.17</ele>
        <time>2014-02-02T11:56:33Z</time>
      </trkpt>
      <trkpt lat="45.02092" lon="5.56023">
        <ele>1713.69</ele>
        <time>2014-02-02T11:56:34Z</time>
      </trkpt>
      <trkpt lat="45.02099" lon="5.56011">
        <ele>1708.88</ele>
        <time>2014-02-02T11:56:37Z</time>
      </trkpt>
      <trkpt lat="45.02105" lon="5.56005">
        <ele>1705.04</ele>
        <time>2014-02-02T11:56:39Z</time>
      </trkpt>
      <trkpt lat="45.02108" lon="5.55986">
        <ele>1698.79</ele>
        <time>2014-02-02T11:56:43Z</time>
      </trkpt>
      <trkpt lat="45.02106" lon="5.55978">
        <ele>1697.34</ele>
        <time>2014-02-02T11:56:45Z</time>
      </trkpt>
      <trkpt lat="45.02106" lon="5.5596">
        <ele>1694.94</ele>
        <time>2014-02-02T11:56:49Z</time>
      </trkpt>
      <trkpt lat="45.02109" lon="5.55941">
        <ele>1689.17</ele>
        <time>2014-02-02T11:56:53Z</time>
      </trkpt>
      <trkpt lat="45.02115" lon="5.55938">
        <ele>1688.21</ele>
        <time>2014-02-02T11:56:55Z</time>
      </trkpt>
      <trkpt lat="45.02123" lon="5.55944">
        <ele>1685.33</ele>
        <time>2014-02-02T11:56:58Z</time>
      </trkpt>
      <trkpt lat="45.02128" lon="5.55948">
        <ele>1683.89</ele>
        <time>2014-02-02T11:57:00Z</time>
      </trkpt>
      <trkpt lat="45.02137" lon="5.55954">
        <ele>1683.41</ele>
        <time>2014-02-02T11:57:04Z</time>
      </trkpt>
      <trkpt lat="45.02138" lon="5.55947">
        <ele>1679.56</ele>
        <time>2014-02-02T11:57:15Z</time>
      </trkpt>
      <trkpt lat="45.02141" lon="5.55944">
        <ele>1677.16</ele>
        <time>2014-02-02T11:57:51Z</time>
      </trkpt>
      <trkpt lat="45.02145" lon="5.55935">
        <ele>1673.79</ele>
        <time>2014-02-02T11:57:55Z</time>
      </trkpt>
      <trkpt lat="45.02149" lon="5.55923">
        <ele>1668.99</ele>
        <time>2014-02-02T11:57:58Z</time>
      </trkpt>
      <trkpt lat="45.02166" lon="5.55881">
        <ele>1657.45</ele>
        <time>2014-02-02T11:58:08Z</time>
      </trkpt>
      <trkpt lat="45.02168" lon="5.55876">
        <ele>1656.01</ele>
        <time>2014-02-02T11:58:09Z</time>
      </trkpt>
      <trkpt lat="45.0218" lon="5.55864">
        <ele>1650.24</ele>
        <time>2014-02-02T11:58:13Z</time>
      </trkpt>
      <trkpt lat="45.02185" lon="5.55865">
        <ele>1650.72</ele>
        <time>2014-02-02T11:58:14Z</time>
      </trkpt>
      <trkpt lat="45.0219" lon="5.55865">
        <ele>1645.43</ele>
        <time>2014-02-02T11:58:15Z</time>
      </trkpt>
      <trkpt lat="45.02206" lon="5.55856">
        <ele>1643.03</ele>
        <time>2014-02-02T11:58:18Z</time>
      </trkpt>
      <trkpt lat="45.02212" lon="5.55853">
        <ele>1643.03</ele>
        <time>2014-02-02T11:58:19Z</time>
      </trkpt>
      <trkpt lat="45.02219" lon="5.5584">
        <ele>1640.15</ele>
        <time>2014-02-02T11:58:23Z</time>
      </trkpt>
      <trkpt lat="45.02222" lon="5.55837">
        <ele>1639.67</ele>
        <time>2014-02-02T11:59:49Z</time>
      </trkpt>
      <trkpt lat="45.02217" lon="5.55827">
        <ele>1637.26</ele>
        <time>2014-02-02T12:03:13Z</time>
      </trkpt>
      <trkpt lat="45.02217" lon="5.55816">
        <ele>1636.3</ele>
        <time>2014-02-02T12:03:15Z</time>
      </trkpt>
      <trkpt lat="45.02215" lon="5.55798">
        <ele>1633.9</ele>
        <time>2014-02-02T12:03:18Z</time>
      </trkpt>
      <trkpt lat="45.02214" lon="5.55784">
        <ele>1631.49</ele>
        <time>2014-02-02T12:03:20Z</time>
      </trkpt>
      <trkpt lat="45.02217" lon="5.55749">
        <ele>1627.17</ele>
        <time>2014-02-02T12:03:25Z</time>
      </trkpt>
      <trkpt lat="45.02219" lon="5.5572">
        <ele>1621.4</ele>
        <time>2014-02-02T12:03:30Z</time>
      </trkpt>
      <trkpt lat="45.02212" lon="5.55672">
        <ele>1612.75</ele>
        <time>2014-02-02T12:03:39Z</time>
      </trkpt>
      <trkpt lat="45.0221" lon="5.55668">
        <ele>1613.23</ele>
        <time>2014-02-02T12:03:40Z</time>
      </trkpt>
      <trkpt lat="45.0221" lon="5.5566">
        <ele>1609.86</ele>
        <time>2014-02-02T12:03:42Z</time>
      </trkpt>
      <trkpt lat="45.02211" lon="5.55651">
        <ele>1606.98</ele>
        <time>2014-02-02T12:03:44Z</time>
      </trkpt>
      <trkpt lat="45.02211" lon="5.55646">
        <ele>1606.02</ele>
        <time>2014-02-02T12:03:45Z</time>
      </trkpt>
      <trkpt lat="45.02211" lon="5.55631">
        <ele>1602.66</ele>
        <time>2014-02-02T12:03:48Z</time>
      </trkpt>
      <trkpt lat="45.0221" lon="5.55612">
        <ele>1598.33</ele>
        <time>2014-02-02T12:03:52Z</time>
      </trkpt>
      <trkpt lat="45.02209" lon="5.55603">
        <ele>1596.41</ele>
        <time>2014-02-02T12:03:54Z</time>
      </trkpt>
      <trkpt lat="45.02204" lon="5.55596">
        <ele>1593.52</ele>
        <time>2014-02-02T12:03:56Z</time>
      </trkpt>
      <trkpt lat="45.02199" lon="5.55581">
        <ele>1588.72</ele>
        <time>2014-02-02T12:03:59Z</time>
      </trkpt>
      <trkpt lat="45.02198" lon="5.55576">
        <ele>1589.2</ele>
        <time>2014-02-02T12:04:00Z</time>
      </trkpt>
      <trkpt lat="45.02197" lon="5.55571">
        <ele>1586.31</ele>
        <time>2014-02-02T12:04:01Z</time>
      </trkpt>
      <trkpt lat="45.02196" lon="5.55567">
        <ele>1586.79</ele>
        <time>2014-02-02T12:04:02Z</time>
      </trkpt>
      <trkpt lat="45.02195" lon="5.55554">
        <ele>1582.95</ele>
        <time>2014-02-02T12:04:05Z</time>
      </trkpt>
      <trkpt lat="45.02193" lon="5.5555">
        <ele>1583.43</ele>
        <time>2014-02-02T12:04:06Z</time>
      </trkpt>
      <trkpt lat="45.02193" lon="5.55538">
        <ele>1581.51</ele>
        <time>2014-02-02T12:04:08Z</time>
      </trkpt>
      <trkpt lat="45.02191" lon="5.55527">
        <ele>1579.1</ele>
        <time>2014-02-02T12:04:10Z</time>
      </trkpt>
      <trkpt lat="45.02192" lon="5.55509">
        <ele>1576.22</ele>
        <time>2014-02-02T12:04:13Z</time>
      </trkpt>
      <trkpt lat="45.02198" lon="5.55471">
        <ele>1567.09</ele>
        <time>2014-02-02T12:04:19Z</time>
      </trkpt>
      <trkpt lat="45.022" lon="5.55446">
        <ele>1560.84</ele>
        <time>2014-02-02T12:04:23Z</time>
      </trkpt>
      <trkpt lat="45.02195" lon="5.55412">
        <ele>1558.43</ele>
        <time>2014-02-02T12:05:00Z</time>
      </trkpt>
      <trkpt lat="45.02188" lon="5.55369">
        <ele>1554.11</ele>
        <time>2014-02-02T12:05:07Z</time>
      </trkpt>
      <trkpt lat="45.02191" lon="5.55351">
        <ele>1552.67</ele>
        <time>2014-02-02T12:05:10Z</time>
      </trkpt>
      <trkpt lat="45.02192" lon="5.55345">
        <ele>1552.19</ele>
        <time>2014-02-02T12:05:11Z</time>
      </trkpt>
      <trkpt lat="45.02192" lon="5.5531">
        <ele>1547.86</ele>
        <time>2014-02-02T12:05:17Z</time>
      </trkpt>
      <trkpt lat="45.02193" lon="5.55304">
        <ele>1546.42</ele>
        <time>2014-02-02T12:05:18Z</time>
      </trkpt>
      <trkpt lat="45.02191" lon="5.55277">
        <ele>1541.13</ele>
        <time>2014-02-02T12:05:23Z</time>
      </trkpt>
      <trkpt lat="45.0219" lon="5.5526">
        <ele>1539.21</ele>
        <time>2014-02-02T12:05:26Z</time>
      </trkpt>
      <trkpt lat="45.0219" lon="5.55251">
        <ele>1537.29</ele>
        <time>2014-02-02T12:05:28Z</time>
      </trkpt>
      <trkpt lat="45.02194" lon="5.55245">
        <ele>1535.84</ele>
        <time>2014-02-02T12:05:30Z</time>
      </trkpt>
      <trkpt lat="45.02201" lon="5.55241">
        <ele>1530.56</ele>
        <time>2014-02-02T12:05:32Z</time>
      </trkpt>
      <trkpt lat="45.02204" lon="5.55238">
        <ele>1531.52</ele>
        <time>2014-02-02T12:05:33Z</time>
      </trkpt>
      <trkpt lat="45.02208" lon="5.55236">
        <ele>1529.11</ele>
        <time>2014-02-02T12:05:34Z</time>
      </trkpt>
      <trkpt lat="45.02211" lon="5.55232">
        <ele>1529.11</ele>
        <time>2014-02-02T12:05:35Z</time>
      </trkpt>
      <trkpt lat="45.02214" lon="5.55228">
        <ele>1527.67</ele>
        <time>2014-02-02T12:05:36Z</time>
      </trkpt>
      <trkpt lat="45.02219" lon="5.55225">
        <ele>1527.19</ele>
        <time>2014-02-02T12:05:37Z</time>
      </trkpt>
      <trkpt lat="45.02223" lon="5.55225">
        <ele>1526.71</ele>
        <time>2014-02-02T12:05:38Z</time>
      </trkpt>
      <trkpt lat="45.02228" lon="5.55225">
        <ele>1526.23</ele>
        <time>2014-02-02T12:05:39Z</time>
      </trkpt>
      <trkpt lat="45.02236" lon="5.5522">
        <ele>1524.79</ele>
        <time>2014-02-02T12:05:41Z</time>
      </trkpt>
      <trkpt lat="45.0224" lon="5.55217">
        <ele>1523.35</ele>
        <time>2014-02-02T12:05:42Z</time>
      </trkpt>
      <trkpt lat="45.02244" lon="5.55216">
        <ele>1523.83</ele>
        <time>2014-02-02T12:05:43Z</time>
      </trkpt>
      <trkpt lat="45.02262" lon="5.55215">
        <ele>1520.46</ele>
        <time>2014-02-02T12:05:47Z</time>
      </trkpt>
      <trkpt lat="45.0227" lon="5.55209">
        <ele>1519.5</ele>
        <time>2014-02-02T12:05:49Z</time>
      </trkpt>
      <trkpt lat="45.02274" lon="5.55208">
        <ele>1518.54</ele>
        <time>2014-02-02T12:05:50Z</time>
      </trkpt>
      <trkpt lat="45.02279" lon="5.55207">
        <ele>1518.06</ele>
        <time>2014-02-02T12:05:51Z</time>
      </trkpt>
      <trkpt lat="45.02292" lon="5.5521">
        <ele>1518.06</ele>
        <time>2014-02-02T12:06:48Z</time>
      </trkpt>
      <trkpt lat="45.0229" lon="5.55219">
        <ele>1519.02</ele>
        <time>2014-02-02T12:09:41Z</time>
      </trkpt>
      <trkpt lat="45.02285" lon="5.55225">
        <ele>1518.54</ele>
        <time>2014-02-02T12:09:57Z</time>
      </trkpt>
      <trkpt lat="45.02272" lon="5.55244">
        <ele>1517.58</ele>
        <time>2014-02-02T12:10:14Z</time>
      </trkpt>
      <trkpt lat="45.02267" lon="5.55277">
        <ele>1521.9</ele>
        <time>2014-02-02T12:10:21Z</time>
      </trkpt>
      <trkpt lat="45.02265" lon="5.55286">
        <ele>1523.83</ele>
        <time>2014-02-02T12:10:23Z</time>
      </trkpt>
      <trkpt lat="45.02263" lon="5.55295">
        <ele>1527.67</ele>
        <time>2014-02-02T12:10:25Z</time>
      </trkpt>
      <trkpt lat="45.0226" lon="5.55304">
        <ele>1531.52</ele>
        <time>2014-02-02T12:10:27Z</time>
      </trkpt>
      <trkpt lat="45.02258" lon="5.55312">
        <ele>1535.84</ele>
        <time>2014-02-02T12:10:29Z</time>
      </trkpt>
      <trkpt lat="45.02256" lon="5.5532">
        <ele>1540.65</ele>
        <time>2014-02-02T12:10:31Z</time>
      </trkpt>
      <trkpt lat="45.02253" lon="5.55329">
        <ele>1544.98</ele>
        <time>2014-02-02T12:10:33Z</time>
      </trkpt>
      <trkpt lat="45.02251" lon="5.55337">
        <ele>1549.3</ele>
        <time>2014-02-02T12:10:35Z</time>
      </trkpt>
      <trkpt lat="45.02248" lon="5.55345">
        <ele>1553.15</ele>
        <time>2014-02-02T12:10:37Z</time>
      </trkpt>
      <trkpt lat="45.02243" lon="5.55359">
        <ele>1556.51</ele>
        <time>2014-02-02T12:10:40Z</time>
      </trkpt>
      <trkpt lat="45.02236" lon="5.55372">
        <ele>1559.88</ele>
        <time>2014-02-02T12:10:43Z</time>
      </trkpt>
      <trkpt lat="45.0223" lon="5.55385">
        <ele>1563.72</ele>
        <time>2014-02-02T12:10:46Z</time>
      </trkpt>
      <trkpt lat="45.02224" lon="5.55398">
        <ele>1568.05</ele>
        <time>2014-02-02T12:10:49Z</time>
      </trkpt>
      <trkpt lat="45.02217" lon="5.55416">
        <ele>1571.89</ele>
        <time>2014-02-02T12:10:53Z</time>
      </trkpt>
      <trkpt lat="45.02209" lon="5.55435">
        <ele>1576.22</ele>
        <time>2014-02-02T12:10:57Z</time>
      </trkpt>
      <trkpt lat="45.02195" lon="5.55466">
        <ele>1584.87</ele>
        <time>2014-02-02T12:11:04Z</time>
      </trkpt>
      <trkpt lat="45.02191" lon="5.55481">
        <ele>1588.72</ele>
        <time>2014-02-02T12:11:07Z</time>
      </trkpt>
      <trkpt lat="45.02186" lon="5.55495">
        <ele>1592.08</ele>
        <time>2014-02-02T12:11:10Z</time>
      </trkpt>
      <trkpt lat="45.02181" lon="5.55509">
        <ele>1595.93</ele>
        <time>2014-02-02T12:11:13Z</time>
      </trkpt>
      <trkpt lat="45.02178" lon="5.55518">
        <ele>1598.81</ele>
        <time>2014-02-02T12:11:15Z</time>
      </trkpt>
      <trkpt lat="45.02172" lon="5.55531">
        <ele>1602.17</ele>
        <time>2014-02-02T12:11:18Z</time>
      </trkpt>
      <trkpt lat="45.02166" lon="5.55549">
        <ele>1606.02</ele>
        <time>2014-02-02T12:11:22Z</time>
      </trkpt>
      <trkpt lat="45.02159" lon="5.55568">
        <ele>1610.35</ele>
        <time>2014-02-02T12:11:26Z</time>
      </trkpt>
      <trkpt lat="45.02152" lon="5.55586">
        <ele>1613.71</ele>
        <time>2014-02-02T12:11:30Z</time>
      </trkpt>
      <trkpt lat="45.02147" lon="5.556">
        <ele>1618.04</ele>
        <time>2014-02-02T12:11:33Z</time>
      </trkpt>
      <trkpt lat="45.02142" lon="5.55613">
        <ele>1621.88</ele>
        <time>2014-02-02T12:11:36Z</time>
      </trkpt>
      <trkpt lat="45.02137" lon="5.55626">
        <ele>1625.25</ele>
        <time>2014-02-02T12:11:39Z</time>
      </trkpt>
      <trkpt lat="45.02132" lon="5.5564">
        <ele>1629.09</ele>
        <time>2014-02-02T12:11:42Z</time>
      </trkpt>
      <trkpt lat="45.02127" lon="5.55652">
        <ele>1633.42</ele>
        <time>2014-02-02T12:11:45Z</time>
      </trkpt>
      <trkpt lat="45.02122" lon="5.55665">
        <ele>1637.26</ele>
        <time>2014-02-02T12:11:48Z</time>
      </trkpt>
      <trkpt lat="45.02118" lon="5.55678">
        <ele>1641.59</ele>
        <time>2014-02-02T12:11:51Z</time>
      </trkpt>
      <trkpt lat="45.02113" lon="5.5569">
        <ele>1645.91</ele>
        <time>2014-02-02T12:11:54Z</time>
      </trkpt>
      <trkpt lat="45.0211" lon="5.55699">
        <ele>1649.76</ele>
        <time>2014-02-02T12:11:56Z</time>
      </trkpt>
      <trkpt lat="45.02106" lon="5.55711">
        <ele>1653.6</ele>
        <time>2014-02-02T12:11:59Z</time>
      </trkpt>
      <trkpt lat="45.02101" lon="5.55725">
        <ele>1658.41</ele>
        <time>2014-02-02T12:12:02Z</time>
      </trkpt>
      <trkpt lat="45.02096" lon="5.55738">
        <ele>1663.22</ele>
        <time>2014-02-02T12:12:05Z</time>
      </trkpt>
      <trkpt lat="45.02093" lon="5.55747">
        <ele>1666.58</ele>
        <time>2014-02-02T12:12:07Z</time>
      </trkpt>
      <trkpt lat="45.0209" lon="5.55756">
        <ele>1670.43</ele>
        <time>2014-02-02T12:12:09Z</time>
      </trkpt>
      <trkpt lat="45.02084" lon="5.55768">
        <ele>1673.79</ele>
        <time>2014-02-02T12:12:12Z</time>
      </trkpt>
      <trkpt lat="45.02079" lon="5.55781">
        <ele>1677.16</ele>
        <time>2014-02-02T12:12:15Z</time>
      </trkpt>
      <trkpt lat="45.02076" lon="5.5579">
        <ele>1680.52</ele>
        <time>2014-02-02T12:12:17Z</time>
      </trkpt>
      <trkpt lat="45.0207" lon="5.55804">
        <ele>1684.37</ele>
        <time>2014-02-02T12:12:20Z</time>
      </trkpt>
      <trkpt lat="45.02067" lon="5.55814">
        <ele>1687.73</ele>
        <time>2014-02-02T12:12:22Z</time>
      </trkpt>
      <trkpt lat="45.02061" lon="5.55832">
        <ele>1692.54</ele>
        <time>2014-02-02T12:12:26Z</time>
      </trkpt>
      <trkpt lat="45.02058" lon="5.5584">
        <ele>1695.9</ele>
        <time>2014-02-02T12:12:28Z</time>
      </trkpt>
      <trkpt lat="45.02053" lon="5.55852">
        <ele>1700.23</ele>
        <time>2014-02-02T12:12:31Z</time>
      </trkpt>
      <trkpt lat="45.02049" lon="5.5586">
        <ele>1703.11</ele>
        <time>2014-02-02T12:12:33Z</time>
      </trkpt>
      <trkpt lat="45.02046" lon="5.55868">
        <ele>1706.48</ele>
        <time>2014-02-02T12:12:35Z</time>
      </trkpt>
      <trkpt lat="45.0204" lon="5.55881">
        <ele>1709.84</ele>
        <time>2014-02-02T12:12:38Z</time>
      </trkpt>
      <trkpt lat="45.02036" lon="5.5589">
        <ele>1711.28</ele>
        <time>2014-02-02T12:12:40Z</time>
      </trkpt>
      <trkpt lat="45.02026" lon="5.55914">
        <ele>1714.17</ele>
        <time>2014-02-02T12:12:45Z</time>
      </trkpt>
      <trkpt lat="45.02022" lon="5.55924">
        <ele>1715.61</ele>
        <time>2014-02-02T12:12:47Z</time>
      </trkpt>
      <trkpt lat="45.02014" lon="5.55942">
        <ele>1718.97</ele>
        <time>2014-02-02T12:12:51Z</time>
      </trkpt>
      <trkpt lat="45.02008" lon="5.55962">
        <ele>1721.86</ele>
        <time>2014-02-02T12:12:55Z</time>
      </trkpt>
      <trkpt lat="45.02002" lon="5.55981">
        <ele>1725.7</ele>
        <time>2014-02-02T12:12:59Z</time>
      </trkpt>
      <trkpt lat="45.01994" lon="5.55999">
        <ele>1729.07</ele>
        <time>2014-02-02T12:13:03Z</time>
      </trkpt>
      <trkpt lat="45.0196" lon="5.56076">
        <ele>1731.47</ele>
        <time>2014-02-02T12:13:21Z</time>
      </trkpt>
      <trkpt lat="45.01945" lon="5.56112">
        <ele>1733.88</ele>
        <time>2014-02-02T12:13:29Z</time>
      </trkpt>
      <trkpt lat="45.01933" lon="5.56147">
        <ele>1736.28</ele>
        <time>2014-02-02T12:13:36Z</time>
      </trkpt>
      <trkpt lat="45.0193" lon="5.56157">
        <ele>1737.24</ele>
        <time>2014-02-02T12:13:38Z</time>
      </trkpt>
      <trkpt lat="45.01923" lon="5.56176">
        <ele>1739.16</ele>
        <time>2014-02-02T12:13:42Z</time>
      </trkpt>
      <trkpt lat="45.01918" lon="5.56191">
        <ele>1741.08</ele>
        <time>2014-02-02T12:13:45Z</time>
      </trkpt>
      <trkpt lat="45.01912" lon="5.56208">
        <ele>1745.41</ele>
        <time>2014-02-02T12:13:49Z</time>
      </trkpt>
      <trkpt lat="45.01909" lon="5.56216">
        <ele>1748.29</ele>
        <time>2014-02-02T12:13:51Z</time>
      </trkpt>
      <trkpt lat="45.01906" lon="5.56224">
        <ele>1752.14</ele>
        <time>2014-02-02T12:13:53Z</time>
      </trkpt>
      <trkpt lat="45.01903" lon="5.56233">
        <ele>1755.99</ele>
        <time>2014-02-02T12:13:55Z</time>
      </trkpt>
      <trkpt lat="45.019" lon="5.56241">
        <ele>1759.83</ele>
        <time>2014-02-02T12:13:57Z</time>
      </trkpt>
      <trkpt lat="45.01897" lon="5.5625">
        <ele>1762.71</ele>
        <time>2014-02-02T12:13:59Z</time>
      </trkpt>
      <trkpt lat="45.01893" lon="5.56262">
        <ele>1767.52</ele>
        <time>2014-02-02T12:14:02Z</time>
      </trkpt>
      <trkpt lat="45.0189" lon="5.56271">
        <ele>1770.41</ele>
        <time>2014-02-02T12:14:04Z</time>
      </trkpt>
      <trkpt lat="45.01887" lon="5.56279">
        <ele>1773.77</ele>
        <time>2014-02-02T12:14:06Z</time>
      </trkpt>
      <trkpt lat="45.01884" lon="5.56287">
        <ele>1777.61</ele>
        <time>2014-02-02T12:14:08Z</time>
      </trkpt>
      <trkpt lat="45.01881" lon="5.56296">
        <ele>1780.5</ele>
        <time>2014-02-02T12:14:10Z</time>
      </trkpt>
      <trkpt lat="45.01878" lon="5.56305">
        <ele>1784.82</ele>
        <time>2014-02-02T12:14:12Z</time>
      </trkpt>
      <trkpt lat="45.01875" lon="5.56315">
        <ele>1788.19</ele>
        <time>2014-02-02T12:14:14Z</time>
      </trkpt>
      <trkpt lat="45.01872" lon="5.56324">
        <ele>1791.55</ele>
        <time>2014-02-02T12:14:16Z</time>
      </trkpt>
      <trkpt lat="45.01869" lon="5.56331">
        <ele>1795.4</ele>
        <time>2014-02-02T12:14:18Z</time>
      </trkpt>
      <trkpt lat="45.01865" lon="5.56344">
        <ele>1800.69</ele>
        <time>2014-02-02T12:14:21Z</time>
      </trkpt>
      <trkpt lat="45.01862" lon="5.56353">
        <ele>1805.49</ele>
        <time>2014-02-02T12:14:23Z</time>
      </trkpt>
      <trkpt lat="45.01859" lon="5.56361">
        <ele>1810.3</ele>
        <time>2014-02-02T12:14:25Z</time>
      </trkpt>
      <trkpt lat="45.01856" lon="5.5637">
        <ele>1814.63</ele>
        <time>2014-02-02T12:14:27Z</time>
      </trkpt>
      <trkpt lat="45.01853" lon="5.56378">
        <ele>1818.95</ele>
        <time>2014-02-02T12:14:29Z</time>
      </trkpt>
      <trkpt lat="45.0185" lon="5.56386">
        <ele>1823.28</ele>
        <time>2014-02-02T12:14:31Z</time>
      </trkpt>
      <trkpt lat="45.01847" lon="5.56394">
        <ele>1827.6</ele>
        <time>2014-02-02T12:14:33Z</time>
      </trkpt>
      <trkpt lat="45.01845" lon="5.56402">
        <ele>1832.41</ele>
        <time>2014-02-02T12:14:35Z</time>
      </trkpt>
      <trkpt lat="45.0184" lon="5.56415">
        <ele>1836.74</ele>
        <time>2014-02-02T12:14:38Z</time>
      </trkpt>
      <trkpt lat="45.01836" lon="5.56424">
        <ele>1840.1</ele>
        <time>2014-02-02T12:14:40Z</time>
      </trkpt>
      <trkpt lat="45.01832" lon="5.56437">
        <ele>1845.39</ele>
        <time>2014-02-02T12:14:43Z</time>
      </trkpt>
      <trkpt lat="45.01829" lon="5.56445">
        <ele>1849.23</ele>
        <time>2014-02-02T12:14:45Z</time>
      </trkpt>
      <trkpt lat="45.01825" lon="5.56454">
        <ele>1853.56</ele>
        <time>2014-02-02T12:14:47Z</time>
      </trkpt>
      <trkpt lat="45.01822" lon="5.56462">
        <ele>1856.92</ele>
        <time>2014-02-02T12:14:49Z</time>
      </trkpt>
      <trkpt lat="45.01819" lon="5.5647">
        <ele>1860.29</ele>
        <time>2014-02-02T12:14:51Z</time>
      </trkpt>
      <trkpt lat="45.01815" lon="5.56478">
        <ele>1864.13</ele>
        <time>2014-02-02T12:14:53Z</time>
      </trkpt>
      <trkpt lat="45.01808" lon="5.56497">
        <ele>1867.98</ele>
        <time>2014-02-02T12:14:57Z</time>
      </trkpt>
      <trkpt lat="45.01804" lon="5.56506">
        <ele>1871.34</ele>
        <time>2014-02-02T12:14:59Z</time>
      </trkpt>
      <trkpt lat="45.01798" lon="5.56519">
        <ele>1874.71</ele>
        <time>2014-02-02T12:15:02Z</time>
      </trkpt>
      <trkpt lat="45.01793" lon="5.56532">
        <ele>1878.55</ele>
        <time>2014-02-02T12:15:05Z</time>
      </trkpt>
      <trkpt lat="45.01788" lon="5.56546">
        <ele>1881.92</ele>
        <time>2014-02-02T12:15:08Z</time>
      </trkpt>
      <trkpt lat="45.01784" lon="5.56554">
        <ele>1885.28</ele>
        <time>2014-02-02T12:15:10Z</time>
      </trkpt>
      <trkpt lat="45.01779" lon="5.56567">
        <ele>1889.13</ele>
        <time>2014-02-02T12:15:13Z</time>
      </trkpt>
      <trkpt lat="45.01776" lon="5.56577">
        <ele>1892.97</ele>
        <time>2014-02-02T12:15:15Z</time>
      </trkpt>
      <trkpt lat="45.01773" lon="5.56585">
        <ele>1895.86</ele>
        <time>2014-02-02T12:15:17Z</time>
      </trkpt>
      <trkpt lat="45.0177" lon="5.56594">
        <ele>1899.22</ele>
        <time>2014-02-02T12:15:19Z</time>
      </trkpt>
      <trkpt lat="45.01765" lon="5.56607">
        <ele>1903.07</ele>
        <time>2014-02-02T12:15:22Z</time>
      </trkpt>
      <trkpt lat="45.01759" lon="5.56621">
        <ele>1906.43</ele>
        <time>2014-02-02T12:15:25Z</time>
      </trkpt>
      <trkpt lat="45.01754" lon="5.56635">
        <ele>1910.76</ele>
        <time>2014-02-02T12:15:28Z</time>
      </trkpt>
      <trkpt lat="45.01749" lon="5.56648">
        <ele>1914.12</ele>
        <time>2014-02-02T12:15:31Z</time>
      </trkpt>
      <trkpt lat="45.01744" lon="5.56661">
        <ele>1917.49</ele>
        <time>2014-02-02T12:15:34Z</time>
      </trkpt>
      <trkpt lat="45.01741" lon="5.56671">
        <ele>1921.81</ele>
        <time>2014-02-02T12:15:36Z</time>
      </trkpt>
      <trkpt lat="45.01736" lon="5.56685">
        <ele>1925.66</ele>
        <time>2014-02-02T12:15:39Z</time>
      </trkpt>
      <trkpt lat="45.01735" lon="5.5669">
        <ele>1925.66</ele>
        <time>2014-02-02T12:15:40Z</time>
      </trkpt>
      <trkpt lat="45.0173" lon="5.56703">
        <ele>1929.98</ele>
        <time>2014-02-02T12:15:43Z</time>
      </trkpt>
      <trkpt lat="45.01727" lon="5.56712">
        <ele>1933.35</ele>
        <time>2014-02-02T12:15:45Z</time>
      </trkpt>
      <trkpt lat="45.01724" lon="5.5672">
        <ele>1937.19</ele>
        <time>2014-02-02T12:15:47Z</time>
      </trkpt>
      <trkpt lat="45.01718" lon="5.56734">
        <ele>1940.56</ele>
        <time>2014-02-02T12:15:50Z</time>
      </trkpt>
      <trkpt lat="45.01711" lon="5.56751">
        <ele>1942.48</ele>
        <time>2014-02-02T12:15:54Z</time>
      </trkpt>
      <trkpt lat="45.01706" lon="5.56765">
        <ele>1945.36</ele>
        <time>2014-02-02T12:15:57Z</time>
      </trkpt>
      <trkpt lat="45.017" lon="5.56779">
        <ele>1947.77</ele>
        <time>2014-02-02T12:16:00Z</time>
      </trkpt>
      <trkpt lat="45.01682" lon="5.56831">
        <ele>1950.65</ele>
        <time>2014-02-02T12:16:11Z</time>
      </trkpt>
      <trkpt lat="45.01667" lon="5.56868">
        <ele>1954.02</ele>
        <time>2014-02-02T12:16:19Z</time>
      </trkpt>
      <trkpt lat="45.0166" lon="5.56887">
        <ele>1957.38</ele>
        <time>2014-02-02T12:16:23Z</time>
      </trkpt>
      <trkpt lat="45.01647" lon="5.56918">
        <ele>1960.27</ele>
        <time>2014-02-02T12:16:30Z</time>
      </trkpt>
      <trkpt lat="45.01643" lon="5.56931">
        <ele>1965.07</ele>
        <time>2014-02-02T12:16:33Z</time>
      </trkpt>
      <trkpt lat="45.01638" lon="5.56944">
        <ele>1968.44</ele>
        <time>2014-02-02T12:16:36Z</time>
      </trkpt>
      <trkpt lat="45.01633" lon="5.56957">
        <ele>1973.24</ele>
        <time>2014-02-02T12:16:39Z</time>
      </trkpt>
      <trkpt lat="45.01629" lon="5.56971">
        <ele>1977.09</ele>
        <time>2014-02-02T12:16:42Z</time>
      </trkpt>
      <trkpt lat="45.01624" lon="5.56984">
        <ele>1981.41</ele>
        <time>2014-02-02T12:16:45Z</time>
      </trkpt>
      <trkpt lat="45.01621" lon="5.56993">
        <ele>1984.78</ele>
        <time>2014-02-02T12:16:47Z</time>
      </trkpt>
      <trkpt lat="45.01618" lon="5.57001">
        <ele>1988.14</ele>
        <time>2014-02-02T12:16:49Z</time>
      </trkpt>
      <trkpt lat="45.01615" lon="5.5701">
        <ele>1991.51</ele>
        <time>2014-02-02T12:16:51Z</time>
      </trkpt>
      <trkpt lat="45.0161" lon="5.57023">
        <ele>1995.83</ele>
        <time>2014-02-02T12:16:54Z</time>
      </trkpt>
      <trkpt lat="45.01607" lon="5.57032">
        <ele>1998.72</ele>
        <time>2014-02-02T12:16:56Z</time>
      </trkpt>
      <trkpt lat="45.01603" lon="5.57041">
        <ele>2002.56</ele>
        <time>2014-02-02T12:16:58Z</time>
      </trkpt>
      <trkpt lat="45.016" lon="5.57049">
        <ele>2006.41</ele>
        <time>2014-02-02T12:17:00Z</time>
      </trkpt>
      <trkpt lat="45.01597" lon="5.57058">
        <ele>2009.29</ele>
        <time>2014-02-02T12:17:02Z</time>
      </trkpt>
      <trkpt lat="45.01594" lon="5.57067">
        <ele>2013.14</ele>
        <time>2014-02-02T12:17:04Z</time>
      </trkpt>
      <trkpt lat="45.01588" lon="5.57081">
        <ele>2016.98</ele>
        <time>2014-02-02T12:17:07Z</time>
      </trkpt>
      <trkpt lat="45.01583" lon="5.57094">
        <ele>2020.83</ele>
        <time>2014-02-02T12:17:10Z</time>
      </trkpt>
      <trkpt lat="45.01578" lon="5.57107">
        <ele>2024.19</ele>
        <time>2014-02-02T12:17:13Z</time>
      </trkpt>
      <trkpt lat="45.01575" lon="5.57116">
        <ele>2028.04</ele>
        <time>2014-02-02T12:17:15Z</time>
      </trkpt>
      <trkpt lat="45.0157" lon="5.57129">
        <ele>2031.88</ele>
        <time>2014-02-02T12:17:18Z</time>
      </trkpt>
      <trkpt lat="45.01565" lon="5.57142">
        <ele>2037.17</ele>
        <time>2014-02-02T12:17:21Z</time>
      </trkpt>
      <trkpt lat="45.0156" lon="5.57155">
        <ele>2041.02</ele>
        <time>2014-02-02T12:17:24Z</time>
      </trkpt>
      <trkpt lat="45.01557" lon="5.57163">
        <ele>2043.9</ele>
        <time>2014-02-02T12:17:26Z</time>
      </trkpt>
      <trkpt lat="45.01547" lon="5.57185">
        <ele>2046.78</ele>
        <time>2014-02-02T12:17:32Z</time>
      </trkpt>
      <trkpt lat="45.01543" lon="5.57206">
        <ele>2047.26</ele>
        <time>2014-02-02T12:17:38Z</time>
      </trkpt>
      <trkpt lat="45.01538" lon="5.57212">
        <ele>2043.9</ele>
        <time>2014-02-02T12:17:42Z</time>
      </trkpt>
      <trkpt lat="45.01533" lon="5.5721">
        <ele>2044.86</ele>
        <time>2014-02-02T12:18:15Z</time>
      </trkpt>
      <trkpt lat="45.01529" lon="5.57205">
        <ele>2047.26</ele>
        <time>2014-02-02T12:18:20Z</time>
      </trkpt>
      <trkpt lat="45.01522" lon="5.57187">
        <ele>2044.38</ele>
        <time>2014-02-02T12:18:34Z</time>
      </trkpt>
      <trkpt lat="45.01519" lon="5.57171">
        <ele>2042.46</ele>
        <time>2014-02-02T12:18:39Z</time>
      </trkpt>
      <trkpt lat="45.01521" lon="5.57164">
        <ele>2041.98</ele>
        <time>2014-02-02T12:18:41Z</time>
      </trkpt>
      <trkpt lat="45.01521" lon="5.57153">
        <ele>2039.57</ele>
        <time>2014-02-02T12:18:44Z</time>
      </trkpt>
      <trkpt lat="45.01528" lon="5.57144">
        <ele>2035.73</ele>
        <time>2014-02-02T12:18:48Z</time>
      </trkpt>
      <trkpt lat="45.01536" lon="5.57134">
        <ele>2030.44</ele>
        <time>2014-02-02T12:18:52Z</time>
      </trkpt>
      <trkpt lat="45.01546" lon="5.57138">
        <ele>2027.56</ele>
        <time>2014-02-02T12:18:56Z</time>
      </trkpt>
      <trkpt lat="45.01557" lon="5.57128">
        <ele>2024.19</ele>
        <time>2014-02-02T12:19:00Z</time>
      </trkpt>
      <trkpt lat="45.01569" lon="5.57118">
        <ele>2020.83</ele>
        <time>2014-02-02T12:19:04Z</time>
      </trkpt>
      <trkpt lat="45.01575" lon="5.5711">
        <ele>2019.39</ele>
        <time>2014-02-02T12:19:07Z</time>
      </trkpt>
      <trkpt lat="45.01581" lon="5.57105">
        <ele>2011.7</ele>
        <time>2014-02-02T12:19:10Z</time>
      </trkpt>
      <trkpt lat="45.01578" lon="5.57096">
        <ele>2012.66</ele>
        <time>2014-02-02T12:19:14Z</time>
      </trkpt>
      <trkpt lat="45.01577" lon="5.57092">
        <ele>2012.18</ele>
        <time>2014-02-02T12:19:15Z</time>
      </trkpt>
      <trkpt lat="45.01574" lon="5.57087">
        <ele>2011.22</ele>
        <time>2014-02-02T12:19:16Z</time>
      </trkpt>
      <trkpt lat="45.01571" lon="5.57082">
        <ele>2009.77</ele>
        <time>2014-02-02T12:19:17Z</time>
      </trkpt>
      <trkpt lat="45.01567" lon="5.57077">
        <ele>2009.77</ele>
        <time>2014-02-02T12:19:18Z</time>
      </trkpt>
      <trkpt lat="45.01561" lon="5.57063">
        <ele>2007.85</ele>
        <time>2014-02-02T12:19:21Z</time>
      </trkpt>
      <trkpt lat="45.01553" lon="5.57048">
        <ele>2005.45</ele>
        <time>2014-02-02T12:19:25Z</time>
      </trkpt>
      <trkpt lat="45.01543" lon="5.57033">
        <ele>2003.04</ele>
        <time>2014-02-02T12:19:29Z</time>
      </trkpt>
      <trkpt lat="45.01528" lon="5.57027">
        <ele>1999.68</ele>
        <time>2014-02-02T12:19:33Z</time>
      </trkpt>
      <trkpt lat="45.01522" lon="5.5702">
        <ele>1996.8</ele>
        <time>2014-02-02T12:19:36Z</time>
      </trkpt>
      <trkpt lat="45.01517" lon="5.57021">
        <ele>1994.39</ele>
        <time>2014-02-02T12:19:38Z</time>
      </trkpt>
      <trkpt lat="45.01512" lon="5.57024">
        <ele>1990.55</ele>
        <time>2014-02-02T12:19:40Z</time>
      </trkpt>
      <trkpt lat="45.01504" lon="5.57022">
        <ele>1987.66</ele>
        <time>2014-02-02T12:19:43Z</time>
      </trkpt>
      <trkpt lat="45.01496" lon="5.57028">
        <ele>1986.22</ele>
        <time>2014-02-02T12:19:46Z</time>
      </trkpt>
      <trkpt lat="45.0149" lon="5.57028">
        <ele>1983.34</ele>
        <time>2014-02-02T12:19:48Z</time>
      </trkpt>
      <trkpt lat="45.01486" lon="5.57025">
        <ele>1980.45</ele>
        <time>2014-02-02T12:19:49Z</time>
      </trkpt>
      <trkpt lat="45.01468" lon="5.57024">
        <ele>1976.61</ele>
        <time>2014-02-02T12:19:53Z</time>
      </trkpt>
      <trkpt lat="45.01453" lon="5.57019">
        <ele>1972.28</ele>
        <time>2014-02-02T12:19:57Z</time>
      </trkpt>
      <trkpt lat="45.01446" lon="5.57021">
        <ele>1970.84</ele>
        <time>2014-02-02T12:19:59Z</time>
      </trkpt>
      <trkpt lat="45.01443" lon="5.57021">
        <ele>1969.88</ele>
        <time>2014-02-02T12:20:00Z</time>
      </trkpt>
      <trkpt lat="45.01444" lon="5.57008">
        <ele>1969.88</ele>
        <time>2014-02-02T12:20:09Z</time>
      </trkpt>
      <trkpt lat="45.01439" lon="5.5701">
        <ele>1969.4</ele>
        <time>2014-02-02T12:20:25Z</time>
      </trkpt>
      <trkpt lat="45.01436" lon="5.57012">
        <ele>1969.4</ele>
        <time>2014-02-02T12:20:26Z</time>
      </trkpt>
      <trkpt lat="45.01434" lon="5.57015">
        <ele>1968.44</ele>
        <time>2014-02-02T12:20:27Z</time>
      </trkpt>
      <trkpt lat="45.0143" lon="5.57019">
        <ele>1967.48</ele>
        <time>2014-02-02T12:20:28Z</time>
      </trkpt>
      <trkpt lat="45.01427" lon="5.5702">
        <ele>1966.51</ele>
        <time>2014-02-02T12:20:29Z</time>
      </trkpt>
      <trkpt lat="45.01421" lon="5.57022">
        <ele>1964.59</ele>
        <time>2014-02-02T12:20:31Z</time>
      </trkpt>
      <trkpt lat="45.01418" lon="5.57024">
        <ele>1963.63</ele>
        <time>2014-02-02T12:20:32Z</time>
      </trkpt>
      <trkpt lat="45.01416" lon="5.57027">
        <ele>1962.67</ele>
        <time>2014-02-02T12:20:33Z</time>
      </trkpt>
      <trkpt lat="45.01405" lon="5.5704">
        <ele>1960.27</ele>
        <time>2014-02-02T12:20:38Z</time>
      </trkpt>
      <trkpt lat="45.01401" lon="5.57041">
        <ele>1960.27</ele>
        <time>2014-02-02T12:20:39Z</time>
      </trkpt>
      <trkpt lat="45.01398" lon="5.5704">
        <ele>1958.82</ele>
        <time>2014-02-02T12:20:40Z</time>
      </trkpt>
      <trkpt lat="45.01387" lon="5.5704">
        <ele>1953.54</ele>
        <time>2014-02-02T12:20:44Z</time>
      </trkpt>
      <trkpt lat="45.01384" lon="5.57035">
        <ele>1952.09</ele>
        <time>2014-02-02T12:20:46Z</time>
      </trkpt>
      <trkpt lat="45.01377" lon="5.57038">
        <ele>1948.25</ele>
        <time>2014-02-02T12:20:49Z</time>
      </trkpt>
      <trkpt lat="45.01371" lon="5.5704">
        <ele>1946.33</ele>
        <time>2014-02-02T12:20:51Z</time>
      </trkpt>
      <trkpt lat="45.01368" lon="5.57035">
        <ele>1943.44</ele>
        <time>2014-02-02T12:20:53Z</time>
      </trkpt>
      <trkpt lat="45.01365" lon="5.57031">
        <ele>1942.96</ele>
        <time>2014-02-02T12:20:55Z</time>
      </trkpt>
      <trkpt lat="45.01352" lon="5.5702">
        <ele>1938.16</ele>
        <time>2014-02-02T12:21:01Z</time>
      </trkpt>
      <trkpt lat="45.01352" lon="5.57007">
        <ele>1935.75</ele>
        <time>2014-02-02T12:21:04Z</time>
      </trkpt>
      <trkpt lat="45.01352" lon="5.56997">
        <ele>1935.75</ele>
        <time>2014-02-02T12:21:21Z</time>
      </trkpt>
      <trkpt lat="45.01355" lon="5.56994">
        <ele>1936.71</ele>
        <time>2014-02-02T12:21:34Z</time>
      </trkpt>
      <trkpt lat="45.01354" lon="5.56987">
        <ele>1935.75</ele>
        <time>2014-02-02T12:21:36Z</time>
      </trkpt>
      <trkpt lat="45.01359" lon="5.56977">
        <ele>1932.87</ele>
        <time>2014-02-02T12:21:39Z</time>
      </trkpt>
      <trkpt lat="45.01358" lon="5.5697">
        <ele>1931.43</ele>
        <time>2014-02-02T12:21:41Z</time>
      </trkpt>
      <trkpt lat="45.01359" lon="5.56966">
        <ele>1929.98</ele>
        <time>2014-02-02T12:21:42Z</time>
      </trkpt>
      <trkpt lat="45.01361" lon="5.56961">
        <ele>1930.46</ele>
        <time>2014-02-02T12:21:43Z</time>
      </trkpt>
      <trkpt lat="45.01363" lon="5.5695">
        <ele>1927.1</ele>
        <time>2014-02-02T12:21:45Z</time>
      </trkpt>
      <trkpt lat="45.01366" lon="5.56946">
        <ele>1927.1</ele>
        <time>2014-02-02T12:21:46Z</time>
      </trkpt>
      <trkpt lat="45.01368" lon="5.5694">
        <ele>1924.7</ele>
        <time>2014-02-02T12:21:47Z</time>
      </trkpt>
      <trkpt lat="45.0137" lon="5.56931">
        <ele>1922.77</ele>
        <time>2014-02-02T12:21:49Z</time>
      </trkpt>
      <trkpt lat="45.01374" lon="5.56924">
        <ele>1920.37</ele>
        <time>2014-02-02T12:21:51Z</time>
      </trkpt>
      <trkpt lat="45.01376" lon="5.56917">
        <ele>1918.93</ele>
        <time>2014-02-02T12:21:53Z</time>
      </trkpt>
      <trkpt lat="45.01376" lon="5.56913">
        <ele>1917.01</ele>
        <time>2014-02-02T12:21:54Z</time>
      </trkpt>
      <trkpt lat="45.01377" lon="5.56905">
        <ele>1916.53</ele>
        <time>2014-02-02T12:21:56Z</time>
      </trkpt>
      <trkpt lat="45.01377" lon="5.569">
        <ele>1915.56</ele>
        <time>2014-02-02T12:21:57Z</time>
      </trkpt>
      <trkpt lat="45.01378" lon="5.56884">
        <ele>1912.2</ele>
        <time>2014-02-02T12:22:01Z</time>
      </trkpt>
      <trkpt lat="45.01379" lon="5.56878">
        <ele>1912.2</ele>
        <time>2014-02-02T12:22:02Z</time>
      </trkpt>
      <trkpt lat="45.01379" lon="5.56872">
        <ele>1911.24</ele>
        <time>2014-02-02T12:22:03Z</time>
      </trkpt>
      <trkpt lat="45.01378" lon="5.56867">
        <ele>1911.24</ele>
        <time>2014-02-02T12:22:04Z</time>
      </trkpt>
      <trkpt lat="45.01381" lon="5.56839">
        <ele>1906.91</ele>
        <time>2014-02-02T12:22:09Z</time>
      </trkpt>
      <trkpt lat="45.01386" lon="5.56826">
        <ele>1904.51</ele>
        <time>2014-02-02T12:22:12Z</time>
      </trkpt>
      <trkpt lat="45.01387" lon="5.56822">
        <ele>1904.51</ele>
        <time>2014-02-02T12:22:13Z</time>
      </trkpt>
      <trkpt lat="45.01387" lon="5.56817">
        <ele>1904.03</ele>
        <time>2014-02-02T12:22:14Z</time>
      </trkpt>
      <trkpt lat="45.01388" lon="5.56812">
        <ele>1903.07</ele>
        <time>2014-02-02T12:22:15Z</time>
      </trkpt>
      <trkpt lat="45.01387" lon="5.56806">
        <ele>1901.63</ele>
        <time>2014-02-02T12:22:16Z</time>
      </trkpt>
      <trkpt lat="45.01387" lon="5.56801">
        <ele>1901.14</ele>
        <time>2014-02-02T12:22:17Z</time>
      </trkpt>
      <trkpt lat="45.01387" lon="5.56795">
        <ele>1900.18</ele>
        <time>2014-02-02T12:22:18Z</time>
      </trkpt>
      <trkpt lat="45.01387" lon="5.56788">
        <ele>1898.74</ele>
        <time>2014-02-02T12:22:19Z</time>
      </trkpt>
      <trkpt lat="45.01387" lon="5.56777">
        <ele>1897.78</ele>
        <time>2014-02-02T12:22:21Z</time>
      </trkpt>
      <trkpt lat="45.01385" lon="5.56765">
        <ele>1895.38</ele>
        <time>2014-02-02T12:22:23Z</time>
      </trkpt>
      <trkpt lat="45.01385" lon="5.5676">
        <ele>1894.9</ele>
        <time>2014-02-02T12:22:24Z</time>
      </trkpt>
      <trkpt lat="45.01384" lon="5.56749">
        <ele>1892.97</ele>
        <time>2014-02-02T12:22:26Z</time>
      </trkpt>
      <trkpt lat="45.0138" lon="5.5674">
        <ele>1892.01</ele>
        <time>2014-02-02T12:22:28Z</time>
      </trkpt>
      <trkpt lat="45.01378" lon="5.56733">
        <ele>1892.01</ele>
        <time>2014-02-02T12:22:29Z</time>
      </trkpt>
      <trkpt lat="45.01376" lon="5.56712">
        <ele>1889.13</ele>
        <time>2014-02-02T12:22:33Z</time>
      </trkpt>
      <trkpt lat="45.01374" lon="5.56704">
        <ele>1888.17</ele>
        <time>2014-02-02T12:22:34Z</time>
      </trkpt>
      <trkpt lat="45.01374" lon="5.56692">
        <ele>1886.72</ele>
        <time>2014-02-02T12:22:37Z</time>
      </trkpt>
      <trkpt lat="45.0137" lon="5.56682">
        <ele>1885.28</ele>
        <time>2014-02-02T12:22:39Z</time>
      </trkpt>
      <trkpt lat="45.01369" lon="5.56672">
        <ele>1883.36</ele>
        <time>2014-02-02T12:22:42Z</time>
      </trkpt>
      <trkpt lat="45.0137" lon="5.56656">
        <ele>1880.48</ele>
        <time>2014-02-02T12:22:45Z</time>
      </trkpt>
      <trkpt lat="45.01372" lon="5.56631">
        <ele>1875.67</ele>
        <time>2014-02-02T12:22:49Z</time>
      </trkpt>
      <trkpt lat="45.01361" lon="5.56608">
        <ele>1871.82</ele>
        <time>2014-02-02T12:22:55Z</time>
      </trkpt>
      <trkpt lat="45.01373" lon="5.56598">
        <ele>1872.79</ele>
        <time>2014-02-02T12:23:19Z</time>
      </trkpt>
      <trkpt lat="45.0137" lon="5.56579">
        <ele>1870.86</ele>
        <time>2014-02-02T12:23:37Z</time>
      </trkpt>
      <trkpt lat="45.01367" lon="5.56551">
        <ele>1867.5</ele>
        <time>2014-02-02T12:23:42Z</time>
      </trkpt>
      <trkpt lat="45.01363" lon="5.56539">
        <ele>1866.06</ele>
        <time>2014-02-02T12:23:44Z</time>
      </trkpt>
      <trkpt lat="45.01358" lon="5.56514">
        <ele>1863.65</ele>
        <time>2014-02-02T12:23:49Z</time>
      </trkpt>
      <trkpt lat="45.01358" lon="5.56503">
        <ele>1862.69</ele>
        <time>2014-02-02T12:23:51Z</time>
      </trkpt>
      <trkpt lat="45.01358" lon="5.56498">
        <ele>1861.25</ele>
        <time>2014-02-02T12:23:52Z</time>
      </trkpt>
      <trkpt lat="45.01358" lon="5.56475">
        <ele>1859.33</ele>
        <time>2014-02-02T12:23:56Z</time>
      </trkpt>
      <trkpt lat="45.01355" lon="5.56448">
        <ele>1855.48</ele>
        <time>2014-02-02T12:24:00Z</time>
      </trkpt>
      <trkpt lat="45.01355" lon="5.56433">
        <ele>1854.04</ele>
        <time>2014-02-02T12:24:02Z</time>
      </trkpt>
      <trkpt lat="45.01355" lon="5.56422">
        <ele>1853.08</ele>
        <time>2014-02-02T12:24:04Z</time>
      </trkpt>
      <trkpt lat="45.01355" lon="5.56416">
        <ele>1851.64</ele>
        <time>2014-02-02T12:24:05Z</time>
      </trkpt>
      <trkpt lat="45.01352" lon="5.56407">
        <ele>1851.64</ele>
        <time>2014-02-02T12:24:07Z</time>
      </trkpt>
      <trkpt lat="45.01343" lon="5.56391">
        <ele>1849.23</ele>
        <time>2014-02-02T12:24:10Z</time>
      </trkpt>
      <trkpt lat="45.01341" lon="5.56372">
        <ele>1847.31</ele>
        <time>2014-02-02T12:24:13Z</time>
      </trkpt>
      <trkpt lat="45.01342" lon="5.56352">
        <ele>1845.39</ele>
        <time>2014-02-02T12:24:16Z</time>
      </trkpt>
      <trkpt lat="45.01343" lon="5.56345">
        <ele>1845.39</ele>
        <time>2014-02-02T12:24:17Z</time>
      </trkpt>
      <trkpt lat="45.01346" lon="5.56329">
        <ele>1842.5</ele>
        <time>2014-02-02T12:24:19Z</time>
      </trkpt>
      <trkpt lat="45.01345" lon="5.56303">
        <ele>1840.1</ele>
        <time>2014-02-02T12:24:22Z</time>
      </trkpt>
      <trkpt lat="45.01342" lon="5.56285">
        <ele>1838.18</ele>
        <time>2014-02-02T12:24:25Z</time>
      </trkpt>
      <trkpt lat="45.01342" lon="5.56268">
        <ele>1835.29</ele>
        <time>2014-02-02T12:24:29Z</time>
      </trkpt>
      <trkpt lat="45.01343" lon="5.56263">
        <ele>1834.81</ele>
        <time>2014-02-02T12:24:36Z</time>
      </trkpt>
      <trkpt lat="45.01329" lon="5.56213">
        <ele>1833.85</ele>
        <time>2014-02-02T12:24:49Z</time>
      </trkpt>
      <trkpt lat="45.0132" lon="5.56191">
        <ele>1831.93</ele>
        <time>2014-02-02T12:24:54Z</time>
      </trkpt>
      <trkpt lat="45.01322" lon="5.56175">
        <ele>1828.08</ele>
        <time>2014-02-02T12:24:59Z</time>
      </trkpt>
      <trkpt lat="45.01325" lon="5.56173">
        <ele>1827.6</ele>
        <time>2014-02-02T12:25:00Z</time>
      </trkpt>
      <trkpt lat="45.01331" lon="5.56168">
        <ele>1827.12</ele>
        <time>2014-02-02T12:25:02Z</time>
      </trkpt>
      <trkpt lat="45.01332" lon="5.56163">
        <ele>1827.12</ele>
        <time>2014-02-02T12:25:03Z</time>
      </trkpt>
      <trkpt lat="45.01333" lon="5.56157">
        <ele>1826.64</ele>
        <time>2014-02-02T12:25:04Z</time>
      </trkpt>
      <trkpt lat="45.01334" lon="5.56151">
        <ele>1824.24</ele>
        <time>2014-02-02T12:25:05Z</time>
      </trkpt>
      <trkpt lat="45.01335" lon="5.56145">
        <ele>1823.76</ele>
        <time>2014-02-02T12:25:06Z</time>
      </trkpt>
      <trkpt lat="45.01336" lon="5.56139">
        <ele>1821.35</ele>
        <time>2014-02-02T12:25:07Z</time>
      </trkpt>
      <trkpt lat="45.01337" lon="5.56133">
        <ele>1820.39</ele>
        <time>2014-02-02T12:25:08Z</time>
      </trkpt>
      <trkpt lat="45.01337" lon="5.56127">
        <ele>1818.95</ele>
        <time>2014-02-02T12:25:09Z</time>
      </trkpt>
      <trkpt lat="45.01338" lon="5.56122">
        <ele>1818.47</ele>
        <time>2014-02-02T12:25:10Z</time>
      </trkpt>
      <trkpt lat="45.0134" lon="5.56116">
        <ele>1816.55</ele>
        <time>2014-02-02T12:25:11Z</time>
      </trkpt>
      <trkpt lat="45.01341" lon="5.5611">
        <ele>1815.59</ele>
        <time>2014-02-02T12:25:12Z</time>
      </trkpt>
      <trkpt lat="45.01342" lon="5.56097">
        <ele>1812.7</ele>
        <time>2014-02-02T12:25:14Z</time>
      </trkpt>
      <trkpt lat="45.01343" lon="5.56091">
        <ele>1811.74</ele>
        <time>2014-02-02T12:25:15Z</time>
      </trkpt>
      <trkpt lat="45.01343" lon="5.56085">
        <ele>1809.82</ele>
        <time>2014-02-02T12:25:16Z</time>
      </trkpt>
      <trkpt lat="45.01344" lon="5.56079">
        <ele>1808.86</ele>
        <time>2014-02-02T12:25:17Z</time>
      </trkpt>
      <trkpt lat="45.01346" lon="5.56074">
        <ele>1807.9</ele>
        <time>2014-02-02T12:25:18Z</time>
      </trkpt>
      <trkpt lat="45.01347" lon="5.56068">
        <ele>1806.45</ele>
        <time>2014-02-02T12:25:19Z</time>
      </trkpt>
      <trkpt lat="45.01348" lon="5.56062">
        <ele>1805.49</ele>
        <time>2014-02-02T12:25:20Z</time>
      </trkpt>
      <trkpt lat="45.01349" lon="5.56056">
        <ele>1804.53</ele>
        <time>2014-02-02T12:25:21Z</time>
      </trkpt>
      <trkpt lat="45.01349" lon="5.5605">
        <ele>1803.09</ele>
        <time>2014-02-02T12:25:22Z</time>
      </trkpt>
      <trkpt lat="45.01351" lon="5.56045">
        <ele>1802.13</ele>
        <time>2014-02-02T12:25:23Z</time>
      </trkpt>
      <trkpt lat="45.01353" lon="5.56041">
        <ele>1801.17</ele>
        <time>2014-02-02T12:25:24Z</time>
      </trkpt>
      <trkpt lat="45.0136" lon="5.56034">
        <ele>1799.73</ele>
        <time>2014-02-02T12:25:32Z</time>
      </trkpt>
      <trkpt lat="45.01355" lon="5.56026">
        <ele>1798.76</ele>
        <time>2014-02-02T12:25:35Z</time>
      </trkpt>
      <trkpt lat="45.01356" lon="5.56021">
        <ele>1797.8</ele>
        <time>2014-02-02T12:25:36Z</time>
      </trkpt>
      <trkpt lat="45.01358" lon="5.56017">
        <ele>1797.32</ele>
        <time>2014-02-02T12:25:37Z</time>
      </trkpt>
      <trkpt lat="45.01358" lon="5.56012">
        <ele>1796.36</ele>
        <time>2014-02-02T12:25:38Z</time>
      </trkpt>
      <trkpt lat="45.01356" lon="5.56006">
        <ele>1795.4</ele>
        <time>2014-02-02T12:25:39Z</time>
      </trkpt>
      <trkpt lat="45.01356" lon="5.56001">
        <ele>1793.96</ele>
        <time>2014-02-02T12:25:40Z</time>
      </trkpt>
      <trkpt lat="45.01357" lon="5.55998">
        <ele>1792.52</ele>
        <time>2014-02-02T12:25:41Z</time>
      </trkpt>
      <trkpt lat="45.0136" lon="5.55994">
        <ele>1791.07</ele>
        <time>2014-02-02T12:25:42Z</time>
      </trkpt>
      <trkpt lat="45.01361" lon="5.55989">
        <ele>1790.11</ele>
        <time>2014-02-02T12:25:43Z</time>
      </trkpt>
      <trkpt lat="45.01361" lon="5.55983">
        <ele>1789.63</ele>
        <time>2014-02-02T12:25:44Z</time>
      </trkpt>
      <trkpt lat="45.01362" lon="5.55979">
        <ele>1788.67</ele>
        <time>2014-02-02T12:25:45Z</time>
      </trkpt>
      <trkpt lat="45.01364" lon="5.55975">
        <ele>1788.19</ele>
        <time>2014-02-02T12:25:46Z</time>
      </trkpt>
      <trkpt lat="45.01373" lon="5.55965">
        <ele>1786.75</ele>
        <time>2014-02-02T12:25:50Z</time>
      </trkpt>
      <trkpt lat="45.01376" lon="5.55963">
        <ele>1785.79</ele>
        <time>2014-02-02T12:25:52Z</time>
      </trkpt>
      <trkpt lat="45.01377" lon="5.55958">
        <ele>1785.79</ele>
        <time>2014-02-02T12:26:08Z</time>
      </trkpt>
      <trkpt lat="45.0138" lon="5.55951">
        <ele>1784.34</ele>
        <time>2014-02-02T12:26:10Z</time>
      </trkpt>
      <trkpt lat="45.01379" lon="5.55947">
        <ele>1783.86</ele>
        <time>2014-02-02T12:26:12Z</time>
      </trkpt>
      <trkpt lat="45.01381" lon="5.55939">
        <ele>1781.94</ele>
        <time>2014-02-02T12:26:14Z</time>
      </trkpt>
      <trkpt lat="45.01384" lon="5.55934">
        <ele>1780.98</ele>
        <time>2014-02-02T12:26:15Z</time>
      </trkpt>
      <trkpt lat="45.01386" lon="5.5593">
        <ele>1780.5</ele>
        <time>2014-02-02T12:26:16Z</time>
      </trkpt>
      <trkpt lat="45.01387" lon="5.55924">
        <ele>1779.54</ele>
        <time>2014-02-02T12:26:17Z</time>
      </trkpt>
      <trkpt lat="45.01387" lon="5.55912">
        <ele>1778.1</ele>
        <time>2014-02-02T12:26:19Z</time>
      </trkpt>
      <trkpt lat="45.01387" lon="5.55907">
        <ele>1777.13</ele>
        <time>2014-02-02T12:26:20Z</time>
      </trkpt>
      <trkpt lat="45.01388" lon="5.55902">
        <ele>1775.69</ele>
        <time>2014-02-02T12:26:21Z</time>
      </trkpt>
      <trkpt lat="45.01386" lon="5.55892">
        <ele>1773.29</ele>
        <time>2014-02-02T12:26:23Z</time>
      </trkpt>
      <trkpt lat="45.01384" lon="5.5587">
        <ele>1768.48</ele>
        <time>2014-02-02T12:26:27Z</time>
      </trkpt>
      <trkpt lat="45.01386" lon="5.55851">
        <ele>1764.64</ele>
        <time>2014-02-02T12:26:30Z</time>
      </trkpt>
      <trkpt lat="45.01386" lon="5.55838">
        <ele>1762.23</ele>
        <time>2014-02-02T12:26:32Z</time>
      </trkpt>
      <trkpt lat="45.01393" lon="5.55818">
        <ele>1757.43</ele>
        <time>2014-02-02T12:26:36Z</time>
      </trkpt>
      <trkpt lat="45.01393" lon="5.55813">
        <ele>1756.47</ele>
        <time>2014-02-02T12:26:37Z</time>
      </trkpt>
      <trkpt lat="45.01389" lon="5.55788">
        <ele>1751.18</ele>
        <time>2014-02-02T12:26:42Z</time>
      </trkpt>
      <trkpt lat="45.01388" lon="5.55777">
        <ele>1748.29</ele>
        <time>2014-02-02T12:26:43Z</time>
      </trkpt>
      <trkpt lat="45.01393" lon="5.55752">
        <ele>1743.97</ele>
        <time>2014-02-02T12:26:46Z</time>
      </trkpt>
      <trkpt lat="45.01392" lon="5.557">
        <ele>1739.16</ele>
        <time>2014-02-02T12:26:51Z</time>
      </trkpt>
      <trkpt lat="45.01383" lon="5.55681">
        <ele>1738.68</ele>
        <time>2014-02-02T12:26:56Z</time>
      </trkpt>
      <trkpt lat="45.01379" lon="5.55667">
        <ele>1738.68</ele>
        <time>2014-02-02T12:27:09Z</time>
      </trkpt>
      <trkpt lat="45.0138" lon="5.55653">
        <ele>1738.2</ele>
        <time>2014-02-02T12:27:24Z</time>
      </trkpt>
      <trkpt lat="45.01383" lon="5.55645">
        <ele>1739.64</ele>
        <time>2014-02-02T12:27:34Z</time>
      </trkpt>
      <trkpt lat="45.01383" lon="5.55631">
        <ele>1738.68</ele>
        <time>2014-02-02T12:27:41Z</time>
      </trkpt>
      <trkpt lat="45.01383" lon="5.55626">
        <ele>1738.68</ele>
        <time>2014-02-02T12:27:42Z</time>
      </trkpt>
      <trkpt lat="45.01381" lon="5.55619">
        <ele>1739.16</ele>
        <time>2014-02-02T12:27:44Z</time>
      </trkpt>
      <trkpt lat="45.0138" lon="5.55612">
        <ele>1737.72</ele>
        <time>2014-02-02T12:27:46Z</time>
      </trkpt>
      <trkpt lat="45.01379" lon="5.55608">
        <ele>1738.2</ele>
        <time>2014-02-02T12:27:47Z</time>
      </trkpt>
      <trkpt lat="45.01377" lon="5.55604">
        <ele>1737.24</ele>
        <time>2014-02-02T12:27:48Z</time>
      </trkpt>
      <trkpt lat="45.01377" lon="5.55597">
        <ele>1737.72</ele>
        <time>2014-02-02T12:27:49Z</time>
      </trkpt>
      <trkpt lat="45.01373" lon="5.55586">
        <ele>1737.24</ele>
        <time>2014-02-02T12:27:51Z</time>
      </trkpt>
      <trkpt lat="45.01373" lon="5.55579">
        <ele>1734.84</ele>
        <time>2014-02-02T12:27:52Z</time>
      </trkpt>
      <trkpt lat="45.01373" lon="5.55573">
        <ele>1734.36</ele>
        <time>2014-02-02T12:27:53Z</time>
      </trkpt>
      <trkpt lat="45.01373" lon="5.55565">
        <ele>1733.39</ele>
        <time>2014-02-02T12:27:54Z</time>
      </trkpt>
      <trkpt lat="45.01373" lon="5.55558">
        <ele>1732.43</ele>
        <time>2014-02-02T12:27:55Z</time>
      </trkpt>
      <trkpt lat="45.01373" lon="5.55551">
        <ele>1730.99</ele>
        <time>2014-02-02T12:27:56Z</time>
      </trkpt>
      <trkpt lat="45.01372" lon="5.55544">
        <ele>1730.51</ele>
        <time>2014-02-02T12:27:57Z</time>
      </trkpt>
      <trkpt lat="45.01373" lon="5.55538">
        <ele>1730.51</ele>
        <time>2014-02-02T12:27:58Z</time>
      </trkpt>
      <trkpt lat="45.01379" lon="5.55522">
        <ele>1728.59</ele>
        <time>2014-02-02T12:28:01Z</time>
      </trkpt>
      <trkpt lat="45.01381" lon="5.55517">
        <ele>1727.15</ele>
        <time>2014-02-02T12:28:02Z</time>
      </trkpt>
      <trkpt lat="45.01387" lon="5.55507">
        <ele>1725.22</ele>
        <time>2014-02-02T12:28:04Z</time>
      </trkpt>
      <trkpt lat="45.01389" lon="5.55504">
        <ele>1725.7</ele>
        <time>2014-02-02T12:28:05Z</time>
      </trkpt>
      <trkpt lat="45.01396" lon="5.55491">
        <ele>1724.26</ele>
        <time>2014-02-02T12:28:07Z</time>
      </trkpt>
      <trkpt lat="45.014" lon="5.55485">
        <ele>1723.3</ele>
        <time>2014-02-02T12:28:08Z</time>
      </trkpt>
      <trkpt lat="45.01402" lon="5.55479">
        <ele>1723.3</ele>
        <time>2014-02-02T12:28:09Z</time>
      </trkpt>
      <trkpt lat="45.01405" lon="5.55466">
        <ele>1721.86</ele>
        <time>2014-02-02T12:28:11Z</time>
      </trkpt>
      <trkpt lat="45.01408" lon="5.55462">
        <ele>1721.38</ele>
        <time>2014-02-02T12:28:12Z</time>
      </trkpt>
      <trkpt lat="45.01411" lon="5.55458">
        <ele>1720.9</ele>
        <time>2014-02-02T12:28:13Z</time>
      </trkpt>
      <trkpt lat="45.01414" lon="5.55454">
        <ele>1719.94</ele>
        <time>2014-02-02T12:28:14Z</time>
      </trkpt>
      <trkpt lat="45.01416" lon="5.55449">
        <ele>1720.42</ele>
        <time>2014-02-02T12:28:15Z</time>
      </trkpt>
      <trkpt lat="45.01417" lon="5.55443">
        <ele>1719.46</ele>
        <time>2014-02-02T12:28:16Z</time>
      </trkpt>
      <trkpt lat="45.01418" lon="5.55437">
        <ele>1718.97</ele>
        <time>2014-02-02T12:28:17Z</time>
      </trkpt>
      <trkpt lat="45.01419" lon="5.55431">
        <ele>1718.97</ele>
        <time>2014-02-02T12:28:18Z</time>
      </trkpt>
      <trkpt lat="45.01421" lon="5.55425">
        <ele>1717.05</ele>
        <time>2014-02-02T12:28:19Z</time>
      </trkpt>
      <trkpt lat="45.01422" lon="5.55419">
        <ele>1717.05</ele>
        <time>2014-02-02T12:28:20Z</time>
      </trkpt>
      <trkpt lat="45.01423" lon="5.55413">
        <ele>1715.13</ele>
        <time>2014-02-02T12:28:21Z</time>
      </trkpt>
      <trkpt lat="45.01423" lon="5.55407">
        <ele>1714.65</ele>
        <time>2014-02-02T12:28:22Z</time>
      </trkpt>
      <trkpt lat="45.01423" lon="5.55401">
        <ele>1714.17</ele>
        <time>2014-02-02T12:28:23Z</time>
      </trkpt>
      <trkpt lat="45.01424" lon="5.55395">
        <ele>1712.25</ele>
        <time>2014-02-02T12:28:24Z</time>
      </trkpt>
      <trkpt lat="45.01425" lon="5.55388">
        <ele>1711.28</ele>
        <time>2014-02-02T12:28:25Z</time>
      </trkpt>
      <trkpt lat="45.01425" lon="5.55382">
        <ele>1709.84</ele>
        <time>2014-02-02T12:28:26Z</time>
      </trkpt>
      <trkpt lat="45.01426" lon="5.55377">
        <ele>1708.88</ele>
        <time>2014-02-02T12:28:27Z</time>
      </trkpt>
      <trkpt lat="45.01427" lon="5.5537">
        <ele>1707.44</ele>
        <time>2014-02-02T12:28:28Z</time>
      </trkpt>
      <trkpt lat="45.01428" lon="5.55364">
        <ele>1707.44</ele>
        <time>2014-02-02T12:28:29Z</time>
      </trkpt>
      <trkpt lat="45.01428" lon="5.55359">
        <ele>1704.55</ele>
        <time>2014-02-02T12:28:30Z</time>
      </trkpt>
      <trkpt lat="45.01428" lon="5.55353">
        <ele>1704.55</ele>
        <time>2014-02-02T12:28:31Z</time>
      </trkpt>
      <trkpt lat="45.01429" lon="5.55345">
        <ele>1703.11</ele>
        <time>2014-02-02T12:28:32Z</time>
      </trkpt>
      <trkpt lat="45.01429" lon="5.55338">
        <ele>1702.15</ele>
        <time>2014-02-02T12:28:33Z</time>
      </trkpt>
      <trkpt lat="45.01426" lon="5.55334">
        <ele>1701.67</ele>
        <time>2014-02-02T12:28:34Z</time>
      </trkpt>
      <trkpt lat="45.01424" lon="5.55331">
        <ele>1701.19</ele>
        <time>2014-02-02T12:28:35Z</time>
      </trkpt>
      <trkpt lat="45.01421" lon="5.55328">
        <ele>1700.71</ele>
        <time>2014-02-02T12:28:36Z</time>
      </trkpt>
      <trkpt lat="45.01419" lon="5.55324">
        <ele>1699.75</ele>
        <time>2014-02-02T12:28:37Z</time>
      </trkpt>
      <trkpt lat="45.01416" lon="5.55321">
        <ele>1699.75</ele>
        <time>2014-02-02T12:28:38Z</time>
      </trkpt>
      <trkpt lat="45.01413" lon="5.55317">
        <ele>1699.75</ele>
        <time>2014-02-02T12:28:39Z</time>
      </trkpt>
      <trkpt lat="45.01405" lon="5.55304">
        <ele>1697.34</ele>
        <time>2014-02-02T12:28:43Z</time>
      </trkpt>
      <trkpt lat="45.01403" lon="5.55299">
        <ele>1697.34</ele>
        <time>2014-02-02T12:28:50Z</time>
      </trkpt>
      <trkpt lat="45.01404" lon="5.55292">
        <ele>1696.86</ele>
        <time>2014-02-02T12:28:53Z</time>
      </trkpt>
      <trkpt lat="45.01403" lon="5.55288">
        <ele>1696.38</ele>
        <time>2014-02-02T12:28:54Z</time>
      </trkpt>
      <trkpt lat="45.014" lon="5.55282">
        <ele>1695.9</ele>
        <time>2014-02-02T12:28:55Z</time>
      </trkpt>
      <trkpt lat="45.01397" lon="5.55277">
        <ele>1694.94</ele>
        <time>2014-02-02T12:28:56Z</time>
      </trkpt>
      <trkpt lat="45.01395" lon="5.55271">
        <ele>1694.94</ele>
        <time>2014-02-02T12:28:57Z</time>
      </trkpt>
      <trkpt lat="45.01389" lon="5.55258">
        <ele>1693.02</ele>
        <time>2014-02-02T12:28:59Z</time>
      </trkpt>
      <trkpt lat="45.01381" lon="5.55226">
        <ele>1690.14</ele>
        <time>2014-02-02T12:29:03Z</time>
      </trkpt>
      <trkpt lat="45.01371" lon="5.55175">
        <ele>1686.77</ele>
        <time>2014-02-02T12:29:09Z</time>
      </trkpt>
      <trkpt lat="45.01369" lon="5.55168">
        <ele>1686.77</ele>
        <time>2014-02-02T12:29:10Z</time>
      </trkpt>
      <trkpt lat="45.01362" lon="5.55138">
        <ele>1684.37</ele>
        <time>2014-02-02T12:29:15Z</time>
      </trkpt>
      <trkpt lat="45.01353" lon="5.55104">
        <ele>1684.85</ele>
        <time>2014-02-02T12:29:23Z</time>
      </trkpt>
      <trkpt lat="45.01348" lon="5.55054">
        <ele>1681.48</ele>
        <time>2014-02-02T12:29:37Z</time>
      </trkpt>
      <trkpt lat="45.01348" lon="5.55044">
        <ele>1680.04</ele>
        <time>2014-02-02T12:29:39Z</time>
      </trkpt>
      <trkpt lat="45.01347" lon="5.55038">
        <ele>1679.08</ele>
        <time>2014-02-02T12:29:40Z</time>
      </trkpt>
      <trkpt lat="45.01347" lon="5.55032">
        <ele>1678.12</ele>
        <time>2014-02-02T12:29:41Z</time>
      </trkpt>
      <trkpt lat="45.01348" lon="5.55026">
        <ele>1677.64</ele>
        <time>2014-02-02T12:29:42Z</time>
      </trkpt>
      <trkpt lat="45.01347" lon="5.5502">
        <ele>1677.16</ele>
        <time>2014-02-02T12:29:43Z</time>
      </trkpt>
      <trkpt lat="45.01347" lon="5.55014">
        <ele>1676.2</ele>
        <time>2014-02-02T12:29:44Z</time>
      </trkpt>
      <trkpt lat="45.01346" lon="5.55008">
        <ele>1675.23</ele>
        <time>2014-02-02T12:29:45Z</time>
      </trkpt>
      <trkpt lat="45.01345" lon="5.55003">
        <ele>1674.75</ele>
        <time>2014-02-02T12:29:46Z</time>
      </trkpt>
      <trkpt lat="45.01343" lon="5.54997">
        <ele>1673.79</ele>
        <time>2014-02-02T12:29:47Z</time>
      </trkpt>
      <trkpt lat="45.01342" lon="5.5499">
        <ele>1673.31</ele>
        <time>2014-02-02T12:29:48Z</time>
      </trkpt>
      <trkpt lat="45.01339" lon="5.54963">
        <ele>1671.39</ele>
        <time>2014-02-02T12:29:52Z</time>
      </trkpt>
      <trkpt lat="45.0134" lon="5.54939">
        <ele>1669.47</ele>
        <time>2014-02-02T12:29:57Z</time>
      </trkpt>
      <trkpt lat="45.01349" lon="5.54929">
        <ele>1669.95</ele>
        <time>2014-02-02T12:30:16Z</time>
      </trkpt>
      <trkpt lat="45.01345" lon="5.54927">
        <ele>1669.95</ele>
        <time>2014-02-02T12:30:30Z</time>
      </trkpt>
      <trkpt lat="45.01333" lon="5.54894">
        <ele>1666.1</ele>
        <time>2014-02-02T12:30:39Z</time>
      </trkpt>
      <trkpt lat="45.0133" lon="5.5488">
        <ele>1665.62</ele>
        <time>2014-02-02T12:30:41Z</time>
      </trkpt>
      <trkpt lat="45.01326" lon="5.54857">
        <ele>1663.7</ele>
        <time>2014-02-02T12:30:44Z</time>
      </trkpt>
      <trkpt lat="45.01324" lon="5.5485">
        <ele>1662.26</ele>
        <time>2014-02-02T12:30:45Z</time>
      </trkpt>
      <trkpt lat="45.01317" lon="5.54824">
        <ele>1659.85</ele>
        <time>2014-02-02T12:30:49Z</time>
      </trkpt>
      <trkpt lat="45.01313" lon="5.54805">
        <ele>1658.41</ele>
        <time>2014-02-02T12:30:52Z</time>
      </trkpt>
      <trkpt lat="45.01311" lon="5.54799">
        <ele>1657.93</ele>
        <time>2014-02-02T12:30:53Z</time>
      </trkpt>
      <trkpt lat="45.01309" lon="5.54793">
        <ele>1657.45</ele>
        <time>2014-02-02T12:30:54Z</time>
      </trkpt>
      <trkpt lat="45.01296" lon="5.54743">
        <ele>1653.6</ele>
        <time>2014-02-02T12:31:01Z</time>
      </trkpt>
      <trkpt lat="45.01294" lon="5.54734">
        <ele>1653.6</ele>
        <time>2014-02-02T12:31:02Z</time>
      </trkpt>
      <trkpt lat="45.01292" lon="5.54724">
        <ele>1651.68</ele>
        <time>2014-02-02T12:31:03Z</time>
      </trkpt>
      <trkpt lat="45.01288" lon="5.54705">
        <ele>1649.76</ele>
        <time>2014-02-02T12:31:05Z</time>
      </trkpt>
      <trkpt lat="45.01285" lon="5.54696">
        <ele>1648.32</ele>
        <time>2014-02-02T12:31:06Z</time>
      </trkpt>
      <trkpt lat="45.01274" lon="5.54659">
        <ele>1644.95</ele>
        <time>2014-02-02T12:31:10Z</time>
      </trkpt>
      <trkpt lat="45.01256" lon="5.54598">
        <ele>1641.11</ele>
        <time>2014-02-02T12:31:18Z</time>
      </trkpt>
      <trkpt lat="45.01248" lon="5.54576">
        <ele>1640.15</ele>
        <time>2014-02-02T12:31:21Z</time>
      </trkpt>
      <trkpt lat="45.01246" lon="5.54571">
        <ele>1640.15</ele>
        <time>2014-02-02T12:31:22Z</time>
      </trkpt>
      <trkpt lat="45.01237" lon="5.54554">
        <ele>1638.7</ele>
        <time>2014-02-02T12:31:25Z</time>
      </trkpt>
      <trkpt lat="45.01233" lon="5.54549">
        <ele>1637.74</ele>
        <time>2014-02-02T12:31:26Z</time>
      </trkpt>
      <trkpt lat="45.01231" lon="5.54543">
        <ele>1638.22</ele>
        <time>2014-02-02T12:31:27Z</time>
      </trkpt>
      <trkpt lat="45.01215" lon="5.54523">
        <ele>1635.34</ele>
        <time>2014-02-02T12:31:31Z</time>
      </trkpt>
      <trkpt lat="45.0121" lon="5.54522">
        <ele>1634.86</ele>
        <time>2014-02-02T12:31:32Z</time>
      </trkpt>
      <trkpt lat="45.01195" lon="5.54518">
        <ele>1633.9</ele>
        <time>2014-02-02T12:31:35Z</time>
      </trkpt>
      <trkpt lat="45.0119" lon="5.54516">
        <ele>1632.94</ele>
        <time>2014-02-02T12:31:36Z</time>
      </trkpt>
      <trkpt lat="45.01174" lon="5.54506">
        <ele>1631.01</ele>
        <time>2014-02-02T12:31:39Z</time>
      </trkpt>
      <trkpt lat="45.0117" lon="5.545">
        <ele>1631.49</ele>
        <time>2014-02-02T12:31:40Z</time>
      </trkpt>
      <trkpt lat="45.01165" lon="5.54489">
        <ele>1630.53</ele>
        <time>2014-02-02T12:31:42Z</time>
      </trkpt>
      <trkpt lat="45.01163" lon="5.54484">
        <ele>1631.01</ele>
        <time>2014-02-02T12:31:43Z</time>
      </trkpt>
      <trkpt lat="45.0116" lon="5.54479">
        <ele>1630.05</ele>
        <time>2014-02-02T12:31:44Z</time>
      </trkpt>
      <trkpt lat="45.01151" lon="5.5444">
        <ele>1628.61</ele>
        <time>2014-02-02T12:31:50Z</time>
      </trkpt>
      <trkpt lat="45.01145" lon="5.54417">
        <ele>1626.21</ele>
        <time>2014-02-02T12:31:53Z</time>
      </trkpt>
      <trkpt lat="45.01139" lon="5.54386">
        <ele>1623.8</ele>
        <time>2014-02-02T12:31:57Z</time>
      </trkpt>
      <trkpt lat="45.01141" lon="5.5436">
        <ele>1621.88</ele>
        <time>2014-02-02T12:32:00Z</time>
      </trkpt>
      <trkpt lat="45.01141" lon="5.54351">
        <ele>1620.44</ele>
        <time>2014-02-02T12:32:01Z</time>
      </trkpt>
      <trkpt lat="45.01139" lon="5.54344">
        <ele>1619.48</ele>
        <time>2014-02-02T12:32:02Z</time>
      </trkpt>
      <trkpt lat="45.01138" lon="5.54338">
        <ele>1618.52</ele>
        <time>2014-02-02T12:32:03Z</time>
      </trkpt>
      <trkpt lat="45.01136" lon="5.54334">
        <ele>1617.07</ele>
        <time>2014-02-02T12:32:04Z</time>
      </trkpt>
      <trkpt lat="45.01132" lon="5.54331">
        <ele>1616.59</ele>
        <time>2014-02-02T12:32:05Z</time>
      </trkpt>
      <trkpt lat="45.01127" lon="5.54328">
        <ele>1616.11</ele>
        <time>2014-02-02T12:32:06Z</time>
      </trkpt>
      <trkpt lat="45.01121" lon="5.54327">
        <ele>1615.15</ele>
        <time>2014-02-02T12:32:07Z</time>
      </trkpt>
      <trkpt lat="45.01116" lon="5.54325">
        <ele>1612.75</ele>
        <time>2014-02-02T12:32:08Z</time>
      </trkpt>
      <trkpt lat="45.01113" lon="5.5432">
        <ele>1611.79</ele>
        <time>2014-02-02T12:32:09Z</time>
      </trkpt>
      <trkpt lat="45.01103" lon="5.54314">
        <ele>1609.38</ele>
        <time>2014-02-02T12:32:11Z</time>
      </trkpt>
      <trkpt lat="45.01074" lon="5.54303">
        <ele>1609.86</ele>
        <time>2014-02-02T12:32:16Z</time>
      </trkpt>
      <trkpt lat="45.01066" lon="5.54296">
        <ele>1609.38</ele>
        <time>2014-02-02T12:32:18Z</time>
      </trkpt>
      <trkpt lat="45.01043" lon="5.54279">
        <ele>1609.86</ele>
        <time>2014-02-02T12:32:25Z</time>
      </trkpt>
      <trkpt lat="45.01053" lon="5.54285">
        <ele>1608.42</ele>
        <time>2014-02-02T12:32:36Z</time>
      </trkpt>
      <trkpt lat="45.01052" lon="5.54291">
        <ele>1609.38</ele>
        <time>2014-02-02T12:32:49Z</time>
      </trkpt>
      <trkpt lat="45.01048" lon="5.54289">
        <ele>1608.9</ele>
        <time>2014-02-02T12:33:05Z</time>
      </trkpt>
      <trkpt lat="45.01041" lon="5.54273">
        <ele>1609.38</ele>
        <time>2014-02-02T12:33:17Z</time>
      </trkpt>
      <trkpt lat="45.01046" lon="5.54249">
        <ele>1607.46</ele>
        <time>2014-02-02T12:33:26Z</time>
      </trkpt>
      <trkpt lat="45.01047" lon="5.54244">
        <ele>1607.46</ele>
        <time>2014-02-02T12:33:27Z</time>
      </trkpt>
      <trkpt lat="45.01052" lon="5.54206">
        <ele>1605.06</ele>
        <time>2014-02-02T12:33:34Z</time>
      </trkpt>
      <trkpt lat="45.0106" lon="5.54179">
        <ele>1603.14</ele>
        <time>2014-02-02T12:33:39Z</time>
      </trkpt>
      <trkpt lat="45.01063" lon="5.54177">
        <ele>1602.66</ele>
        <time>2014-02-02T12:33:40Z</time>
      </trkpt>
      <trkpt lat="45.0107" lon="5.54171">
        <ele>1601.21</ele>
        <time>2014-02-02T12:33:42Z</time>
      </trkpt>
      <trkpt lat="45.01074" lon="5.54167">
        <ele>1600.25</ele>
        <time>2014-02-02T12:33:43Z</time>
      </trkpt>
      <trkpt lat="45.01078" lon="5.54164">
        <ele>1599.77</ele>
        <time>2014-02-02T12:33:44Z</time>
      </trkpt>
      <trkpt lat="45.01082" lon="5.54161">
        <ele>1599.29</ele>
        <time>2014-02-02T12:33:45Z</time>
      </trkpt>
      <trkpt lat="45.01084" lon="5.54156">
        <ele>1598.33</ele>
        <time>2014-02-02T12:33:46Z</time>
      </trkpt>
      <trkpt lat="45.01088" lon="5.54151">
        <ele>1597.37</ele>
        <time>2014-02-02T12:33:47Z</time>
      </trkpt>
      <trkpt lat="45.01091" lon="5.54145">
        <ele>1596.41</ele>
        <time>2014-02-02T12:33:48Z</time>
      </trkpt>
      <trkpt lat="45.01094" lon="5.54138">
        <ele>1594.96</ele>
        <time>2014-02-02T12:33:49Z</time>
      </trkpt>
      <trkpt lat="45.01096" lon="5.54131">
        <ele>1594.48</ele>
        <time>2014-02-02T12:33:50Z</time>
      </trkpt>
      <trkpt lat="45.011" lon="5.54124">
        <ele>1593.52</ele>
        <time>2014-02-02T12:33:51Z</time>
      </trkpt>
      <trkpt lat="45.01103" lon="5.54118">
        <ele>1593.52</ele>
        <time>2014-02-02T12:33:52Z</time>
      </trkpt>
      <trkpt lat="45.01106" lon="5.54111">
        <ele>1592.08</ele>
        <time>2014-02-02T12:33:53Z</time>
      </trkpt>
      <trkpt lat="45.01109" lon="5.54104">
        <ele>1591.12</ele>
        <time>2014-02-02T12:33:54Z</time>
      </trkpt>
      <trkpt lat="45.01117" lon="5.54092">
        <ele>1589.68</ele>
        <time>2014-02-02T12:33:56Z</time>
      </trkpt>
      <trkpt lat="45.0112" lon="5.54086">
        <ele>1589.68</ele>
        <time>2014-02-02T12:33:57Z</time>
      </trkpt>
      <trkpt lat="45.01131" lon="5.54065">
        <ele>1587.75</ele>
        <time>2014-02-02T12:34:01Z</time>
      </trkpt>
      <trkpt lat="45.01135" lon="5.5406">
        <ele>1587.27</ele>
        <time>2014-02-02T12:34:02Z</time>
      </trkpt>
      <trkpt lat="45.0114" lon="5.54057">
        <ele>1586.31</ele>
        <time>2014-02-02T12:34:03Z</time>
      </trkpt>
      <trkpt lat="45.01163" lon="5.5404">
        <ele>1581.03</ele>
        <time>2014-02-02T12:34:08Z</time>
      </trkpt>
      <trkpt lat="45.01175" lon="5.54027">
        <ele>1577.66</ele>
        <time>2014-02-02T12:34:11Z</time>
      </trkpt>
      <trkpt lat="45.0119" lon="5.54007">
        <ele>1572.37</ele>
        <time>2014-02-02T12:34:15Z</time>
      </trkpt>
      <trkpt lat="45.01198" lon="5.53988">
        <ele>1569.97</ele>
        <time>2014-02-02T12:34:18Z</time>
      </trkpt>
      <trkpt lat="45.01208" lon="5.53969">
        <ele>1569.49</ele>
        <time>2014-02-02T12:34:23Z</time>
      </trkpt>
      <trkpt lat="45.01219" lon="5.53957">
        <ele>1569.01</ele>
        <time>2014-02-02T12:34:33Z</time>
      </trkpt>
      <trkpt lat="45.01224" lon="5.53956">
        <ele>1569.97</ele>
        <time>2014-02-02T12:34:54Z</time>
      </trkpt>
      <trkpt lat="45.01235" lon="5.53938">
        <ele>1569.97</ele>
        <time>2014-02-02T12:35:12Z</time>
      </trkpt>
      <trkpt lat="45.01231" lon="5.53936">
        <ele>1569.01</ele>
        <time>2014-02-02T12:35:35Z</time>
      </trkpt>
      <trkpt lat="45.01232" lon="5.5394">
        <ele>1569.01</ele>
        <time>2014-02-02T12:35:48Z</time>
      </trkpt>
      <trkpt lat="45.01238" lon="5.53934">
        <ele>1569.97</ele>
        <time>2014-02-02T12:36:49Z</time>
      </trkpt>
      <trkpt lat="45.01247" lon="5.53933">
        <ele>1569.49</ele>
        <time>2014-02-02T12:39:01Z</time>
      </trkpt>
      <trkpt lat="45.01242" lon="5.53923">
        <ele>1569.49</ele>
        <time>2014-02-02T12:39:31Z</time>
      </trkpt>
      <trkpt lat="45.01235" lon="5.53933">
        <ele>1569.49</ele>
        <time>2014-02-02T12:40:17Z</time>
      </trkpt>
      <trkpt lat="45.01237" lon="5.53928">
        <ele>1566.12</ele>
        <time>2014-02-02T12:49:33Z</time>
      </trkpt>
      <trkpt lat="45.01233" lon="5.53929">
        <ele>1559.4</ele>
        <time>2014-02-02T13:15:16Z</time>
      </trkpt>
      <trkpt lat="45.01227" lon="5.53943">
        <ele>1557.47</ele>
        <time>2014-02-02T13:37:51Z</time>
      </trkpt>
      <trkpt lat="45.0123" lon="5.53944">
        <ele>1557.47</ele>
        <time>2014-02-02T13:38:47Z</time>
      </trkpt>
      <trkpt lat="45.01222" lon="5.53943">
        <ele>1555.55</ele>
        <time>2014-02-02T13:40:39Z</time>
      </trkpt>
      <trkpt lat="45.01214" lon="5.53927">
        <ele>1552.67</ele>
        <time>2014-02-02T13:40:43Z</time>
      </trkpt>
      <trkpt lat="45.01213" lon="5.53921">
        <ele>1550.74</ele>
        <time>2014-02-02T13:40:44Z</time>
      </trkpt>
      <trkpt lat="45.01212" lon="5.53915">
        <ele>1548.82</ele>
        <time>2014-02-02T13:40:45Z</time>
      </trkpt>
      <trkpt lat="45.01214" lon="5.53909">
        <ele>1546.9</ele>
        <time>2014-02-02T13:40:46Z</time>
      </trkpt>
      <trkpt lat="45.01215" lon="5.53902">
        <ele>1545.94</ele>
        <time>2014-02-02T13:40:47Z</time>
      </trkpt>
      <trkpt lat="45.01217" lon="5.53895">
        <ele>1545.46</ele>
        <time>2014-02-02T13:40:48Z</time>
      </trkpt>
      <trkpt lat="45.01219" lon="5.53888">
        <ele>1543.05</ele>
        <time>2014-02-02T13:40:49Z</time>
      </trkpt>
      <trkpt lat="45.01222" lon="5.53881">
        <ele>1543.53</ele>
        <time>2014-02-02T13:40:50Z</time>
      </trkpt>
      <trkpt lat="45.01226" lon="5.53876">
        <ele>1541.13</ele>
        <time>2014-02-02T13:40:51Z</time>
      </trkpt>
      <trkpt lat="45.01229" lon="5.5387">
        <ele>1538.25</ele>
        <time>2014-02-02T13:40:52Z</time>
      </trkpt>
      <trkpt lat="45.01231" lon="5.53864">
        <ele>1538.25</ele>
        <time>2014-02-02T13:40:53Z</time>
      </trkpt>
      <trkpt lat="45.01235" lon="5.53861">
        <ele>1536.8</ele>
        <time>2014-02-02T13:40:54Z</time>
      </trkpt>
      <trkpt lat="45.01238" lon="5.53858">
        <ele>1534.88</ele>
        <time>2014-02-02T13:40:55Z</time>
      </trkpt>
      <trkpt lat="45.01241" lon="5.53855">
        <ele>1534.4</ele>
        <time>2014-02-02T13:40:56Z</time>
      </trkpt>
      <trkpt lat="45.01245" lon="5.53852">
        <ele>1532.48</ele>
        <time>2014-02-02T13:40:57Z</time>
      </trkpt>
      <trkpt lat="45.01249" lon="5.53849">
        <ele>1530.08</ele>
        <time>2014-02-02T13:40:58Z</time>
      </trkpt>
      <trkpt lat="45.01252" lon="5.53845">
        <ele>1530.08</ele>
        <time>2014-02-02T13:40:59Z</time>
      </trkpt>
      <trkpt lat="45.01255" lon="5.5384">
        <ele>1527.67</ele>
        <time>2014-02-02T13:41:00Z</time>
      </trkpt>
      <trkpt lat="45.01257" lon="5.53835">
        <ele>1527.19</ele>
        <time>2014-02-02T13:41:01Z</time>
      </trkpt>
      <trkpt lat="45.01258" lon="5.5383">
        <ele>1526.23</ele>
        <time>2014-02-02T13:41:02Z</time>
      </trkpt>
      <trkpt lat="45.01256" lon="5.53826">
        <ele>1524.31</ele>
        <time>2014-02-02T13:41:06Z</time>
      </trkpt>
      <trkpt lat="45.01249" lon="5.53814">
        <ele>1522.39</ele>
        <time>2014-02-02T13:41:10Z</time>
      </trkpt>
      <trkpt lat="45.01244" lon="5.53805">
        <ele>1521.9</ele>
        <time>2014-02-02T13:41:12Z</time>
      </trkpt>
      <trkpt lat="45.01241" lon="5.53787">
        <ele>1519.5</ele>
        <time>2014-02-02T13:41:15Z</time>
      </trkpt>
      <trkpt lat="45.01242" lon="5.5378">
        <ele>1516.14</ele>
        <time>2014-02-02T13:41:16Z</time>
      </trkpt>
      <trkpt lat="45.01243" lon="5.53764">
        <ele>1513.25</ele>
        <time>2014-02-02T13:41:18Z</time>
      </trkpt>
      <trkpt lat="45.01242" lon="5.53755">
        <ele>1508.93</ele>
        <time>2014-02-02T13:41:19Z</time>
      </trkpt>
      <trkpt lat="45.01241" lon="5.53748">
        <ele>1507.48</ele>
        <time>2014-02-02T13:41:20Z</time>
      </trkpt>
      <trkpt lat="45.01238" lon="5.53743">
        <ele>1505.56</ele>
        <time>2014-02-02T13:41:21Z</time>
      </trkpt>
      <trkpt lat="45.01236" lon="5.53738">
        <ele>1503.64</ele>
        <time>2014-02-02T13:41:22Z</time>
      </trkpt>
      <trkpt lat="45.01234" lon="5.53733">
        <ele>1503.64</ele>
        <time>2014-02-02T13:41:23Z</time>
      </trkpt>
      <trkpt lat="45.01234" lon="5.53726">
        <ele>1502.68</ele>
        <time>2014-02-02T13:41:24Z</time>
      </trkpt>
      <trkpt lat="45.01233" lon="5.5372">
        <ele>1500.76</ele>
        <time>2014-02-02T13:41:25Z</time>
      </trkpt>
      <trkpt lat="45.0123" lon="5.53718">
        <ele>1499.79</ele>
        <time>2014-02-02T13:41:26Z</time>
      </trkpt>
      <trkpt lat="45.01228" lon="5.53716">
        <ele>1498.83</ele>
        <time>2014-02-02T13:41:27Z</time>
      </trkpt>
      <trkpt lat="45.01215" lon="5.53706">
        <ele>1495.95</ele>
        <time>2014-02-02T13:41:32Z</time>
      </trkpt>
      <trkpt lat="45.01213" lon="5.537">
        <ele>1494.03</ele>
        <time>2014-02-02T13:41:41Z</time>
      </trkpt>
      <trkpt lat="45.01224" lon="5.53698">
        <ele>1494.03</ele>
        <time>2014-02-02T13:41:58Z</time>
      </trkpt>
      <trkpt lat="45.01225" lon="5.53692">
        <ele>1493.55</ele>
        <time>2014-02-02T13:42:00Z</time>
      </trkpt>
      <trkpt lat="45.01224" lon="5.53687">
        <ele>1490.66</ele>
        <time>2014-02-02T13:42:01Z</time>
      </trkpt>
      <trkpt lat="45.01222" lon="5.53682">
        <ele>1490.66</ele>
        <time>2014-02-02T13:42:02Z</time>
      </trkpt>
      <trkpt lat="45.01221" lon="5.53677">
        <ele>1487.78</ele>
        <time>2014-02-02T13:42:03Z</time>
      </trkpt>
      <trkpt lat="45.01218" lon="5.53673">
        <ele>1487.3</ele>
        <time>2014-02-02T13:42:04Z</time>
      </trkpt>
      <trkpt lat="45.01216" lon="5.53668">
        <ele>1486.82</ele>
        <time>2014-02-02T13:42:05Z</time>
      </trkpt>
      <trkpt lat="45.01214" lon="5.53663">
        <ele>1483.93</ele>
        <time>2014-02-02T13:42:06Z</time>
      </trkpt>
      <trkpt lat="45.01212" lon="5.53658">
        <ele>1484.41</ele>
        <time>2014-02-02T13:42:07Z</time>
      </trkpt>
      <trkpt lat="45.0121" lon="5.53654">
        <ele>1482.01</ele>
        <time>2014-02-02T13:42:08Z</time>
      </trkpt>
      <trkpt lat="45.01209" lon="5.53649">
        <ele>1480.09</ele>
        <time>2014-02-02T13:42:09Z</time>
      </trkpt>
      <trkpt lat="45.01208" lon="5.53643">
        <ele>1479.13</ele>
        <time>2014-02-02T13:42:10Z</time>
      </trkpt>
      <trkpt lat="45.01207" lon="5.53639">
        <ele>1476.72</ele>
        <time>2014-02-02T13:42:11Z</time>
      </trkpt>
      <trkpt lat="45.01205" lon="5.5363">
        <ele>1474.8</ele>
        <time>2014-02-02T13:42:13Z</time>
      </trkpt>
      <trkpt lat="45.01205" lon="5.53625">
        <ele>1470.47</ele>
        <time>2014-02-02T13:42:14Z</time>
      </trkpt>
      <trkpt lat="45.01204" lon="5.5362">
        <ele>1471.44</ele>
        <time>2014-02-02T13:42:15Z</time>
      </trkpt>
      <trkpt lat="45.01203" lon="5.53615">
        <ele>1469.03</ele>
        <time>2014-02-02T13:42:16Z</time>
      </trkpt>
      <trkpt lat="45.01205" lon="5.53609">
        <ele>1465.67</ele>
        <time>2014-02-02T13:42:17Z</time>
      </trkpt>
      <trkpt lat="45.01204" lon="5.53603">
        <ele>1466.63</ele>
        <time>2014-02-02T13:42:18Z</time>
      </trkpt>
      <trkpt lat="45.01203" lon="5.53597">
        <ele>1463.74</ele>
        <time>2014-02-02T13:42:19Z</time>
      </trkpt>
      <trkpt lat="45.01201" lon="5.53586">
        <ele>1460.38</ele>
        <time>2014-02-02T13:42:21Z</time>
      </trkpt>
      <trkpt lat="45.0119" lon="5.53572">
        <ele>1457.98</ele>
        <time>2014-02-02T13:42:25Z</time>
      </trkpt>
      <trkpt lat="45.01185" lon="5.53569">
        <ele>1454.61</ele>
        <time>2014-02-02T13:42:27Z</time>
      </trkpt>
      <trkpt lat="45.01182" lon="5.53569">
        <ele>1456.53</ele>
        <time>2014-02-02T13:42:35Z</time>
      </trkpt>
      <trkpt lat="45.01181" lon="5.53564">
        <ele>1454.61</ele>
        <time>2014-02-02T13:42:37Z</time>
      </trkpt>
      <trkpt lat="45.01181" lon="5.53555">
        <ele>1452.21</ele>
        <time>2014-02-02T13:42:39Z</time>
      </trkpt>
      <trkpt lat="45.01183" lon="5.53548">
        <ele>1448.84</ele>
        <time>2014-02-02T13:42:41Z</time>
      </trkpt>
      <trkpt lat="45.01183" lon="5.53543">
        <ele>1447.88</ele>
        <time>2014-02-02T13:42:42Z</time>
      </trkpt>
      <trkpt lat="45.01176" lon="5.53527">
        <ele>1443.56</ele>
        <time>2014-02-02T13:42:46Z</time>
      </trkpt>
      <trkpt lat="45.01178" lon="5.53512">
        <ele>1435.39</ele>
        <time>2014-02-02T13:42:50Z</time>
      </trkpt>
      <trkpt lat="45.01179" lon="5.53508">
        <ele>1435.39</ele>
        <time>2014-02-02T13:42:51Z</time>
      </trkpt>
      <trkpt lat="45.0118" lon="5.53494">
        <ele>1431.54</ele>
        <time>2014-02-02T13:42:54Z</time>
      </trkpt>
      <trkpt lat="45.0118" lon="5.53489">
        <ele>1428.18</ele>
        <time>2014-02-02T13:42:55Z</time>
      </trkpt>
      <trkpt lat="45.01181" lon="5.5348">
        <ele>1424.33</ele>
        <time>2014-02-02T13:42:57Z</time>
      </trkpt>
      <trkpt lat="45.01181" lon="5.53474">
        <ele>1425.29</ele>
        <time>2014-02-02T13:42:58Z</time>
      </trkpt>
      <trkpt lat="45.01182" lon="5.53468">
        <ele>1421.93</ele>
        <time>2014-02-02T13:42:59Z</time>
      </trkpt>
      <trkpt lat="45.01183" lon="5.53455">
        <ele>1419.04</ele>
        <time>2014-02-02T13:43:01Z</time>
      </trkpt>
      <trkpt lat="45.01189" lon="5.53444">
        <ele>1414.72</ele>
        <time>2014-02-02T13:43:03Z</time>
      </trkpt>
      <trkpt lat="45.01193" lon="5.5344">
        <ele>1414.72</ele>
        <time>2014-02-02T13:43:04Z</time>
      </trkpt>
      <trkpt lat="45.01195" lon="5.53434">
        <ele>1413.28</ele>
        <time>2014-02-02T13:43:05Z</time>
      </trkpt>
      <trkpt lat="45.01194" lon="5.5343">
        <ele>1410.39</ele>
        <time>2014-02-02T13:43:06Z</time>
      </trkpt>
      <trkpt lat="45.01185" lon="5.53417">
        <ele>1407.99</ele>
        <time>2014-02-02T13:43:09Z</time>
      </trkpt>
      <trkpt lat="45.01183" lon="5.5341">
        <ele>1407.51</ele>
        <time>2014-02-02T13:43:18Z</time>
      </trkpt>
      <trkpt lat="45.01193" lon="5.53406">
        <ele>1404.62</ele>
        <time>2014-02-02T13:43:30Z</time>
      </trkpt>
      <trkpt lat="45.01197" lon="5.53405">
        <ele>1405.58</ele>
        <time>2014-02-02T13:43:31Z</time>
      </trkpt>
      <trkpt lat="45.01203" lon="5.53402">
        <ele>1404.14</ele>
        <time>2014-02-02T13:43:33Z</time>
      </trkpt>
      <trkpt lat="45.01204" lon="5.53397">
        <ele>1401.74</ele>
        <time>2014-02-02T13:43:34Z</time>
      </trkpt>
      <trkpt lat="45.01204" lon="5.53392">
        <ele>1402.22</ele>
        <time>2014-02-02T13:43:35Z</time>
      </trkpt>
      <trkpt lat="45.01205" lon="5.53387">
        <ele>1400.3</ele>
        <time>2014-02-02T13:43:36Z</time>
      </trkpt>
      <trkpt lat="45.01206" lon="5.53381">
        <ele>1398.86</ele>
        <time>2014-02-02T13:43:37Z</time>
      </trkpt>
      <trkpt lat="45.01208" lon="5.53376">
        <ele>1395.97</ele>
        <time>2014-02-02T13:43:38Z</time>
      </trkpt>
      <trkpt lat="45.01211" lon="5.53371">
        <ele>1392.61</ele>
        <time>2014-02-02T13:43:39Z</time>
      </trkpt>
      <trkpt lat="45.01212" lon="5.53365">
        <ele>1394.53</ele>
        <time>2014-02-02T13:43:40Z</time>
      </trkpt>
      <trkpt lat="45.01215" lon="5.53359">
        <ele>1391.17</ele>
        <time>2014-02-02T13:43:41Z</time>
      </trkpt>
      <trkpt lat="45.01217" lon="5.53353">
        <ele>1388.76</ele>
        <time>2014-02-02T13:43:42Z</time>
      </trkpt>
      <trkpt lat="45.01219" lon="5.53347">
        <ele>1387.8</ele>
        <time>2014-02-02T13:43:43Z</time>
      </trkpt>
      <trkpt lat="45.01221" lon="5.53342">
        <ele>1387.32</ele>
        <time>2014-02-02T13:43:44Z</time>
      </trkpt>
      <trkpt lat="45.01223" lon="5.53339">
        <ele>1384.44</ele>
        <time>2014-02-02T13:43:45Z</time>
      </trkpt>
      <trkpt lat="45.01226" lon="5.53337">
        <ele>1382.99</ele>
        <time>2014-02-02T13:43:46Z</time>
      </trkpt>
      <trkpt lat="45.01235" lon="5.53339">
        <ele>1380.11</ele>
        <time>2014-02-02T13:43:49Z</time>
      </trkpt>
      <trkpt lat="45.01238" lon="5.5334">
        <ele>1378.67</ele>
        <time>2014-02-02T13:43:51Z</time>
      </trkpt>
      <trkpt lat="45.01244" lon="5.53343">
        <ele>1380.11</ele>
        <time>2014-02-02T13:44:25Z</time>
      </trkpt>
      <trkpt lat="45.01238" lon="5.53335">
        <ele>1380.11</ele>
        <time>2014-02-02T13:44:52Z</time>
      </trkpt>
      <trkpt lat="45.01238" lon="5.53331">
        <ele>1379.15</ele>
        <time>2014-02-02T13:44:53Z</time>
      </trkpt>
      <trkpt lat="45.01237" lon="5.53325">
        <ele>1380.11</ele>
        <time>2014-02-02T13:44:54Z</time>
      </trkpt>
      <trkpt lat="45.01237" lon="5.5332">
        <ele>1378.19</ele>
        <time>2014-02-02T13:44:55Z</time>
      </trkpt>
      <trkpt lat="45.01238" lon="5.53313">
        <ele>1378.19</ele>
        <time>2014-02-02T13:44:56Z</time>
      </trkpt>
      <trkpt lat="45.0124" lon="5.53307">
        <ele>1378.19</ele>
        <time>2014-02-02T13:44:57Z</time>
      </trkpt>
      <trkpt lat="45.01243" lon="5.53302">
        <ele>1377.23</ele>
        <time>2014-02-02T13:44:58Z</time>
      </trkpt>
      <trkpt lat="45.01246" lon="5.53299">
        <ele>1375.3</ele>
        <time>2014-02-02T13:44:59Z</time>
      </trkpt>
      <trkpt lat="45.0125" lon="5.53296">
        <ele>1374.82</ele>
        <time>2014-02-02T13:45:00Z</time>
      </trkpt>
      <trkpt lat="45.01254" lon="5.53293">
        <ele>1371.94</ele>
        <time>2014-02-02T13:45:01Z</time>
      </trkpt>
      <trkpt lat="45.01258" lon="5.53291">
        <ele>1371.94</ele>
        <time>2014-02-02T13:45:02Z</time>
      </trkpt>
      <trkpt lat="45.01264" lon="5.53288">
        <ele>1367.13</ele>
        <time>2014-02-02T13:45:04Z</time>
      </trkpt>
      <trkpt lat="45.01267" lon="5.53285">
        <ele>1367.13</ele>
        <time>2014-02-02T13:45:05Z</time>
      </trkpt>
      <trkpt lat="45.01272" lon="5.53283">
        <ele>1365.21</ele>
        <time>2014-02-02T13:45:06Z</time>
      </trkpt>
      <trkpt lat="45.01276" lon="5.53282">
        <ele>1361.84</ele>
        <time>2014-02-02T13:45:07Z</time>
      </trkpt>
      <trkpt lat="45.01279" lon="5.53279">
        <ele>1359.92</ele>
        <time>2014-02-02T13:45:08Z</time>
      </trkpt>
      <trkpt lat="45.01283" lon="5.53275">
        <ele>1359.44</ele>
        <time>2014-02-02T13:45:09Z</time>
      </trkpt>
      <trkpt lat="45.01287" lon="5.53271">
        <ele>1356.56</ele>
        <time>2014-02-02T13:45:10Z</time>
      </trkpt>
      <trkpt lat="45.01292" lon="5.53268">
        <ele>1357.04</ele>
        <time>2014-02-02T13:45:11Z</time>
      </trkpt>
      <trkpt lat="45.01298" lon="5.53265">
        <ele>1353.67</ele>
        <time>2014-02-02T13:45:12Z</time>
      </trkpt>
      <trkpt lat="45.01305" lon="5.53261">
        <ele>1353.19</ele>
        <time>2014-02-02T13:45:13Z</time>
      </trkpt>
      <trkpt lat="45.01313" lon="5.53256">
        <ele>1349.83</ele>
        <time>2014-02-02T13:45:14Z</time>
      </trkpt>
      <trkpt lat="45.0132" lon="5.53253">
        <ele>1346.46</ele>
        <time>2014-02-02T13:45:15Z</time>
      </trkpt>
      <trkpt lat="45.01327" lon="5.53248">
        <ele>1346.46</ele>
        <time>2014-02-02T13:45:16Z</time>
      </trkpt>
      <trkpt lat="45.01335" lon="5.53243">
        <ele>1343.1</ele>
        <time>2014-02-02T13:45:17Z</time>
      </trkpt>
      <trkpt lat="45.01342" lon="5.53238">
        <ele>1341.18</ele>
        <time>2014-02-02T13:45:18Z</time>
      </trkpt>
      <trkpt lat="45.01349" lon="5.53231">
        <ele>1341.66</ele>
        <time>2014-02-02T13:45:19Z</time>
      </trkpt>
      <trkpt lat="45.01365" lon="5.53208">
        <ele>1336.85</ele>
        <time>2014-02-02T13:45:22Z</time>
      </trkpt>
      <trkpt lat="45.01372" lon="5.53201">
        <ele>1336.85</ele>
        <time>2014-02-02T13:45:23Z</time>
      </trkpt>
      <trkpt lat="45.01379" lon="5.53197">
        <ele>1334.45</ele>
        <time>2014-02-02T13:45:24Z</time>
      </trkpt>
      <trkpt lat="45.01388" lon="5.53193">
        <ele>1333.49</ele>
        <time>2014-02-02T13:45:25Z</time>
      </trkpt>
      <trkpt lat="45.01396" lon="5.53192">
        <ele>1332.52</ele>
        <time>2014-02-02T13:45:26Z</time>
      </trkpt>
      <trkpt lat="45.01403" lon="5.53192">
        <ele>1331.08</ele>
        <time>2014-02-02T13:45:27Z</time>
      </trkpt>
      <trkpt lat="45.0142" lon="5.53194">
        <ele>1329.16</ele>
        <time>2014-02-02T13:45:29Z</time>
      </trkpt>
      <trkpt lat="45.01433" lon="5.53194">
        <ele>1327.24</ele>
        <time>2014-02-02T13:45:31Z</time>
      </trkpt>
      <trkpt lat="45.01438" lon="5.53195">
        <ele>1325.31</ele>
        <time>2014-02-02T13:45:32Z</time>
      </trkpt>
      <trkpt lat="45.01443" lon="5.53196">
        <ele>1325.8</ele>
        <time>2014-02-02T13:45:33Z</time>
      </trkpt>
      <trkpt lat="45.01447" lon="5.53196">
        <ele>1326.28</ele>
        <time>2014-02-02T13:45:34Z</time>
      </trkpt>
      <trkpt lat="45.01452" lon="5.53195">
        <ele>1325.8</ele>
        <time>2014-02-02T13:45:35Z</time>
      </trkpt>
      <trkpt lat="45.01457" lon="5.53191">
        <ele>1323.87</ele>
        <time>2014-02-02T13:45:36Z</time>
      </trkpt>
      <trkpt lat="45.01473" lon="5.53174">
        <ele>1320.51</ele>
        <time>2014-02-02T13:45:39Z</time>
      </trkpt>
      <trkpt lat="45.01491" lon="5.53156">
        <ele>1317.14</ele>
        <time>2014-02-02T13:45:42Z</time>
      </trkpt>
      <trkpt lat="45.01497" lon="5.5315">
        <ele>1315.22</ele>
        <time>2014-02-02T13:45:43Z</time>
      </trkpt>
      <trkpt lat="45.01503" lon="5.53147">
        <ele>1313.78</ele>
        <time>2014-02-02T13:45:44Z</time>
      </trkpt>
      <trkpt lat="45.01509" lon="5.53144">
        <ele>1313.78</ele>
        <time>2014-02-02T13:45:45Z</time>
      </trkpt>
      <trkpt lat="45.01514" lon="5.53142">
        <ele>1311.38</ele>
        <time>2014-02-02T13:45:46Z</time>
      </trkpt>
      <trkpt lat="45.0152" lon="5.5314">
        <ele>1310.41</ele>
        <time>2014-02-02T13:45:47Z</time>
      </trkpt>
      <trkpt lat="45.01525" lon="5.53138">
        <ele>1309.45</ele>
        <time>2014-02-02T13:45:48Z</time>
      </trkpt>
      <trkpt lat="45.0153" lon="5.53136">
        <ele>1307.53</ele>
        <time>2014-02-02T13:45:49Z</time>
      </trkpt>
      <trkpt lat="45.01535" lon="5.53134">
        <ele>1303.2</ele>
        <time>2014-02-02T13:45:50Z</time>
      </trkpt>
      <trkpt lat="45.01541" lon="5.53132">
        <ele>1304.17</ele>
        <time>2014-02-02T13:45:51Z</time>
      </trkpt>
      <trkpt lat="45.01545" lon="5.5313">
        <ele>1302.24</ele>
        <time>2014-02-02T13:45:52Z</time>
      </trkpt>
      <trkpt lat="45.01551" lon="5.53127">
        <ele>1299.84</ele>
        <time>2014-02-02T13:45:53Z</time>
      </trkpt>
      <trkpt lat="45.01556" lon="5.53123">
        <ele>1297.92</ele>
        <time>2014-02-02T13:45:54Z</time>
      </trkpt>
      <trkpt lat="45.01562" lon="5.53122">
        <ele>1296.48</ele>
        <time>2014-02-02T13:45:55Z</time>
      </trkpt>
      <trkpt lat="45.01567" lon="5.53115">
        <ele>1292.63</ele>
        <time>2014-02-02T13:45:57Z</time>
      </trkpt>
      <trkpt lat="45.01569" lon="5.53112">
        <ele>1292.15</ele>
        <time>2014-02-02T13:45:58Z</time>
      </trkpt>
      <trkpt lat="45.01573" lon="5.53111">
        <ele>1292.15</ele>
        <time>2014-02-02T13:45:59Z</time>
      </trkpt>
      <trkpt lat="45.01577" lon="5.5311">
        <ele>1290.23</ele>
        <time>2014-02-02T13:46:00Z</time>
      </trkpt>
      <trkpt lat="45.0158" lon="5.53108">
        <ele>1290.23</ele>
        <time>2014-02-02T13:46:01Z</time>
      </trkpt>
      <trkpt lat="45.01584" lon="5.53107">
        <ele>1288.78</ele>
        <time>2014-02-02T13:46:02Z</time>
      </trkpt>
      <trkpt lat="45.01589" lon="5.53104">
        <ele>1285.9</ele>
        <time>2014-02-02T13:46:03Z</time>
      </trkpt>
      <trkpt lat="45.01593" lon="5.53101">
        <ele>1286.38</ele>
        <time>2014-02-02T13:46:04Z</time>
      </trkpt>
      <trkpt lat="45.01597" lon="5.53098">
        <ele>1283.98</ele>
        <time>2014-02-02T13:46:05Z</time>
      </trkpt>
      <trkpt lat="45.01602" lon="5.53095">
        <ele>1283.5</ele>
        <time>2014-02-02T13:46:06Z</time>
      </trkpt>
      <trkpt lat="45.01607" lon="5.53093">
        <ele>1281.09</ele>
        <time>2014-02-02T13:46:07Z</time>
      </trkpt>
      <trkpt lat="45.01612" lon="5.5309">
        <ele>1281.09</ele>
        <time>2014-02-02T13:46:08Z</time>
      </trkpt>
      <trkpt lat="45.01618" lon="5.53086">
        <ele>1278.21</ele>
        <time>2014-02-02T13:46:09Z</time>
      </trkpt>
      <trkpt lat="45.0163" lon="5.53081">
        <ele>1275.33</ele>
        <time>2014-02-02T13:46:11Z</time>
      </trkpt>
      <trkpt lat="45.01641" lon="5.53079">
        <ele>1271</ele>
        <time>2014-02-02T13:46:13Z</time>
      </trkpt>
      <trkpt lat="45.01647" lon="5.53076">
        <ele>1271.96</ele>
        <time>2014-02-02T13:46:14Z</time>
      </trkpt>
      <trkpt lat="45.01653" lon="5.53073">
        <ele>1267.64</ele>
        <time>2014-02-02T13:46:15Z</time>
      </trkpt>
      <trkpt lat="45.0166" lon="5.5307">
        <ele>1267.64</ele>
        <time>2014-02-02T13:46:16Z</time>
      </trkpt>
      <trkpt lat="45.01666" lon="5.53065">
        <ele>1265.23</ele>
        <time>2014-02-02T13:46:17Z</time>
      </trkpt>
      <trkpt lat="45.01671" lon="5.53059">
        <ele>1265.23</ele>
        <time>2014-02-02T13:46:18Z</time>
      </trkpt>
      <trkpt lat="45.01678" lon="5.53055">
        <ele>1261.87</ele>
        <time>2014-02-02T13:46:19Z</time>
      </trkpt>
      <trkpt lat="45.0169" lon="5.53045">
        <ele>1257.06</ele>
        <time>2014-02-02T13:46:21Z</time>
      </trkpt>
      <trkpt lat="45.01697" lon="5.53042">
        <ele>1256.1</ele>
        <time>2014-02-02T13:46:22Z</time>
      </trkpt>
      <trkpt lat="45.01703" lon="5.53038">
        <ele>1255.14</ele>
        <time>2014-02-02T13:46:23Z</time>
      </trkpt>
      <trkpt lat="45.0171" lon="5.53033">
        <ele>1251.77</ele>
        <time>2014-02-02T13:46:24Z</time>
      </trkpt>
      <trkpt lat="45.01717" lon="5.53031">
        <ele>1251.77</ele>
        <time>2014-02-02T13:46:25Z</time>
      </trkpt>
      <trkpt lat="45.01723" lon="5.53029">
        <ele>1248.41</ele>
        <time>2014-02-02T13:46:26Z</time>
      </trkpt>
      <trkpt lat="45.0173" lon="5.53028">
        <ele>1248.41</ele>
        <time>2014-02-02T13:46:27Z</time>
      </trkpt>
      <trkpt lat="45.01737" lon="5.53026">
        <ele>1245.53</ele>
        <time>2014-02-02T13:46:28Z</time>
      </trkpt>
      <trkpt lat="45.01744" lon="5.53028">
        <ele>1244.08</ele>
        <time>2014-02-02T13:46:29Z</time>
      </trkpt>
      <trkpt lat="45.0175" lon="5.53029">
        <ele>1243.6</ele>
        <time>2014-02-02T13:46:30Z</time>
      </trkpt>
      <trkpt lat="45.01756" lon="5.53025">
        <ele>1241.68</ele>
        <time>2014-02-02T13:46:31Z</time>
      </trkpt>
      <trkpt lat="45.01761" lon="5.53023">
        <ele>1241.2</ele>
        <time>2014-02-02T13:46:32Z</time>
      </trkpt>
      <trkpt lat="45.01767" lon="5.53024">
        <ele>1239.28</ele>
        <time>2014-02-02T13:46:33Z</time>
      </trkpt>
      <trkpt lat="45.01773" lon="5.53024">
        <ele>1239.28</ele>
        <time>2014-02-02T13:46:34Z</time>
      </trkpt>
      <trkpt lat="45.01784" lon="5.53024">
        <ele>1237.83</ele>
        <time>2014-02-02T13:46:36Z</time>
      </trkpt>
      <trkpt lat="45.01794" lon="5.53022">
        <ele>1237.35</ele>
        <time>2014-02-02T13:46:38Z</time>
      </trkpt>
      <trkpt lat="45.01814" lon="5.53023">
        <ele>1237.35</ele>
        <time>2014-02-02T13:46:44Z</time>
      </trkpt>
      <trkpt lat="45.01819" lon="5.53021">
        <ele>1235.91</ele>
        <time>2014-02-02T13:46:46Z</time>
      </trkpt>
      <trkpt lat="45.01825" lon="5.53015">
        <ele>1236.39</ele>
        <time>2014-02-02T13:46:59Z</time>
      </trkpt>
      <trkpt lat="45.01821" lon="5.53015">
        <ele>1236.87</ele>
        <time>2014-02-02T13:47:22Z</time>
      </trkpt>
      <trkpt lat="45.0183" lon="5.53019">
        <ele>1236.87</ele>
        <time>2014-02-02T13:48:02Z</time>
      </trkpt>
      <trkpt lat="45.01832" lon="5.53027">
        <ele>1236.87</ele>
        <time>2014-02-02T13:48:32Z</time>
      </trkpt>
      <trkpt lat="45.01831" lon="5.53034">
        <ele>1236.39</ele>
        <time>2014-02-02T13:48:45Z</time>
      </trkpt>
      <trkpt lat="45.01831" lon="5.53039">
        <ele>1236.87</ele>
        <time>2014-02-02T13:49:03Z</time>
      </trkpt>
      <trkpt lat="45.01824" lon="5.53043">
        <ele>1234.95</ele>
        <time>2014-02-02T13:49:18Z</time>
      </trkpt>
      <trkpt lat="45.0182" lon="5.5305">
        <ele>1236.87</ele>
        <time>2014-02-02T13:49:39Z</time>
      </trkpt>
      <trkpt lat="45.01819" lon="5.53056">
        <ele>1236.39</ele>
        <time>2014-02-02T13:49:57Z</time>
      </trkpt>
      <trkpt lat="45.01811" lon="5.53068">
        <ele>1237.35</ele>
        <time>2014-02-02T13:50:39Z</time>
      </trkpt>
      <trkpt lat="45.01806" lon="5.53076">
        <ele>1235.91</ele>
        <time>2014-02-02T13:50:42Z</time>
      </trkpt>
      <trkpt lat="45.018" lon="5.53088">
        <ele>1237.35</ele>
        <time>2014-02-02T13:50:45Z</time>
      </trkpt>
      <trkpt lat="45.01795" lon="5.53097">
        <ele>1240.24</ele>
        <time>2014-02-02T13:50:47Z</time>
      </trkpt>
      <trkpt lat="45.01791" lon="5.53104">
        <ele>1244.08</ele>
        <time>2014-02-02T13:50:49Z</time>
      </trkpt>
      <trkpt lat="45.01786" lon="5.53111">
        <ele>1247.93</ele>
        <time>2014-02-02T13:50:51Z</time>
      </trkpt>
      <trkpt lat="45.0178" lon="5.53123">
        <ele>1252.74</ele>
        <time>2014-02-02T13:50:54Z</time>
      </trkpt>
      <trkpt lat="45.01772" lon="5.53135">
        <ele>1257.06</ele>
        <time>2014-02-02T13:50:57Z</time>
      </trkpt>
      <trkpt lat="45.01765" lon="5.53146">
        <ele>1260.91</ele>
        <time>2014-02-02T13:51:00Z</time>
      </trkpt>
      <trkpt lat="45.01761" lon="5.53153">
        <ele>1266.67</ele>
        <time>2014-02-02T13:51:02Z</time>
      </trkpt>
      <trkpt lat="45.01758" lon="5.53158">
        <ele>1266.19</ele>
        <time>2014-02-02T13:51:03Z</time>
      </trkpt>
      <trkpt lat="45.01754" lon="5.53164">
        <ele>1270.04</ele>
        <time>2014-02-02T13:51:05Z</time>
      </trkpt>
      <trkpt lat="45.0175" lon="5.53171">
        <ele>1273.88</ele>
        <time>2014-02-02T13:51:07Z</time>
      </trkpt>
      <trkpt lat="45.01744" lon="5.53181">
        <ele>1278.69</ele>
        <time>2014-02-02T13:51:10Z</time>
      </trkpt>
      <trkpt lat="45.0174" lon="5.53187">
        <ele>1282.54</ele>
        <time>2014-02-02T13:51:12Z</time>
      </trkpt>
      <trkpt lat="45.01734" lon="5.53197">
        <ele>1286.38</ele>
        <time>2014-02-02T13:51:15Z</time>
      </trkpt>
      <trkpt lat="45.01727" lon="5.53207">
        <ele>1290.71</ele>
        <time>2014-02-02T13:51:18Z</time>
      </trkpt>
      <trkpt lat="45.01721" lon="5.53217">
        <ele>1294.07</ele>
        <time>2014-02-02T13:51:21Z</time>
      </trkpt>
      <trkpt lat="45.01714" lon="5.53228">
        <ele>1297.44</ele>
        <time>2014-02-02T13:51:24Z</time>
      </trkpt>
      <trkpt lat="45.0171" lon="5.53234">
        <ele>1300.8</ele>
        <time>2014-02-02T13:51:26Z</time>
      </trkpt>
      <trkpt lat="45.01703" lon="5.53245">
        <ele>1305.13</ele>
        <time>2014-02-02T13:51:29Z</time>
      </trkpt>
      <trkpt lat="45.01699" lon="5.53251">
        <ele>1308.49</ele>
        <time>2014-02-02T13:51:31Z</time>
      </trkpt>
      <trkpt lat="45.01695" lon="5.53257">
        <ele>1312.34</ele>
        <time>2014-02-02T13:51:33Z</time>
      </trkpt>
      <trkpt lat="45.01691" lon="5.53264">
        <ele>1316.18</ele>
        <time>2014-02-02T13:51:35Z</time>
      </trkpt>
      <trkpt lat="45.01682" lon="5.53278">
        <ele>1319.07</ele>
        <time>2014-02-02T13:51:39Z</time>
      </trkpt>
      <trkpt lat="45.01673" lon="5.53292">
        <ele>1322.43</ele>
        <time>2014-02-02T13:51:43Z</time>
      </trkpt>
      <trkpt lat="45.01664" lon="5.53307">
        <ele>1326.28</ele>
        <time>2014-02-02T13:51:47Z</time>
      </trkpt>
      <trkpt lat="45.01657" lon="5.53318">
        <ele>1329.64</ele>
        <time>2014-02-02T13:51:50Z</time>
      </trkpt>
      <trkpt lat="45.0165" lon="5.53329">
        <ele>1333.01</ele>
        <time>2014-02-02T13:51:53Z</time>
      </trkpt>
      <trkpt lat="45.01644" lon="5.5334">
        <ele>1337.33</ele>
        <time>2014-02-02T13:51:56Z</time>
      </trkpt>
      <trkpt lat="45.01637" lon="5.53351">
        <ele>1341.18</ele>
        <time>2014-02-02T13:51:59Z</time>
      </trkpt>
      <trkpt lat="45.01632" lon="5.53358">
        <ele>1345.02</ele>
        <time>2014-02-02T13:52:01Z</time>
      </trkpt>
      <trkpt lat="45.01626" lon="5.53369">
        <ele>1348.39</ele>
        <time>2014-02-02T13:52:04Z</time>
      </trkpt>
      <trkpt lat="45.01621" lon="5.53376">
        <ele>1352.23</ele>
        <time>2014-02-02T13:52:06Z</time>
      </trkpt>
      <trkpt lat="45.01615" lon="5.53387">
        <ele>1357.04</ele>
        <time>2014-02-02T13:52:09Z</time>
      </trkpt>
      <trkpt lat="45.01611" lon="5.53393">
        <ele>1360.88</ele>
        <time>2014-02-02T13:52:11Z</time>
      </trkpt>
      <trkpt lat="45.01605" lon="5.53403">
        <ele>1365.69</ele>
        <time>2014-02-02T13:52:14Z</time>
      </trkpt>
      <trkpt lat="45.01601" lon="5.5341">
        <ele>1368.57</ele>
        <time>2014-02-02T13:52:16Z</time>
      </trkpt>
      <trkpt lat="45.01597" lon="5.53417">
        <ele>1373.38</ele>
        <time>2014-02-02T13:52:18Z</time>
      </trkpt>
      <trkpt lat="45.01588" lon="5.5343">
        <ele>1377.71</ele>
        <time>2014-02-02T13:52:22Z</time>
      </trkpt>
      <trkpt lat="45.01581" lon="5.53441">
        <ele>1380.59</ele>
        <time>2014-02-02T13:52:25Z</time>
      </trkpt>
      <trkpt lat="45.01575" lon="5.53452">
        <ele>1384.92</ele>
        <time>2014-02-02T13:52:28Z</time>
      </trkpt>
      <trkpt lat="45.01568" lon="5.53462">
        <ele>1388.28</ele>
        <time>2014-02-02T13:52:31Z</time>
      </trkpt>
      <trkpt lat="45.01562" lon="5.53472">
        <ele>1391.65</ele>
        <time>2014-02-02T13:52:34Z</time>
      </trkpt>
      <trkpt lat="45.01555" lon="5.53482">
        <ele>1395.97</ele>
        <time>2014-02-02T13:52:37Z</time>
      </trkpt>
      <trkpt lat="45.01549" lon="5.53493">
        <ele>1400.3</ele>
        <time>2014-02-02T13:52:40Z</time>
      </trkpt>
      <trkpt lat="45.01545" lon="5.535">
        <ele>1403.66</ele>
        <time>2014-02-02T13:52:42Z</time>
      </trkpt>
      <trkpt lat="45.01538" lon="5.53511">
        <ele>1407.51</ele>
        <time>2014-02-02T13:52:45Z</time>
      </trkpt>
      <trkpt lat="45.01533" lon="5.53518">
        <ele>1410.87</ele>
        <time>2014-02-02T13:52:47Z</time>
      </trkpt>
      <trkpt lat="45.01529" lon="5.53526">
        <ele>1414.72</ele>
        <time>2014-02-02T13:52:49Z</time>
      </trkpt>
      <trkpt lat="45.01523" lon="5.53535">
        <ele>1419.04</ele>
        <time>2014-02-02T13:52:52Z</time>
      </trkpt>
      <trkpt lat="45.01517" lon="5.53546">
        <ele>1422.41</ele>
        <time>2014-02-02T13:52:55Z</time>
      </trkpt>
      <trkpt lat="45.01508" lon="5.5356">
        <ele>1426.73</ele>
        <time>2014-02-02T13:52:59Z</time>
      </trkpt>
      <trkpt lat="45.01499" lon="5.53574">
        <ele>1431.06</ele>
        <time>2014-02-02T13:53:03Z</time>
      </trkpt>
      <trkpt lat="45.01492" lon="5.53585">
        <ele>1435.39</ele>
        <time>2014-02-02T13:53:06Z</time>
      </trkpt>
      <trkpt lat="45.01486" lon="5.53595">
        <ele>1439.71</ele>
        <time>2014-02-02T13:53:09Z</time>
      </trkpt>
      <trkpt lat="45.0148" lon="5.53605">
        <ele>1443.56</ele>
        <time>2014-02-02T13:53:12Z</time>
      </trkpt>
      <trkpt lat="45.01474" lon="5.53614">
        <ele>1447.4</ele>
        <time>2014-02-02T13:53:15Z</time>
      </trkpt>
      <trkpt lat="45.01465" lon="5.53628">
        <ele>1450.77</ele>
        <time>2014-02-02T13:53:19Z</time>
      </trkpt>
      <trkpt lat="45.01456" lon="5.53644">
        <ele>1454.61</ele>
        <time>2014-02-02T13:53:23Z</time>
      </trkpt>
      <trkpt lat="45.01446" lon="5.53658">
        <ele>1458.94</ele>
        <time>2014-02-02T13:53:27Z</time>
      </trkpt>
      <trkpt lat="45.01437" lon="5.53673">
        <ele>1463.26</ele>
        <time>2014-02-02T13:53:31Z</time>
      </trkpt>
      <trkpt lat="45.01431" lon="5.53684">
        <ele>1467.11</ele>
        <time>2014-02-02T13:53:34Z</time>
      </trkpt>
      <trkpt lat="45.01424" lon="5.53694">
        <ele>1471.44</ele>
        <time>2014-02-02T13:53:37Z</time>
      </trkpt>
      <trkpt lat="45.0142" lon="5.53701">
        <ele>1474.8</ele>
        <time>2014-02-02T13:53:39Z</time>
      </trkpt>
      <trkpt lat="45.01413" lon="5.53712">
        <ele>1478.16</ele>
        <time>2014-02-02T13:53:42Z</time>
      </trkpt>
      <trkpt lat="45.01409" lon="5.53719">
        <ele>1481.53</ele>
        <time>2014-02-02T13:53:44Z</time>
      </trkpt>
      <trkpt lat="45.01403" lon="5.53729">
        <ele>1485.85</ele>
        <time>2014-02-02T13:53:47Z</time>
      </trkpt>
      <trkpt lat="45.01391" lon="5.53748">
        <ele>1489.7</ele>
        <time>2014-02-02T13:53:52Z</time>
      </trkpt>
      <trkpt lat="45.01382" lon="5.53763">
        <ele>1492.58</ele>
        <time>2014-02-02T13:53:56Z</time>
      </trkpt>
      <trkpt lat="45.01373" lon="5.53777">
        <ele>1495.95</ele>
        <time>2014-02-02T13:54:00Z</time>
      </trkpt>
      <trkpt lat="45.01365" lon="5.53792">
        <ele>1500.27</ele>
        <time>2014-02-02T13:54:04Z</time>
      </trkpt>
      <trkpt lat="45.01358" lon="5.53802">
        <ele>1504.12</ele>
        <time>2014-02-02T13:54:07Z</time>
      </trkpt>
      <trkpt lat="45.01351" lon="5.53813">
        <ele>1507.48</ele>
        <time>2014-02-02T13:54:10Z</time>
      </trkpt>
      <trkpt lat="45.01345" lon="5.53823">
        <ele>1511.81</ele>
        <time>2014-02-02T13:54:13Z</time>
      </trkpt>
      <trkpt lat="45.01339" lon="5.53833">
        <ele>1516.14</ele>
        <time>2014-02-02T13:54:16Z</time>
      </trkpt>
      <trkpt lat="45.01334" lon="5.5384">
        <ele>1519.5</ele>
        <time>2014-02-02T13:54:18Z</time>
      </trkpt>
      <trkpt lat="45.01328" lon="5.53851">
        <ele>1523.83</ele>
        <time>2014-02-02T13:54:21Z</time>
      </trkpt>
      <trkpt lat="45.01323" lon="5.53858">
        <ele>1526.71</ele>
        <time>2014-02-02T13:54:23Z</time>
      </trkpt>
      <trkpt lat="45.01319" lon="5.53865">
        <ele>1529.59</ele>
        <time>2014-02-02T13:54:25Z</time>
      </trkpt>
      <trkpt lat="45.01315" lon="5.53872">
        <ele>1532.96</ele>
        <time>2014-02-02T13:54:27Z</time>
      </trkpt>
      <trkpt lat="45.0131" lon="5.53878">
        <ele>1536.32</ele>
        <time>2014-02-02T13:54:29Z</time>
      </trkpt>
      <trkpt lat="45.01308" lon="5.53881">
        <ele>1536.8</ele>
        <time>2014-02-02T13:54:30Z</time>
      </trkpt>
      <trkpt lat="45.013" lon="5.53895">
        <ele>1539.69</ele>
        <time>2014-02-02T13:54:34Z</time>
      </trkpt>
      <trkpt lat="45.0129" lon="5.5391">
        <ele>1543.05</ele>
        <time>2014-02-02T13:54:38Z</time>
      </trkpt>
      <trkpt lat="45.01284" lon="5.5392">
        <ele>1545.94</ele>
        <time>2014-02-02T13:54:41Z</time>
      </trkpt>
      <trkpt lat="45.01278" lon="5.53931">
        <ele>1546.9</ele>
        <time>2014-02-02T13:54:44Z</time>
      </trkpt>
      <trkpt lat="45.01266" lon="5.53951">
        <ele>1550.74</ele>
        <time>2014-02-02T13:54:49Z</time>
      </trkpt>
      <trkpt lat="45.0125" lon="5.53978">
        <ele>1553.63</ele>
        <time>2014-02-02T13:54:56Z</time>
      </trkpt>
      <trkpt lat="45.01238" lon="5.53996">
        <ele>1557.47</ele>
        <time>2014-02-02T13:55:01Z</time>
      </trkpt>
      <trkpt lat="45.01229" lon="5.54011">
        <ele>1561.32</ele>
        <time>2014-02-02T13:55:05Z</time>
      </trkpt>
      <trkpt lat="45.01217" lon="5.54029">
        <ele>1564.68</ele>
        <time>2014-02-02T13:55:10Z</time>
      </trkpt>
      <trkpt lat="45.01204" lon="5.54052">
        <ele>1568.05</ele>
        <time>2014-02-02T13:55:16Z</time>
      </trkpt>
      <trkpt lat="45.01202" lon="5.54055">
        <ele>1568.53</ele>
        <time>2014-02-02T13:55:17Z</time>
      </trkpt>
      <trkpt lat="45.01188" lon="5.54077">
        <ele>1571.89</ele>
        <time>2014-02-02T13:55:23Z</time>
      </trkpt>
      <trkpt lat="45.01179" lon="5.54092">
        <ele>1575.74</ele>
        <time>2014-02-02T13:55:27Z</time>
      </trkpt>
      <trkpt lat="45.01172" lon="5.54103">
        <ele>1577.66</ele>
        <time>2014-02-02T13:55:30Z</time>
      </trkpt>
      <trkpt lat="45.01166" lon="5.54113">
        <ele>1581.03</ele>
        <time>2014-02-02T13:55:33Z</time>
      </trkpt>
      <trkpt lat="45.01164" lon="5.54117">
        <ele>1581.03</ele>
        <time>2014-02-02T13:55:34Z</time>
      </trkpt>
      <trkpt lat="45.01157" lon="5.54128">
        <ele>1582.47</ele>
        <time>2014-02-02T13:55:37Z</time>
      </trkpt>
      <trkpt lat="45.01139" lon="5.54159">
        <ele>1585.83</ele>
        <time>2014-02-02T13:55:45Z</time>
      </trkpt>
      <trkpt lat="45.01127" lon="5.54178">
        <ele>1588.72</ele>
        <time>2014-02-02T13:55:50Z</time>
      </trkpt>
      <trkpt lat="45.0112" lon="5.54189">
        <ele>1591.12</ele>
        <time>2014-02-02T13:55:53Z</time>
      </trkpt>
      <trkpt lat="45.01108" lon="5.54207">
        <ele>1594.96</ele>
        <time>2014-02-02T13:55:58Z</time>
      </trkpt>
      <trkpt lat="45.01103" lon="5.54215">
        <ele>1595.93</ele>
        <time>2014-02-02T13:56:00Z</time>
      </trkpt>
      <trkpt lat="45.01096" lon="5.54226">
        <ele>1599.77</ele>
        <time>2014-02-02T13:56:03Z</time>
      </trkpt>
      <trkpt lat="45.01089" lon="5.54236">
        <ele>1602.66</ele>
        <time>2014-02-02T13:56:06Z</time>
      </trkpt>
      <trkpt lat="45.01085" lon="5.54243">
        <ele>1604.58</ele>
        <time>2014-02-02T13:56:08Z</time>
      </trkpt>
      <trkpt lat="45.01062" lon="5.54278">
        <ele>1606.02</ele>
        <time>2014-02-02T13:56:20Z</time>
      </trkpt>
      <trkpt lat="45.01058" lon="5.54281">
        <ele>1605.06</ele>
        <time>2014-02-02T13:56:24Z</time>
      </trkpt>
      <trkpt lat="45.01056" lon="5.54285">
        <ele>1604.58</ele>
        <time>2014-02-02T13:56:30Z</time>
      </trkpt>
      <trkpt lat="45.0106" lon="5.54287">
        <ele>1602.66</ele>
        <time>2014-02-02T13:56:52Z</time>
      </trkpt>
      <trkpt lat="45.01062" lon="5.54292">
        <ele>1605.06</ele>
        <time>2014-02-02T13:57:04Z</time>
      </trkpt>
      <trkpt lat="45.01077" lon="5.54294">
        <ele>1606.5</ele>
        <time>2014-02-02T13:57:23Z</time>
      </trkpt>
      <trkpt lat="45.01085" lon="5.5429">
        <ele>1606.98</ele>
        <time>2014-02-02T13:57:30Z</time>
      </trkpt>
      <trkpt lat="45.01088" lon="5.54289">
        <ele>1606.02</ele>
        <time>2014-02-02T13:57:32Z</time>
      </trkpt>
      <trkpt lat="45.01097" lon="5.54288">
        <ele>1604.1</ele>
        <time>2014-02-02T13:57:37Z</time>
      </trkpt>
      <trkpt lat="45.01117" lon="5.54288">
        <ele>1604.1</ele>
        <time>2014-02-02T13:57:49Z</time>
      </trkpt>
      <trkpt lat="45.0116" lon="5.543">
        <ele>1600.25</ele>
        <time>2014-02-02T13:58:05Z</time>
      </trkpt>
      <trkpt lat="45.01166" lon="5.54308">
        <ele>1598.81</ele>
        <time>2014-02-02T13:58:07Z</time>
      </trkpt>
      <trkpt lat="45.01172" lon="5.54319">
        <ele>1597.37</ele>
        <time>2014-02-02T13:58:09Z</time>
      </trkpt>
      <trkpt lat="45.01174" lon="5.54327">
        <ele>1596.89</ele>
        <time>2014-02-02T13:58:10Z</time>
      </trkpt>
      <trkpt lat="45.01177" lon="5.54335">
        <ele>1594.48</ele>
        <time>2014-02-02T13:58:11Z</time>
      </trkpt>
      <trkpt lat="45.0118" lon="5.54341">
        <ele>1594</ele>
        <time>2014-02-02T13:58:12Z</time>
      </trkpt>
      <trkpt lat="45.01185" lon="5.54348">
        <ele>1593.52</ele>
        <time>2014-02-02T13:58:13Z</time>
      </trkpt>
      <trkpt lat="45.0119" lon="5.54354">
        <ele>1592.08</ele>
        <time>2014-02-02T13:58:14Z</time>
      </trkpt>
      <trkpt lat="45.01193" lon="5.5436">
        <ele>1592.08</ele>
        <time>2014-02-02T13:58:15Z</time>
      </trkpt>
      <trkpt lat="45.01199" lon="5.54369">
        <ele>1590.16</ele>
        <time>2014-02-02T13:58:17Z</time>
      </trkpt>
      <trkpt lat="45.01204" lon="5.54374">
        <ele>1588.72</ele>
        <time>2014-02-02T13:58:25Z</time>
      </trkpt>
      <trkpt lat="45.01208" lon="5.54371">
        <ele>1588.72</ele>
        <time>2014-02-02T13:58:27Z</time>
      </trkpt>
      <trkpt lat="45.0121" lon="5.54366">
        <ele>1587.27</ele>
        <time>2014-02-02T13:58:28Z</time>
      </trkpt>
      <trkpt lat="45.01212" lon="5.54362">
        <ele>1585.83</ele>
        <time>2014-02-02T13:58:29Z</time>
      </trkpt>
      <trkpt lat="45.01214" lon="5.54358">
        <ele>1583.43</ele>
        <time>2014-02-02T13:58:30Z</time>
      </trkpt>
      <trkpt lat="45.01216" lon="5.54352">
        <ele>1583.43</ele>
        <time>2014-02-02T13:58:31Z</time>
      </trkpt>
      <trkpt lat="45.0122" lon="5.54345">
        <ele>1581.03</ele>
        <time>2014-02-02T13:58:32Z</time>
      </trkpt>
      <trkpt lat="45.01225" lon="5.54338">
        <ele>1580.06</ele>
        <time>2014-02-02T13:58:33Z</time>
      </trkpt>
      <trkpt lat="45.01229" lon="5.54328">
        <ele>1578.14</ele>
        <time>2014-02-02T13:58:34Z</time>
      </trkpt>
      <trkpt lat="45.01243" lon="5.54291">
        <ele>1574.78</ele>
        <time>2014-02-02T13:58:37Z</time>
      </trkpt>
      <trkpt lat="45.01254" lon="5.54265">
        <ele>1571.41</ele>
        <time>2014-02-02T13:58:39Z</time>
      </trkpt>
      <trkpt lat="45.01271" lon="5.54236">
        <ele>1568.05</ele>
        <time>2014-02-02T13:58:42Z</time>
      </trkpt>
      <trkpt lat="45.01287" lon="5.54216">
        <ele>1566.12</ele>
        <time>2014-02-02T13:58:45Z</time>
      </trkpt>
      <trkpt lat="45.01317" lon="5.54189">
        <ele>1564.2</ele>
        <time>2014-02-02T13:58:52Z</time>
      </trkpt>
      <trkpt lat="45.01336" lon="5.5418">
        <ele>1563.24</ele>
        <time>2014-02-02T13:58:57Z</time>
      </trkpt>
      <trkpt lat="45.01342" lon="5.54174">
        <ele>1562.28</ele>
        <time>2014-02-02T13:58:59Z</time>
      </trkpt>
      <trkpt lat="45.01343" lon="5.54169">
        <ele>1561.8</ele>
        <time>2014-02-02T13:59:00Z</time>
      </trkpt>
      <trkpt lat="45.0135" lon="5.54143">
        <ele>1558.43</ele>
        <time>2014-02-02T13:59:04Z</time>
      </trkpt>
      <trkpt lat="45.01353" lon="5.54136">
        <ele>1558.43</ele>
        <time>2014-02-02T13:59:05Z</time>
      </trkpt>
      <trkpt lat="45.01357" lon="5.54129">
        <ele>1556.99</ele>
        <time>2014-02-02T13:59:06Z</time>
      </trkpt>
      <trkpt lat="45.01361" lon="5.54124">
        <ele>1555.07</ele>
        <time>2014-02-02T13:59:07Z</time>
      </trkpt>
      <trkpt lat="45.01367" lon="5.54118">
        <ele>1553.63</ele>
        <time>2014-02-02T13:59:08Z</time>
      </trkpt>
      <trkpt lat="45.01372" lon="5.54114">
        <ele>1553.15</ele>
        <time>2014-02-02T13:59:09Z</time>
      </trkpt>
      <trkpt lat="45.01378" lon="5.54111">
        <ele>1551.22</ele>
        <time>2014-02-02T13:59:10Z</time>
      </trkpt>
      <trkpt lat="45.01383" lon="5.54109">
        <ele>1551.22</ele>
        <time>2014-02-02T13:59:11Z</time>
      </trkpt>
      <trkpt lat="45.01388" lon="5.54109">
        <ele>1549.3</ele>
        <time>2014-02-02T13:59:12Z</time>
      </trkpt>
      <trkpt lat="45.01393" lon="5.54108">
        <ele>1548.82</ele>
        <time>2014-02-02T13:59:13Z</time>
      </trkpt>
      <trkpt lat="45.01399" lon="5.54107">
        <ele>1548.34</ele>
        <time>2014-02-02T13:59:14Z</time>
      </trkpt>
      <trkpt lat="45.01435" lon="5.54104">
        <ele>1544.98</ele>
        <time>2014-02-02T13:59:20Z</time>
      </trkpt>
      <trkpt lat="45.01441" lon="5.54103">
        <ele>1544.98</ele>
        <time>2014-02-02T13:59:21Z</time>
      </trkpt>
      <trkpt lat="45.01468" lon="5.54096">
        <ele>1540.65</ele>
        <time>2014-02-02T13:59:25Z</time>
      </trkpt>
      <trkpt lat="45.01474" lon="5.54095">
        <ele>1540.17</ele>
        <time>2014-02-02T13:59:26Z</time>
      </trkpt>
      <trkpt lat="45.01481" lon="5.54095">
        <ele>1540.17</ele>
        <time>2014-02-02T13:59:27Z</time>
      </trkpt>
      <trkpt lat="45.01501" lon="5.54094">
        <ele>1538.25</ele>
        <time>2014-02-02T13:59:31Z</time>
      </trkpt>
      <trkpt lat="45.01511" lon="5.54092">
        <ele>1538.25</ele>
        <time>2014-02-02T13:59:33Z</time>
      </trkpt>
      <trkpt lat="45.01517" lon="5.54092">
        <ele>1536.8</ele>
        <time>2014-02-02T13:59:34Z</time>
      </trkpt>
      <trkpt lat="45.01522" lon="5.54093">
        <ele>1536.8</ele>
        <time>2014-02-02T13:59:35Z</time>
      </trkpt>
      <trkpt lat="45.01534" lon="5.54099">
        <ele>1535.84</ele>
        <time>2014-02-02T13:59:37Z</time>
      </trkpt>
      <trkpt lat="45.01539" lon="5.54103">
        <ele>1533.92</ele>
        <time>2014-02-02T13:59:38Z</time>
      </trkpt>
      <trkpt lat="45.01545" lon="5.54105">
        <ele>1534.4</ele>
        <time>2014-02-02T13:59:39Z</time>
      </trkpt>
      <trkpt lat="45.0155" lon="5.54108">
        <ele>1533.92</ele>
        <time>2014-02-02T13:59:40Z</time>
      </trkpt>
      <trkpt lat="45.01554" lon="5.54111">
        <ele>1532.96</ele>
        <time>2014-02-02T13:59:41Z</time>
      </trkpt>
      <trkpt lat="45.01559" lon="5.54113">
        <ele>1533.44</ele>
        <time>2014-02-02T13:59:42Z</time>
      </trkpt>
      <trkpt lat="45.01564" lon="5.54115">
        <ele>1532.96</ele>
        <time>2014-02-02T13:59:43Z</time>
      </trkpt>
      <trkpt lat="45.01569" lon="5.54118">
        <ele>1532</ele>
        <time>2014-02-02T13:59:44Z</time>
      </trkpt>
      <trkpt lat="45.01603" lon="5.54126">
        <ele>1528.63</ele>
        <time>2014-02-02T13:59:51Z</time>
      </trkpt>
      <trkpt lat="45.01609" lon="5.54126">
        <ele>1528.63</ele>
        <time>2014-02-02T13:59:52Z</time>
      </trkpt>
      <trkpt lat="45.0162" lon="5.54125">
        <ele>1527.19</ele>
        <time>2014-02-02T13:59:54Z</time>
      </trkpt>
      <trkpt lat="45.01624" lon="5.54124">
        <ele>1527.19</ele>
        <time>2014-02-02T13:59:55Z</time>
      </trkpt>
      <trkpt lat="45.01682" lon="5.54106">
        <ele>1523.35</ele>
        <time>2014-02-02T14:00:08Z</time>
      </trkpt>
      <trkpt lat="45.01687" lon="5.54106">
        <ele>1522.39</ele>
        <time>2014-02-02T14:00:09Z</time>
      </trkpt>
      <trkpt lat="45.01693" lon="5.54108">
        <ele>1521.42</ele>
        <time>2014-02-02T14:00:10Z</time>
      </trkpt>
      <trkpt lat="45.01705" lon="5.54113">
        <ele>1519.98</ele>
        <time>2014-02-02T14:00:12Z</time>
      </trkpt>
      <trkpt lat="45.01711" lon="5.54116">
        <ele>1519.5</ele>
        <time>2014-02-02T14:00:13Z</time>
      </trkpt>
      <trkpt lat="45.01755" lon="5.54138">
        <ele>1517.1</ele>
        <time>2014-02-02T14:00:23Z</time>
      </trkpt>
      <trkpt lat="45.01773" lon="5.54144">
        <ele>1513.25</ele>
        <time>2014-02-02T14:00:26Z</time>
      </trkpt>
      <trkpt lat="45.01778" lon="5.54146">
        <ele>1513.73</ele>
        <time>2014-02-02T14:00:27Z</time>
      </trkpt>
      <trkpt lat="45.01804" lon="5.54152">
        <ele>1509.89</ele>
        <time>2014-02-02T14:00:32Z</time>
      </trkpt>
      <trkpt lat="45.01811" lon="5.54152">
        <ele>1509.41</ele>
        <time>2014-02-02T14:00:33Z</time>
      </trkpt>
      <trkpt lat="45.0183" lon="5.54146">
        <ele>1507.48</ele>
        <time>2014-02-02T14:00:36Z</time>
      </trkpt>
      <trkpt lat="45.01837" lon="5.54145">
        <ele>1507</ele>
        <time>2014-02-02T14:00:37Z</time>
      </trkpt>
      <trkpt lat="45.01843" lon="5.54145">
        <ele>1506.52</ele>
        <time>2014-02-02T14:00:38Z</time>
      </trkpt>
      <trkpt lat="45.01848" lon="5.54146">
        <ele>1506.04</ele>
        <time>2014-02-02T14:00:39Z</time>
      </trkpt>
      <trkpt lat="45.01853" lon="5.54147">
        <ele>1505.56</ele>
        <time>2014-02-02T14:00:40Z</time>
      </trkpt>
      <trkpt lat="45.01857" lon="5.54149">
        <ele>1505.56</ele>
        <time>2014-02-02T14:00:41Z</time>
      </trkpt>
      <trkpt lat="45.0187" lon="5.5416">
        <ele>1506.04</ele>
        <time>2014-02-02T14:00:50Z</time>
      </trkpt>
      <trkpt lat="45.01874" lon="5.54168">
        <ele>1505.08</ele>
        <time>2014-02-02T14:01:08Z</time>
      </trkpt>
      <trkpt lat="45.01891" lon="5.54204">
        <ele>1502.68</ele>
        <time>2014-02-02T14:01:21Z</time>
      </trkpt>
      <trkpt lat="45.01904" lon="5.54223">
        <ele>1501.24</ele>
        <time>2014-02-02T14:01:26Z</time>
      </trkpt>
      <trkpt lat="45.01906" lon="5.54228">
        <ele>1500.76</ele>
        <time>2014-02-02T14:01:27Z</time>
      </trkpt>
      <trkpt lat="45.01922" lon="5.54263">
        <ele>1498.83</ele>
        <time>2014-02-02T14:01:34Z</time>
      </trkpt>
      <trkpt lat="45.01935" lon="5.54293">
        <ele>1494.99</ele>
        <time>2014-02-02T14:01:39Z</time>
      </trkpt>
      <trkpt lat="45.01938" lon="5.54299">
        <ele>1494.99</ele>
        <time>2014-02-02T14:01:40Z</time>
      </trkpt>
      <trkpt lat="45.01951" lon="5.54322">
        <ele>1492.1</ele>
        <time>2014-02-02T14:01:44Z</time>
      </trkpt>
      <trkpt lat="45.01984" lon="5.54351">
        <ele>1492.58</ele>
        <time>2014-02-02T14:01:54Z</time>
      </trkpt>
      <trkpt lat="45.01988" lon="5.5436">
        <ele>1492.1</ele>
        <time>2014-02-02T14:01:56Z</time>
      </trkpt>
      <trkpt lat="45.01989" lon="5.54365">
        <ele>1490.66</ele>
        <time>2014-02-02T14:01:57Z</time>
      </trkpt>
      <trkpt lat="45.01991" lon="5.54372">
        <ele>1490.66</ele>
        <time>2014-02-02T14:01:58Z</time>
      </trkpt>
      <trkpt lat="45.01994" lon="5.54378">
        <ele>1490.18</ele>
        <time>2014-02-02T14:01:59Z</time>
      </trkpt>
      <trkpt lat="45.01997" lon="5.54384">
        <ele>1489.22</ele>
        <time>2014-02-02T14:02:00Z</time>
      </trkpt>
      <trkpt lat="45.02" lon="5.5439">
        <ele>1488.74</ele>
        <time>2014-02-02T14:02:01Z</time>
      </trkpt>
      <trkpt lat="45.02016" lon="5.54414">
        <ele>1487.3</ele>
        <time>2014-02-02T14:02:06Z</time>
      </trkpt>
      <trkpt lat="45.02019" lon="5.54419">
        <ele>1487.78</ele>
        <time>2014-02-02T14:02:07Z</time>
      </trkpt>
      <trkpt lat="45.02021" lon="5.54426">
        <ele>1486.82</ele>
        <time>2014-02-02T14:02:08Z</time>
      </trkpt>
      <trkpt lat="45.02028" lon="5.54447">
        <ele>1485.37</ele>
        <time>2014-02-02T14:02:11Z</time>
      </trkpt>
      <trkpt lat="45.02032" lon="5.54455">
        <ele>1483.45</ele>
        <time>2014-02-02T14:02:12Z</time>
      </trkpt>
      <trkpt lat="45.02046" lon="5.54481">
        <ele>1479.61</ele>
        <time>2014-02-02T14:02:15Z</time>
      </trkpt>
      <trkpt lat="45.02051" lon="5.54487">
        <ele>1479.61</ele>
        <time>2014-02-02T14:02:16Z</time>
      </trkpt>
      <trkpt lat="45.02056" lon="5.54491">
        <ele>1478.65</ele>
        <time>2014-02-02T14:02:17Z</time>
      </trkpt>
      <trkpt lat="45.02062" lon="5.54492">
        <ele>1478.16</ele>
        <time>2014-02-02T14:02:18Z</time>
      </trkpt>
      <trkpt lat="45.02067" lon="5.54491">
        <ele>1477.68</ele>
        <time>2014-02-02T14:02:19Z</time>
      </trkpt>
      <trkpt lat="45.02073" lon="5.54489">
        <ele>1477.2</ele>
        <time>2014-02-02T14:02:20Z</time>
      </trkpt>
      <trkpt lat="45.02089" lon="5.54483">
        <ele>1476.72</ele>
        <time>2014-02-02T14:02:23Z</time>
      </trkpt>
      <trkpt lat="45.02094" lon="5.54482">
        <ele>1477.2</ele>
        <time>2014-02-02T14:02:24Z</time>
      </trkpt>
      <trkpt lat="45.02099" lon="5.54482">
        <ele>1476.72</ele>
        <time>2014-02-02T14:02:25Z</time>
      </trkpt>
      <trkpt lat="45.02104" lon="5.54483">
        <ele>1476.24</ele>
        <time>2014-02-02T14:02:26Z</time>
      </trkpt>
      <trkpt lat="45.02109" lon="5.54485">
        <ele>1476.24</ele>
        <time>2014-02-02T14:02:27Z</time>
      </trkpt>
      <trkpt lat="45.02113" lon="5.54487">
        <ele>1476.24</ele>
        <time>2014-02-02T14:02:28Z</time>
      </trkpt>
      <trkpt lat="45.02116" lon="5.54489">
        <ele>1474.32</ele>
        <time>2014-02-02T14:02:29Z</time>
      </trkpt>
      <trkpt lat="45.02122" lon="5.54491">
        <ele>1473.84</ele>
        <time>2014-02-02T14:02:43Z</time>
      </trkpt>
      <trkpt lat="45.02126" lon="5.54495">
        <ele>1473.36</ele>
        <time>2014-02-02T14:02:46Z</time>
      </trkpt>
      <trkpt lat="45.0213" lon="5.54501">
        <ele>1473.36</ele>
        <time>2014-02-02T14:02:48Z</time>
      </trkpt>
      <trkpt lat="45.02133" lon="5.54504">
        <ele>1471.92</ele>
        <time>2014-02-02T14:02:49Z</time>
      </trkpt>
      <trkpt lat="45.02136" lon="5.54507">
        <ele>1472.88</ele>
        <time>2014-02-02T14:02:50Z</time>
      </trkpt>
      <trkpt lat="45.0214" lon="5.54511">
        <ele>1470.47</ele>
        <time>2014-02-02T14:02:51Z</time>
      </trkpt>
      <trkpt lat="45.02145" lon="5.54514">
        <ele>1470.47</ele>
        <time>2014-02-02T14:02:52Z</time>
      </trkpt>
      <trkpt lat="45.02149" lon="5.54518">
        <ele>1469.03</ele>
        <time>2014-02-02T14:02:53Z</time>
      </trkpt>
      <trkpt lat="45.02154" lon="5.54523">
        <ele>1467.11</ele>
        <time>2014-02-02T14:02:54Z</time>
      </trkpt>
      <trkpt lat="45.02159" lon="5.54527">
        <ele>1466.15</ele>
        <time>2014-02-02T14:02:55Z</time>
      </trkpt>
      <trkpt lat="45.02162" lon="5.54534">
        <ele>1464.23</ele>
        <time>2014-02-02T14:02:56Z</time>
      </trkpt>
      <trkpt lat="45.02167" lon="5.54538">
        <ele>1463.26</ele>
        <time>2014-02-02T14:02:57Z</time>
      </trkpt>
      <trkpt lat="45.02172" lon="5.54542">
        <ele>1460.86</ele>
        <time>2014-02-02T14:02:58Z</time>
      </trkpt>
      <trkpt lat="45.02178" lon="5.54544">
        <ele>1461.34</ele>
        <time>2014-02-02T14:02:59Z</time>
      </trkpt>
      <trkpt lat="45.02182" lon="5.54549">
        <ele>1459.42</ele>
        <time>2014-02-02T14:03:00Z</time>
      </trkpt>
      <trkpt lat="45.02187" lon="5.54551">
        <ele>1458.94</ele>
        <time>2014-02-02T14:03:01Z</time>
      </trkpt>
      <trkpt lat="45.02191" lon="5.54552">
        <ele>1458.46</ele>
        <time>2014-02-02T14:03:02Z</time>
      </trkpt>
      <trkpt lat="45.02197" lon="5.54551">
        <ele>1457.5</ele>
        <time>2014-02-02T14:03:03Z</time>
      </trkpt>
      <trkpt lat="45.02203" lon="5.5455">
        <ele>1456.53</ele>
        <time>2014-02-02T14:03:04Z</time>
      </trkpt>
      <trkpt lat="45.02208" lon="5.54552">
        <ele>1456.53</ele>
        <time>2014-02-02T14:03:05Z</time>
      </trkpt>
      <trkpt lat="45.02213" lon="5.54553">
        <ele>1455.57</ele>
        <time>2014-02-02T14:03:06Z</time>
      </trkpt>
      <trkpt lat="45.02218" lon="5.54554">
        <ele>1455.09</ele>
        <time>2014-02-02T14:03:07Z</time>
      </trkpt>
      <trkpt lat="45.02223" lon="5.54554">
        <ele>1454.13</ele>
        <time>2014-02-02T14:03:08Z</time>
      </trkpt>
      <trkpt lat="45.02228" lon="5.54553">
        <ele>1454.13</ele>
        <time>2014-02-02T14:03:09Z</time>
      </trkpt>
      <trkpt lat="45.02233" lon="5.54554">
        <ele>1453.65</ele>
        <time>2014-02-02T14:03:10Z</time>
      </trkpt>
      <trkpt lat="45.02238" lon="5.54556">
        <ele>1453.17</ele>
        <time>2014-02-02T14:03:11Z</time>
      </trkpt>
      <trkpt lat="45.02247" lon="5.54556">
        <ele>1451.25</ele>
        <time>2014-02-02T14:03:13Z</time>
      </trkpt>
      <trkpt lat="45.02251" lon="5.54557">
        <ele>1449.32</ele>
        <time>2014-02-02T14:03:14Z</time>
      </trkpt>
      <trkpt lat="45.02256" lon="5.54558">
        <ele>1449.81</ele>
        <time>2014-02-02T14:03:15Z</time>
      </trkpt>
      <trkpt lat="45.0226" lon="5.54558">
        <ele>1448.36</ele>
        <time>2014-02-02T14:03:16Z</time>
      </trkpt>
      <trkpt lat="45.02265" lon="5.54559">
        <ele>1447.88</ele>
        <time>2014-02-02T14:03:17Z</time>
      </trkpt>
      <trkpt lat="45.02269" lon="5.5456">
        <ele>1447.4</ele>
        <time>2014-02-02T14:03:18Z</time>
      </trkpt>
      <trkpt lat="45.02273" lon="5.54562">
        <ele>1446.92</ele>
        <time>2014-02-02T14:03:19Z</time>
      </trkpt>
      <trkpt lat="45.02275" lon="5.54565">
        <ele>1446.44</ele>
        <time>2014-02-02T14:03:20Z</time>
      </trkpt>
      <trkpt lat="45.02279" lon="5.5457">
        <ele>1446.44</ele>
        <time>2014-02-02T14:03:28Z</time>
      </trkpt>
      <trkpt lat="45.02277" lon="5.54572">
        <ele>1445.96</ele>
        <time>2014-02-02T14:03:48Z</time>
      </trkpt>
      <trkpt lat="45.02271" lon="5.54574">
        <ele>1445.96</ele>
        <time>2014-02-02T14:04:05Z</time>
      </trkpt>
      <trkpt lat="45.02267" lon="5.54576">
        <ele>1445.48</ele>
        <time>2014-02-02T14:04:22Z</time>
      </trkpt>
      <trkpt lat="45.02261" lon="5.54579">
        <ele>1444.52</ele>
        <time>2014-02-02T14:04:38Z</time>
      </trkpt>
      <trkpt lat="45.02256" lon="5.54586">
        <ele>1447.4</ele>
        <time>2014-02-02T14:04:44Z</time>
      </trkpt>
      <trkpt lat="45.02252" lon="5.54593">
        <ele>1449.32</ele>
        <time>2014-02-02T14:04:47Z</time>
      </trkpt>
      <trkpt lat="45.02245" lon="5.54604">
        <ele>1453.65</ele>
        <time>2014-02-02T14:04:52Z</time>
      </trkpt>
      <trkpt lat="45.02238" lon="5.54615">
        <ele>1457.98</ele>
        <time>2014-02-02T14:04:57Z</time>
      </trkpt>
      <trkpt lat="45.02232" lon="5.54621">
        <ele>1460.86</ele>
        <time>2014-02-02T14:05:00Z</time>
      </trkpt>
      <trkpt lat="45.02226" lon="5.54629">
        <ele>1464.23</ele>
        <time>2014-02-02T14:05:04Z</time>
      </trkpt>
      <trkpt lat="45.02221" lon="5.54635">
        <ele>1468.07</ele>
        <time>2014-02-02T14:05:07Z</time>
      </trkpt>
      <trkpt lat="45.02215" lon="5.54642">
        <ele>1470.47</ele>
        <time>2014-02-02T14:05:12Z</time>
      </trkpt>
      <trkpt lat="45.02206" lon="5.54655">
        <ele>1473.84</ele>
        <time>2014-02-02T14:05:18Z</time>
      </trkpt>
      <trkpt lat="45.02203" lon="5.54659">
        <ele>1474.32</ele>
        <time>2014-02-02T14:05:20Z</time>
      </trkpt>
      <trkpt lat="45.02193" lon="5.5467">
        <ele>1476.72</ele>
        <time>2014-02-02T14:05:26Z</time>
      </trkpt>
      <trkpt lat="45.02186" lon="5.5468">
        <ele>1480.09</ele>
        <time>2014-02-02T14:05:31Z</time>
      </trkpt>
      <trkpt lat="45.02179" lon="5.54688">
        <ele>1482.01</ele>
        <time>2014-02-02T14:05:35Z</time>
      </trkpt>
      <trkpt lat="45.02171" lon="5.54698">
        <ele>1485.37</ele>
        <time>2014-02-02T14:05:41Z</time>
      </trkpt>
      <trkpt lat="45.02164" lon="5.54707">
        <ele>1488.74</ele>
        <time>2014-02-02T14:05:46Z</time>
      </trkpt>
      <trkpt lat="45.02157" lon="5.54716">
        <ele>1492.1</ele>
        <time>2014-02-02T14:05:51Z</time>
      </trkpt>
      <trkpt lat="45.02151" lon="5.54724">
        <ele>1494.99</ele>
        <time>2014-02-02T14:05:55Z</time>
      </trkpt>
      <trkpt lat="45.02144" lon="5.54733">
        <ele>1498.35</ele>
        <time>2014-02-02T14:06:00Z</time>
      </trkpt>
      <trkpt lat="45.0214" lon="5.54738">
        <ele>1500.27</ele>
        <time>2014-02-02T14:06:03Z</time>
      </trkpt>
      <trkpt lat="45.02132" lon="5.54748">
        <ele>1502.68</ele>
        <time>2014-02-02T14:06:08Z</time>
      </trkpt>
      <trkpt lat="45.02115" lon="5.5477">
        <ele>1506.04</ele>
        <time>2014-02-02T14:06:21Z</time>
      </trkpt>
      <trkpt lat="45.02107" lon="5.54781">
        <ele>1509.41</ele>
        <time>2014-02-02T14:06:27Z</time>
      </trkpt>
      <trkpt lat="45.02097" lon="5.54793">
        <ele>1511.81</ele>
        <time>2014-02-02T14:06:33Z</time>
      </trkpt>
      <trkpt lat="45.02092" lon="5.548">
        <ele>1513.73</ele>
        <time>2014-02-02T14:06:37Z</time>
      </trkpt>
      <trkpt lat="45.02082" lon="5.54812">
        <ele>1517.58</ele>
        <time>2014-02-02T14:06:45Z</time>
      </trkpt>
      <trkpt lat="45.02078" lon="5.54818">
        <ele>1519.02</ele>
        <time>2014-02-02T14:06:48Z</time>
      </trkpt>
      <trkpt lat="45.02069" lon="5.54829">
        <ele>1522.39</ele>
        <time>2014-02-02T14:06:54Z</time>
      </trkpt>
      <trkpt lat="45.02059" lon="5.54841">
        <ele>1526.23</ele>
        <time>2014-02-02T14:07:01Z</time>
      </trkpt>
      <trkpt lat="45.02051" lon="5.54851">
        <ele>1529.59</ele>
        <time>2014-02-02T14:07:07Z</time>
      </trkpt>
      <trkpt lat="45.02049" lon="5.54854">
        <ele>1530.56</ele>
        <time>2014-02-02T14:07:09Z</time>
      </trkpt>
      <trkpt lat="45.02043" lon="5.54862">
        <ele>1533.92</ele>
        <time>2014-02-02T14:07:13Z</time>
      </trkpt>
      <trkpt lat="45.02039" lon="5.54868">
        <ele>1535.36</ele>
        <time>2014-02-02T14:07:16Z</time>
      </trkpt>
      <trkpt lat="45.02034" lon="5.54874">
        <ele>1537.77</ele>
        <time>2014-02-02T14:07:19Z</time>
      </trkpt>
      <trkpt lat="45.02027" lon="5.54883">
        <ele>1541.61</ele>
        <time>2014-02-02T14:07:24Z</time>
      </trkpt>
      <trkpt lat="45.02023" lon="5.54889">
        <ele>1544.98</ele>
        <time>2014-02-02T14:07:27Z</time>
      </trkpt>
      <trkpt lat="45.02016" lon="5.54898">
        <ele>1547.86</ele>
        <time>2014-02-02T14:07:32Z</time>
      </trkpt>
      <trkpt lat="45.0201" lon="5.54906">
        <ele>1551.22</ele>
        <time>2014-02-02T14:07:36Z</time>
      </trkpt>
      <trkpt lat="45.02004" lon="5.54913">
        <ele>1554.11</ele>
        <time>2014-02-02T14:07:40Z</time>
      </trkpt>
      <trkpt lat="45.01999" lon="5.5492">
        <ele>1557.95</ele>
        <time>2014-02-02T14:07:44Z</time>
      </trkpt>
      <trkpt lat="45.01993" lon="5.54927">
        <ele>1560.84</ele>
        <time>2014-02-02T14:07:48Z</time>
      </trkpt>
      <trkpt lat="45.01987" lon="5.54934">
        <ele>1563.24</ele>
        <time>2014-02-02T14:07:52Z</time>
      </trkpt>
      <trkpt lat="45.0198" lon="5.54944">
        <ele>1567.09</ele>
        <time>2014-02-02T14:07:57Z</time>
      </trkpt>
      <trkpt lat="45.01974" lon="5.54951">
        <ele>1569.49</ele>
        <time>2014-02-02T14:08:01Z</time>
      </trkpt>
      <trkpt lat="45.01968" lon="5.54958">
        <ele>1572.85</ele>
        <time>2014-02-02T14:08:05Z</time>
      </trkpt>
      <trkpt lat="45.01962" lon="5.54966">
        <ele>1575.74</ele>
        <time>2014-02-02T14:08:09Z</time>
      </trkpt>
      <trkpt lat="45.01959" lon="5.5497">
        <ele>1576.7</ele>
        <time>2014-02-02T14:08:11Z</time>
      </trkpt>
      <trkpt lat="45.01954" lon="5.54977">
        <ele>1580.54</ele>
        <time>2014-02-02T14:08:15Z</time>
      </trkpt>
      <trkpt lat="45.01947" lon="5.54985">
        <ele>1584.87</ele>
        <time>2014-02-02T14:08:20Z</time>
      </trkpt>
      <trkpt lat="45.01941" lon="5.54993">
        <ele>1588.24</ele>
        <time>2014-02-02T14:08:24Z</time>
      </trkpt>
      <trkpt lat="45.01936" lon="5.55">
        <ele>1591.6</ele>
        <time>2014-02-02T14:08:28Z</time>
      </trkpt>
      <trkpt lat="45.0193" lon="5.55007">
        <ele>1595.45</ele>
        <time>2014-02-02T14:08:32Z</time>
      </trkpt>
      <trkpt lat="45.01925" lon="5.55013">
        <ele>1598.81</ele>
        <time>2014-02-02T14:08:35Z</time>
      </trkpt>
      <trkpt lat="45.0192" lon="5.55019">
        <ele>1601.69</ele>
        <time>2014-02-02T14:08:39Z</time>
      </trkpt>
      <trkpt lat="45.01911" lon="5.5503">
        <ele>1605.54</ele>
        <time>2014-02-02T14:08:45Z</time>
      </trkpt>
      <trkpt lat="45.01907" lon="5.55036">
        <ele>1606.98</ele>
        <time>2014-02-02T14:08:48Z</time>
      </trkpt>
      <trkpt lat="45.01902" lon="5.55043">
        <ele>1610.35</ele>
        <time>2014-02-02T14:08:52Z</time>
      </trkpt>
      <trkpt lat="45.01896" lon="5.55051">
        <ele>1613.71</ele>
        <time>2014-02-02T14:08:56Z</time>
      </trkpt>
      <trkpt lat="45.01889" lon="5.5506">
        <ele>1617.07</ele>
        <time>2014-02-02T14:09:01Z</time>
      </trkpt>
      <trkpt lat="45.01883" lon="5.55067">
        <ele>1620.92</ele>
        <time>2014-02-02T14:09:05Z</time>
      </trkpt>
      <trkpt lat="45.01877" lon="5.55074">
        <ele>1625.73</ele>
        <time>2014-02-02T14:09:09Z</time>
      </trkpt>
      <trkpt lat="45.01869" lon="5.55083">
        <ele>1628.61</ele>
        <time>2014-02-02T14:09:14Z</time>
      </trkpt>
      <trkpt lat="45.01864" lon="5.55089">
        <ele>1631.49</ele>
        <time>2014-02-02T14:09:17Z</time>
      </trkpt>
      <trkpt lat="45.01859" lon="5.55096">
        <ele>1635.34</ele>
        <time>2014-02-02T14:09:21Z</time>
      </trkpt>
      <trkpt lat="45.01855" lon="5.55101">
        <ele>1638.22</ele>
        <time>2014-02-02T14:09:24Z</time>
      </trkpt>
      <trkpt lat="45.01844" lon="5.55117">
        <ele>1641.59</ele>
        <time>2014-02-02T14:09:32Z</time>
      </trkpt>
      <trkpt lat="45.01841" lon="5.5512">
        <ele>1642.55</ele>
        <time>2014-02-02T14:09:34Z</time>
      </trkpt>
      <trkpt lat="45.01833" lon="5.5513">
        <ele>1644.95</ele>
        <time>2014-02-02T14:09:39Z</time>
      </trkpt>
      <trkpt lat="45.01826" lon="5.55139">
        <ele>1647.84</ele>
        <time>2014-02-02T14:09:44Z</time>
      </trkpt>
      <trkpt lat="45.01819" lon="5.55149">
        <ele>1651.2</ele>
        <time>2014-02-02T14:09:49Z</time>
      </trkpt>
      <trkpt lat="45.01813" lon="5.55156">
        <ele>1654.57</ele>
        <time>2014-02-02T14:09:53Z</time>
      </trkpt>
      <trkpt lat="45.01808" lon="5.55162">
        <ele>1656.01</ele>
        <time>2014-02-02T14:09:56Z</time>
      </trkpt>
      <trkpt lat="45.01801" lon="5.55171">
        <ele>1659.37</ele>
        <time>2014-02-02T14:10:01Z</time>
      </trkpt>
      <trkpt lat="45.01798" lon="5.55175">
        <ele>1660.33</ele>
        <time>2014-02-02T14:10:03Z</time>
      </trkpt>
      <trkpt lat="45.01793" lon="5.55181">
        <ele>1662.26</ele>
        <time>2014-02-02T14:10:06Z</time>
      </trkpt>
      <trkpt lat="45.0179" lon="5.55185">
        <ele>1664.18</ele>
        <time>2014-02-02T14:10:08Z</time>
      </trkpt>
      <trkpt lat="45.01785" lon="5.55192">
        <ele>1667.54</ele>
        <time>2014-02-02T14:10:12Z</time>
      </trkpt>
      <trkpt lat="45.0178" lon="5.55199">
        <ele>1670.91</ele>
        <time>2014-02-02T14:10:17Z</time>
      </trkpt>
      <trkpt lat="45.01763" lon="5.55222">
        <ele>1674.75</ele>
        <time>2014-02-02T14:10:33Z</time>
      </trkpt>
      <trkpt lat="45.01752" lon="5.55235">
        <ele>1677.64</ele>
        <time>2014-02-02T14:10:42Z</time>
      </trkpt>
      <trkpt lat="45.01748" lon="5.55241">
        <ele>1679.08</ele>
        <time>2014-02-02T14:10:45Z</time>
      </trkpt>
      <trkpt lat="45.01739" lon="5.55252">
        <ele>1682.44</ele>
        <time>2014-02-02T14:10:51Z</time>
      </trkpt>
      <trkpt lat="45.01736" lon="5.55256">
        <ele>1683.89</ele>
        <time>2014-02-02T14:10:53Z</time>
      </trkpt>
      <trkpt lat="45.01725" lon="5.55269">
        <ele>1686.77</ele>
        <time>2014-02-02T14:11:00Z</time>
      </trkpt>
      <trkpt lat="45.01718" lon="5.55277">
        <ele>1690.14</ele>
        <time>2014-02-02T14:11:04Z</time>
      </trkpt>
      <trkpt lat="45.0171" lon="5.55287">
        <ele>1693.02</ele>
        <time>2014-02-02T14:11:09Z</time>
      </trkpt>
      <trkpt lat="45.01703" lon="5.55296">
        <ele>1695.9</ele>
        <time>2014-02-02T14:11:14Z</time>
      </trkpt>
      <trkpt lat="45.01698" lon="5.55303">
        <ele>1698.79</ele>
        <time>2014-02-02T14:11:18Z</time>
      </trkpt>
      <trkpt lat="45.01695" lon="5.55307">
        <ele>1700.23</ele>
        <time>2014-02-02T14:11:20Z</time>
      </trkpt>
      <trkpt lat="45.01687" lon="5.55316">
        <ele>1703.11</ele>
        <time>2014-02-02T14:11:25Z</time>
      </trkpt>
      <trkpt lat="45.01682" lon="5.55323">
        <ele>1706</ele>
        <time>2014-02-02T14:11:29Z</time>
      </trkpt>
      <trkpt lat="45.01679" lon="5.55327">
        <ele>1706.96</ele>
        <time>2014-02-02T14:11:31Z</time>
      </trkpt>
      <trkpt lat="45.01673" lon="5.55335">
        <ele>1710.32</ele>
        <time>2014-02-02T14:11:35Z</time>
      </trkpt>
      <trkpt lat="45.01666" lon="5.55343">
        <ele>1713.69</ele>
        <time>2014-02-02T14:11:40Z</time>
      </trkpt>
      <trkpt lat="45.01657" lon="5.55354">
        <ele>1718.01</ele>
        <time>2014-02-02T14:11:46Z</time>
      </trkpt>
      <trkpt lat="45.0165" lon="5.55364">
        <ele>1722.34</ele>
        <time>2014-02-02T14:11:51Z</time>
      </trkpt>
      <trkpt lat="45.01644" lon="5.55371">
        <ele>1726.18</ele>
        <time>2014-02-02T14:11:55Z</time>
      </trkpt>
      <trkpt lat="45.01639" lon="5.55379">
        <ele>1729.55</ele>
        <time>2014-02-02T14:11:59Z</time>
      </trkpt>
      <trkpt lat="45.01634" lon="5.55385">
        <ele>1732.91</ele>
        <time>2014-02-02T14:12:03Z</time>
      </trkpt>
      <trkpt lat="45.01627" lon="5.55394">
        <ele>1737.72</ele>
        <time>2014-02-02T14:12:08Z</time>
      </trkpt>
      <trkpt lat="45.01623" lon="5.55399">
        <ele>1739.64</ele>
        <time>2014-02-02T14:12:11Z</time>
      </trkpt>
      <trkpt lat="45.01603" lon="5.55423">
        <ele>1742.53</ele>
        <time>2014-02-02T14:12:24Z</time>
      </trkpt>
      <trkpt lat="45.01574" lon="5.5546">
        <ele>1744.45</ele>
        <time>2014-02-02T14:12:43Z</time>
      </trkpt>
      <trkpt lat="45.0154" lon="5.55504">
        <ele>1743.01</ele>
        <time>2014-02-02T14:13:05Z</time>
      </trkpt>
      <trkpt lat="45.01502" lon="5.55553">
        <ele>1745.89</ele>
        <time>2014-02-02T14:13:30Z</time>
      </trkpt>
      <trkpt lat="45.01476" lon="5.55585">
        <ele>1748.78</ele>
        <time>2014-02-02T14:13:50Z</time>
      </trkpt>
      <trkpt lat="45.0147" lon="5.55592">
        <ele>1749.26</ele>
        <time>2014-02-02T14:14:00Z</time>
      </trkpt>
      <trkpt lat="45.01469" lon="5.55597">
        <ele>1747.81</ele>
        <time>2014-02-02T14:14:02Z</time>
      </trkpt>
      <trkpt lat="45.01466" lon="5.55615">
        <ele>1747.81</ele>
        <time>2014-02-02T14:14:11Z</time>
      </trkpt>
      <trkpt lat="45.01465" lon="5.55619">
        <ele>1747.33</ele>
        <time>2014-02-02T14:14:26Z</time>
      </trkpt>
      <trkpt lat="45.0148" lon="5.55649">
        <ele>1742.05</ele>
        <time>2014-02-02T14:20:51Z</time>
      </trkpt>
      <trkpt lat="45.01485" lon="5.55652">
        <ele>1741.08</ele>
        <time>2014-02-02T14:20:52Z</time>
      </trkpt>
      <trkpt lat="45.01503" lon="5.55653">
        <ele>1738.68</ele>
        <time>2014-02-02T14:20:57Z</time>
      </trkpt>
      <trkpt lat="45.01511" lon="5.55648">
        <ele>1738.2</ele>
        <time>2014-02-02T14:20:59Z</time>
      </trkpt>
      <trkpt lat="45.01515" lon="5.55645">
        <ele>1738.2</ele>
        <time>2014-02-02T14:21:00Z</time>
      </trkpt>
      <trkpt lat="45.01519" lon="5.55641">
        <ele>1737.72</ele>
        <time>2014-02-02T14:21:01Z</time>
      </trkpt>
      <trkpt lat="45.01523" lon="5.55637">
        <ele>1736.76</ele>
        <time>2014-02-02T14:21:02Z</time>
      </trkpt>
      <trkpt lat="45.01528" lon="5.55632">
        <ele>1736.76</ele>
        <time>2014-02-02T14:21:03Z</time>
      </trkpt>
      <trkpt lat="45.01533" lon="5.55628">
        <ele>1734.84</ele>
        <time>2014-02-02T14:21:04Z</time>
      </trkpt>
      <trkpt lat="45.01537" lon="5.55624">
        <ele>1734.84</ele>
        <time>2014-02-02T14:21:05Z</time>
      </trkpt>
      <trkpt lat="45.01542" lon="5.5562">
        <ele>1733.88</ele>
        <time>2014-02-02T14:21:06Z</time>
      </trkpt>
      <trkpt lat="45.01547" lon="5.55617">
        <ele>1733.88</ele>
        <time>2014-02-02T14:21:07Z</time>
      </trkpt>
      <trkpt lat="45.01552" lon="5.55614">
        <ele>1731.95</ele>
        <time>2014-02-02T14:21:08Z</time>
      </trkpt>
      <trkpt lat="45.01558" lon="5.55611">
        <ele>1732.43</ele>
        <time>2014-02-02T14:21:09Z</time>
      </trkpt>
      <trkpt lat="45.01564" lon="5.55607">
        <ele>1730.99</ele>
        <time>2014-02-02T14:21:10Z</time>
      </trkpt>
      <trkpt lat="45.01571" lon="5.55604">
        <ele>1730.03</ele>
        <time>2014-02-02T14:21:11Z</time>
      </trkpt>
      <trkpt lat="45.01577" lon="5.55602">
        <ele>1729.07</ele>
        <time>2014-02-02T14:21:12Z</time>
      </trkpt>
      <trkpt lat="45.01583" lon="5.55597">
        <ele>1726.18</ele>
        <time>2014-02-02T14:21:13Z</time>
      </trkpt>
      <trkpt lat="45.01589" lon="5.55593">
        <ele>1726.67</ele>
        <time>2014-02-02T14:21:14Z</time>
      </trkpt>
      <trkpt lat="45.01595" lon="5.55588">
        <ele>1723.78</ele>
        <time>2014-02-02T14:21:15Z</time>
      </trkpt>
      <trkpt lat="45.01601" lon="5.55583">
        <ele>1724.74</ele>
        <time>2014-02-02T14:21:16Z</time>
      </trkpt>
      <trkpt lat="45.01607" lon="5.55578">
        <ele>1723.3</ele>
        <time>2014-02-02T14:21:17Z</time>
      </trkpt>
      <trkpt lat="45.01612" lon="5.55571">
        <ele>1721.86</ele>
        <time>2014-02-02T14:21:18Z</time>
      </trkpt>
      <trkpt lat="45.01617" lon="5.55565">
        <ele>1720.9</ele>
        <time>2014-02-02T14:21:19Z</time>
      </trkpt>
      <trkpt lat="45.01623" lon="5.5556">
        <ele>1720.42</ele>
        <time>2014-02-02T14:21:20Z</time>
      </trkpt>
      <trkpt lat="45.01629" lon="5.55556">
        <ele>1720.9</ele>
        <time>2014-02-02T14:21:21Z</time>
      </trkpt>
      <trkpt lat="45.01634" lon="5.55551">
        <ele>1719.94</ele>
        <time>2014-02-02T14:21:22Z</time>
      </trkpt>
      <trkpt lat="45.01638" lon="5.55546">
        <ele>1718.49</ele>
        <time>2014-02-02T14:21:23Z</time>
      </trkpt>
      <trkpt lat="45.01644" lon="5.5554">
        <ele>1717.53</ele>
        <time>2014-02-02T14:21:24Z</time>
      </trkpt>
      <trkpt lat="45.01648" lon="5.55534">
        <ele>1717.53</ele>
        <time>2014-02-02T14:21:25Z</time>
      </trkpt>
      <trkpt lat="45.01658" lon="5.55522">
        <ele>1715.13</ele>
        <time>2014-02-02T14:21:27Z</time>
      </trkpt>
      <trkpt lat="45.01663" lon="5.55516">
        <ele>1714.17</ele>
        <time>2014-02-02T14:21:28Z</time>
      </trkpt>
      <trkpt lat="45.01668" lon="5.55514">
        <ele>1713.69</ele>
        <time>2014-02-02T14:21:29Z</time>
      </trkpt>
      <trkpt lat="45.0167" lon="5.55511">
        <ele>1712.25</ele>
        <time>2014-02-02T14:21:31Z</time>
      </trkpt>
      <trkpt lat="45.01676" lon="5.5551">
        <ele>1712.73</ele>
        <time>2014-02-02T14:21:43Z</time>
      </trkpt>
      <trkpt lat="45.01674" lon="5.55506">
        <ele>1712.73</ele>
        <time>2014-02-02T14:21:49Z</time>
      </trkpt>
      <trkpt lat="45.01674" lon="5.555">
        <ele>1712.25</ele>
        <time>2014-02-02T14:21:52Z</time>
      </trkpt>
      <trkpt lat="45.01674" lon="5.55495">
        <ele>1711.76</ele>
        <time>2014-02-02T14:21:54Z</time>
      </trkpt>
      <trkpt lat="45.01675" lon="5.55488">
        <ele>1711.76</ele>
        <time>2014-02-02T14:21:56Z</time>
      </trkpt>
      <trkpt lat="45.01691" lon="5.55447">
        <ele>1710.32</ele>
        <time>2014-02-02T14:22:10Z</time>
      </trkpt>
      <trkpt lat="45.01699" lon="5.55429">
        <ele>1708.88</ele>
        <time>2014-02-02T14:22:14Z</time>
      </trkpt>
      <trkpt lat="45.01702" lon="5.55426">
        <ele>1708.88</ele>
        <time>2014-02-02T14:22:15Z</time>
      </trkpt>
      <trkpt lat="45.01706" lon="5.55422">
        <ele>1708.4</ele>
        <time>2014-02-02T14:22:16Z</time>
      </trkpt>
      <trkpt lat="45.01711" lon="5.55419">
        <ele>1706.48</ele>
        <time>2014-02-02T14:22:17Z</time>
      </trkpt>
      <trkpt lat="45.01716" lon="5.55415">
        <ele>1706</ele>
        <time>2014-02-02T14:22:18Z</time>
      </trkpt>
      <trkpt lat="45.0172" lon="5.55411">
        <ele>1704.07</ele>
        <time>2014-02-02T14:22:19Z</time>
      </trkpt>
      <trkpt lat="45.01724" lon="5.55408">
        <ele>1702.63</ele>
        <time>2014-02-02T14:22:20Z</time>
      </trkpt>
      <trkpt lat="45.01728" lon="5.55406">
        <ele>1700.71</ele>
        <time>2014-02-02T14:22:21Z</time>
      </trkpt>
      <trkpt lat="45.01733" lon="5.55402">
        <ele>1699.75</ele>
        <time>2014-02-02T14:22:22Z</time>
      </trkpt>
      <trkpt lat="45.01737" lon="5.554">
        <ele>1695.9</ele>
        <time>2014-02-02T14:22:23Z</time>
      </trkpt>
      <trkpt lat="45.01741" lon="5.55399">
        <ele>1695.42</ele>
        <time>2014-02-02T14:22:24Z</time>
      </trkpt>
      <trkpt lat="45.01746" lon="5.55398">
        <ele>1693.5</ele>
        <time>2014-02-02T14:22:25Z</time>
      </trkpt>
      <trkpt lat="45.0175" lon="5.55396">
        <ele>1690.62</ele>
        <time>2014-02-02T14:22:26Z</time>
      </trkpt>
      <trkpt lat="45.01755" lon="5.55393">
        <ele>1689.65</ele>
        <time>2014-02-02T14:22:27Z</time>
      </trkpt>
      <trkpt lat="45.01759" lon="5.55392">
        <ele>1687.73</ele>
        <time>2014-02-02T14:22:28Z</time>
      </trkpt>
      <trkpt lat="45.01764" lon="5.55391">
        <ele>1687.73</ele>
        <time>2014-02-02T14:22:29Z</time>
      </trkpt>
      <trkpt lat="45.01769" lon="5.55388">
        <ele>1685.81</ele>
        <time>2014-02-02T14:22:30Z</time>
      </trkpt>
      <trkpt lat="45.01773" lon="5.55385">
        <ele>1683.41</ele>
        <time>2014-02-02T14:22:31Z</time>
      </trkpt>
      <trkpt lat="45.01778" lon="5.55385">
        <ele>1682.93</ele>
        <time>2014-02-02T14:22:32Z</time>
      </trkpt>
      <trkpt lat="45.01782" lon="5.55387">
        <ele>1681</ele>
        <time>2014-02-02T14:22:33Z</time>
      </trkpt>
      <trkpt lat="45.0179" lon="5.55403">
        <ele>1679.56</ele>
        <time>2014-02-02T14:22:42Z</time>
      </trkpt>
      <trkpt lat="45.01789" lon="5.55398">
        <ele>1680.04</ele>
        <time>2014-02-02T14:22:56Z</time>
      </trkpt>
      <trkpt lat="45.01789" lon="5.55392">
        <ele>1679.08</ele>
        <time>2014-02-02T14:22:57Z</time>
      </trkpt>
      <trkpt lat="45.01792" lon="5.55386">
        <ele>1677.16</ele>
        <time>2014-02-02T14:22:58Z</time>
      </trkpt>
      <trkpt lat="45.01795" lon="5.5538">
        <ele>1678.6</ele>
        <time>2014-02-02T14:22:59Z</time>
      </trkpt>
      <trkpt lat="45.01798" lon="5.55373">
        <ele>1675.72</ele>
        <time>2014-02-02T14:23:00Z</time>
      </trkpt>
      <trkpt lat="45.018" lon="5.55366">
        <ele>1676.2</ele>
        <time>2014-02-02T14:23:01Z</time>
      </trkpt>
      <trkpt lat="45.01803" lon="5.55359">
        <ele>1673.79</ele>
        <time>2014-02-02T14:23:02Z</time>
      </trkpt>
      <trkpt lat="45.01806" lon="5.55354">
        <ele>1674.75</ele>
        <time>2014-02-02T14:23:03Z</time>
      </trkpt>
      <trkpt lat="45.01808" lon="5.55348">
        <ele>1672.83</ele>
        <time>2014-02-02T14:23:04Z</time>
      </trkpt>
      <trkpt lat="45.01812" lon="5.55335">
        <ele>1671.39</ele>
        <time>2014-02-02T14:23:06Z</time>
      </trkpt>
      <trkpt lat="45.01814" lon="5.55329">
        <ele>1670.43</ele>
        <time>2014-02-02T14:23:07Z</time>
      </trkpt>
      <trkpt lat="45.01816" lon="5.55322">
        <ele>1668.51</ele>
        <time>2014-02-02T14:23:08Z</time>
      </trkpt>
      <trkpt lat="45.01818" lon="5.55315">
        <ele>1667.06</ele>
        <time>2014-02-02T14:23:09Z</time>
      </trkpt>
      <trkpt lat="45.0182" lon="5.55309">
        <ele>1665.14</ele>
        <time>2014-02-02T14:23:10Z</time>
      </trkpt>
      <trkpt lat="45.01824" lon="5.55303">
        <ele>1664.18</ele>
        <time>2014-02-02T14:23:11Z</time>
      </trkpt>
      <trkpt lat="45.01827" lon="5.55297">
        <ele>1661.78</ele>
        <time>2014-02-02T14:23:12Z</time>
      </trkpt>
      <trkpt lat="45.01831" lon="5.55292">
        <ele>1660.33</ele>
        <time>2014-02-02T14:23:13Z</time>
      </trkpt>
      <trkpt lat="45.01835" lon="5.55289">
        <ele>1658.89</ele>
        <time>2014-02-02T14:23:14Z</time>
      </trkpt>
      <trkpt lat="45.01838" lon="5.55283">
        <ele>1656.97</ele>
        <time>2014-02-02T14:23:15Z</time>
      </trkpt>
      <trkpt lat="45.01841" lon="5.55277">
        <ele>1655.05</ele>
        <time>2014-02-02T14:23:16Z</time>
      </trkpt>
      <trkpt lat="45.01845" lon="5.55269">
        <ele>1652.64</ele>
        <time>2014-02-02T14:23:17Z</time>
      </trkpt>
      <trkpt lat="45.01853" lon="5.55255">
        <ele>1648.32</ele>
        <time>2014-02-02T14:23:19Z</time>
      </trkpt>
      <trkpt lat="45.01858" lon="5.55249">
        <ele>1645.43</ele>
        <time>2014-02-02T14:23:20Z</time>
      </trkpt>
      <trkpt lat="45.01863" lon="5.55244">
        <ele>1645.43</ele>
        <time>2014-02-02T14:23:21Z</time>
      </trkpt>
      <trkpt lat="45.01866" lon="5.55237">
        <ele>1643.99</ele>
        <time>2014-02-02T14:23:22Z</time>
      </trkpt>
      <trkpt lat="45.01868" lon="5.5523">
        <ele>1641.59</ele>
        <time>2014-02-02T14:23:23Z</time>
      </trkpt>
      <trkpt lat="45.01872" lon="5.55224">
        <ele>1641.59</ele>
        <time>2014-02-02T14:23:24Z</time>
      </trkpt>
      <trkpt lat="45.01876" lon="5.55218">
        <ele>1638.7</ele>
        <time>2014-02-02T14:23:25Z</time>
      </trkpt>
      <trkpt lat="45.0188" lon="5.55212">
        <ele>1638.22</ele>
        <time>2014-02-02T14:23:26Z</time>
      </trkpt>
      <trkpt lat="45.01885" lon="5.55205">
        <ele>1635.82</ele>
        <time>2014-02-02T14:23:27Z</time>
      </trkpt>
      <trkpt lat="45.01889" lon="5.55198">
        <ele>1635.34</ele>
        <time>2014-02-02T14:23:28Z</time>
      </trkpt>
      <trkpt lat="45.01891" lon="5.55192">
        <ele>1633.9</ele>
        <time>2014-02-02T14:23:29Z</time>
      </trkpt>
      <trkpt lat="45.01896" lon="5.55192">
        <ele>1631.01</ele>
        <time>2014-02-02T14:23:44Z</time>
      </trkpt>
      <trkpt lat="45.01894" lon="5.55185">
        <ele>1631.01</ele>
        <time>2014-02-02T14:24:21Z</time>
      </trkpt>
      <trkpt lat="45.01896" lon="5.55172">
        <ele>1628.61</ele>
        <time>2014-02-02T14:24:23Z</time>
      </trkpt>
      <trkpt lat="45.01901" lon="5.55159">
        <ele>1625.25</ele>
        <time>2014-02-02T14:24:25Z</time>
      </trkpt>
      <trkpt lat="45.01907" lon="5.55149">
        <ele>1621.88</ele>
        <time>2014-02-02T14:24:27Z</time>
      </trkpt>
      <trkpt lat="45.01908" lon="5.55143">
        <ele>1619.48</ele>
        <time>2014-02-02T14:24:28Z</time>
      </trkpt>
      <trkpt lat="45.01907" lon="5.55133">
        <ele>1617.07</ele>
        <time>2014-02-02T14:24:30Z</time>
      </trkpt>
      <trkpt lat="45.0191" lon="5.55125">
        <ele>1616.59</ele>
        <time>2014-02-02T14:24:32Z</time>
      </trkpt>
      <trkpt lat="45.01912" lon="5.55121">
        <ele>1614.19</ele>
        <time>2014-02-02T14:24:33Z</time>
      </trkpt>
      <trkpt lat="45.01923" lon="5.55108">
        <ele>1608.9</ele>
        <time>2014-02-02T14:24:36Z</time>
      </trkpt>
      <trkpt lat="45.01927" lon="5.55105">
        <ele>1607.94</ele>
        <time>2014-02-02T14:24:37Z</time>
      </trkpt>
      <trkpt lat="45.01935" lon="5.55097">
        <ele>1602.17</ele>
        <time>2014-02-02T14:24:39Z</time>
      </trkpt>
      <trkpt lat="45.01939" lon="5.55094">
        <ele>1602.17</ele>
        <time>2014-02-02T14:24:40Z</time>
      </trkpt>
      <trkpt lat="45.01944" lon="5.5509">
        <ele>1598.81</ele>
        <time>2014-02-02T14:24:41Z</time>
      </trkpt>
      <trkpt lat="45.01952" lon="5.55088">
        <ele>1594.48</ele>
        <time>2014-02-02T14:24:43Z</time>
      </trkpt>
      <trkpt lat="45.01956" lon="5.55085">
        <ele>1592.08</ele>
        <time>2014-02-02T14:24:44Z</time>
      </trkpt>
      <trkpt lat="45.01965" lon="5.55082">
        <ele>1591.6</ele>
        <time>2014-02-02T14:24:46Z</time>
      </trkpt>
      <trkpt lat="45.0197" lon="5.55082">
        <ele>1587.27</ele>
        <time>2014-02-02T14:24:47Z</time>
      </trkpt>
      <trkpt lat="45.01975" lon="5.5508">
        <ele>1586.79</ele>
        <time>2014-02-02T14:24:48Z</time>
      </trkpt>
      <trkpt lat="45.01978" lon="5.55078">
        <ele>1583.43</ele>
        <time>2014-02-02T14:24:49Z</time>
      </trkpt>
      <trkpt lat="45.01982" lon="5.55085">
        <ele>1580.54</ele>
        <time>2014-02-02T14:25:13Z</time>
      </trkpt>
      <trkpt lat="45.01988" lon="5.55088">
        <ele>1581.03</ele>
        <time>2014-02-02T14:25:29Z</time>
      </trkpt>
      <trkpt lat="45.01991" lon="5.55092">
        <ele>1580.06</ele>
        <time>2014-02-02T14:25:30Z</time>
      </trkpt>
      <trkpt lat="45.01993" lon="5.55096">
        <ele>1579.1</ele>
        <time>2014-02-02T14:25:31Z</time>
      </trkpt>
      <trkpt lat="45.01996" lon="5.55101">
        <ele>1578.62</ele>
        <time>2014-02-02T14:25:32Z</time>
      </trkpt>
      <trkpt lat="45.01999" lon="5.55103">
        <ele>1577.18</ele>
        <time>2014-02-02T14:25:33Z</time>
      </trkpt>
      <trkpt lat="45.02004" lon="5.55103">
        <ele>1575.26</ele>
        <time>2014-02-02T14:25:34Z</time>
      </trkpt>
      <trkpt lat="45.02008" lon="5.55106">
        <ele>1574.3</ele>
        <time>2014-02-02T14:25:35Z</time>
      </trkpt>
      <trkpt lat="45.02011" lon="5.55112">
        <ele>1574.3</ele>
        <time>2014-02-02T14:25:36Z</time>
      </trkpt>
      <trkpt lat="45.02014" lon="5.55118">
        <ele>1571.89</ele>
        <time>2014-02-02T14:25:37Z</time>
      </trkpt>
      <trkpt lat="45.02022" lon="5.55128">
        <ele>1567.09</ele>
        <time>2014-02-02T14:25:39Z</time>
      </trkpt>
      <trkpt lat="45.02026" lon="5.55132">
        <ele>1565.64</ele>
        <time>2014-02-02T14:25:40Z</time>
      </trkpt>
      <trkpt lat="45.0203" lon="5.55137">
        <ele>1564.68</ele>
        <time>2014-02-02T14:25:41Z</time>
      </trkpt>
      <trkpt lat="45.02033" lon="5.5514">
        <ele>1563.24</ele>
        <time>2014-02-02T14:25:42Z</time>
      </trkpt>
      <trkpt lat="45.02036" lon="5.55144">
        <ele>1563.24</ele>
        <time>2014-02-02T14:25:43Z</time>
      </trkpt>
      <trkpt lat="45.0204" lon="5.55148">
        <ele>1562.28</ele>
        <time>2014-02-02T14:25:44Z</time>
      </trkpt>
      <trkpt lat="45.02044" lon="5.55149">
        <ele>1560.84</ele>
        <time>2014-02-02T14:25:45Z</time>
      </trkpt>
      <trkpt lat="45.02049" lon="5.55151">
        <ele>1558.43</ele>
        <time>2014-02-02T14:25:46Z</time>
      </trkpt>
      <trkpt lat="45.02053" lon="5.55152">
        <ele>1558.43</ele>
        <time>2014-02-02T14:25:47Z</time>
      </trkpt>
      <trkpt lat="45.02058" lon="5.55152">
        <ele>1555.07</ele>
        <time>2014-02-02T14:25:48Z</time>
      </trkpt>
      <trkpt lat="45.02064" lon="5.55154">
        <ele>1553.15</ele>
        <time>2014-02-02T14:25:49Z</time>
      </trkpt>
      <trkpt lat="45.02069" lon="5.55156">
        <ele>1552.19</ele>
        <time>2014-02-02T14:25:50Z</time>
      </trkpt>
      <trkpt lat="45.02075" lon="5.55158">
        <ele>1550.74</ele>
        <time>2014-02-02T14:25:51Z</time>
      </trkpt>
      <trkpt lat="45.0208" lon="5.5516">
        <ele>1548.82</ele>
        <time>2014-02-02T14:25:52Z</time>
      </trkpt>
      <trkpt lat="45.02084" lon="5.55162">
        <ele>1547.86</ele>
        <time>2014-02-02T14:25:53Z</time>
      </trkpt>
      <trkpt lat="45.02089" lon="5.55162">
        <ele>1546.9</ele>
        <time>2014-02-02T14:25:55Z</time>
      </trkpt>
      <trkpt lat="45.02097" lon="5.55162">
        <ele>1544.98</ele>
        <time>2014-02-02T14:25:58Z</time>
      </trkpt>
      <trkpt lat="45.02113" lon="5.55164">
        <ele>1544.01</ele>
        <time>2014-02-02T14:26:03Z</time>
      </trkpt>
      <trkpt lat="45.02118" lon="5.55165">
        <ele>1543.53</ele>
        <time>2014-02-02T14:26:04Z</time>
      </trkpt>
      <trkpt lat="45.02123" lon="5.55166">
        <ele>1543.53</ele>
        <time>2014-02-02T14:26:05Z</time>
      </trkpt>
      <trkpt lat="45.02129" lon="5.55169">
        <ele>1542.09</ele>
        <time>2014-02-02T14:26:06Z</time>
      </trkpt>
      <trkpt lat="45.02135" lon="5.55172">
        <ele>1541.61</ele>
        <time>2014-02-02T14:26:07Z</time>
      </trkpt>
      <trkpt lat="45.02142" lon="5.55176">
        <ele>1541.13</ele>
        <time>2014-02-02T14:26:08Z</time>
      </trkpt>
      <trkpt lat="45.02149" lon="5.55182">
        <ele>1540.65</ele>
        <time>2014-02-02T14:26:09Z</time>
      </trkpt>
      <trkpt lat="45.02163" lon="5.55193">
        <ele>1538.73</ele>
        <time>2014-02-02T14:26:11Z</time>
      </trkpt>
      <trkpt lat="45.02182" lon="5.55208">
        <ele>1535.36</ele>
        <time>2014-02-02T14:26:14Z</time>
      </trkpt>
      <trkpt lat="45.02188" lon="5.55212">
        <ele>1535.84</ele>
        <time>2014-02-02T14:26:15Z</time>
      </trkpt>
      <trkpt lat="45.02193" lon="5.55215">
        <ele>1534.4</ele>
        <time>2014-02-02T14:26:16Z</time>
      </trkpt>
      <trkpt lat="45.02197" lon="5.55218">
        <ele>1535.36</ele>
        <time>2014-02-02T14:26:17Z</time>
      </trkpt>
      <trkpt lat="45.02201" lon="5.55219">
        <ele>1533.92</ele>
        <time>2014-02-02T14:26:18Z</time>
      </trkpt>
      <trkpt lat="45.02205" lon="5.55219">
        <ele>1532.96</ele>
        <time>2014-02-02T14:26:19Z</time>
      </trkpt>
      <trkpt lat="45.0221" lon="5.5522">
        <ele>1532.96</ele>
        <time>2014-02-02T14:26:20Z</time>
      </trkpt>
      <trkpt lat="45.02214" lon="5.5522">
        <ele>1532.48</ele>
        <time>2014-02-02T14:26:21Z</time>
      </trkpt>
      <trkpt lat="45.02218" lon="5.55218">
        <ele>1531.52</ele>
        <time>2014-02-02T14:26:22Z</time>
      </trkpt>
      <trkpt lat="45.02223" lon="5.55216">
        <ele>1529.59</ele>
        <time>2014-02-02T14:26:23Z</time>
      </trkpt>
      <trkpt lat="45.02228" lon="5.55217">
        <ele>1530.08</ele>
        <time>2014-02-02T14:26:24Z</time>
      </trkpt>
      <trkpt lat="45.02233" lon="5.55217">
        <ele>1529.11</ele>
        <time>2014-02-02T14:26:25Z</time>
      </trkpt>
      <trkpt lat="45.02247" lon="5.55214">
        <ele>1525.27</ele>
        <time>2014-02-02T14:26:28Z</time>
      </trkpt>
      <trkpt lat="45.02251" lon="5.55214">
        <ele>1525.27</ele>
        <time>2014-02-02T14:26:29Z</time>
      </trkpt>
      <trkpt lat="45.02257" lon="5.55215">
        <ele>1523.83</ele>
        <time>2014-02-02T14:26:30Z</time>
      </trkpt>
      <trkpt lat="45.02266" lon="5.5521">
        <ele>1522.39</ele>
        <time>2014-02-02T14:26:32Z</time>
      </trkpt>
      <trkpt lat="45.02288" lon="5.55195">
        <ele>1518.54</ele>
        <time>2014-02-02T14:26:38Z</time>
      </trkpt>
      <trkpt lat="45.02294" lon="5.55199">
        <ele>1518.54</ele>
        <time>2014-02-02T14:26:53Z</time>
      </trkpt>
      <trkpt lat="45.02301" lon="5.55199">
        <ele>1518.54</ele>
        <time>2014-02-02T14:28:00Z</time>
      </trkpt>
      <trkpt lat="45.02305" lon="5.552">
        <ele>1518.06</ele>
        <time>2014-02-02T14:28:12Z</time>
      </trkpt>
      <trkpt lat="45.0231" lon="5.55202">
        <ele>1516.14</ele>
        <time>2014-02-02T14:28:14Z</time>
      </trkpt>
      <trkpt lat="45.02342" lon="5.55166">
        <ele>1500.76</ele>
        <time>2014-02-02T14:28:25Z</time>
      </trkpt>
      <trkpt lat="45.02346" lon="5.55166">
        <ele>1501.24</ele>
        <time>2014-02-02T14:28:26Z</time>
      </trkpt>
      <trkpt lat="45.0235" lon="5.55165">
        <ele>1498.83</ele>
        <time>2014-02-02T14:28:27Z</time>
      </trkpt>
      <trkpt lat="45.02354" lon="5.55162">
        <ele>1497.39</ele>
        <time>2014-02-02T14:28:28Z</time>
      </trkpt>
      <trkpt lat="45.0237" lon="5.55151">
        <ele>1490.18</ele>
        <time>2014-02-02T14:28:32Z</time>
      </trkpt>
      <trkpt lat="45.02374" lon="5.55146">
        <ele>1487.78</ele>
        <time>2014-02-02T14:28:33Z</time>
      </trkpt>
      <trkpt lat="45.02378" lon="5.55144">
        <ele>1485.85</ele>
        <time>2014-02-02T14:28:34Z</time>
      </trkpt>
      <trkpt lat="45.02383" lon="5.55148">
        <ele>1482.49</ele>
        <time>2014-02-02T14:28:36Z</time>
      </trkpt>
      <trkpt lat="45.02388" lon="5.55164">
        <ele>1481.53</ele>
        <time>2014-02-02T14:29:08Z</time>
      </trkpt>
      <trkpt lat="45.02391" lon="5.55161">
        <ele>1481.05</ele>
        <time>2014-02-02T14:29:09Z</time>
      </trkpt>
      <trkpt lat="45.02404" lon="5.55156">
        <ele>1477.2</ele>
        <time>2014-02-02T14:29:13Z</time>
      </trkpt>
      <trkpt lat="45.02411" lon="5.5515">
        <ele>1474.32</ele>
        <time>2014-02-02T14:29:15Z</time>
      </trkpt>
      <trkpt lat="45.02432" lon="5.55139">
        <ele>1465.67</ele>
        <time>2014-02-02T14:29:20Z</time>
      </trkpt>
      <trkpt lat="45.02435" lon="5.5514">
        <ele>1465.19</ele>
        <time>2014-02-02T14:29:21Z</time>
      </trkpt>
      <trkpt lat="45.02438" lon="5.55142">
        <ele>1464.23</ele>
        <time>2014-02-02T14:29:22Z</time>
      </trkpt>
      <trkpt lat="45.02441" lon="5.55145">
        <ele>1462.78</ele>
        <time>2014-02-02T14:29:23Z</time>
      </trkpt>
      <trkpt lat="45.02445" lon="5.55146">
        <ele>1462.3</ele>
        <time>2014-02-02T14:29:24Z</time>
      </trkpt>
      <trkpt lat="45.02448" lon="5.55146">
        <ele>1460.38</ele>
        <time>2014-02-02T14:29:25Z</time>
      </trkpt>
      <trkpt lat="45.02452" lon="5.55144">
        <ele>1458.46</ele>
        <time>2014-02-02T14:29:26Z</time>
      </trkpt>
      <trkpt lat="45.02455" lon="5.55142">
        <ele>1457.02</ele>
        <time>2014-02-02T14:29:27Z</time>
      </trkpt>
      <trkpt lat="45.02458" lon="5.5514">
        <ele>1456.05</ele>
        <time>2014-02-02T14:29:28Z</time>
      </trkpt>
      <trkpt lat="45.02462" lon="5.55137">
        <ele>1453.65</ele>
        <time>2014-02-02T14:29:29Z</time>
      </trkpt>
      <trkpt lat="45.02466" lon="5.55136">
        <ele>1450.77</ele>
        <time>2014-02-02T14:29:30Z</time>
      </trkpt>
      <trkpt lat="45.0247" lon="5.55134">
        <ele>1450.29</ele>
        <time>2014-02-02T14:29:31Z</time>
      </trkpt>
      <trkpt lat="45.02475" lon="5.55131">
        <ele>1448.36</ele>
        <time>2014-02-02T14:29:32Z</time>
      </trkpt>
      <trkpt lat="45.02485" lon="5.55118">
        <ele>1442.11</ele>
        <time>2014-02-02T14:29:35Z</time>
      </trkpt>
      <trkpt lat="45.02489" lon="5.55115">
        <ele>1440.19</ele>
        <time>2014-02-02T14:29:36Z</time>
      </trkpt>
      <trkpt lat="45.02492" lon="5.55112">
        <ele>1439.23</ele>
        <time>2014-02-02T14:29:37Z</time>
      </trkpt>
      <trkpt lat="45.02496" lon="5.55107">
        <ele>1436.35</ele>
        <time>2014-02-02T14:29:38Z</time>
      </trkpt>
      <trkpt lat="45.02499" lon="5.55104">
        <ele>1434.42</ele>
        <time>2014-02-02T14:29:39Z</time>
      </trkpt>
      <trkpt lat="45.02501" lon="5.55102">
        <ele>1434.42</ele>
        <time>2014-02-02T14:29:40Z</time>
      </trkpt>
      <trkpt lat="45.02504" lon="5.55099">
        <ele>1431.54</ele>
        <time>2014-02-02T14:29:41Z</time>
      </trkpt>
      <trkpt lat="45.02508" lon="5.55097">
        <ele>1430.1</ele>
        <time>2014-02-02T14:29:42Z</time>
      </trkpt>
      <trkpt lat="45.02513" lon="5.55096">
        <ele>1428.18</ele>
        <time>2014-02-02T14:29:43Z</time>
      </trkpt>
      <trkpt lat="45.02517" lon="5.55095">
        <ele>1425.77</ele>
        <time>2014-02-02T14:29:44Z</time>
      </trkpt>
      <trkpt lat="45.0252" lon="5.55097">
        <ele>1424.81</ele>
        <time>2014-02-02T14:29:45Z</time>
      </trkpt>
      <trkpt lat="45.02527" lon="5.55106">
        <ele>1421.93</ele>
        <time>2014-02-02T14:29:49Z</time>
      </trkpt>
      <trkpt lat="45.02531" lon="5.55128">
        <ele>1422.89</ele>
        <time>2014-02-02T14:30:10Z</time>
      </trkpt>
      <trkpt lat="45.02534" lon="5.55117">
        <ele>1423.85</ele>
        <time>2014-02-02T14:30:59Z</time>
      </trkpt>
      <trkpt lat="45.02538" lon="5.55116">
        <ele>1422.41</ele>
        <time>2014-02-02T14:31:01Z</time>
      </trkpt>
      <trkpt lat="45.02544" lon="5.55111">
        <ele>1420.97</ele>
        <time>2014-02-02T14:31:03Z</time>
      </trkpt>
      <trkpt lat="45.02547" lon="5.5511">
        <ele>1420</ele>
        <time>2014-02-02T14:31:04Z</time>
      </trkpt>
      <trkpt lat="45.02551" lon="5.55109">
        <ele>1418.56</ele>
        <time>2014-02-02T14:31:05Z</time>
      </trkpt>
      <trkpt lat="45.02554" lon="5.55107">
        <ele>1416.64</ele>
        <time>2014-02-02T14:31:06Z</time>
      </trkpt>
      <trkpt lat="45.02558" lon="5.55106">
        <ele>1414.72</ele>
        <time>2014-02-02T14:31:07Z</time>
      </trkpt>
      <trkpt lat="45.02563" lon="5.55105">
        <ele>1414.24</ele>
        <time>2014-02-02T14:31:08Z</time>
      </trkpt>
      <trkpt lat="45.02572" lon="5.55103">
        <ele>1410.87</ele>
        <time>2014-02-02T14:31:10Z</time>
      </trkpt>
      <trkpt lat="45.02576" lon="5.55104">
        <ele>1410.39</ele>
        <time>2014-02-02T14:31:11Z</time>
      </trkpt>
      <trkpt lat="45.02581" lon="5.55102">
        <ele>1407.03</ele>
        <time>2014-02-02T14:31:12Z</time>
      </trkpt>
      <trkpt lat="45.02601" lon="5.55095">
        <ele>1400.78</ele>
        <time>2014-02-02T14:31:16Z</time>
      </trkpt>
      <trkpt lat="45.02634" lon="5.55094">
        <ele>1389.24</ele>
        <time>2014-02-02T14:31:23Z</time>
      </trkpt>
      <trkpt lat="45.02642" lon="5.5509">
        <ele>1387.8</ele>
        <time>2014-02-02T14:31:24Z</time>
      </trkpt>
      <trkpt lat="45.0265" lon="5.55085">
        <ele>1386.36</ele>
        <time>2014-02-02T14:31:25Z</time>
      </trkpt>
      <trkpt lat="45.02658" lon="5.5508">
        <ele>1384.92</ele>
        <time>2014-02-02T14:31:26Z</time>
      </trkpt>
      <trkpt lat="45.02666" lon="5.55076">
        <ele>1383.47</ele>
        <time>2014-02-02T14:31:27Z</time>
      </trkpt>
      <trkpt lat="45.02673" lon="5.55074">
        <ele>1381.55</ele>
        <time>2014-02-02T14:31:28Z</time>
      </trkpt>
      <trkpt lat="45.02678" lon="5.55075">
        <ele>1381.55</ele>
        <time>2014-02-02T14:31:29Z</time>
      </trkpt>
      <trkpt lat="45.02681" lon="5.55078">
        <ele>1380.11</ele>
        <time>2014-02-02T14:31:31Z</time>
      </trkpt>
      <trkpt lat="45.02691" lon="5.551">
        <ele>1381.55</ele>
        <time>2014-02-02T14:31:52Z</time>
      </trkpt>
      <trkpt lat="45.02692" lon="5.55096">
        <ele>1381.55</ele>
        <time>2014-02-02T14:32:52Z</time>
      </trkpt>
      <trkpt lat="45.02707" lon="5.55105">
        <ele>1379.15</ele>
        <time>2014-02-02T14:32:59Z</time>
      </trkpt>
      <trkpt lat="45.02711" lon="5.55108">
        <ele>1379.15</ele>
        <time>2014-02-02T14:33:00Z</time>
      </trkpt>
      <trkpt lat="45.0272" lon="5.55117">
        <ele>1378.67</ele>
        <time>2014-02-02T14:33:02Z</time>
      </trkpt>
      <trkpt lat="45.02724" lon="5.55121">
        <ele>1377.23</ele>
        <time>2014-02-02T14:33:03Z</time>
      </trkpt>
      <trkpt lat="45.0273" lon="5.55126">
        <ele>1376.75</ele>
        <time>2014-02-02T14:33:04Z</time>
      </trkpt>
      <trkpt lat="45.02751" lon="5.55144">
        <ele>1373.86</ele>
        <time>2014-02-02T14:33:08Z</time>
      </trkpt>
      <trkpt lat="45.02757" lon="5.55146">
        <ele>1373.38</ele>
        <time>2014-02-02T14:33:09Z</time>
      </trkpt>
      <trkpt lat="45.02768" lon="5.5515">
        <ele>1372.42</ele>
        <time>2014-02-02T14:33:11Z</time>
      </trkpt>
      <trkpt lat="45.02786" lon="5.55157">
        <ele>1370.5</ele>
        <time>2014-02-02T14:33:14Z</time>
      </trkpt>
      <trkpt lat="45.02792" lon="5.55161">
        <ele>1369.54</ele>
        <time>2014-02-02T14:33:15Z</time>
      </trkpt>
      <trkpt lat="45.02797" lon="5.55166">
        <ele>1369.05</ele>
        <time>2014-02-02T14:33:16Z</time>
      </trkpt>
      <trkpt lat="45.02814" lon="5.55181">
        <ele>1367.13</ele>
        <time>2014-02-02T14:33:19Z</time>
      </trkpt>
      <trkpt lat="45.02843" lon="5.55201">
        <ele>1364.25</ele>
        <time>2014-02-02T14:33:24Z</time>
      </trkpt>
      <trkpt lat="45.02866" lon="5.55214">
        <ele>1362.81</ele>
        <time>2014-02-02T14:33:28Z</time>
      </trkpt>
      <trkpt lat="45.0287" lon="5.55218">
        <ele>1361.36</ele>
        <time>2014-02-02T14:33:29Z</time>
      </trkpt>
      <trkpt lat="45.02899" lon="5.55245">
        <ele>1358.48</ele>
        <time>2014-02-02T14:33:35Z</time>
      </trkpt>
      <trkpt lat="45.02905" lon="5.55248">
        <ele>1358.96</ele>
        <time>2014-02-02T14:33:36Z</time>
      </trkpt>
      <trkpt lat="45.02935" lon="5.55265">
        <ele>1356.08</ele>
        <time>2014-02-02T14:33:41Z</time>
      </trkpt>
      <trkpt lat="45.02947" lon="5.55272">
        <ele>1354.63</ele>
        <time>2014-02-02T14:33:43Z</time>
      </trkpt>
      <trkpt lat="45.02952" lon="5.55276">
        <ele>1354.15</ele>
        <time>2014-02-02T14:33:44Z</time>
      </trkpt>
      <trkpt lat="45.02957" lon="5.55281">
        <ele>1353.67</ele>
        <time>2014-02-02T14:33:45Z</time>
      </trkpt>
      <trkpt lat="45.02977" lon="5.55305">
        <ele>1351.27</ele>
        <time>2014-02-02T14:33:49Z</time>
      </trkpt>
      <trkpt lat="45.03005" lon="5.55343">
        <ele>1347.91</ele>
        <time>2014-02-02T14:33:55Z</time>
      </trkpt>
      <trkpt lat="45.03031" lon="5.55385">
        <ele>1344.54</ele>
        <time>2014-02-02T14:34:02Z</time>
      </trkpt>
      <trkpt lat="45.03039" lon="5.55396">
        <ele>1343.58</ele>
        <time>2014-02-02T14:34:04Z</time>
      </trkpt>
      <trkpt lat="45.03042" lon="5.55401">
        <ele>1343.58</ele>
        <time>2014-02-02T14:34:05Z</time>
      </trkpt>
      <trkpt lat="45.03044" lon="5.55405">
        <ele>1342.62</ele>
        <time>2014-02-02T14:34:06Z</time>
      </trkpt>
      <trkpt lat="45.03047" lon="5.55407">
        <ele>1342.14</ele>
        <time>2014-02-02T14:34:07Z</time>
      </trkpt>
      <trkpt lat="45.03052" lon="5.55411">
        <ele>1341.66</ele>
        <time>2014-02-02T14:34:09Z</time>
      </trkpt>
      <trkpt lat="45.03056" lon="5.55415">
        <ele>1341.66</ele>
        <time>2014-02-02T14:34:11Z</time>
      </trkpt>
      <trkpt lat="45.0306" lon="5.5542">
        <ele>1341.18</ele>
        <time>2014-02-02T14:34:13Z</time>
      </trkpt>
      <trkpt lat="45.03064" lon="5.55425">
        <ele>1341.18</ele>
        <time>2014-02-02T14:34:15Z</time>
      </trkpt>
      <trkpt lat="45.03066" lon="5.55432">
        <ele>1340.7</ele>
        <time>2014-02-02T14:34:17Z</time>
      </trkpt>
      <trkpt lat="45.03072" lon="5.55448">
        <ele>1339.73</ele>
        <time>2014-02-02T14:34:21Z</time>
      </trkpt>
      <trkpt lat="45.03097" lon="5.55492">
        <ele>1335.89</ele>
        <time>2014-02-02T14:34:32Z</time>
      </trkpt>
      <trkpt lat="45.03115" lon="5.55516">
        <ele>1334.93</ele>
        <time>2014-02-02T14:34:39Z</time>
      </trkpt>
      <trkpt lat="45.03131" lon="5.55554">
        <ele>1331.56</ele>
        <time>2014-02-02T14:34:46Z</time>
      </trkpt>
      <trkpt lat="45.03134" lon="5.55559">
        <ele>1331.56</ele>
        <time>2014-02-02T14:34:47Z</time>
      </trkpt>
      <trkpt lat="45.03137" lon="5.55563">
        <ele>1331.08</ele>
        <time>2014-02-02T14:34:48Z</time>
      </trkpt>
      <trkpt lat="45.03164" lon="5.55596">
        <ele>1327.72</ele>
        <time>2014-02-02T14:34:57Z</time>
      </trkpt>
      <trkpt lat="45.03184" lon="5.55615">
        <ele>1325.8</ele>
        <time>2014-02-02T14:35:02Z</time>
      </trkpt>
      <trkpt lat="45.0321" lon="5.55649">
        <ele>1323.39</ele>
        <time>2014-02-02T14:35:09Z</time>
      </trkpt>
      <trkpt lat="45.03241" lon="5.55684">
        <ele>1319.07</ele>
        <time>2014-02-02T14:35:16Z</time>
      </trkpt>
      <trkpt lat="45.03262" lon="5.55713">
        <ele>1316.66</ele>
        <time>2014-02-02T14:35:21Z</time>
      </trkpt>
      <trkpt lat="45.03293" lon="5.5575">
        <ele>1313.3</ele>
        <time>2014-02-02T14:35:28Z</time>
      </trkpt>
      <trkpt lat="45.03302" lon="5.5576">
        <ele>1312.82</ele>
        <time>2014-02-02T14:35:30Z</time>
      </trkpt>
      <trkpt lat="45.03316" lon="5.55778">
        <ele>1310.9</ele>
        <time>2014-02-02T14:35:33Z</time>
      </trkpt>
      <trkpt lat="45.03334" lon="5.55803">
        <ele>1308.97</ele>
        <time>2014-02-02T14:35:37Z</time>
      </trkpt>
      <trkpt lat="45.03368" lon="5.5584">
        <ele>1306.09</ele>
        <time>2014-02-02T14:35:45Z</time>
      </trkpt>
      <trkpt lat="45.03405" lon="5.55874">
        <ele>1302.24</ele>
        <time>2014-02-02T14:35:53Z</time>
      </trkpt>
      <trkpt lat="45.03411" lon="5.55879">
        <ele>1301.76</ele>
        <time>2014-02-02T14:35:54Z</time>
      </trkpt>
      <trkpt lat="45.03416" lon="5.55883">
        <ele>1301.28</ele>
        <time>2014-02-02T14:35:55Z</time>
      </trkpt>
      <trkpt lat="45.03454" lon="5.55901">
        <ele>1298.4</ele>
        <time>2014-02-02T14:36:02Z</time>
      </trkpt>
      <trkpt lat="45.03496" lon="5.55913">
        <ele>1295.03</ele>
        <time>2014-02-02T14:36:11Z</time>
      </trkpt>
      <trkpt lat="45.03501" lon="5.55913">
        <ele>1295.03</ele>
        <time>2014-02-02T14:36:12Z</time>
      </trkpt>
      <trkpt lat="45.0351" lon="5.55911">
        <ele>1295.03</ele>
        <time>2014-02-02T14:36:14Z</time>
      </trkpt>
      <trkpt lat="45.03531" lon="5.55902">
        <ele>1292.63</ele>
        <time>2014-02-02T14:36:19Z</time>
      </trkpt>
      <trkpt lat="45.03538" lon="5.55895">
        <ele>1292.15</ele>
        <time>2014-02-02T14:36:21Z</time>
      </trkpt>
      <trkpt lat="45.03541" lon="5.55891">
        <ele>1292.15</ele>
        <time>2014-02-02T14:36:22Z</time>
      </trkpt>
      <trkpt lat="45.03549" lon="5.55868">
        <ele>1290.71</ele>
        <time>2014-02-02T14:36:27Z</time>
      </trkpt>
      <trkpt lat="45.0355" lon="5.55863">
        <ele>1290.71</ele>
        <time>2014-02-02T14:36:28Z</time>
      </trkpt>
      <trkpt lat="45.03553" lon="5.55851">
        <ele>1290.23</ele>
        <time>2014-02-02T14:36:30Z</time>
      </trkpt>
      <trkpt lat="45.03555" lon="5.55825">
        <ele>1288.78</ele>
        <time>2014-02-02T14:36:34Z</time>
      </trkpt>
      <trkpt lat="45.03557" lon="5.55818">
        <ele>1288.78</ele>
        <time>2014-02-02T14:36:35Z</time>
      </trkpt>
      <trkpt lat="45.03559" lon="5.55812">
        <ele>1287.82</ele>
        <time>2014-02-02T14:36:36Z</time>
      </trkpt>
      <trkpt lat="45.03567" lon="5.55794">
        <ele>1286.38</ele>
        <time>2014-02-02T14:36:39Z</time>
      </trkpt>
      <trkpt lat="45.03582" lon="5.5577">
        <ele>1284.46</ele>
        <time>2014-02-02T14:36:43Z</time>
      </trkpt>
      <trkpt lat="45.03599" lon="5.55743">
        <ele>1282.06</ele>
        <time>2014-02-02T14:36:48Z</time>
      </trkpt>
      <trkpt lat="45.03603" lon="5.55738">
        <ele>1281.57</ele>
        <time>2014-02-02T14:36:49Z</time>
      </trkpt>
      <trkpt lat="45.0361" lon="5.55734">
        <ele>1281.09</ele>
        <time>2014-02-02T14:36:50Z</time>
      </trkpt>
      <trkpt lat="45.03617" lon="5.55731">
        <ele>1281.09</ele>
        <time>2014-02-02T14:36:51Z</time>
      </trkpt>
      <trkpt lat="45.03624" lon="5.55728">
        <ele>1281.09</ele>
        <time>2014-02-02T14:36:52Z</time>
      </trkpt>
      <trkpt lat="45.0363" lon="5.55726">
        <ele>1280.13</ele>
        <time>2014-02-02T14:36:53Z</time>
      </trkpt>
      <trkpt lat="45.03636" lon="5.55725">
        <ele>1279.65</ele>
        <time>2014-02-02T14:36:54Z</time>
      </trkpt>
      <trkpt lat="45.03641" lon="5.55725">
        <ele>1279.65</ele>
        <time>2014-02-02T14:36:55Z</time>
      </trkpt>
      <trkpt lat="45.03647" lon="5.55727">
        <ele>1279.17</ele>
        <time>2014-02-02T14:36:56Z</time>
      </trkpt>
      <trkpt lat="45.03652" lon="5.55728">
        <ele>1279.17</ele>
        <time>2014-02-02T14:36:57Z</time>
      </trkpt>
      <trkpt lat="45.03656" lon="5.55729">
        <ele>1277.73</ele>
        <time>2014-02-02T14:36:58Z</time>
      </trkpt>
      <trkpt lat="45.03659" lon="5.55728">
        <ele>1278.21</ele>
        <time>2014-02-02T14:36:59Z</time>
      </trkpt>
      <trkpt lat="45.03664" lon="5.55727">
        <ele>1277.25</ele>
        <time>2014-02-02T14:37:00Z</time>
      </trkpt>
      <trkpt lat="45.0367" lon="5.55727">
        <ele>1277.73</ele>
        <time>2014-02-02T14:37:01Z</time>
      </trkpt>
      <trkpt lat="45.03676" lon="5.55728">
        <ele>1276.77</ele>
        <time>2014-02-02T14:37:02Z</time>
      </trkpt>
      <trkpt lat="45.03682" lon="5.55728">
        <ele>1276.29</ele>
        <time>2014-02-02T14:37:03Z</time>
      </trkpt>
      <trkpt lat="45.03689" lon="5.55728">
        <ele>1275.81</ele>
        <time>2014-02-02T14:37:04Z</time>
      </trkpt>
      <trkpt lat="45.03696" lon="5.55728">
        <ele>1274.85</ele>
        <time>2014-02-02T14:37:05Z</time>
      </trkpt>
      <trkpt lat="45.03703" lon="5.55729">
        <ele>1274.36</ele>
        <time>2014-02-02T14:37:06Z</time>
      </trkpt>
      <trkpt lat="45.03707" lon="5.55731">
        <ele>1273.88</ele>
        <time>2014-02-02T14:37:07Z</time>
      </trkpt>
      <trkpt lat="45.03709" lon="5.55734">
        <ele>1272.92</ele>
        <time>2014-02-02T14:37:08Z</time>
      </trkpt>
      <trkpt lat="45.03721" lon="5.55762">
        <ele>1272.92</ele>
        <time>2014-02-02T14:37:22Z</time>
      </trkpt>
      <trkpt lat="45.03725" lon="5.55753">
        <ele>1272.44</ele>
        <time>2014-02-02T14:37:39Z</time>
      </trkpt>
      <trkpt lat="45.0373" lon="5.55751">
        <ele>1271.96</ele>
        <time>2014-02-02T14:37:47Z</time>
      </trkpt>
      <trkpt lat="45.03742" lon="5.55743">
        <ele>1270.04</ele>
        <time>2014-02-02T14:37:51Z</time>
      </trkpt>
      <trkpt lat="45.03746" lon="5.55737">
        <ele>1269.56</ele>
        <time>2014-02-02T14:37:52Z</time>
      </trkpt>
      <trkpt lat="45.03751" lon="5.55732">
        <ele>1267.64</ele>
        <time>2014-02-02T14:37:53Z</time>
      </trkpt>
      <trkpt lat="45.03757" lon="5.55727">
        <ele>1267.64</ele>
        <time>2014-02-02T14:37:54Z</time>
      </trkpt>
      <trkpt lat="45.03763" lon="5.55723">
        <ele>1265.71</ele>
        <time>2014-02-02T14:37:55Z</time>
      </trkpt>
      <trkpt lat="45.03769" lon="5.55718">
        <ele>1264.75</ele>
        <time>2014-02-02T14:37:56Z</time>
      </trkpt>
      <trkpt lat="45.03776" lon="5.55712">
        <ele>1264.27</ele>
        <time>2014-02-02T14:37:57Z</time>
      </trkpt>
      <trkpt lat="45.03782" lon="5.55706">
        <ele>1262.83</ele>
        <time>2014-02-02T14:37:58Z</time>
      </trkpt>
      <trkpt lat="45.03789" lon="5.55701">
        <ele>1261.39</ele>
        <time>2014-02-02T14:37:59Z</time>
      </trkpt>
      <trkpt lat="45.03796" lon="5.55698">
        <ele>1261.39</ele>
        <time>2014-02-02T14:38:00Z</time>
      </trkpt>
      <trkpt lat="45.03802" lon="5.55698">
        <ele>1260.91</ele>
        <time>2014-02-02T14:38:01Z</time>
      </trkpt>
      <trkpt lat="45.03808" lon="5.55698">
        <ele>1260.43</ele>
        <time>2014-02-02T14:38:02Z</time>
      </trkpt>
      <trkpt lat="45.03814" lon="5.55699">
        <ele>1258.98</ele>
        <time>2014-02-02T14:38:03Z</time>
      </trkpt>
      <trkpt lat="45.0382" lon="5.55701">
        <ele>1258.98</ele>
        <time>2014-02-02T14:38:04Z</time>
      </trkpt>
      <trkpt lat="45.03826" lon="5.55704">
        <ele>1258.98</ele>
        <time>2014-02-02T14:38:05Z</time>
      </trkpt>
      <trkpt lat="45.03858" lon="5.55718">
        <ele>1255.62</ele>
        <time>2014-02-02T14:38:11Z</time>
      </trkpt>
      <trkpt lat="45.03883" lon="5.55719">
        <ele>1253.7</ele>
        <time>2014-02-02T14:38:15Z</time>
      </trkpt>
      <trkpt lat="45.03895" lon="5.55718">
        <ele>1252.25</ele>
        <time>2014-02-02T14:38:17Z</time>
      </trkpt>
      <trkpt lat="45.0392" lon="5.55716">
        <ele>1250.81</ele>
        <time>2014-02-02T14:38:21Z</time>
      </trkpt>
      <trkpt lat="45.03926" lon="5.55715">
        <ele>1250.33</ele>
        <time>2014-02-02T14:38:22Z</time>
      </trkpt>
      <trkpt lat="45.03931" lon="5.55714">
        <ele>1248.41</ele>
        <time>2014-02-02T14:38:23Z</time>
      </trkpt>
      <trkpt lat="45.03935" lon="5.55711">
        <ele>1247.93</ele>
        <time>2014-02-02T14:38:24Z</time>
      </trkpt>
      <trkpt lat="45.0394" lon="5.55705">
        <ele>1247.45</ele>
        <time>2014-02-02T14:38:25Z</time>
      </trkpt>
      <trkpt lat="45.03945" lon="5.55703">
        <ele>1246.97</ele>
        <time>2014-02-02T14:38:26Z</time>
      </trkpt>
      <trkpt lat="45.03971" lon="5.55693">
        <ele>1243.6</ele>
        <time>2014-02-02T14:38:31Z</time>
      </trkpt>
      <trkpt lat="45.03994" lon="5.55682">
        <ele>1240.72</ele>
        <time>2014-02-02T14:38:35Z</time>
      </trkpt>
      <trkpt lat="45.04017" lon="5.55669">
        <ele>1233.51</ele>
        <time>2014-02-02T14:38:38Z</time>
      </trkpt>
      <trkpt lat="45.04025" lon="5.55664">
        <ele>1233.99</ele>
        <time>2014-02-02T14:38:39Z</time>
      </trkpt>
      <trkpt lat="45.0406" lon="5.55655">
        <ele>1223.9</ele>
        <time>2014-02-02T14:38:43Z</time>
      </trkpt>
      <trkpt lat="45.04077" lon="5.55661">
        <ele>1219.57</ele>
        <time>2014-02-02T14:38:45Z</time>
      </trkpt>
      <trkpt lat="45.04086" lon="5.55666">
        <ele>1218.13</ele>
        <time>2014-02-02T14:38:46Z</time>
      </trkpt>
      <trkpt lat="45.04135" lon="5.55701">
        <ele>1211.4</ele>
        <time>2014-02-02T14:38:52Z</time>
      </trkpt>
      <trkpt lat="45.04143" lon="5.55705">
        <ele>1210.44</ele>
        <time>2014-02-02T14:38:53Z</time>
      </trkpt>
      <trkpt lat="45.04166" lon="5.55708">
        <ele>1206.11</ele>
        <time>2014-02-02T14:38:56Z</time>
      </trkpt>
      <trkpt lat="45.0419" lon="5.55709">
        <ele>1201.79</ele>
        <time>2014-02-02T14:38:59Z</time>
      </trkpt>
      <trkpt lat="45.04199" lon="5.5571">
        <ele>1201.79</ele>
        <time>2014-02-02T14:39:00Z</time>
      </trkpt>
      <trkpt lat="45.04208" lon="5.55711">
        <ele>1197.94</ele>
        <time>2014-02-02T14:39:01Z</time>
      </trkpt>
      <trkpt lat="45.04216" lon="5.55713">
        <ele>1196.5</ele>
        <time>2014-02-02T14:39:02Z</time>
      </trkpt>
      <trkpt lat="45.04233" lon="5.55719">
        <ele>1191.21</ele>
        <time>2014-02-02T14:39:04Z</time>
      </trkpt>
      <trkpt lat="45.04251" lon="5.55723">
        <ele>1188.33</ele>
        <time>2014-02-02T14:39:06Z</time>
      </trkpt>
      <trkpt lat="45.04267" lon="5.55731">
        <ele>1186.88</ele>
        <time>2014-02-02T14:39:08Z</time>
      </trkpt>
      <trkpt lat="45.04296" lon="5.55746">
        <ele>1182.08</ele>
        <time>2014-02-02T14:39:12Z</time>
      </trkpt>
      <trkpt lat="45.04303" lon="5.5575">
        <ele>1181.12</ele>
        <time>2014-02-02T14:39:13Z</time>
      </trkpt>
      <trkpt lat="45.0431" lon="5.55758">
        <ele>1179.67</ele>
        <time>2014-02-02T14:39:14Z</time>
      </trkpt>
      <trkpt lat="45.04315" lon="5.55767">
        <ele>1177.75</ele>
        <time>2014-02-02T14:39:15Z</time>
      </trkpt>
      <trkpt lat="45.0432" lon="5.55777">
        <ele>1176.31</ele>
        <time>2014-02-02T14:39:16Z</time>
      </trkpt>
      <trkpt lat="45.04324" lon="5.55788">
        <ele>1175.35</ele>
        <time>2014-02-02T14:39:17Z</time>
      </trkpt>
      <trkpt lat="45.04327" lon="5.55799">
        <ele>1175.35</ele>
        <time>2014-02-02T14:39:18Z</time>
      </trkpt>
      <trkpt lat="45.04336" lon="5.55831">
        <ele>1171.02</ele>
        <time>2014-02-02T14:39:21Z</time>
      </trkpt>
      <trkpt lat="45.04338" lon="5.55842">
        <ele>1170.06</ele>
        <time>2014-02-02T14:39:22Z</time>
      </trkpt>
      <trkpt lat="45.0434" lon="5.55852">
        <ele>1169.58</ele>
        <time>2014-02-02T14:39:23Z</time>
      </trkpt>
      <trkpt lat="45.04344" lon="5.5587">
        <ele>1168.62</ele>
        <time>2014-02-02T14:39:25Z</time>
      </trkpt>
      <trkpt lat="45.04349" lon="5.55883">
        <ele>1167.18</ele>
        <time>2014-02-02T14:39:28Z</time>
      </trkpt>
      <trkpt lat="45.04349" lon="5.55892">
        <ele>1168.62</ele>
        <time>2014-02-02T14:39:45Z</time>
      </trkpt>
      <trkpt lat="45.04352" lon="5.55895">
        <ele>1168.14</ele>
        <time>2014-02-02T14:39:48Z</time>
      </trkpt>
      <trkpt lat="45.04355" lon="5.559">
        <ele>1167.66</ele>
        <time>2014-02-02T14:39:49Z</time>
      </trkpt>
      <trkpt lat="45.04358" lon="5.55906">
        <ele>1166.7</ele>
        <time>2014-02-02T14:39:50Z</time>
      </trkpt>
      <trkpt lat="45.04372" lon="5.55932">
        <ele>1163.33</ele>
        <time>2014-02-02T14:39:54Z</time>
      </trkpt>
      <trkpt lat="45.04386" lon="5.55961">
        <ele>1161.89</ele>
        <time>2014-02-02T14:39:58Z</time>
      </trkpt>
      <trkpt lat="45.04397" lon="5.55979">
        <ele>1159.97</ele>
        <time>2014-02-02T14:40:01Z</time>
      </trkpt>
      <trkpt lat="45.04405" lon="5.5599">
        <ele>1159.01</ele>
        <time>2014-02-02T14:40:03Z</time>
      </trkpt>
      <trkpt lat="45.04415" lon="5.56005">
        <ele>1158.05</ele>
        <time>2014-02-02T14:40:06Z</time>
      </trkpt>
      <trkpt lat="45.0443" lon="5.5601">
        <ele>1158.05</ele>
        <time>2014-02-02T14:40:12Z</time>
      </trkpt>
      <trkpt lat="45.0445" lon="5.56">
        <ele>1157.56</ele>
        <time>2014-02-02T14:40:34Z</time>
      </trkpt>
      <trkpt lat="45.04454" lon="5.55998">
        <ele>1157.08</ele>
        <time>2014-02-02T14:40:38Z</time>
      </trkpt>
      <trkpt lat="45.04467" lon="5.55992">
        <ele>1157.08</ele>
        <time>2014-02-02T14:40:55Z</time>
      </trkpt>
      <trkpt lat="45.04476" lon="5.55995">
        <ele>1157.56</ele>
        <time>2014-02-02T14:42:04Z</time>
      </trkpt>
      <trkpt lat="45.04468" lon="5.56004">
        <ele>1158.05</ele>
        <time>2014-02-02T14:42:53Z</time>
      </trkpt>
      <trkpt lat="45.04453" lon="5.56003">
        <ele>1158.53</ele>
        <time>2014-02-02T14:44:38Z</time>
      </trkpt>
      <trkpt lat="45.04451" lon="5.56012">
        <ele>1157.56</ele>
        <time>2014-02-02T14:44:56Z</time>
      </trkpt>
      <trkpt lat="45.04447" lon="5.56004">
        <ele>1159.49</ele>
        <time>2014-02-02T14:45:17Z</time>
      </trkpt>
      <trkpt lat="45.0442" lon="5.56013">
        <ele>1163.33</ele>
        <time>2014-02-02T14:45:22Z</time>
      </trkpt>
      <trkpt lat="45.04409" lon="5.56019">
        <ele>1167.66</ele>
        <time>2014-02-02T14:45:24Z</time>
      </trkpt>
      <trkpt lat="45.04397" lon="5.56027">
        <ele>1174.87</ele>
        <time>2014-02-02T14:45:27Z</time>
      </trkpt>
      <trkpt lat="45.04375" lon="5.56039">
        <ele>1183.04</ele>
        <time>2014-02-02T14:45:32Z</time>
      </trkpt>
      <trkpt lat="45.04367" lon="5.56045">
        <ele>1186.88</ele>
        <time>2014-02-02T14:45:34Z</time>
      </trkpt>
      <trkpt lat="45.04359" lon="5.5605">
        <ele>1190.73</ele>
        <time>2014-02-02T14:45:36Z</time>
      </trkpt>
      <trkpt lat="45.04351" lon="5.56054">
        <ele>1195.06</ele>
        <time>2014-02-02T14:45:38Z</time>
      </trkpt>
      <trkpt lat="45.04289" lon="5.56095">
        <ele>1223.9</ele>
        <time>2014-02-02T14:45:54Z</time>
      </trkpt>
      <trkpt lat="45.04282" lon="5.561">
        <ele>1226.78</ele>
        <time>2014-02-02T14:45:56Z</time>
      </trkpt>
      <trkpt lat="45.04278" lon="5.56102">
        <ele>1227.74</ele>
        <time>2014-02-02T14:45:57Z</time>
      </trkpt>
      <trkpt lat="45.04258" lon="5.56115">
        <ele>1236.39</ele>
        <time>2014-02-02T14:46:02Z</time>
      </trkpt>
      <trkpt lat="45.04248" lon="5.5612">
        <ele>1240.24</ele>
        <time>2014-02-02T14:46:04Z</time>
      </trkpt>
      <trkpt lat="45.04212" lon="5.56143">
        <ele>1256.1</ele>
        <time>2014-02-02T14:46:13Z</time>
      </trkpt>
      <trkpt lat="45.04206" lon="5.56149">
        <ele>1260.43</ele>
        <time>2014-02-02T14:46:15Z</time>
      </trkpt>
      <trkpt lat="45.04185" lon="5.56164">
        <ele>1273.4</ele>
        <time>2014-02-02T14:46:21Z</time>
      </trkpt>
      <trkpt lat="45.04178" lon="5.56169">
        <ele>1276.77</ele>
        <time>2014-02-02T14:46:23Z</time>
      </trkpt>
      <trkpt lat="45.04171" lon="5.56174">
        <ele>1281.09</ele>
        <time>2014-02-02T14:46:25Z</time>
      </trkpt>
      <trkpt lat="45.04135" lon="5.562">
        <ele>1301.28</ele>
        <time>2014-02-02T14:46:35Z</time>
      </trkpt>
      <trkpt lat="45.04127" lon="5.56205">
        <ele>1306.09</ele>
        <time>2014-02-02T14:46:37Z</time>
      </trkpt>
      <trkpt lat="45.04118" lon="5.5621">
        <ele>1310.41</ele>
        <time>2014-02-02T14:46:39Z</time>
      </trkpt>
      <trkpt lat="45.0411" lon="5.56216">
        <ele>1315.22</ele>
        <time>2014-02-02T14:46:41Z</time>
      </trkpt>
      <trkpt lat="45.04102" lon="5.56221">
        <ele>1320.03</ele>
        <time>2014-02-02T14:46:43Z</time>
      </trkpt>
      <trkpt lat="45.04093" lon="5.56227">
        <ele>1323.87</ele>
        <time>2014-02-02T14:46:45Z</time>
      </trkpt>
      <trkpt lat="45.04084" lon="5.56233">
        <ele>1328.2</ele>
        <time>2014-02-02T14:46:47Z</time>
      </trkpt>
      <trkpt lat="45.04076" lon="5.56238">
        <ele>1333.97</ele>
        <time>2014-02-02T14:46:49Z</time>
      </trkpt>
      <trkpt lat="45.04068" lon="5.56244">
        <ele>1338.29</ele>
        <time>2014-02-02T14:46:51Z</time>
      </trkpt>
      <trkpt lat="45.04061" lon="5.56248">
        <ele>1343.58</ele>
        <time>2014-02-02T14:46:53Z</time>
      </trkpt>
      <trkpt lat="45.04054" lon="5.56253">
        <ele>1348.39</ele>
        <time>2014-02-02T14:46:55Z</time>
      </trkpt>
      <trkpt lat="45.04045" lon="5.56258">
        <ele>1354.63</ele>
        <time>2014-02-02T14:46:57Z</time>
      </trkpt>
      <trkpt lat="45.04036" lon="5.56263">
        <ele>1358.96</ele>
        <time>2014-02-02T14:46:59Z</time>
      </trkpt>
      <trkpt lat="45.04026" lon="5.56268">
        <ele>1362.33</ele>
        <time>2014-02-02T14:47:01Z</time>
      </trkpt>
      <trkpt lat="45.04017" lon="5.56272">
        <ele>1366.65</ele>
        <time>2014-02-02T14:47:03Z</time>
      </trkpt>
      <trkpt lat="45.04009" lon="5.56276">
        <ele>1370.98</ele>
        <time>2014-02-02T14:47:05Z</time>
      </trkpt>
      <trkpt lat="45.04001" lon="5.56282">
        <ele>1375.3</ele>
        <time>2014-02-02T14:47:07Z</time>
      </trkpt>
      <trkpt lat="45.03992" lon="5.56287">
        <ele>1380.11</ele>
        <time>2014-02-02T14:47:09Z</time>
      </trkpt>
      <trkpt lat="45.03983" lon="5.56292">
        <ele>1384.92</ele>
        <time>2014-02-02T14:47:11Z</time>
      </trkpt>
      <trkpt lat="45.03975" lon="5.56297">
        <ele>1389.72</ele>
        <time>2014-02-02T14:47:13Z</time>
      </trkpt>
      <trkpt lat="45.03906" lon="5.56344">
        <ele>1417.12</ele>
        <time>2014-02-02T14:47:31Z</time>
      </trkpt>
      <trkpt lat="45.03899" lon="5.56349">
        <ele>1420.97</ele>
        <time>2014-02-02T14:47:33Z</time>
      </trkpt>
      <trkpt lat="45.03891" lon="5.56355">
        <ele>1423.85</ele>
        <time>2014-02-02T14:47:35Z</time>
      </trkpt>
      <trkpt lat="45.03883" lon="5.5636">
        <ele>1427.21</ele>
        <time>2014-02-02T14:47:37Z</time>
      </trkpt>
      <trkpt lat="45.0387" lon="5.56368">
        <ele>1432.02</ele>
        <time>2014-02-02T14:47:40Z</time>
      </trkpt>
      <trkpt lat="45.03862" lon="5.56374">
        <ele>1435.87</ele>
        <time>2014-02-02T14:47:42Z</time>
      </trkpt>
      <trkpt lat="45.03848" lon="5.56381">
        <ele>1439.71</ele>
        <time>2014-02-02T14:47:45Z</time>
      </trkpt>
      <trkpt lat="45.03839" lon="5.56386">
        <ele>1443.56</ele>
        <time>2014-02-02T14:47:47Z</time>
      </trkpt>
      <trkpt lat="45.03828" lon="5.56392">
        <ele>1446.92</ele>
        <time>2014-02-02T14:47:49Z</time>
      </trkpt>
      <trkpt lat="45.03803" lon="5.56405">
        <ele>1454.13</ele>
        <time>2014-02-02T14:47:53Z</time>
      </trkpt>
      <trkpt lat="45.03792" lon="5.5641">
        <ele>1458.46</ele>
        <time>2014-02-02T14:47:55Z</time>
      </trkpt>
      <trkpt lat="45.03757" lon="5.56433">
        <ele>1469.03</ele>
        <time>2014-02-02T14:48:03Z</time>
      </trkpt>
      <trkpt lat="45.0372" lon="5.56457">
        <ele>1479.61</ele>
        <time>2014-02-02T14:48:12Z</time>
      </trkpt>
      <trkpt lat="45.03711" lon="5.56463">
        <ele>1482.97</ele>
        <time>2014-02-02T14:48:14Z</time>
      </trkpt>
      <trkpt lat="45.03687" lon="5.56479">
        <ele>1491.62</ele>
        <time>2014-02-02T14:48:20Z</time>
      </trkpt>
      <trkpt lat="45.03639" lon="5.56509">
        <ele>1511.81</ele>
        <time>2014-02-02T14:48:32Z</time>
      </trkpt>
      <trkpt lat="45.0363" lon="5.56515">
        <ele>1515.66</ele>
        <time>2014-02-02T14:48:34Z</time>
      </trkpt>
      <trkpt lat="45.03622" lon="5.5652">
        <ele>1518.54</ele>
        <time>2014-02-02T14:48:36Z</time>
      </trkpt>
      <trkpt lat="45.03614" lon="5.56525">
        <ele>1522.39</ele>
        <time>2014-02-02T14:48:38Z</time>
      </trkpt>
      <trkpt lat="45.03605" lon="5.56531">
        <ele>1526.71</ele>
        <time>2014-02-02T14:48:40Z</time>
      </trkpt>
      <trkpt lat="45.03597" lon="5.56536">
        <ele>1529.59</ele>
        <time>2014-02-02T14:48:42Z</time>
      </trkpt>
      <trkpt lat="45.03589" lon="5.56542">
        <ele>1533.44</ele>
        <time>2014-02-02T14:48:44Z</time>
      </trkpt>
      <trkpt lat="45.03581" lon="5.56546">
        <ele>1536.8</ele>
        <time>2014-02-02T14:48:46Z</time>
      </trkpt>
      <trkpt lat="45.03573" lon="5.56552">
        <ele>1540.65</ele>
        <time>2014-02-02T14:48:48Z</time>
      </trkpt>
      <trkpt lat="45.03565" lon="5.56557">
        <ele>1544.5</ele>
        <time>2014-02-02T14:48:50Z</time>
      </trkpt>
      <trkpt lat="45.03556" lon="5.56563">
        <ele>1547.86</ele>
        <time>2014-02-02T14:48:52Z</time>
      </trkpt>
      <trkpt lat="45.03548" lon="5.56568">
        <ele>1552.19</ele>
        <time>2014-02-02T14:48:54Z</time>
      </trkpt>
      <trkpt lat="45.0354" lon="5.56573">
        <ele>1556.03</ele>
        <time>2014-02-02T14:48:56Z</time>
      </trkpt>
      <trkpt lat="45.03532" lon="5.56578">
        <ele>1560.84</ele>
        <time>2014-02-02T14:48:58Z</time>
      </trkpt>
      <trkpt lat="45.03524" lon="5.56583">
        <ele>1565.16</ele>
        <time>2014-02-02T14:49:00Z</time>
      </trkpt>
      <trkpt lat="45.03491" lon="5.56603">
        <ele>1580.06</ele>
        <time>2014-02-02T14:49:09Z</time>
      </trkpt>
      <trkpt lat="45.0348" lon="5.56611">
        <ele>1583.91</ele>
        <time>2014-02-02T14:49:12Z</time>
      </trkpt>
      <trkpt lat="45.03472" lon="5.56616">
        <ele>1587.27</ele>
        <time>2014-02-02T14:49:14Z</time>
      </trkpt>
      <trkpt lat="45.03454" lon="5.56627">
        <ele>1595.45</ele>
        <time>2014-02-02T14:49:19Z</time>
      </trkpt>
      <trkpt lat="45.03388" lon="5.5667">
        <ele>1624.77</ele>
        <time>2014-02-02T14:49:36Z</time>
      </trkpt>
      <trkpt lat="45.03382" lon="5.56675">
        <ele>1628.61</ele>
        <time>2014-02-02T14:49:38Z</time>
      </trkpt>
      <trkpt lat="45.0337" lon="5.56683">
        <ele>1632.94</ele>
        <time>2014-02-02T14:49:41Z</time>
      </trkpt>
      <trkpt lat="45.03358" lon="5.56691">
        <ele>1636.3</ele>
        <time>2014-02-02T14:49:44Z</time>
      </trkpt>
      <trkpt lat="45.03347" lon="5.56698">
        <ele>1640.63</ele>
        <time>2014-02-02T14:49:47Z</time>
      </trkpt>
      <trkpt lat="45.03335" lon="5.56705">
        <ele>1644.47</ele>
        <time>2014-02-02T14:49:50Z</time>
      </trkpt>
      <trkpt lat="45.03326" lon="5.5671">
        <ele>1647.84</ele>
        <time>2014-02-02T14:49:52Z</time>
      </trkpt>
      <trkpt lat="45.03318" lon="5.56714">
        <ele>1651.2</ele>
        <time>2014-02-02T14:49:54Z</time>
      </trkpt>
      <trkpt lat="45.03307" lon="5.56722">
        <ele>1655.53</ele>
        <time>2014-02-02T14:49:57Z</time>
      </trkpt>
      <trkpt lat="45.03299" lon="5.56727">
        <ele>1659.37</ele>
        <time>2014-02-02T14:49:59Z</time>
      </trkpt>
      <trkpt lat="45.03232" lon="5.56765">
        <ele>1678.6</ele>
        <time>2014-02-02T14:50:15Z</time>
      </trkpt>
      <trkpt lat="45.03223" lon="5.56769">
        <ele>1679.08</ele>
        <time>2014-02-02T14:50:17Z</time>
      </trkpt>
      <trkpt lat="45.03208" lon="5.56779">
        <ele>1681.96</ele>
        <time>2014-02-02T14:50:21Z</time>
      </trkpt>
      <trkpt lat="45.03193" lon="5.56789">
        <ele>1685.81</ele>
        <time>2014-02-02T14:50:25Z</time>
      </trkpt>
      <trkpt lat="45.03173" lon="5.56802">
        <ele>1689.17</ele>
        <time>2014-02-02T14:50:30Z</time>
      </trkpt>
      <trkpt lat="45.03161" lon="5.5681">
        <ele>1692.54</ele>
        <time>2014-02-02T14:50:33Z</time>
      </trkpt>
      <trkpt lat="45.03148" lon="5.56818">
        <ele>1695.42</ele>
        <time>2014-02-02T14:50:36Z</time>
      </trkpt>
      <trkpt lat="45.03136" lon="5.56826">
        <ele>1699.27</ele>
        <time>2014-02-02T14:50:39Z</time>
      </trkpt>
      <trkpt lat="45.03124" lon="5.56834">
        <ele>1702.63</ele>
        <time>2014-02-02T14:50:42Z</time>
      </trkpt>
      <trkpt lat="45.03112" lon="5.56842">
        <ele>1706</ele>
        <time>2014-02-02T14:50:45Z</time>
      </trkpt>
      <trkpt lat="45.03099" lon="5.5685">
        <ele>1709.84</ele>
        <time>2014-02-02T14:50:48Z</time>
      </trkpt>
      <trkpt lat="45.03087" lon="5.56858">
        <ele>1713.69</ele>
        <time>2014-02-02T14:50:51Z</time>
      </trkpt>
      <trkpt lat="45.03075" lon="5.56866">
        <ele>1717.53</ele>
        <time>2014-02-02T14:50:54Z</time>
      </trkpt>
      <trkpt lat="45.03064" lon="5.56874">
        <ele>1721.38</ele>
        <time>2014-02-02T14:50:57Z</time>
      </trkpt>
      <trkpt lat="45.03053" lon="5.56881">
        <ele>1725.7</ele>
        <time>2014-02-02T14:51:00Z</time>
      </trkpt>
      <trkpt lat="45.03017" lon="5.56908">
        <ele>1731.95</ele>
        <time>2014-02-02T14:51:09Z</time>
      </trkpt>
      <trkpt lat="45.03001" lon="5.56919">
        <ele>1735.8</ele>
        <time>2014-02-02T14:51:13Z</time>
      </trkpt>
      <trkpt lat="45.02968" lon="5.56946">
        <ele>1737.72</ele>
        <time>2014-02-02T14:51:59Z</time>
      </trkpt>
      <trkpt lat="45.02971" lon="5.56948">
        <ele>1738.2</ele>
        <time>2014-02-02T14:53:02Z</time>
      </trkpt>
      <trkpt lat="45.02985" lon="5.57074">
        <ele>1718.97</ele>
        <time>2014-02-02T14:55:39Z</time>
      </trkpt>
      <trkpt lat="45.02993" lon="5.57087">
        <ele>1712.73</ele>
        <time>2014-02-02T14:55:44Z</time>
      </trkpt>
      <trkpt lat="45.02999" lon="5.5709">
        <ele>1709.36</ele>
        <time>2014-02-02T14:55:47Z</time>
      </trkpt>
      <trkpt lat="45.03012" lon="5.57108">
        <ele>1702.63</ele>
        <time>2014-02-02T14:56:04Z</time>
      </trkpt>
      <trkpt lat="45.03016" lon="5.57108">
        <ele>1700.71</ele>
        <time>2014-02-02T14:56:05Z</time>
      </trkpt>
      <trkpt lat="45.03036" lon="5.57108">
        <ele>1693.98</ele>
        <time>2014-02-02T14:56:10Z</time>
      </trkpt>
      <trkpt lat="45.0304" lon="5.57111">
        <ele>1693.02</ele>
        <time>2014-02-02T14:56:11Z</time>
      </trkpt>
      <trkpt lat="45.03045" lon="5.57112">
        <ele>1692.06</ele>
        <time>2014-02-02T14:56:12Z</time>
      </trkpt>
      <trkpt lat="45.03049" lon="5.57114">
        <ele>1690.62</ele>
        <time>2014-02-02T14:56:13Z</time>
      </trkpt>
      <trkpt lat="45.03054" lon="5.57116">
        <ele>1691.1</ele>
        <time>2014-02-02T14:56:14Z</time>
      </trkpt>
      <trkpt lat="45.03064" lon="5.57117">
        <ele>1687.25</ele>
        <time>2014-02-02T14:56:16Z</time>
      </trkpt>
      <trkpt lat="45.03068" lon="5.57119">
        <ele>1687.25</ele>
        <time>2014-02-02T14:56:17Z</time>
      </trkpt>
      <trkpt lat="45.03099" lon="5.57123">
        <ele>1681</ele>
        <time>2014-02-02T14:56:23Z</time>
      </trkpt>
      <trkpt lat="45.03104" lon="5.57122">
        <ele>1678.6</ele>
        <time>2014-02-02T14:56:24Z</time>
      </trkpt>
      <trkpt lat="45.03109" lon="5.57122">
        <ele>1677.64</ele>
        <time>2014-02-02T14:56:25Z</time>
      </trkpt>
      <trkpt lat="45.03114" lon="5.57122">
        <ele>1677.64</ele>
        <time>2014-02-02T14:56:26Z</time>
      </trkpt>
      <trkpt lat="45.0312" lon="5.57122">
        <ele>1676.2</ele>
        <time>2014-02-02T14:56:27Z</time>
      </trkpt>
      <trkpt lat="45.03129" lon="5.57119">
        <ele>1673.79</ele>
        <time>2014-02-02T14:56:29Z</time>
      </trkpt>
      <trkpt lat="45.03134" lon="5.57119">
        <ele>1673.79</ele>
        <time>2014-02-02T14:56:30Z</time>
      </trkpt>
      <trkpt lat="45.03139" lon="5.57116">
        <ele>1671.39</ele>
        <time>2014-02-02T14:56:31Z</time>
      </trkpt>
      <trkpt lat="45.03143" lon="5.57116">
        <ele>1668.99</ele>
        <time>2014-02-02T14:56:32Z</time>
      </trkpt>
      <trkpt lat="45.03146" lon="5.57119">
        <ele>1668.99</ele>
        <time>2014-02-02T14:56:33Z</time>
      </trkpt>
      <trkpt lat="45.03161" lon="5.57141">
        <ele>1666.1</ele>
        <time>2014-02-02T14:56:40Z</time>
      </trkpt>
      <trkpt lat="45.03165" lon="5.57148">
        <ele>1665.14</ele>
        <time>2014-02-02T14:56:50Z</time>
      </trkpt>
      <trkpt lat="45.03172" lon="5.57137">
        <ele>1665.14</ele>
        <time>2014-02-02T14:57:10Z</time>
      </trkpt>
      <trkpt lat="45.03188" lon="5.57125">
        <ele>1660.33</ele>
        <time>2014-02-02T14:57:15Z</time>
      </trkpt>
      <trkpt lat="45.03204" lon="5.57121">
        <ele>1655.53</ele>
        <time>2014-02-02T14:57:19Z</time>
      </trkpt>
      <trkpt lat="45.03213" lon="5.57117">
        <ele>1651.68</ele>
        <time>2014-02-02T14:57:21Z</time>
      </trkpt>
      <trkpt lat="45.03245" lon="5.57112">
        <ele>1644.47</ele>
        <time>2014-02-02T14:57:28Z</time>
      </trkpt>
      <trkpt lat="45.03249" lon="5.57112">
        <ele>1644.95</ele>
        <time>2014-02-02T14:57:29Z</time>
      </trkpt>
      <trkpt lat="45.03275" lon="5.57114">
        <ele>1642.07</ele>
        <time>2014-02-02T14:57:35Z</time>
      </trkpt>
      <trkpt lat="45.03291" lon="5.57116">
        <ele>1639.67</ele>
        <time>2014-02-02T14:57:38Z</time>
      </trkpt>
      <trkpt lat="45.03303" lon="5.57119">
        <ele>1637.26</ele>
        <time>2014-02-02T14:57:40Z</time>
      </trkpt>
      <trkpt lat="45.03309" lon="5.5712">
        <ele>1633.9</ele>
        <time>2014-02-02T14:57:41Z</time>
      </trkpt>
      <trkpt lat="45.03316" lon="5.57122">
        <ele>1634.38</ele>
        <time>2014-02-02T14:57:42Z</time>
      </trkpt>
      <trkpt lat="45.03323" lon="5.57124">
        <ele>1631.01</ele>
        <time>2014-02-02T14:57:43Z</time>
      </trkpt>
      <trkpt lat="45.03329" lon="5.57125">
        <ele>1631.01</ele>
        <time>2014-02-02T14:57:44Z</time>
      </trkpt>
      <trkpt lat="45.03335" lon="5.57123">
        <ele>1630.05</ele>
        <time>2014-02-02T14:57:45Z</time>
      </trkpt>
      <trkpt lat="45.03352" lon="5.57119">
        <ele>1628.13</ele>
        <time>2014-02-02T14:57:48Z</time>
      </trkpt>
      <trkpt lat="45.03358" lon="5.57121">
        <ele>1627.65</ele>
        <time>2014-02-02T14:57:49Z</time>
      </trkpt>
      <trkpt lat="45.03376" lon="5.57127">
        <ele>1623.32</ele>
        <time>2014-02-02T14:57:54Z</time>
      </trkpt>
      <trkpt lat="45.03386" lon="5.57138">
        <ele>1620.92</ele>
        <time>2014-02-02T14:58:59Z</time>
      </trkpt>
      <trkpt lat="45.03387" lon="5.57142">
        <ele>1619.48</ele>
        <time>2014-02-02T14:59:00Z</time>
      </trkpt>
      <trkpt lat="45.03392" lon="5.5715">
        <ele>1616.59</ele>
        <time>2014-02-02T14:59:02Z</time>
      </trkpt>
      <trkpt lat="45.03398" lon="5.57161">
        <ele>1611.31</ele>
        <time>2014-02-02T14:59:05Z</time>
      </trkpt>
      <trkpt lat="45.03401" lon="5.57164">
        <ele>1606.98</ele>
        <time>2014-02-02T14:59:11Z</time>
      </trkpt>
      <trkpt lat="45.03402" lon="5.57174">
        <ele>1605.54</ele>
        <time>2014-02-02T14:59:14Z</time>
      </trkpt>
      <trkpt lat="45.03405" lon="5.57187">
        <ele>1602.66</ele>
        <time>2014-02-02T14:59:22Z</time>
      </trkpt>
      <trkpt lat="45.03406" lon="5.57192">
        <ele>1601.21</ele>
        <time>2014-02-02T14:59:23Z</time>
      </trkpt>
      <trkpt lat="45.0341" lon="5.57207">
        <ele>1596.89</ele>
        <time>2014-02-02T14:59:26Z</time>
      </trkpt>
      <trkpt lat="45.03418" lon="5.57211">
        <ele>1594</ele>
        <time>2014-02-02T14:59:38Z</time>
      </trkpt>
      <trkpt lat="45.03423" lon="5.57211">
        <ele>1593.04</ele>
        <time>2014-02-02T14:59:39Z</time>
      </trkpt>
      <trkpt lat="45.03429" lon="5.5721">
        <ele>1591.12</ele>
        <time>2014-02-02T14:59:40Z</time>
      </trkpt>
      <trkpt lat="45.03435" lon="5.57209">
        <ele>1589.2</ele>
        <time>2014-02-02T14:59:41Z</time>
      </trkpt>
      <trkpt lat="45.0344" lon="5.57211">
        <ele>1587.75</ele>
        <time>2014-02-02T14:59:42Z</time>
      </trkpt>
      <trkpt lat="45.03446" lon="5.57212">
        <ele>1588.72</ele>
        <time>2014-02-02T14:59:43Z</time>
      </trkpt>
      <trkpt lat="45.03452" lon="5.57212">
        <ele>1586.31</ele>
        <time>2014-02-02T14:59:44Z</time>
      </trkpt>
      <trkpt lat="45.03458" lon="5.57214">
        <ele>1583.43</ele>
        <time>2014-02-02T14:59:45Z</time>
      </trkpt>
      <trkpt lat="45.03464" lon="5.57217">
        <ele>1583.91</ele>
        <time>2014-02-02T14:59:46Z</time>
      </trkpt>
      <trkpt lat="45.03479" lon="5.5722">
        <ele>1580.06</ele>
        <time>2014-02-02T14:59:48Z</time>
      </trkpt>
      <trkpt lat="45.03487" lon="5.57224">
        <ele>1577.66</ele>
        <time>2014-02-02T14:59:49Z</time>
      </trkpt>
      <trkpt lat="45.03496" lon="5.57229">
        <ele>1576.22</ele>
        <time>2014-02-02T14:59:50Z</time>
      </trkpt>
      <trkpt lat="45.03505" lon="5.57232">
        <ele>1574.78</ele>
        <time>2014-02-02T14:59:51Z</time>
      </trkpt>
      <trkpt lat="45.03514" lon="5.57235">
        <ele>1573.82</ele>
        <time>2014-02-02T14:59:52Z</time>
      </trkpt>
      <trkpt lat="45.0354" lon="5.57241">
        <ele>1569.49</ele>
        <time>2014-02-02T14:59:55Z</time>
      </trkpt>
      <trkpt lat="45.03557" lon="5.57245">
        <ele>1568.53</ele>
        <time>2014-02-02T14:59:57Z</time>
      </trkpt>
      <trkpt lat="45.03579" lon="5.57251">
        <ele>1565.16</ele>
        <time>2014-02-02T15:00:00Z</time>
      </trkpt>
      <trkpt lat="45.03586" lon="5.57253">
        <ele>1565.16</ele>
        <time>2014-02-02T15:00:01Z</time>
      </trkpt>
      <trkpt lat="45.03614" lon="5.57259">
        <ele>1563.72</ele>
        <time>2014-02-02T15:00:05Z</time>
      </trkpt>
      <trkpt lat="45.03635" lon="5.57263">
        <ele>1560.36</ele>
        <time>2014-02-02T15:00:08Z</time>
      </trkpt>
      <trkpt lat="45.03667" lon="5.57267">
        <ele>1556.51</ele>
        <time>2014-02-02T15:00:12Z</time>
      </trkpt>
      <trkpt lat="45.03676" lon="5.57265">
        <ele>1555.07</ele>
        <time>2014-02-02T15:00:13Z</time>
      </trkpt>
      <trkpt lat="45.03684" lon="5.57263">
        <ele>1554.59</ele>
        <time>2014-02-02T15:00:14Z</time>
      </trkpt>
      <trkpt lat="45.03741" lon="5.57213">
        <ele>1542.09</ele>
        <time>2014-02-02T15:00:22Z</time>
      </trkpt>
      <trkpt lat="45.03747" lon="5.57205">
        <ele>1540.17</ele>
        <time>2014-02-02T15:00:23Z</time>
      </trkpt>
      <trkpt lat="45.0376" lon="5.5719">
        <ele>1537.29</ele>
        <time>2014-02-02T15:00:25Z</time>
      </trkpt>
      <trkpt lat="45.03775" lon="5.57177">
        <ele>1535.36</ele>
        <time>2014-02-02T15:00:27Z</time>
      </trkpt>
      <trkpt lat="45.03805" lon="5.57157">
        <ele>1531.04</ele>
        <time>2014-02-02T15:00:31Z</time>
      </trkpt>
      <trkpt lat="45.03859" lon="5.5713">
        <ele>1528.15</ele>
        <time>2014-02-02T15:00:41Z</time>
      </trkpt>
      <trkpt lat="45.0393" lon="5.57092">
        <ele>1523.35</ele>
        <time>2014-02-02T15:01:01Z</time>
      </trkpt>
      <trkpt lat="45.03934" lon="5.5709">
        <ele>1522.39</ele>
        <time>2014-02-02T15:01:03Z</time>
      </trkpt>
      <trkpt lat="45.03934" lon="5.57094">
        <ele>1521.42</ele>
        <time>2014-02-02T15:01:27Z</time>
      </trkpt>
      <trkpt lat="45.03941" lon="5.57078">
        <ele>1521.42</ele>
        <time>2014-02-02T15:02:19Z</time>
      </trkpt>
      <trkpt lat="45.03953" lon="5.57039">
        <ele>1518.54</ele>
        <time>2014-02-02T15:02:27Z</time>
      </trkpt>
      <trkpt lat="45.03955" lon="5.57025">
        <ele>1517.58</ele>
        <time>2014-02-02T15:02:30Z</time>
      </trkpt>
      <trkpt lat="45.03958" lon="5.57019">
        <ele>1517.58</ele>
        <time>2014-02-02T15:02:32Z</time>
      </trkpt>
      <trkpt lat="45.03957" lon="5.57013">
        <ele>1516.14</ele>
        <time>2014-02-02T15:02:34Z</time>
      </trkpt>
      <trkpt lat="45.03954" lon="5.57007">
        <ele>1515.18</ele>
        <time>2014-02-02T15:02:36Z</time>
      </trkpt>
      <trkpt lat="45.0395" lon="5.56997">
        <ele>1514.21</ele>
        <time>2014-02-02T15:02:38Z</time>
      </trkpt>
      <trkpt lat="45.03947" lon="5.56984">
        <ele>1513.25</ele>
        <time>2014-02-02T15:02:40Z</time>
      </trkpt>
      <trkpt lat="45.03943" lon="5.56971">
        <ele>1511.81</ele>
        <time>2014-02-02T15:02:42Z</time>
      </trkpt>
      <trkpt lat="45.03941" lon="5.56964">
        <ele>1511.33</ele>
        <time>2014-02-02T15:02:43Z</time>
      </trkpt>
      <trkpt lat="45.03939" lon="5.56958">
        <ele>1510.85</ele>
        <time>2014-02-02T15:02:44Z</time>
      </trkpt>
      <trkpt lat="45.03938" lon="5.56951">
        <ele>1510.37</ele>
        <time>2014-02-02T15:02:45Z</time>
      </trkpt>
      <trkpt lat="45.03937" lon="5.56943">
        <ele>1509.89</ele>
        <time>2014-02-02T15:02:46Z</time>
      </trkpt>
      <trkpt lat="45.03937" lon="5.56936">
        <ele>1508.93</ele>
        <time>2014-02-02T15:02:47Z</time>
      </trkpt>
      <trkpt lat="45.03937" lon="5.56928">
        <ele>1507.97</ele>
        <time>2014-02-02T15:02:48Z</time>
      </trkpt>
      <trkpt lat="45.03938" lon="5.56921">
        <ele>1507</ele>
        <time>2014-02-02T15:02:49Z</time>
      </trkpt>
      <trkpt lat="45.0394" lon="5.56914">
        <ele>1507.48</ele>
        <time>2014-02-02T15:02:50Z</time>
      </trkpt>
      <trkpt lat="45.03943" lon="5.56906">
        <ele>1507.48</ele>
        <time>2014-02-02T15:02:51Z</time>
      </trkpt>
      <trkpt lat="45.03948" lon="5.56902">
        <ele>1507</ele>
        <time>2014-02-02T15:02:52Z</time>
      </trkpt>
      <trkpt lat="45.03951" lon="5.56896">
        <ele>1505.08</ele>
        <time>2014-02-02T15:02:53Z</time>
      </trkpt>
      <trkpt lat="45.03954" lon="5.56888">
        <ele>1503.16</ele>
        <time>2014-02-02T15:02:54Z</time>
      </trkpt>
      <trkpt lat="45.03957" lon="5.56882">
        <ele>1503.16</ele>
        <time>2014-02-02T15:02:55Z</time>
      </trkpt>
      <trkpt lat="45.03957" lon="5.56875">
        <ele>1502.2</ele>
        <time>2014-02-02T15:02:56Z</time>
      </trkpt>
      <trkpt lat="45.03957" lon="5.56867">
        <ele>1500.76</ele>
        <time>2014-02-02T15:02:57Z</time>
      </trkpt>
      <trkpt lat="45.03955" lon="5.5686">
        <ele>1499.79</ele>
        <time>2014-02-02T15:02:58Z</time>
      </trkpt>
      <trkpt lat="45.03953" lon="5.56853">
        <ele>1498.83</ele>
        <time>2014-02-02T15:02:59Z</time>
      </trkpt>
      <trkpt lat="45.03951" lon="5.56847">
        <ele>1497.87</ele>
        <time>2014-02-02T15:03:00Z</time>
      </trkpt>
      <trkpt lat="45.03948" lon="5.56834">
        <ele>1496.43</ele>
        <time>2014-02-02T15:03:02Z</time>
      </trkpt>
      <trkpt lat="45.03947" lon="5.56829">
        <ele>1496.43</ele>
        <time>2014-02-02T15:03:03Z</time>
      </trkpt>
      <trkpt lat="45.03949" lon="5.56825">
        <ele>1495.95</ele>
        <time>2014-02-02T15:03:10Z</time>
      </trkpt>
      <trkpt lat="45.03953" lon="5.56821">
        <ele>1494.99</ele>
        <time>2014-02-02T15:04:07Z</time>
      </trkpt>
      <trkpt lat="45.03968" lon="5.56824">
        <ele>1492.1</ele>
        <time>2014-02-02T15:04:17Z</time>
      </trkpt>
      <trkpt lat="45.03973" lon="5.5682">
        <ele>1490.18</ele>
        <time>2014-02-02T15:04:21Z</time>
      </trkpt>
      <trkpt lat="45.03978" lon="5.56808">
        <ele>1486.82</ele>
        <time>2014-02-02T15:04:23Z</time>
      </trkpt>
      <trkpt lat="45.0398" lon="5.56793">
        <ele>1483.93</ele>
        <time>2014-02-02T15:04:25Z</time>
      </trkpt>
      <trkpt lat="45.03984" lon="5.56763">
        <ele>1476.24</ele>
        <time>2014-02-02T15:04:29Z</time>
      </trkpt>
      <trkpt lat="45.03979" lon="5.56735">
        <ele>1471.92</ele>
        <time>2014-02-02T15:04:33Z</time>
      </trkpt>
      <trkpt lat="45.03975" lon="5.56707">
        <ele>1469.03</ele>
        <time>2014-02-02T15:04:38Z</time>
      </trkpt>
      <trkpt lat="45.0397" lon="5.56687">
        <ele>1466.63</ele>
        <time>2014-02-02T15:04:42Z</time>
      </trkpt>
      <trkpt lat="45.03958" lon="5.56669">
        <ele>1464.71</ele>
        <time>2014-02-02T15:04:51Z</time>
      </trkpt>
      <trkpt lat="45.0396" lon="5.56637">
        <ele>1458.46</ele>
        <time>2014-02-02T15:04:56Z</time>
      </trkpt>
      <trkpt lat="45.0396" lon="5.5663">
        <ele>1458.46</ele>
        <time>2014-02-02T15:04:57Z</time>
      </trkpt>
      <trkpt lat="45.03959" lon="5.56608">
        <ele>1455.57</ele>
        <time>2014-02-02T15:05:00Z</time>
      </trkpt>
      <trkpt lat="45.03959" lon="5.56601">
        <ele>1452.21</ele>
        <time>2014-02-02T15:05:01Z</time>
      </trkpt>
      <trkpt lat="45.03958" lon="5.56585">
        <ele>1448.36</ele>
        <time>2014-02-02T15:05:03Z</time>
      </trkpt>
      <trkpt lat="45.03958" lon="5.56577">
        <ele>1446.44</ele>
        <time>2014-02-02T15:05:04Z</time>
      </trkpt>
      <trkpt lat="45.03954" lon="5.5655">
        <ele>1441.63</ele>
        <time>2014-02-02T15:05:07Z</time>
      </trkpt>
      <trkpt lat="45.03949" lon="5.56523">
        <ele>1436.35</ele>
        <time>2014-02-02T15:05:10Z</time>
      </trkpt>
      <trkpt lat="45.03946" lon="5.56514">
        <ele>1433.94</ele>
        <time>2014-02-02T15:05:11Z</time>
      </trkpt>
      <trkpt lat="45.03943" lon="5.56497">
        <ele>1431.54</ele>
        <time>2014-02-02T15:05:13Z</time>
      </trkpt>
      <trkpt lat="45.03944" lon="5.56472">
        <ele>1425.77</ele>
        <time>2014-02-02T15:05:16Z</time>
      </trkpt>
      <trkpt lat="45.03937" lon="5.5645">
        <ele>1421.45</ele>
        <time>2014-02-02T15:05:19Z</time>
      </trkpt>
      <trkpt lat="45.03935" lon="5.56443">
        <ele>1420.97</ele>
        <time>2014-02-02T15:05:20Z</time>
      </trkpt>
      <trkpt lat="45.0393" lon="5.56419">
        <ele>1413.76</ele>
        <time>2014-02-02T15:05:23Z</time>
      </trkpt>
      <trkpt lat="45.03925" lon="5.56407">
        <ele>1412.31</ele>
        <time>2014-02-02T15:05:25Z</time>
      </trkpt>
      <trkpt lat="45.03923" lon="5.56404">
        <ele>1409.43</ele>
        <time>2014-02-02T15:05:27Z</time>
      </trkpt>
      <trkpt lat="45.0392" lon="5.56402">
        <ele>1408.47</ele>
        <time>2014-02-02T15:05:42Z</time>
      </trkpt>
      <trkpt lat="45.03916" lon="5.56404">
        <ele>1407.99</ele>
        <time>2014-02-02T15:06:51Z</time>
      </trkpt>
      <trkpt lat="45.03917" lon="5.56387">
        <ele>1404.62</ele>
        <time>2014-02-02T15:06:56Z</time>
      </trkpt>
      <trkpt lat="45.03918" lon="5.56381">
        <ele>1404.62</ele>
        <time>2014-02-02T15:06:57Z</time>
      </trkpt>
      <trkpt lat="45.03916" lon="5.5637">
        <ele>1400.78</ele>
        <time>2014-02-02T15:06:59Z</time>
      </trkpt>
      <trkpt lat="45.03916" lon="5.56364">
        <ele>1401.26</ele>
        <time>2014-02-02T15:07:00Z</time>
      </trkpt>
      <trkpt lat="45.03916" lon="5.56358">
        <ele>1397.41</ele>
        <time>2014-02-02T15:07:01Z</time>
      </trkpt>
      <trkpt lat="45.03918" lon="5.56352">
        <ele>1398.37</ele>
        <time>2014-02-02T15:07:02Z</time>
      </trkpt>
      <trkpt lat="45.03917" lon="5.56341">
        <ele>1394.53</ele>
        <time>2014-02-02T15:07:04Z</time>
      </trkpt>
      <trkpt lat="45.03915" lon="5.56313">
        <ele>1387.32</ele>
        <time>2014-02-02T15:07:08Z</time>
      </trkpt>
      <trkpt lat="45.03914" lon="5.56292">
        <ele>1381.07</ele>
        <time>2014-02-02T15:07:11Z</time>
      </trkpt>
      <trkpt lat="45.03913" lon="5.56284">
        <ele>1379.63</ele>
        <time>2014-02-02T15:07:12Z</time>
      </trkpt>
      <trkpt lat="45.0391" lon="5.56271">
        <ele>1375.3</ele>
        <time>2014-02-02T15:07:14Z</time>
      </trkpt>
      <trkpt lat="45.0391" lon="5.56263">
        <ele>1376.26</ele>
        <time>2014-02-02T15:07:15Z</time>
      </trkpt>
      <trkpt lat="45.03908" lon="5.56255">
        <ele>1372.9</ele>
        <time>2014-02-02T15:07:16Z</time>
      </trkpt>
      <trkpt lat="45.03906" lon="5.56239">
        <ele>1370.98</ele>
        <time>2014-02-02T15:07:18Z</time>
      </trkpt>
      <trkpt lat="45.03905" lon="5.56223">
        <ele>1367.61</ele>
        <time>2014-02-02T15:07:20Z</time>
      </trkpt>
      <trkpt lat="45.03904" lon="5.56192">
        <ele>1360.4</ele>
        <time>2014-02-02T15:07:24Z</time>
      </trkpt>
      <trkpt lat="45.03905" lon="5.56178">
        <ele>1357.04</ele>
        <time>2014-02-02T15:07:26Z</time>
      </trkpt>
      <trkpt lat="45.03906" lon="5.56171">
        <ele>1357.04</ele>
        <time>2014-02-02T15:07:27Z</time>
      </trkpt>
      <trkpt lat="45.03906" lon="5.56159">
        <ele>1353.19</ele>
        <time>2014-02-02T15:07:29Z</time>
      </trkpt>
      <trkpt lat="45.0391" lon="5.56138">
        <ele>1348.87</ele>
        <time>2014-02-02T15:07:32Z</time>
      </trkpt>
      <trkpt lat="45.03915" lon="5.56125">
        <ele>1344.54</ele>
        <time>2014-02-02T15:07:34Z</time>
      </trkpt>
      <trkpt lat="45.03918" lon="5.5612">
        <ele>1344.06</ele>
        <time>2014-02-02T15:07:35Z</time>
      </trkpt>
      <trkpt lat="45.03921" lon="5.56114">
        <ele>1341.66</ele>
        <time>2014-02-02T15:07:36Z</time>
      </trkpt>
      <trkpt lat="45.03925" lon="5.5611">
        <ele>1339.25</ele>
        <time>2014-02-02T15:07:37Z</time>
      </trkpt>
      <trkpt lat="45.03928" lon="5.56107">
        <ele>1339.25</ele>
        <time>2014-02-02T15:07:38Z</time>
      </trkpt>
      <trkpt lat="45.03931" lon="5.56102">
        <ele>1335.89</ele>
        <time>2014-02-02T15:07:39Z</time>
      </trkpt>
      <trkpt lat="45.03934" lon="5.56098">
        <ele>1333.49</ele>
        <time>2014-02-02T15:07:40Z</time>
      </trkpt>
      <trkpt lat="45.03938" lon="5.56096">
        <ele>1333.49</ele>
        <time>2014-02-02T15:07:41Z</time>
      </trkpt>
      <trkpt lat="45.03942" lon="5.56093">
        <ele>1330.6</ele>
        <time>2014-02-02T15:07:42Z</time>
      </trkpt>
      <trkpt lat="45.03946" lon="5.56094">
        <ele>1328.68</ele>
        <time>2014-02-02T15:07:43Z</time>
      </trkpt>
      <trkpt lat="45.03949" lon="5.56095">
        <ele>1328.68</ele>
        <time>2014-02-02T15:07:44Z</time>
      </trkpt>
      <trkpt lat="45.03953" lon="5.56092">
        <ele>1325.31</ele>
        <time>2014-02-02T15:07:45Z</time>
      </trkpt>
      <trkpt lat="45.03956" lon="5.56088">
        <ele>1322.91</ele>
        <time>2014-02-02T15:07:46Z</time>
      </trkpt>
      <trkpt lat="45.03959" lon="5.56087">
        <ele>1321.47</ele>
        <time>2014-02-02T15:07:47Z</time>
      </trkpt>
      <trkpt lat="45.03962" lon="5.56089">
        <ele>1319.55</ele>
        <time>2014-02-02T15:07:48Z</time>
      </trkpt>
      <trkpt lat="45.03966" lon="5.5609">
        <ele>1319.07</ele>
        <time>2014-02-02T15:07:49Z</time>
      </trkpt>
      <trkpt lat="45.03969" lon="5.56088">
        <ele>1316.66</ele>
        <time>2014-02-02T15:07:50Z</time>
      </trkpt>
      <trkpt lat="45.03972" lon="5.56086">
        <ele>1314.74</ele>
        <time>2014-02-02T15:07:51Z</time>
      </trkpt>
      <trkpt lat="45.03973" lon="5.56082">
        <ele>1311.38</ele>
        <time>2014-02-02T15:07:54Z</time>
      </trkpt>
      <trkpt lat="45.03975" lon="5.5609">
        <ele>1312.82</ele>
        <time>2014-02-02T15:08:42Z</time>
      </trkpt>
      <trkpt lat="45.03979" lon="5.56087">
        <ele>1311.38</ele>
        <time>2014-02-02T15:09:04Z</time>
      </trkpt>
      <trkpt lat="45.03984" lon="5.56089">
        <ele>1309.45</ele>
        <time>2014-02-02T15:09:06Z</time>
      </trkpt>
      <trkpt lat="45.03988" lon="5.56088">
        <ele>1309.45</ele>
        <time>2014-02-02T15:09:07Z</time>
      </trkpt>
      <trkpt lat="45.03991" lon="5.5609">
        <ele>1308.01</ele>
        <time>2014-02-02T15:09:08Z</time>
      </trkpt>
      <trkpt lat="45.03995" lon="5.56092">
        <ele>1306.57</ele>
        <time>2014-02-02T15:09:09Z</time>
      </trkpt>
      <trkpt lat="45.04" lon="5.56092">
        <ele>1305.13</ele>
        <time>2014-02-02T15:09:10Z</time>
      </trkpt>
      <trkpt lat="45.04005" lon="5.56092">
        <ele>1302.72</ele>
        <time>2014-02-02T15:09:11Z</time>
      </trkpt>
      <trkpt lat="45.04011" lon="5.56093">
        <ele>1301.28</ele>
        <time>2014-02-02T15:09:12Z</time>
      </trkpt>
      <trkpt lat="45.04016" lon="5.56093">
        <ele>1298.4</ele>
        <time>2014-02-02T15:09:13Z</time>
      </trkpt>
      <trkpt lat="45.04022" lon="5.56093">
        <ele>1296.48</ele>
        <time>2014-02-02T15:09:14Z</time>
      </trkpt>
      <trkpt lat="45.04028" lon="5.56093">
        <ele>1295.51</ele>
        <time>2014-02-02T15:09:15Z</time>
      </trkpt>
      <trkpt lat="45.04033" lon="5.56094">
        <ele>1292.63</ele>
        <time>2014-02-02T15:09:16Z</time>
      </trkpt>
      <trkpt lat="45.04039" lon="5.56096">
        <ele>1291.67</ele>
        <time>2014-02-02T15:09:17Z</time>
      </trkpt>
      <trkpt lat="45.04045" lon="5.56098">
        <ele>1289.75</ele>
        <time>2014-02-02T15:09:18Z</time>
      </trkpt>
      <trkpt lat="45.0405" lon="5.56098">
        <ele>1289.27</ele>
        <time>2014-02-02T15:09:19Z</time>
      </trkpt>
      <trkpt lat="45.04055" lon="5.56098">
        <ele>1286.86</ele>
        <time>2014-02-02T15:09:20Z</time>
      </trkpt>
      <trkpt lat="45.0406" lon="5.56097">
        <ele>1285.42</ele>
        <time>2014-02-02T15:09:21Z</time>
      </trkpt>
      <trkpt lat="45.04066" lon="5.56096">
        <ele>1284.46</ele>
        <time>2014-02-02T15:09:22Z</time>
      </trkpt>
      <trkpt lat="45.04071" lon="5.56092">
        <ele>1282.54</ele>
        <time>2014-02-02T15:09:23Z</time>
      </trkpt>
      <trkpt lat="45.04076" lon="5.56091">
        <ele>1281.09</ele>
        <time>2014-02-02T15:09:24Z</time>
      </trkpt>
      <trkpt lat="45.04081" lon="5.56094">
        <ele>1279.17</ele>
        <time>2014-02-02T15:09:25Z</time>
      </trkpt>
      <trkpt lat="45.04084" lon="5.561">
        <ele>1278.21</ele>
        <time>2014-02-02T15:09:26Z</time>
      </trkpt>
      <trkpt lat="45.04087" lon="5.56106">
        <ele>1278.21</ele>
        <time>2014-02-02T15:09:27Z</time>
      </trkpt>
      <trkpt lat="45.04089" lon="5.56112">
        <ele>1277.25</ele>
        <time>2014-02-02T15:09:28Z</time>
      </trkpt>
      <trkpt lat="45.04093" lon="5.56114">
        <ele>1275.81</ele>
        <time>2014-02-02T15:09:29Z</time>
      </trkpt>
      <trkpt lat="45.04097" lon="5.56115">
        <ele>1274.36</ele>
        <time>2014-02-02T15:09:30Z</time>
      </trkpt>
      <trkpt lat="45.04102" lon="5.56125">
        <ele>1272.92</ele>
        <time>2014-02-02T15:09:46Z</time>
      </trkpt>
      <trkpt lat="45.04104" lon="5.5612">
        <ele>1272.44</ele>
        <time>2014-02-02T15:10:12Z</time>
      </trkpt>
      <trkpt lat="45.04108" lon="5.56119">
        <ele>1271.48</ele>
        <time>2014-02-02T15:10:13Z</time>
      </trkpt>
      <trkpt lat="45.04112" lon="5.56121">
        <ele>1271.48</ele>
        <time>2014-02-02T15:10:14Z</time>
      </trkpt>
      <trkpt lat="45.04116" lon="5.56121">
        <ele>1270.04</ele>
        <time>2014-02-02T15:10:15Z</time>
      </trkpt>
      <trkpt lat="45.04121" lon="5.5612">
        <ele>1267.64</ele>
        <time>2014-02-02T15:10:16Z</time>
      </trkpt>
      <trkpt lat="45.04125" lon="5.56122">
        <ele>1267.16</ele>
        <time>2014-02-02T15:10:17Z</time>
      </trkpt>
      <trkpt lat="45.04129" lon="5.56126">
        <ele>1264.75</ele>
        <time>2014-02-02T15:10:18Z</time>
      </trkpt>
      <trkpt lat="45.04133" lon="5.56127">
        <ele>1264.75</ele>
        <time>2014-02-02T15:10:19Z</time>
      </trkpt>
      <trkpt lat="45.04138" lon="5.56127">
        <ele>1264.75</ele>
        <time>2014-02-02T15:10:20Z</time>
      </trkpt>
      <trkpt lat="45.04142" lon="5.56128">
        <ele>1262.35</ele>
        <time>2014-02-02T15:10:21Z</time>
      </trkpt>
      <trkpt lat="45.04145" lon="5.5613">
        <ele>1261.39</ele>
        <time>2014-02-02T15:10:22Z</time>
      </trkpt>
      <trkpt lat="45.0415" lon="5.56131">
        <ele>1260.43</ele>
        <time>2014-02-02T15:10:23Z</time>
      </trkpt>
      <trkpt lat="45.04154" lon="5.5613">
        <ele>1258.5</ele>
        <time>2014-02-02T15:10:24Z</time>
      </trkpt>
      <trkpt lat="45.04159" lon="5.56131">
        <ele>1257.06</ele>
        <time>2014-02-02T15:10:25Z</time>
      </trkpt>
      <trkpt lat="45.04163" lon="5.56131">
        <ele>1256.58</ele>
        <time>2014-02-02T15:10:26Z</time>
      </trkpt>
      <trkpt lat="45.04167" lon="5.5613">
        <ele>1254.18</ele>
        <time>2014-02-02T15:10:27Z</time>
      </trkpt>
      <trkpt lat="45.04171" lon="5.56132">
        <ele>1254.18</ele>
        <time>2014-02-02T15:10:28Z</time>
      </trkpt>
      <trkpt lat="45.04182" lon="5.56144">
        <ele>1250.81</ele>
        <time>2014-02-02T15:10:31Z</time>
      </trkpt>
      <trkpt lat="45.04192" lon="5.56143">
        <ele>1247.93</ele>
        <time>2014-02-02T15:10:33Z</time>
      </trkpt>
      <trkpt lat="45.04197" lon="5.56143">
        <ele>1246.97</ele>
        <time>2014-02-02T15:10:34Z</time>
      </trkpt>
      <trkpt lat="45.04201" lon="5.56141">
        <ele>1245.04</ele>
        <time>2014-02-02T15:10:35Z</time>
      </trkpt>
      <trkpt lat="45.0421" lon="5.56134">
        <ele>1240.24</ele>
        <time>2014-02-02T15:10:37Z</time>
      </trkpt>
      <trkpt lat="45.04214" lon="5.56131">
        <ele>1240.24</ele>
        <time>2014-02-02T15:10:38Z</time>
      </trkpt>
      <trkpt lat="45.0422" lon="5.56126">
        <ele>1234.95</ele>
        <time>2014-02-02T15:10:40Z</time>
      </trkpt>
      <trkpt lat="45.04229" lon="5.56124">
        <ele>1231.59</ele>
        <time>2014-02-02T15:10:42Z</time>
      </trkpt>
      <trkpt lat="45.04238" lon="5.5612">
        <ele>1227.26</ele>
        <time>2014-02-02T15:10:44Z</time>
      </trkpt>
      <trkpt lat="45.04242" lon="5.56116">
        <ele>1225.82</ele>
        <time>2014-02-02T15:10:45Z</time>
      </trkpt>
      <trkpt lat="45.04246" lon="5.56112">
        <ele>1222.93</ele>
        <time>2014-02-02T15:10:46Z</time>
      </trkpt>
      <trkpt lat="45.04249" lon="5.56106">
        <ele>1221.97</ele>
        <time>2014-02-02T15:10:47Z</time>
      </trkpt>
      <trkpt lat="45.04253" lon="5.561">
        <ele>1218.13</ele>
        <time>2014-02-02T15:10:48Z</time>
      </trkpt>
      <trkpt lat="45.04259" lon="5.56096">
        <ele>1218.13</ele>
        <time>2014-02-02T15:10:49Z</time>
      </trkpt>
      <trkpt lat="45.04264" lon="5.56095">
        <ele>1213.8</ele>
        <time>2014-02-02T15:10:50Z</time>
      </trkpt>
      <trkpt lat="45.0427" lon="5.56092">
        <ele>1213.32</ele>
        <time>2014-02-02T15:10:51Z</time>
      </trkpt>
      <trkpt lat="45.04276" lon="5.5609">
        <ele>1210.92</ele>
        <time>2014-02-02T15:10:52Z</time>
      </trkpt>
      <trkpt lat="45.04289" lon="5.56087">
        <ele>1205.15</ele>
        <time>2014-02-02T15:10:54Z</time>
      </trkpt>
      <trkpt lat="45.04306" lon="5.5609">
        <ele>1202.75</ele>
        <time>2014-02-02T15:10:57Z</time>
      </trkpt>
      <trkpt lat="45.0431" lon="5.56091">
        <ele>1200.82</ele>
        <time>2014-02-02T15:10:58Z</time>
      </trkpt>
      <trkpt lat="45.04313" lon="5.56092">
        <ele>1199.38</ele>
        <time>2014-02-02T15:11:00Z</time>
      </trkpt>
      <trkpt lat="45.04315" lon="5.56083">
        <ele>1198.9</ele>
        <time>2014-02-02T15:11:10Z</time>
      </trkpt>
      <trkpt lat="45.04331" lon="5.56083">
        <ele>1195.54</ele>
        <time>2014-02-02T15:11:28Z</time>
      </trkpt>
      <trkpt lat="45.0434" lon="5.56079">
        <ele>1191.21</ele>
        <time>2014-02-02T15:11:30Z</time>
      </trkpt>
      <trkpt lat="45.04345" lon="5.56078">
        <ele>1191.69</ele>
        <time>2014-02-02T15:11:31Z</time>
      </trkpt>
      <trkpt lat="45.0435" lon="5.56076">
        <ele>1187.37</ele>
        <time>2014-02-02T15:11:32Z</time>
      </trkpt>
      <trkpt lat="45.04364" lon="5.56071">
        <ele>1181.6</ele>
        <time>2014-02-02T15:11:35Z</time>
      </trkpt>
      <trkpt lat="45.04374" lon="5.56064">
        <ele>1177.75</ele>
        <time>2014-02-02T15:11:37Z</time>
      </trkpt>
      <trkpt lat="45.04379" lon="5.5606">
        <ele>1177.75</ele>
        <time>2014-02-02T15:11:38Z</time>
      </trkpt>
      <trkpt lat="45.04383" lon="5.56054">
        <ele>1173.91</ele>
        <time>2014-02-02T15:11:39Z</time>
      </trkpt>
      <trkpt lat="45.04395" lon="5.56053">
        <ele>1170.54</ele>
        <time>2014-02-02T15:11:41Z</time>
      </trkpt>
      <trkpt lat="45.04428" lon="5.56044">
        <ele>1161.89</ele>
        <time>2014-02-02T15:11:46Z</time>
      </trkpt>
      <trkpt lat="45.04455" lon="5.56026">
        <ele>1158.05</ele>
        <time>2014-02-02T15:11:50Z</time>
      </trkpt>
      <trkpt lat="45.04474" lon="5.56014">
        <ele>1156.12</ele>
        <time>2014-02-02T15:11:54Z</time>
      </trkpt>
      <trkpt lat="45.04481" lon="5.56012">
        <ele>1155.64</ele>
        <time>2014-02-02T15:11:56Z</time>
      </trkpt>
      <trkpt lat="45.04494" lon="5.55999">
        <ele>1153.72</ele>
        <time>2014-02-02T15:12:01Z</time>
      </trkpt>
      <trkpt lat="45.04499" lon="5.55994">
        <ele>1153.72</ele>
        <time>2014-02-02T15:12:09Z</time>
      </trkpt>
    </trkseg>
  </trk>
</gpx>